<?xml version="1.0" encoding="UTF-8" standalone="no" ?>
<gpx xmlns="http://www.topografix.com/GPX/1/1" xmlns:xsi="http://www.w3.org/2001/XMLSchema-instance" xsi:schemaLocation="http://www.topografix.com/GPX/1/1 http://www.topografix.com/GPX/1/1/gpx.xsd" version="1.1" creator="VisuGPX - https://www.visugpx.com">
  <metadata>
    <name>LGT : Saint-Gelven</name>
    <desc><![CDATA[Un circuit d'environ 11 km au départ de Bon repos, en direction de Tregnanton. Après avoir suivi le canal jusqu'à l'écluse de Bellevue, vous emprunterez la lande pour rejoindre la voie verte jusqu'à la gare. Vous reviendrez alors en frôlant Tregnanton et en suivant des chemins de campagne qui vous ramèneront sur la voie verte. Il ne vous restera plus qu'à la suivre jusqu'à Bon Repos.]]></desc>
  </metadata>
  <trk>
    <name><![CDATA[LGT : Saint-Gelven_1]]></name>
    <trkseg>
      <trkpt lat="48.21337" lon="-3.1281">
        <ele>247</ele>
        <time>2016-03-07T13:31:18Z</time>
      </trkpt>
      <trkpt lat="48.21335" lon="-3.12814">
        <ele>247</ele>
        <time>2016-03-07T13:31:20Z</time>
      </trkpt>
      <trkpt lat="48.21334" lon="-3.12816">
        <ele>247</ele>
        <time>2016-03-07T13:31:23Z</time>
      </trkpt>
      <trkpt lat="48.21333" lon="-3.12817">
        <ele>247</ele>
        <time>2016-03-07T13:31:26Z</time>
      </trkpt>
      <trkpt lat="48.2133" lon="-3.1282">
        <ele>246</ele>
        <time>2016-03-07T13:31:29Z</time>
      </trkpt>
      <trkpt lat="48.21328" lon="-3.12823">
        <ele>246</ele>
        <time>2016-03-07T13:31:32Z</time>
      </trkpt>
      <trkpt lat="48.21327" lon="-3.12823">
        <ele>246</ele>
        <time>2016-03-07T13:31:34Z</time>
      </trkpt>
      <trkpt lat="48.21325" lon="-3.12825">
        <ele>246</ele>
        <time>2016-03-07T13:31:37Z</time>
      </trkpt>
      <trkpt lat="48.21323" lon="-3.12828">
        <ele>246</ele>
        <time>2016-03-07T13:31:40Z</time>
      </trkpt>
      <trkpt lat="48.21321" lon="-3.12831">
        <ele>246</ele>
        <time>2016-03-07T13:31:43Z</time>
      </trkpt>
      <trkpt lat="48.21318" lon="-3.12833">
        <ele>246</ele>
        <time>2016-03-07T13:31:46Z</time>
      </trkpt>
      <trkpt lat="48.21316" lon="-3.12835">
        <ele>246</ele>
        <time>2016-03-07T13:31:48Z</time>
      </trkpt>
      <trkpt lat="48.21315" lon="-3.12835">
        <ele>247</ele>
        <time>2016-03-07T13:31:52Z</time>
      </trkpt>
      <trkpt lat="48.21315" lon="-3.12834">
        <ele>247</ele>
        <time>2016-03-07T13:31:55Z</time>
      </trkpt>
      <trkpt lat="48.21314" lon="-3.12835">
        <ele>246</ele>
        <time>2016-03-07T13:31:58Z</time>
      </trkpt>
      <trkpt lat="48.21312" lon="-3.12836">
        <ele>247</ele>
        <time>2016-03-07T13:32:00Z</time>
      </trkpt>
      <trkpt lat="48.21309" lon="-3.12838">
        <ele>247</ele>
        <time>2016-03-07T13:32:03Z</time>
      </trkpt>
      <trkpt lat="48.21307" lon="-3.12839">
        <ele>247</ele>
        <time>2016-03-07T13:32:05Z</time>
      </trkpt>
      <trkpt lat="48.21304" lon="-3.12841">
        <ele>247</ele>
        <time>2016-03-07T13:32:08Z</time>
      </trkpt>
      <trkpt lat="48.21301" lon="-3.12842">
        <ele>247</ele>
        <time>2016-03-07T13:32:10Z</time>
      </trkpt>
      <trkpt lat="48.21297" lon="-3.12843">
        <ele>247</ele>
        <time>2016-03-07T13:32:13Z</time>
      </trkpt>
      <trkpt lat="48.21292" lon="-3.12845">
        <ele>246</ele>
        <time>2016-03-07T13:32:16Z</time>
      </trkpt>
      <trkpt lat="48.2129" lon="-3.12847">
        <ele>246</ele>
        <time>2016-03-07T13:32:18Z</time>
      </trkpt>
      <trkpt lat="48.21286" lon="-3.1285">
        <ele>246</ele>
        <time>2016-03-07T13:32:21Z</time>
      </trkpt>
      <trkpt lat="48.21284" lon="-3.12853">
        <ele>246</ele>
        <time>2016-03-07T13:32:23Z</time>
      </trkpt>
      <trkpt lat="48.21281" lon="-3.12856">
        <ele>246</ele>
        <time>2016-03-07T13:32:26Z</time>
      </trkpt>
      <trkpt lat="48.21277" lon="-3.12859">
        <ele>247</ele>
        <time>2016-03-07T13:32:29Z</time>
      </trkpt>
      <trkpt lat="48.21275" lon="-3.12861">
        <ele>247</ele>
        <time>2016-03-07T13:32:31Z</time>
      </trkpt>
      <trkpt lat="48.21273" lon="-3.12863">
        <ele>247</ele>
        <time>2016-03-07T13:32:33Z</time>
      </trkpt>
      <trkpt lat="48.2127" lon="-3.12867">
        <ele>247</ele>
        <time>2016-03-07T13:32:36Z</time>
      </trkpt>
      <trkpt lat="48.21268" lon="-3.1287">
        <ele>246</ele>
        <time>2016-03-07T13:32:38Z</time>
      </trkpt>
      <trkpt lat="48.21265" lon="-3.12872">
        <ele>247</ele>
        <time>2016-03-07T13:32:40Z</time>
      </trkpt>
      <trkpt lat="48.21262" lon="-3.12876">
        <ele>247</ele>
        <time>2016-03-07T13:32:43Z</time>
      </trkpt>
      <trkpt lat="48.2126" lon="-3.12878">
        <ele>247</ele>
        <time>2016-03-07T13:32:45Z</time>
      </trkpt>
      <trkpt lat="48.21258" lon="-3.12882">
        <ele>246</ele>
        <time>2016-03-07T13:32:48Z</time>
      </trkpt>
      <trkpt lat="48.21257" lon="-3.12885">
        <ele>246</ele>
        <time>2016-03-07T13:32:50Z</time>
      </trkpt>
      <trkpt lat="48.21254" lon="-3.1289">
        <ele>246</ele>
        <time>2016-03-07T13:32:53Z</time>
      </trkpt>
      <trkpt lat="48.21252" lon="-3.12893">
        <ele>247</ele>
        <time>2016-03-07T13:32:56Z</time>
      </trkpt>
      <trkpt lat="48.21251" lon="-3.12895">
        <ele>247</ele>
        <time>2016-03-07T13:32:58Z</time>
      </trkpt>
      <trkpt lat="48.21249" lon="-3.129">
        <ele>247</ele>
        <time>2016-03-07T13:33:01Z</time>
      </trkpt>
      <trkpt lat="48.21247" lon="-3.12904">
        <ele>247</ele>
        <time>2016-03-07T13:33:04Z</time>
      </trkpt>
      <trkpt lat="48.21246" lon="-3.12907">
        <ele>247</ele>
        <time>2016-03-07T13:33:06Z</time>
      </trkpt>
      <trkpt lat="48.21244" lon="-3.12912">
        <ele>247</ele>
        <time>2016-03-07T13:33:09Z</time>
      </trkpt>
      <trkpt lat="48.21241" lon="-3.12916">
        <ele>247</ele>
        <time>2016-03-07T13:33:12Z</time>
      </trkpt>
      <trkpt lat="48.2124" lon="-3.12919">
        <ele>247</ele>
        <time>2016-03-07T13:33:14Z</time>
      </trkpt>
      <trkpt lat="48.21238" lon="-3.12924">
        <ele>247</ele>
        <time>2016-03-07T13:33:17Z</time>
      </trkpt>
      <trkpt lat="48.21237" lon="-3.12927">
        <ele>247</ele>
        <time>2016-03-07T13:33:19Z</time>
      </trkpt>
      <trkpt lat="48.21235" lon="-3.12932">
        <ele>247</ele>
        <time>2016-03-07T13:33:22Z</time>
      </trkpt>
      <trkpt lat="48.21234" lon="-3.12935">
        <ele>247</ele>
        <time>2016-03-07T13:33:24Z</time>
      </trkpt>
      <trkpt lat="48.21232" lon="-3.12938">
        <ele>247</ele>
        <time>2016-03-07T13:33:27Z</time>
      </trkpt>
      <trkpt lat="48.21231" lon="-3.12937">
        <ele>247</ele>
        <time>2016-03-07T13:33:29Z</time>
      </trkpt>
      <trkpt lat="48.2123" lon="-3.12935">
        <ele>247</ele>
        <time>2016-03-07T13:33:32Z</time>
      </trkpt>
      <trkpt lat="48.21228" lon="-3.12932">
        <ele>247</ele>
        <time>2016-03-07T13:33:35Z</time>
      </trkpt>
      <trkpt lat="48.21225" lon="-3.1293">
        <ele>247</ele>
        <time>2016-03-07T13:33:38Z</time>
      </trkpt>
      <trkpt lat="48.21223" lon="-3.12927">
        <ele>247</ele>
        <time>2016-03-07T13:33:41Z</time>
      </trkpt>
      <trkpt lat="48.21222" lon="-3.12925">
        <ele>247</ele>
        <time>2016-03-07T13:33:43Z</time>
      </trkpt>
      <trkpt lat="48.2122" lon="-3.12924">
        <ele>247</ele>
        <time>2016-03-07T13:33:45Z</time>
      </trkpt>
      <trkpt lat="48.21219" lon="-3.12921">
        <ele>247</ele>
        <time>2016-03-07T13:33:48Z</time>
      </trkpt>
      <trkpt lat="48.21217" lon="-3.12918">
        <ele>247</ele>
        <time>2016-03-07T13:33:51Z</time>
      </trkpt>
      <trkpt lat="48.21216" lon="-3.12916">
        <ele>246</ele>
        <time>2016-03-07T13:33:53Z</time>
      </trkpt>
      <trkpt lat="48.21215" lon="-3.12913">
        <ele>246</ele>
        <time>2016-03-07T13:33:56Z</time>
      </trkpt>
      <trkpt lat="48.21215" lon="-3.12913">
        <ele>246</ele>
        <time>2016-03-07T13:33:58Z</time>
      </trkpt>
      <trkpt lat="48.21214" lon="-3.12912">
        <ele>246</ele>
        <time>2016-03-07T13:34:01Z</time>
      </trkpt>
      <trkpt lat="48.21213" lon="-3.12911">
        <ele>247</ele>
        <time>2016-03-07T13:34:03Z</time>
      </trkpt>
      <trkpt lat="48.21211" lon="-3.1291">
        <ele>246</ele>
        <time>2016-03-07T13:34:06Z</time>
      </trkpt>
      <trkpt lat="48.2121" lon="-3.12913">
        <ele>246</ele>
        <time>2016-03-07T13:34:09Z</time>
      </trkpt>
      <trkpt lat="48.21211" lon="-3.12914">
        <ele>246</ele>
        <time>2016-03-07T13:34:12Z</time>
      </trkpt>
      <trkpt lat="48.2121" lon="-3.12914">
        <ele>246</ele>
        <time>2016-03-07T13:34:14Z</time>
      </trkpt>
      <trkpt lat="48.21209" lon="-3.12912">
        <ele>246</ele>
        <time>2016-03-07T13:34:17Z</time>
      </trkpt>
      <trkpt lat="48.21207" lon="-3.12911">
        <ele>246</ele>
        <time>2016-03-07T13:34:19Z</time>
      </trkpt>
      <trkpt lat="48.21206" lon="-3.12911">
        <ele>246</ele>
        <time>2016-03-07T13:34:22Z</time>
      </trkpt>
      <trkpt lat="48.21206" lon="-3.12911">
        <ele>246</ele>
        <time>2016-03-07T13:34:25Z</time>
      </trkpt>
      <trkpt lat="48.21206" lon="-3.1291">
        <ele>246</ele>
        <time>2016-03-07T13:34:28Z</time>
      </trkpt>
      <trkpt lat="48.21206" lon="-3.1291">
        <ele>246</ele>
        <time>2016-03-07T13:34:30Z</time>
      </trkpt>
      <trkpt lat="48.21205" lon="-3.12909">
        <ele>246</ele>
        <time>2016-03-07T13:34:33Z</time>
      </trkpt>
      <trkpt lat="48.21204" lon="-3.12908">
        <ele>246</ele>
        <time>2016-03-07T13:34:35Z</time>
      </trkpt>
      <trkpt lat="48.21202" lon="-3.12906">
        <ele>246</ele>
        <time>2016-03-07T13:34:38Z</time>
      </trkpt>
      <trkpt lat="48.212" lon="-3.12904">
        <ele>246</ele>
        <time>2016-03-07T13:34:40Z</time>
      </trkpt>
      <trkpt lat="48.21198" lon="-3.12901">
        <ele>246</ele>
        <time>2016-03-07T13:34:43Z</time>
      </trkpt>
      <trkpt lat="48.21195" lon="-3.129">
        <ele>245</ele>
        <time>2016-03-07T13:34:45Z</time>
      </trkpt>
      <trkpt lat="48.21193" lon="-3.12899">
        <ele>245</ele>
        <time>2016-03-07T13:34:47Z</time>
      </trkpt>
      <trkpt lat="48.21189" lon="-3.12899">
        <ele>245</ele>
        <time>2016-03-07T13:34:50Z</time>
      </trkpt>
      <trkpt lat="48.21187" lon="-3.12899">
        <ele>245</ele>
        <time>2016-03-07T13:34:52Z</time>
      </trkpt>
      <trkpt lat="48.21184" lon="-3.12898">
        <ele>245</ele>
        <time>2016-03-07T13:34:55Z</time>
      </trkpt>
      <trkpt lat="48.21183" lon="-3.12897">
        <ele>245</ele>
        <time>2016-03-07T13:34:57Z</time>
      </trkpt>
      <trkpt lat="48.21182" lon="-3.12897">
        <ele>246</ele>
        <time>2016-03-07T13:35:00Z</time>
      </trkpt>
      <trkpt lat="48.21178" lon="-3.12899">
        <ele>246</ele>
        <time>2016-03-07T13:35:03Z</time>
      </trkpt>
      <trkpt lat="48.21176" lon="-3.12899">
        <ele>246</ele>
        <time>2016-03-07T13:35:05Z</time>
      </trkpt>
      <trkpt lat="48.21171" lon="-3.12899">
        <ele>245</ele>
        <time>2016-03-07T13:35:08Z</time>
      </trkpt>
      <trkpt lat="48.21169" lon="-3.12899">
        <ele>245</ele>
        <time>2016-03-07T13:35:10Z</time>
      </trkpt>
      <trkpt lat="48.21165" lon="-3.12896">
        <ele>245</ele>
        <time>2016-03-07T13:35:13Z</time>
      </trkpt>
      <trkpt lat="48.21162" lon="-3.12894">
        <ele>245</ele>
        <time>2016-03-07T13:35:16Z</time>
      </trkpt>
      <trkpt lat="48.21159" lon="-3.12891">
        <ele>245</ele>
        <time>2016-03-07T13:35:18Z</time>
      </trkpt>
      <trkpt lat="48.21156" lon="-3.12889">
        <ele>245</ele>
        <time>2016-03-07T13:35:21Z</time>
      </trkpt>
      <trkpt lat="48.21154" lon="-3.12887">
        <ele>244</ele>
        <time>2016-03-07T13:35:23Z</time>
      </trkpt>
      <trkpt lat="48.21152" lon="-3.12883">
        <ele>244</ele>
        <time>2016-03-07T13:35:26Z</time>
      </trkpt>
      <trkpt lat="48.21149" lon="-3.12881">
        <ele>245</ele>
        <time>2016-03-07T13:35:29Z</time>
      </trkpt>
      <trkpt lat="48.21147" lon="-3.12879">
        <ele>245</ele>
        <time>2016-03-07T13:35:31Z</time>
      </trkpt>
      <trkpt lat="48.21145" lon="-3.12877">
        <ele>245</ele>
        <time>2016-03-07T13:35:34Z</time>
      </trkpt>
      <trkpt lat="48.21145" lon="-3.12873">
        <ele>245</ele>
        <time>2016-03-07T13:35:36Z</time>
      </trkpt>
      <trkpt lat="48.21141" lon="-3.1287">
        <ele>245</ele>
        <time>2016-03-07T13:35:39Z</time>
      </trkpt>
      <trkpt lat="48.2114" lon="-3.12869">
        <ele>244</ele>
        <time>2016-03-07T13:35:41Z</time>
      </trkpt>
      <trkpt lat="48.21137" lon="-3.12866">
        <ele>245</ele>
        <time>2016-03-07T13:35:44Z</time>
      </trkpt>
      <trkpt lat="48.21136" lon="-3.12864">
        <ele>245</ele>
        <time>2016-03-07T13:35:46Z</time>
      </trkpt>
      <trkpt lat="48.21134" lon="-3.12862">
        <ele>244</ele>
        <time>2016-03-07T13:35:48Z</time>
      </trkpt>
      <trkpt lat="48.2113" lon="-3.12859">
        <ele>244</ele>
        <time>2016-03-07T13:35:51Z</time>
      </trkpt>
      <trkpt lat="48.21128" lon="-3.12858">
        <ele>244</ele>
        <time>2016-03-07T13:35:53Z</time>
      </trkpt>
      <trkpt lat="48.21126" lon="-3.12856">
        <ele>244</ele>
        <time>2016-03-07T13:35:55Z</time>
      </trkpt>
      <trkpt lat="48.21123" lon="-3.12854">
        <ele>245</ele>
        <time>2016-03-07T13:35:58Z</time>
      </trkpt>
      <trkpt lat="48.21121" lon="-3.12852">
        <ele>245</ele>
        <time>2016-03-07T13:36:00Z</time>
      </trkpt>
      <trkpt lat="48.21119" lon="-3.1285">
        <ele>245</ele>
        <time>2016-03-07T13:36:02Z</time>
      </trkpt>
      <trkpt lat="48.21116" lon="-3.12847">
        <ele>244</ele>
        <time>2016-03-07T13:36:05Z</time>
      </trkpt>
      <trkpt lat="48.21114" lon="-3.12845">
        <ele>244</ele>
        <time>2016-03-07T13:36:07Z</time>
      </trkpt>
      <trkpt lat="48.21112" lon="-3.12842">
        <ele>245</ele>
        <time>2016-03-07T13:36:10Z</time>
      </trkpt>
      <trkpt lat="48.21111" lon="-3.1284">
        <ele>245</ele>
        <time>2016-03-07T13:36:12Z</time>
      </trkpt>
      <trkpt lat="48.21109" lon="-3.12837">
        <ele>245</ele>
        <time>2016-03-07T13:36:15Z</time>
      </trkpt>
      <trkpt lat="48.21106" lon="-3.12834">
        <ele>245</ele>
        <time>2016-03-07T13:36:18Z</time>
      </trkpt>
      <trkpt lat="48.21105" lon="-3.12831">
        <ele>244</ele>
        <time>2016-03-07T13:36:20Z</time>
      </trkpt>
      <trkpt lat="48.21104" lon="-3.12828">
        <ele>244</ele>
        <time>2016-03-07T13:36:23Z</time>
      </trkpt>
      <trkpt lat="48.21103" lon="-3.12825">
        <ele>245</ele>
        <time>2016-03-07T13:36:26Z</time>
      </trkpt>
      <trkpt lat="48.21101" lon="-3.12823">
        <ele>245</ele>
        <time>2016-03-07T13:36:29Z</time>
      </trkpt>
      <trkpt lat="48.211" lon="-3.12822">
        <ele>245</ele>
        <time>2016-03-07T13:36:31Z</time>
      </trkpt>
      <trkpt lat="48.21098" lon="-3.1282">
        <ele>244</ele>
        <time>2016-03-07T13:36:33Z</time>
      </trkpt>
      <trkpt lat="48.21097" lon="-3.12815">
        <ele>244</ele>
        <time>2016-03-07T13:36:36Z</time>
      </trkpt>
      <trkpt lat="48.21096" lon="-3.12813">
        <ele>244</ele>
        <time>2016-03-07T13:36:38Z</time>
      </trkpt>
      <trkpt lat="48.21095" lon="-3.12809">
        <ele>245</ele>
        <time>2016-03-07T13:36:41Z</time>
      </trkpt>
      <trkpt lat="48.21093" lon="-3.12806">
        <ele>245</ele>
        <time>2016-03-07T13:36:43Z</time>
      </trkpt>
      <trkpt lat="48.21092" lon="-3.12804">
        <ele>245</ele>
        <time>2016-03-07T13:36:45Z</time>
      </trkpt>
      <trkpt lat="48.21091" lon="-3.128">
        <ele>244</ele>
        <time>2016-03-07T13:36:48Z</time>
      </trkpt>
      <trkpt lat="48.2109" lon="-3.12797">
        <ele>244</ele>
        <time>2016-03-07T13:36:50Z</time>
      </trkpt>
      <trkpt lat="48.21087" lon="-3.12792">
        <ele>244</ele>
        <time>2016-03-07T13:36:53Z</time>
      </trkpt>
      <trkpt lat="48.21083" lon="-3.12788">
        <ele>245</ele>
        <time>2016-03-07T13:36:56Z</time>
      </trkpt>
      <trkpt lat="48.21083" lon="-3.12784">
        <ele>245</ele>
        <time>2016-03-07T13:36:59Z</time>
      </trkpt>
      <trkpt lat="48.21081" lon="-3.12779">
        <ele>245</ele>
        <time>2016-03-07T13:37:02Z</time>
      </trkpt>
      <trkpt lat="48.2108" lon="-3.12774">
        <ele>245</ele>
        <time>2016-03-07T13:37:05Z</time>
      </trkpt>
      <trkpt lat="48.21079" lon="-3.12768">
        <ele>244</ele>
        <time>2016-03-07T13:37:08Z</time>
      </trkpt>
      <trkpt lat="48.21078" lon="-3.12764">
        <ele>244</ele>
        <time>2016-03-07T13:37:10Z</time>
      </trkpt>
      <trkpt lat="48.21076" lon="-3.12759">
        <ele>245</ele>
        <time>2016-03-07T13:37:13Z</time>
      </trkpt>
      <trkpt lat="48.21073" lon="-3.12754">
        <ele>245</ele>
        <time>2016-03-07T13:37:16Z</time>
      </trkpt>
      <trkpt lat="48.21071" lon="-3.1275">
        <ele>245</ele>
        <time>2016-03-07T13:37:18Z</time>
      </trkpt>
      <trkpt lat="48.21069" lon="-3.12745">
        <ele>245</ele>
        <time>2016-03-07T13:37:21Z</time>
      </trkpt>
      <trkpt lat="48.21067" lon="-3.12739">
        <ele>245</ele>
        <time>2016-03-07T13:37:24Z</time>
      </trkpt>
      <trkpt lat="48.21064" lon="-3.12735">
        <ele>245</ele>
        <time>2016-03-07T13:37:27Z</time>
      </trkpt>
      <trkpt lat="48.21061" lon="-3.12729">
        <ele>244</ele>
        <time>2016-03-07T13:37:30Z</time>
      </trkpt>
      <trkpt lat="48.2106" lon="-3.12724">
        <ele>244</ele>
        <time>2016-03-07T13:37:33Z</time>
      </trkpt>
      <trkpt lat="48.21059" lon="-3.12721">
        <ele>244</ele>
        <time>2016-03-07T13:37:35Z</time>
      </trkpt>
      <trkpt lat="48.21058" lon="-3.12718">
        <ele>244</ele>
        <time>2016-03-07T13:37:37Z</time>
      </trkpt>
      <trkpt lat="48.21057" lon="-3.12713">
        <ele>244</ele>
        <time>2016-03-07T13:37:40Z</time>
      </trkpt>
      <trkpt lat="48.21056" lon="-3.1271">
        <ele>244</ele>
        <time>2016-03-07T13:37:42Z</time>
      </trkpt>
      <trkpt lat="48.21055" lon="-3.12704">
        <ele>244</ele>
        <time>2016-03-07T13:37:45Z</time>
      </trkpt>
      <trkpt lat="48.21054" lon="-3.12699">
        <ele>244</ele>
        <time>2016-03-07T13:37:48Z</time>
      </trkpt>
      <trkpt lat="48.21053" lon="-3.12695">
        <ele>244</ele>
        <time>2016-03-07T13:37:50Z</time>
      </trkpt>
      <trkpt lat="48.21054" lon="-3.12689">
        <ele>244</ele>
        <time>2016-03-07T13:37:53Z</time>
      </trkpt>
      <trkpt lat="48.21054" lon="-3.12684">
        <ele>245</ele>
        <time>2016-03-07T13:37:56Z</time>
      </trkpt>
      <trkpt lat="48.21051" lon="-3.12678">
        <ele>245</ele>
        <time>2016-03-07T13:37:59Z</time>
      </trkpt>
      <trkpt lat="48.21051" lon="-3.12672">
        <ele>244</ele>
        <time>2016-03-07T13:38:02Z</time>
      </trkpt>
      <trkpt lat="48.2105" lon="-3.12668">
        <ele>245</ele>
        <time>2016-03-07T13:38:04Z</time>
      </trkpt>
      <trkpt lat="48.2105" lon="-3.12663">
        <ele>245</ele>
        <time>2016-03-07T13:38:07Z</time>
      </trkpt>
      <trkpt lat="48.2105" lon="-3.12657">
        <ele>245</ele>
        <time>2016-03-07T13:38:10Z</time>
      </trkpt>
      <trkpt lat="48.21051" lon="-3.12653">
        <ele>245</ele>
        <time>2016-03-07T13:38:12Z</time>
      </trkpt>
      <trkpt lat="48.21051" lon="-3.12649">
        <ele>245</ele>
        <time>2016-03-07T13:38:15Z</time>
      </trkpt>
      <trkpt lat="48.21051" lon="-3.12647">
        <ele>245</ele>
        <time>2016-03-07T13:38:17Z</time>
      </trkpt>
      <trkpt lat="48.21051" lon="-3.12644">
        <ele>245</ele>
        <time>2016-03-07T13:38:19Z</time>
      </trkpt>
      <trkpt lat="48.21051" lon="-3.12638">
        <ele>244</ele>
        <time>2016-03-07T13:38:22Z</time>
      </trkpt>
      <trkpt lat="48.21051" lon="-3.12633">
        <ele>245</ele>
        <time>2016-03-07T13:38:25Z</time>
      </trkpt>
      <trkpt lat="48.21051" lon="-3.12629">
        <ele>244</ele>
        <time>2016-03-07T13:38:27Z</time>
      </trkpt>
      <trkpt lat="48.21051" lon="-3.12623">
        <ele>244</ele>
        <time>2016-03-07T13:38:30Z</time>
      </trkpt>
      <trkpt lat="48.21052" lon="-3.12619">
        <ele>244</ele>
        <time>2016-03-07T13:38:32Z</time>
      </trkpt>
      <trkpt lat="48.21051" lon="-3.12615">
        <ele>244</ele>
        <time>2016-03-07T13:38:35Z</time>
      </trkpt>
      <trkpt lat="48.21051" lon="-3.12609">
        <ele>244</ele>
        <time>2016-03-07T13:38:38Z</time>
      </trkpt>
      <trkpt lat="48.21051" lon="-3.12606">
        <ele>244</ele>
        <time>2016-03-07T13:38:40Z</time>
      </trkpt>
      <trkpt lat="48.21051" lon="-3.12603">
        <ele>244</ele>
        <time>2016-03-07T13:38:42Z</time>
      </trkpt>
      <trkpt lat="48.2105" lon="-3.12598">
        <ele>244</ele>
        <time>2016-03-07T13:38:45Z</time>
      </trkpt>
      <trkpt lat="48.2105" lon="-3.12594">
        <ele>243</ele>
        <time>2016-03-07T13:38:47Z</time>
      </trkpt>
      <trkpt lat="48.21051" lon="-3.12589">
        <ele>243</ele>
        <time>2016-03-07T13:38:50Z</time>
      </trkpt>
      <trkpt lat="48.21051" lon="-3.12583">
        <ele>243</ele>
        <time>2016-03-07T13:38:53Z</time>
      </trkpt>
      <trkpt lat="48.21052" lon="-3.12579">
        <ele>243</ele>
        <time>2016-03-07T13:38:55Z</time>
      </trkpt>
      <trkpt lat="48.21052" lon="-3.12574">
        <ele>244</ele>
        <time>2016-03-07T13:38:58Z</time>
      </trkpt>
      <trkpt lat="48.21053" lon="-3.1257">
        <ele>244</ele>
        <time>2016-03-07T13:39:00Z</time>
      </trkpt>
      <trkpt lat="48.21053" lon="-3.12564">
        <ele>244</ele>
        <time>2016-03-07T13:39:03Z</time>
      </trkpt>
      <trkpt lat="48.21053" lon="-3.12561">
        <ele>244</ele>
        <time>2016-03-07T13:39:05Z</time>
      </trkpt>
      <trkpt lat="48.21053" lon="-3.12558">
        <ele>244</ele>
        <time>2016-03-07T13:39:07Z</time>
      </trkpt>
      <trkpt lat="48.21053" lon="-3.12553">
        <ele>243</ele>
        <time>2016-03-07T13:39:10Z</time>
      </trkpt>
      <trkpt lat="48.21053" lon="-3.1255">
        <ele>243</ele>
        <time>2016-03-07T13:39:12Z</time>
      </trkpt>
      <trkpt lat="48.21053" lon="-3.12546">
        <ele>243</ele>
        <time>2016-03-07T13:39:14Z</time>
      </trkpt>
      <trkpt lat="48.21053" lon="-3.12541">
        <ele>243</ele>
        <time>2016-03-07T13:39:17Z</time>
      </trkpt>
      <trkpt lat="48.21053" lon="-3.12535">
        <ele>243</ele>
        <time>2016-03-07T13:39:20Z</time>
      </trkpt>
      <trkpt lat="48.21053" lon="-3.12531">
        <ele>243</ele>
        <time>2016-03-07T13:39:22Z</time>
      </trkpt>
      <trkpt lat="48.21053" lon="-3.12526">
        <ele>243</ele>
        <time>2016-03-07T13:39:25Z</time>
      </trkpt>
      <trkpt lat="48.21053" lon="-3.12523">
        <ele>243</ele>
        <time>2016-03-07T13:39:27Z</time>
      </trkpt>
      <trkpt lat="48.21053" lon="-3.12518">
        <ele>243</ele>
        <time>2016-03-07T13:39:30Z</time>
      </trkpt>
      <trkpt lat="48.21054" lon="-3.12513">
        <ele>243</ele>
        <time>2016-03-07T13:39:33Z</time>
      </trkpt>
      <trkpt lat="48.21055" lon="-3.12509">
        <ele>243</ele>
        <time>2016-03-07T13:39:35Z</time>
      </trkpt>
      <trkpt lat="48.21056" lon="-3.12506">
        <ele>244</ele>
        <time>2016-03-07T13:39:37Z</time>
      </trkpt>
      <trkpt lat="48.21056" lon="-3.12501">
        <ele>244</ele>
        <time>2016-03-07T13:39:40Z</time>
      </trkpt>
      <trkpt lat="48.21056" lon="-3.12497">
        <ele>244</ele>
        <time>2016-03-07T13:39:42Z</time>
      </trkpt>
      <trkpt lat="48.21056" lon="-3.12491">
        <ele>244</ele>
        <time>2016-03-07T13:39:45Z</time>
      </trkpt>
      <trkpt lat="48.21056" lon="-3.12487">
        <ele>244</ele>
        <time>2016-03-07T13:39:47Z</time>
      </trkpt>
      <trkpt lat="48.21056" lon="-3.12483">
        <ele>244</ele>
        <time>2016-03-07T13:39:49Z</time>
      </trkpt>
      <trkpt lat="48.21056" lon="-3.12477">
        <ele>244</ele>
        <time>2016-03-07T13:39:52Z</time>
      </trkpt>
      <trkpt lat="48.21056" lon="-3.12474">
        <ele>244</ele>
        <time>2016-03-07T13:39:54Z</time>
      </trkpt>
      <trkpt lat="48.21056" lon="-3.12469">
        <ele>244</ele>
        <time>2016-03-07T13:39:57Z</time>
      </trkpt>
      <trkpt lat="48.21056" lon="-3.12465">
        <ele>244</ele>
        <time>2016-03-07T13:39:59Z</time>
      </trkpt>
      <trkpt lat="48.21056" lon="-3.12462">
        <ele>244</ele>
        <time>2016-03-07T13:40:01Z</time>
      </trkpt>
      <trkpt lat="48.21056" lon="-3.12456">
        <ele>244</ele>
        <time>2016-03-07T13:40:04Z</time>
      </trkpt>
      <trkpt lat="48.21056" lon="-3.12452">
        <ele>244</ele>
        <time>2016-03-07T13:40:07Z</time>
      </trkpt>
      <trkpt lat="48.21056" lon="-3.12447">
        <ele>244</ele>
        <time>2016-03-07T13:40:10Z</time>
      </trkpt>
      <trkpt lat="48.21056" lon="-3.12442">
        <ele>243</ele>
        <time>2016-03-07T13:40:13Z</time>
      </trkpt>
      <trkpt lat="48.21055" lon="-3.12439">
        <ele>243</ele>
        <time>2016-03-07T13:40:15Z</time>
      </trkpt>
      <trkpt lat="48.21056" lon="-3.12434">
        <ele>243</ele>
        <time>2016-03-07T13:40:18Z</time>
      </trkpt>
      <trkpt lat="48.21056" lon="-3.12431">
        <ele>243</ele>
        <time>2016-03-07T13:40:20Z</time>
      </trkpt>
      <trkpt lat="48.21057" lon="-3.12427">
        <ele>243</ele>
        <time>2016-03-07T13:40:22Z</time>
      </trkpt>
      <trkpt lat="48.21058" lon="-3.12422">
        <ele>244</ele>
        <time>2016-03-07T13:40:25Z</time>
      </trkpt>
      <trkpt lat="48.2106" lon="-3.12418">
        <ele>244</ele>
        <time>2016-03-07T13:40:28Z</time>
      </trkpt>
      <trkpt lat="48.21061" lon="-3.12414">
        <ele>244</ele>
        <time>2016-03-07T13:40:31Z</time>
      </trkpt>
      <trkpt lat="48.21061" lon="-3.12411">
        <ele>244</ele>
        <time>2016-03-07T13:40:33Z</time>
      </trkpt>
      <trkpt lat="48.21061" lon="-3.12406">
        <ele>244</ele>
        <time>2016-03-07T13:40:36Z</time>
      </trkpt>
      <trkpt lat="48.21062" lon="-3.12403">
        <ele>244</ele>
        <time>2016-03-07T13:40:38Z</time>
      </trkpt>
      <trkpt lat="48.21062" lon="-3.124">
        <ele>244</ele>
        <time>2016-03-07T13:40:40Z</time>
      </trkpt>
      <trkpt lat="48.21063" lon="-3.12397">
        <ele>244</ele>
        <time>2016-03-07T13:40:42Z</time>
      </trkpt>
      <trkpt lat="48.21063" lon="-3.12391">
        <ele>244</ele>
        <time>2016-03-07T13:40:45Z</time>
      </trkpt>
      <trkpt lat="48.21066" lon="-3.12386">
        <ele>244</ele>
        <time>2016-03-07T13:40:48Z</time>
      </trkpt>
      <trkpt lat="48.21067" lon="-3.12381">
        <ele>244</ele>
        <time>2016-03-07T13:40:51Z</time>
      </trkpt>
      <trkpt lat="48.21068" lon="-3.12377">
        <ele>244</ele>
        <time>2016-03-07T13:40:53Z</time>
      </trkpt>
      <trkpt lat="48.21069" lon="-3.12373">
        <ele>244</ele>
        <time>2016-03-07T13:40:55Z</time>
      </trkpt>
      <trkpt lat="48.2107" lon="-3.12368">
        <ele>244</ele>
        <time>2016-03-07T13:40:58Z</time>
      </trkpt>
      <trkpt lat="48.2107" lon="-3.12363">
        <ele>244</ele>
        <time>2016-03-07T13:41:01Z</time>
      </trkpt>
      <trkpt lat="48.2107" lon="-3.12358">
        <ele>244</ele>
        <time>2016-03-07T13:41:04Z</time>
      </trkpt>
      <trkpt lat="48.2107" lon="-3.12356">
        <ele>244</ele>
        <time>2016-03-07T13:41:06Z</time>
      </trkpt>
      <trkpt lat="48.21069" lon="-3.12353">
        <ele>243</ele>
        <time>2016-03-07T13:41:08Z</time>
      </trkpt>
      <trkpt lat="48.21069" lon="-3.12348">
        <ele>244</ele>
        <time>2016-03-07T13:41:11Z</time>
      </trkpt>
      <trkpt lat="48.2107" lon="-3.12344">
        <ele>244</ele>
        <time>2016-03-07T13:41:13Z</time>
      </trkpt>
      <trkpt lat="48.21071" lon="-3.12341">
        <ele>244</ele>
        <time>2016-03-07T13:41:15Z</time>
      </trkpt>
      <trkpt lat="48.21072" lon="-3.12336">
        <ele>244</ele>
        <time>2016-03-07T13:41:18Z</time>
      </trkpt>
      <trkpt lat="48.21072" lon="-3.12331">
        <ele>244</ele>
        <time>2016-03-07T13:41:21Z</time>
      </trkpt>
      <trkpt lat="48.21072" lon="-3.12328">
        <ele>244</ele>
        <time>2016-03-07T13:41:23Z</time>
      </trkpt>
      <trkpt lat="48.21073" lon="-3.12322">
        <ele>244</ele>
        <time>2016-03-07T13:41:26Z</time>
      </trkpt>
      <trkpt lat="48.21074" lon="-3.12317">
        <ele>244</ele>
        <time>2016-03-07T13:41:29Z</time>
      </trkpt>
      <trkpt lat="48.21074" lon="-3.12314">
        <ele>244</ele>
        <time>2016-03-07T13:41:31Z</time>
      </trkpt>
      <trkpt lat="48.21075" lon="-3.1231">
        <ele>244</ele>
        <time>2016-03-07T13:41:33Z</time>
      </trkpt>
      <trkpt lat="48.21075" lon="-3.12305">
        <ele>244</ele>
        <time>2016-03-07T13:41:36Z</time>
      </trkpt>
      <trkpt lat="48.21076" lon="-3.123">
        <ele>244</ele>
        <time>2016-03-07T13:41:39Z</time>
      </trkpt>
      <trkpt lat="48.21076" lon="-3.12296">
        <ele>244</ele>
        <time>2016-03-07T13:41:42Z</time>
      </trkpt>
      <trkpt lat="48.21075" lon="-3.12291">
        <ele>244</ele>
        <time>2016-03-07T13:41:45Z</time>
      </trkpt>
      <trkpt lat="48.21075" lon="-3.12287">
        <ele>244</ele>
        <time>2016-03-07T13:41:47Z</time>
      </trkpt>
      <trkpt lat="48.21075" lon="-3.12284">
        <ele>244</ele>
        <time>2016-03-07T13:41:49Z</time>
      </trkpt>
      <trkpt lat="48.21076" lon="-3.12279">
        <ele>244</ele>
        <time>2016-03-07T13:41:52Z</time>
      </trkpt>
      <trkpt lat="48.21077" lon="-3.12275">
        <ele>244</ele>
        <time>2016-03-07T13:41:54Z</time>
      </trkpt>
      <trkpt lat="48.21077" lon="-3.1227">
        <ele>244</ele>
        <time>2016-03-07T13:41:57Z</time>
      </trkpt>
      <trkpt lat="48.21077" lon="-3.12266">
        <ele>244</ele>
        <time>2016-03-07T13:41:59Z</time>
      </trkpt>
      <trkpt lat="48.21077" lon="-3.12263">
        <ele>244</ele>
        <time>2016-03-07T13:42:01Z</time>
      </trkpt>
      <trkpt lat="48.21077" lon="-3.12257">
        <ele>244</ele>
        <time>2016-03-07T13:42:04Z</time>
      </trkpt>
      <trkpt lat="48.21077" lon="-3.12251">
        <ele>244</ele>
        <time>2016-03-07T13:42:07Z</time>
      </trkpt>
      <trkpt lat="48.21077" lon="-3.12245">
        <ele>244</ele>
        <time>2016-03-07T13:42:10Z</time>
      </trkpt>
      <trkpt lat="48.21077" lon="-3.12242">
        <ele>244</ele>
        <time>2016-03-07T13:42:12Z</time>
      </trkpt>
      <trkpt lat="48.21077" lon="-3.12238">
        <ele>243</ele>
        <time>2016-03-07T13:42:14Z</time>
      </trkpt>
      <trkpt lat="48.21076" lon="-3.12233">
        <ele>244</ele>
        <time>2016-03-07T13:42:17Z</time>
      </trkpt>
      <trkpt lat="48.21076" lon="-3.12228">
        <ele>243</ele>
        <time>2016-03-07T13:42:20Z</time>
      </trkpt>
      <trkpt lat="48.21076" lon="-3.12224">
        <ele>243</ele>
        <time>2016-03-07T13:42:22Z</time>
      </trkpt>
      <trkpt lat="48.21076" lon="-3.12218">
        <ele>243</ele>
        <time>2016-03-07T13:42:25Z</time>
      </trkpt>
      <trkpt lat="48.21076" lon="-3.12215">
        <ele>243</ele>
        <time>2016-03-07T13:42:27Z</time>
      </trkpt>
      <trkpt lat="48.21077" lon="-3.12209">
        <ele>244</ele>
        <time>2016-03-07T13:42:30Z</time>
      </trkpt>
      <trkpt lat="48.21077" lon="-3.12203">
        <ele>244</ele>
        <time>2016-03-07T13:42:33Z</time>
      </trkpt>
      <trkpt lat="48.21077" lon="-3.12198">
        <ele>244</ele>
        <time>2016-03-07T13:42:36Z</time>
      </trkpt>
      <trkpt lat="48.21078" lon="-3.12195">
        <ele>244</ele>
        <time>2016-03-07T13:42:38Z</time>
      </trkpt>
      <trkpt lat="48.21078" lon="-3.12191">
        <ele>244</ele>
        <time>2016-03-07T13:42:40Z</time>
      </trkpt>
      <trkpt lat="48.21078" lon="-3.12186">
        <ele>244</ele>
        <time>2016-03-07T13:42:43Z</time>
      </trkpt>
      <trkpt lat="48.21079" lon="-3.1218">
        <ele>244</ele>
        <time>2016-03-07T13:42:46Z</time>
      </trkpt>
      <trkpt lat="48.2108" lon="-3.12176">
        <ele>244</ele>
        <time>2016-03-07T13:42:48Z</time>
      </trkpt>
      <trkpt lat="48.21081" lon="-3.1217">
        <ele>244</ele>
        <time>2016-03-07T13:42:51Z</time>
      </trkpt>
      <trkpt lat="48.21081" lon="-3.12166">
        <ele>244</ele>
        <time>2016-03-07T13:42:53Z</time>
      </trkpt>
      <trkpt lat="48.21083" lon="-3.12161">
        <ele>244</ele>
        <time>2016-03-07T13:42:56Z</time>
      </trkpt>
      <trkpt lat="48.21083" lon="-3.12156">
        <ele>244</ele>
        <time>2016-03-07T13:42:59Z</time>
      </trkpt>
      <trkpt lat="48.21082" lon="-3.12152">
        <ele>244</ele>
        <time>2016-03-07T13:43:01Z</time>
      </trkpt>
      <trkpt lat="48.21082" lon="-3.12149">
        <ele>244</ele>
        <time>2016-03-07T13:43:03Z</time>
      </trkpt>
      <trkpt lat="48.21082" lon="-3.12143">
        <ele>244</ele>
        <time>2016-03-07T13:43:06Z</time>
      </trkpt>
      <trkpt lat="48.21082" lon="-3.12139">
        <ele>244</ele>
        <time>2016-03-07T13:43:09Z</time>
      </trkpt>
      <trkpt lat="48.21082" lon="-3.12134">
        <ele>244</ele>
        <time>2016-03-07T13:43:12Z</time>
      </trkpt>
      <trkpt lat="48.21082" lon="-3.12128">
        <ele>244</ele>
        <time>2016-03-07T13:43:15Z</time>
      </trkpt>
      <trkpt lat="48.21083" lon="-3.12125">
        <ele>243</ele>
        <time>2016-03-07T13:43:17Z</time>
      </trkpt>
      <trkpt lat="48.21083" lon="-3.1212">
        <ele>243</ele>
        <time>2016-03-07T13:43:20Z</time>
      </trkpt>
      <trkpt lat="48.21083" lon="-3.12117">
        <ele>243</ele>
        <time>2016-03-07T13:43:22Z</time>
      </trkpt>
      <trkpt lat="48.21083" lon="-3.1211">
        <ele>243</ele>
        <time>2016-03-07T13:43:25Z</time>
      </trkpt>
      <trkpt lat="48.21085" lon="-3.12105">
        <ele>243</ele>
        <time>2016-03-07T13:43:28Z</time>
      </trkpt>
      <trkpt lat="48.21085" lon="-3.12101">
        <ele>243</ele>
        <time>2016-03-07T13:43:30Z</time>
      </trkpt>
      <trkpt lat="48.21086" lon="-3.12094">
        <ele>243</ele>
        <time>2016-03-07T13:43:33Z</time>
      </trkpt>
      <trkpt lat="48.21086" lon="-3.12088">
        <ele>244</ele>
        <time>2016-03-07T13:43:36Z</time>
      </trkpt>
      <trkpt lat="48.21087" lon="-3.12084">
        <ele>244</ele>
        <time>2016-03-07T13:43:38Z</time>
      </trkpt>
      <trkpt lat="48.21087" lon="-3.12078">
        <ele>244</ele>
        <time>2016-03-07T13:43:41Z</time>
      </trkpt>
      <trkpt lat="48.21086" lon="-3.12075">
        <ele>244</ele>
        <time>2016-03-07T13:43:43Z</time>
      </trkpt>
      <trkpt lat="48.21087" lon="-3.12069">
        <ele>244</ele>
        <time>2016-03-07T13:43:46Z</time>
      </trkpt>
      <trkpt lat="48.21087" lon="-3.12065">
        <ele>244</ele>
        <time>2016-03-07T13:43:49Z</time>
      </trkpt>
      <trkpt lat="48.21088" lon="-3.12061">
        <ele>244</ele>
        <time>2016-03-07T13:43:51Z</time>
      </trkpt>
      <trkpt lat="48.21087" lon="-3.12058">
        <ele>244</ele>
        <time>2016-03-07T13:43:53Z</time>
      </trkpt>
      <trkpt lat="48.21086" lon="-3.12053">
        <ele>244</ele>
        <time>2016-03-07T13:43:56Z</time>
      </trkpt>
      <trkpt lat="48.21087" lon="-3.12048">
        <ele>243</ele>
        <time>2016-03-07T13:43:59Z</time>
      </trkpt>
      <trkpt lat="48.21086" lon="-3.12045">
        <ele>244</ele>
        <time>2016-03-07T13:44:01Z</time>
      </trkpt>
      <trkpt lat="48.21086" lon="-3.12041">
        <ele>244</ele>
        <time>2016-03-07T13:44:04Z</time>
      </trkpt>
      <trkpt lat="48.21086" lon="-3.12037">
        <ele>244</ele>
        <time>2016-03-07T13:44:07Z</time>
      </trkpt>
      <trkpt lat="48.21087" lon="-3.12033">
        <ele>244</ele>
        <time>2016-03-07T13:44:09Z</time>
      </trkpt>
      <trkpt lat="48.21087" lon="-3.12028">
        <ele>244</ele>
        <time>2016-03-07T13:44:12Z</time>
      </trkpt>
      <trkpt lat="48.21087" lon="-3.12024">
        <ele>244</ele>
        <time>2016-03-07T13:44:14Z</time>
      </trkpt>
      <trkpt lat="48.21087" lon="-3.12018">
        <ele>244</ele>
        <time>2016-03-07T13:44:17Z</time>
      </trkpt>
      <trkpt lat="48.21087" lon="-3.12014">
        <ele>244</ele>
        <time>2016-03-07T13:44:19Z</time>
      </trkpt>
      <trkpt lat="48.21086" lon="-3.12011">
        <ele>244</ele>
        <time>2016-03-07T13:44:21Z</time>
      </trkpt>
      <trkpt lat="48.21086" lon="-3.12005">
        <ele>244</ele>
        <time>2016-03-07T13:44:24Z</time>
      </trkpt>
      <trkpt lat="48.21085" lon="-3.11999">
        <ele>244</ele>
        <time>2016-03-07T13:44:27Z</time>
      </trkpt>
      <trkpt lat="48.21086" lon="-3.11993">
        <ele>244</ele>
        <time>2016-03-07T13:44:30Z</time>
      </trkpt>
      <trkpt lat="48.21086" lon="-3.11989">
        <ele>244</ele>
        <time>2016-03-07T13:44:32Z</time>
      </trkpt>
      <trkpt lat="48.21086" lon="-3.11983">
        <ele>244</ele>
        <time>2016-03-07T13:44:35Z</time>
      </trkpt>
      <trkpt lat="48.21087" lon="-3.1198">
        <ele>244</ele>
        <time>2016-03-07T13:44:37Z</time>
      </trkpt>
      <trkpt lat="48.21088" lon="-3.11976">
        <ele>244</ele>
        <time>2016-03-07T13:44:40Z</time>
      </trkpt>
      <trkpt lat="48.21088" lon="-3.1197">
        <ele>244</ele>
        <time>2016-03-07T13:44:43Z</time>
      </trkpt>
      <trkpt lat="48.21088" lon="-3.11966">
        <ele>244</ele>
        <time>2016-03-07T13:44:46Z</time>
      </trkpt>
      <trkpt lat="48.21088" lon="-3.11962">
        <ele>244</ele>
        <time>2016-03-07T13:44:49Z</time>
      </trkpt>
      <trkpt lat="48.21088" lon="-3.11959">
        <ele>244</ele>
        <time>2016-03-07T13:44:51Z</time>
      </trkpt>
      <trkpt lat="48.21088" lon="-3.11953">
        <ele>244</ele>
        <time>2016-03-07T13:44:54Z</time>
      </trkpt>
      <trkpt lat="48.21087" lon="-3.11948">
        <ele>244</ele>
        <time>2016-03-07T13:44:57Z</time>
      </trkpt>
      <trkpt lat="48.21088" lon="-3.11944">
        <ele>244</ele>
        <time>2016-03-07T13:44:59Z</time>
      </trkpt>
      <trkpt lat="48.21088" lon="-3.1194">
        <ele>244</ele>
        <time>2016-03-07T13:45:02Z</time>
      </trkpt>
      <trkpt lat="48.21087" lon="-3.11936">
        <ele>244</ele>
        <time>2016-03-07T13:45:04Z</time>
      </trkpt>
      <trkpt lat="48.21086" lon="-3.11931">
        <ele>244</ele>
        <time>2016-03-07T13:45:07Z</time>
      </trkpt>
      <trkpt lat="48.21086" lon="-3.11927">
        <ele>244</ele>
        <time>2016-03-07T13:45:10Z</time>
      </trkpt>
      <trkpt lat="48.21085" lon="-3.11924">
        <ele>244</ele>
        <time>2016-03-07T13:45:12Z</time>
      </trkpt>
      <trkpt lat="48.21085" lon="-3.11918">
        <ele>244</ele>
        <time>2016-03-07T13:45:15Z</time>
      </trkpt>
      <trkpt lat="48.21083" lon="-3.11913">
        <ele>244</ele>
        <time>2016-03-07T13:45:18Z</time>
      </trkpt>
      <trkpt lat="48.21083" lon="-3.11908">
        <ele>244</ele>
        <time>2016-03-07T13:45:20Z</time>
      </trkpt>
      <trkpt lat="48.21083" lon="-3.11905">
        <ele>245</ele>
        <time>2016-03-07T13:45:22Z</time>
      </trkpt>
      <trkpt lat="48.21083" lon="-3.11903">
        <ele>245</ele>
        <time>2016-03-07T13:45:24Z</time>
      </trkpt>
      <trkpt lat="48.21083" lon="-3.11897">
        <ele>245</ele>
        <time>2016-03-07T13:45:27Z</time>
      </trkpt>
      <trkpt lat="48.21082" lon="-3.11894">
        <ele>245</ele>
        <time>2016-03-07T13:45:29Z</time>
      </trkpt>
      <trkpt lat="48.21081" lon="-3.11888">
        <ele>244</ele>
        <time>2016-03-07T13:45:32Z</time>
      </trkpt>
      <trkpt lat="48.2108" lon="-3.11884">
        <ele>244</ele>
        <time>2016-03-07T13:45:35Z</time>
      </trkpt>
      <trkpt lat="48.21078" lon="-3.1188">
        <ele>244</ele>
        <time>2016-03-07T13:45:37Z</time>
      </trkpt>
      <trkpt lat="48.21077" lon="-3.11874">
        <ele>244</ele>
        <time>2016-03-07T13:45:40Z</time>
      </trkpt>
      <trkpt lat="48.21076" lon="-3.1187">
        <ele>244</ele>
        <time>2016-03-07T13:45:43Z</time>
      </trkpt>
      <trkpt lat="48.21076" lon="-3.11866">
        <ele>244</ele>
        <time>2016-03-07T13:45:45Z</time>
      </trkpt>
      <trkpt lat="48.21075" lon="-3.11862">
        <ele>244</ele>
        <time>2016-03-07T13:45:47Z</time>
      </trkpt>
      <trkpt lat="48.21075" lon="-3.11857">
        <ele>244</ele>
        <time>2016-03-07T13:45:50Z</time>
      </trkpt>
      <trkpt lat="48.21074" lon="-3.11852">
        <ele>244</ele>
        <time>2016-03-07T13:45:53Z</time>
      </trkpt>
      <trkpt lat="48.21074" lon="-3.11849">
        <ele>244</ele>
        <time>2016-03-07T13:45:55Z</time>
      </trkpt>
      <trkpt lat="48.21073" lon="-3.11845">
        <ele>244</ele>
        <time>2016-03-07T13:45:58Z</time>
      </trkpt>
      <trkpt lat="48.21073" lon="-3.11843">
        <ele>244</ele>
        <time>2016-03-07T13:46:00Z</time>
      </trkpt>
      <trkpt lat="48.21072" lon="-3.11839">
        <ele>244</ele>
        <time>2016-03-07T13:46:02Z</time>
      </trkpt>
      <trkpt lat="48.21072" lon="-3.11837">
        <ele>244</ele>
        <time>2016-03-07T13:46:04Z</time>
      </trkpt>
      <trkpt lat="48.21071" lon="-3.11832">
        <ele>244</ele>
        <time>2016-03-07T13:46:07Z</time>
      </trkpt>
      <trkpt lat="48.2107" lon="-3.11827">
        <ele>244</ele>
        <time>2016-03-07T13:46:10Z</time>
      </trkpt>
      <trkpt lat="48.2107" lon="-3.11824">
        <ele>244</ele>
        <time>2016-03-07T13:46:12Z</time>
      </trkpt>
      <trkpt lat="48.21069" lon="-3.11819">
        <ele>245</ele>
        <time>2016-03-07T13:46:15Z</time>
      </trkpt>
      <trkpt lat="48.21067" lon="-3.11815">
        <ele>244</ele>
        <time>2016-03-07T13:46:17Z</time>
      </trkpt>
      <trkpt lat="48.21066" lon="-3.11809">
        <ele>244</ele>
        <time>2016-03-07T13:46:20Z</time>
      </trkpt>
      <trkpt lat="48.21066" lon="-3.11805">
        <ele>244</ele>
        <time>2016-03-07T13:46:22Z</time>
      </trkpt>
      <trkpt lat="48.21065" lon="-3.11801">
        <ele>244</ele>
        <time>2016-03-07T13:46:25Z</time>
      </trkpt>
      <trkpt lat="48.21064" lon="-3.11797">
        <ele>244</ele>
        <time>2016-03-07T13:46:27Z</time>
      </trkpt>
      <trkpt lat="48.21063" lon="-3.11795">
        <ele>244</ele>
        <time>2016-03-07T13:46:29Z</time>
      </trkpt>
      <trkpt lat="48.21062" lon="-3.11793">
        <ele>244</ele>
        <time>2016-03-07T13:46:31Z</time>
      </trkpt>
      <trkpt lat="48.2106" lon="-3.11787">
        <ele>244</ele>
        <time>2016-03-07T13:46:34Z</time>
      </trkpt>
      <trkpt lat="48.21059" lon="-3.11781">
        <ele>244</ele>
        <time>2016-03-07T13:46:37Z</time>
      </trkpt>
      <trkpt lat="48.21058" lon="-3.11776">
        <ele>244</ele>
        <time>2016-03-07T13:46:40Z</time>
      </trkpt>
      <trkpt lat="48.21056" lon="-3.11772">
        <ele>244</ele>
        <time>2016-03-07T13:46:42Z</time>
      </trkpt>
      <trkpt lat="48.21055" lon="-3.11769">
        <ele>244</ele>
        <time>2016-03-07T13:46:44Z</time>
      </trkpt>
      <trkpt lat="48.21053" lon="-3.11764">
        <ele>244</ele>
        <time>2016-03-07T13:46:47Z</time>
      </trkpt>
      <trkpt lat="48.21052" lon="-3.1176">
        <ele>244</ele>
        <time>2016-03-07T13:46:49Z</time>
      </trkpt>
      <trkpt lat="48.21051" lon="-3.11755">
        <ele>244</ele>
        <time>2016-03-07T13:46:52Z</time>
      </trkpt>
      <trkpt lat="48.2105" lon="-3.11752">
        <ele>244</ele>
        <time>2016-03-07T13:46:54Z</time>
      </trkpt>
      <trkpt lat="48.21049" lon="-3.11746">
        <ele>244</ele>
        <time>2016-03-07T13:46:57Z</time>
      </trkpt>
      <trkpt lat="48.21048" lon="-3.11741">
        <ele>244</ele>
        <time>2016-03-07T13:47:00Z</time>
      </trkpt>
      <trkpt lat="48.21046" lon="-3.11737">
        <ele>244</ele>
        <time>2016-03-07T13:47:02Z</time>
      </trkpt>
      <trkpt lat="48.21046" lon="-3.11732">
        <ele>244</ele>
        <time>2016-03-07T13:47:05Z</time>
      </trkpt>
      <trkpt lat="48.21045" lon="-3.11729">
        <ele>244</ele>
        <time>2016-03-07T13:47:08Z</time>
      </trkpt>
      <trkpt lat="48.21044" lon="-3.11726">
        <ele>244</ele>
        <time>2016-03-07T13:47:10Z</time>
      </trkpt>
      <trkpt lat="48.21043" lon="-3.11724">
        <ele>244</ele>
        <time>2016-03-07T13:47:13Z</time>
      </trkpt>
      <trkpt lat="48.21041" lon="-3.1172">
        <ele>244</ele>
        <time>2016-03-07T13:47:16Z</time>
      </trkpt>
      <trkpt lat="48.21039" lon="-3.11717">
        <ele>244</ele>
        <time>2016-03-07T13:47:18Z</time>
      </trkpt>
      <trkpt lat="48.21038" lon="-3.11711">
        <ele>244</ele>
        <time>2016-03-07T13:47:21Z</time>
      </trkpt>
      <trkpt lat="48.21036" lon="-3.11706">
        <ele>244</ele>
        <time>2016-03-07T13:47:23Z</time>
      </trkpt>
      <trkpt lat="48.21035" lon="-3.11701">
        <ele>244</ele>
        <time>2016-03-07T13:47:26Z</time>
      </trkpt>
      <trkpt lat="48.21033" lon="-3.11695">
        <ele>244</ele>
        <time>2016-03-07T13:47:29Z</time>
      </trkpt>
      <trkpt lat="48.21032" lon="-3.11692">
        <ele>244</ele>
        <time>2016-03-07T13:47:31Z</time>
      </trkpt>
      <trkpt lat="48.2103" lon="-3.11687">
        <ele>244</ele>
        <time>2016-03-07T13:47:34Z</time>
      </trkpt>
      <trkpt lat="48.21029" lon="-3.11684">
        <ele>244</ele>
        <time>2016-03-07T13:47:36Z</time>
      </trkpt>
      <trkpt lat="48.21027" lon="-3.11679">
        <ele>244</ele>
        <time>2016-03-07T13:47:39Z</time>
      </trkpt>
      <trkpt lat="48.21025" lon="-3.11676">
        <ele>244</ele>
        <time>2016-03-07T13:47:42Z</time>
      </trkpt>
      <trkpt lat="48.21022" lon="-3.11671">
        <ele>244</ele>
        <time>2016-03-07T13:47:45Z</time>
      </trkpt>
      <trkpt lat="48.21022" lon="-3.11667">
        <ele>244</ele>
        <time>2016-03-07T13:47:47Z</time>
      </trkpt>
      <trkpt lat="48.21021" lon="-3.11665">
        <ele>244</ele>
        <time>2016-03-07T13:47:49Z</time>
      </trkpt>
      <trkpt lat="48.21019" lon="-3.1166">
        <ele>244</ele>
        <time>2016-03-07T13:47:52Z</time>
      </trkpt>
      <trkpt lat="48.21017" lon="-3.11655">
        <ele>244</ele>
        <time>2016-03-07T13:47:55Z</time>
      </trkpt>
      <trkpt lat="48.21015" lon="-3.11651">
        <ele>244</ele>
        <time>2016-03-07T13:47:58Z</time>
      </trkpt>
      <trkpt lat="48.21014" lon="-3.11648">
        <ele>244</ele>
        <time>2016-03-07T13:48:00Z</time>
      </trkpt>
      <trkpt lat="48.21012" lon="-3.11646">
        <ele>244</ele>
        <time>2016-03-07T13:48:02Z</time>
      </trkpt>
      <trkpt lat="48.21012" lon="-3.11645">
        <ele>244</ele>
        <time>2016-03-07T13:48:05Z</time>
      </trkpt>
      <trkpt lat="48.21011" lon="-3.11644">
        <ele>244</ele>
        <time>2016-03-07T13:48:07Z</time>
      </trkpt>
      <trkpt lat="48.21011" lon="-3.11643">
        <ele>244</ele>
        <time>2016-03-07T13:48:10Z</time>
      </trkpt>
      <trkpt lat="48.21011" lon="-3.11642">
        <ele>244</ele>
        <time>2016-03-07T13:48:12Z</time>
      </trkpt>
      <trkpt lat="48.21011" lon="-3.11641">
        <ele>244</ele>
        <time>2016-03-07T13:48:15Z</time>
      </trkpt>
      <trkpt lat="48.2101" lon="-3.11641">
        <ele>244</ele>
        <time>2016-03-07T13:48:18Z</time>
      </trkpt>
      <trkpt lat="48.2101" lon="-3.1164">
        <ele>244</ele>
        <time>2016-03-07T13:48:20Z</time>
      </trkpt>
      <trkpt lat="48.21009" lon="-3.11638">
        <ele>244</ele>
        <time>2016-03-07T13:48:23Z</time>
      </trkpt>
      <trkpt lat="48.21008" lon="-3.11637">
        <ele>244</ele>
        <time>2016-03-07T13:48:25Z</time>
      </trkpt>
      <trkpt lat="48.21006" lon="-3.11634">
        <ele>244</ele>
        <time>2016-03-07T13:48:28Z</time>
      </trkpt>
      <trkpt lat="48.21005" lon="-3.11631">
        <ele>244</ele>
        <time>2016-03-07T13:48:31Z</time>
      </trkpt>
      <trkpt lat="48.21004" lon="-3.11628">
        <ele>244</ele>
        <time>2016-03-07T13:48:33Z</time>
      </trkpt>
      <trkpt lat="48.21003" lon="-3.11625">
        <ele>244</ele>
        <time>2016-03-07T13:48:36Z</time>
      </trkpt>
      <trkpt lat="48.21001" lon="-3.11623">
        <ele>244</ele>
        <time>2016-03-07T13:48:38Z</time>
      </trkpt>
      <trkpt lat="48.21" lon="-3.11619">
        <ele>244</ele>
        <time>2016-03-07T13:48:41Z</time>
      </trkpt>
      <trkpt lat="48.20999" lon="-3.11615">
        <ele>244</ele>
        <time>2016-03-07T13:48:44Z</time>
      </trkpt>
      <trkpt lat="48.20997" lon="-3.11612">
        <ele>243</ele>
        <time>2016-03-07T13:48:47Z</time>
      </trkpt>
      <trkpt lat="48.20995" lon="-3.11608">
        <ele>244</ele>
        <time>2016-03-07T13:48:50Z</time>
      </trkpt>
      <trkpt lat="48.20993" lon="-3.11605">
        <ele>244</ele>
        <time>2016-03-07T13:48:52Z</time>
      </trkpt>
      <trkpt lat="48.20992" lon="-3.11603">
        <ele>244</ele>
        <time>2016-03-07T13:48:54Z</time>
      </trkpt>
      <trkpt lat="48.20989" lon="-3.11598">
        <ele>244</ele>
        <time>2016-03-07T13:48:57Z</time>
      </trkpt>
      <trkpt lat="48.20987" lon="-3.11596">
        <ele>244</ele>
        <time>2016-03-07T13:48:59Z</time>
      </trkpt>
      <trkpt lat="48.20984" lon="-3.11593">
        <ele>244</ele>
        <time>2016-03-07T13:49:02Z</time>
      </trkpt>
      <trkpt lat="48.20983" lon="-3.11591">
        <ele>244</ele>
        <time>2016-03-07T13:49:04Z</time>
      </trkpt>
      <trkpt lat="48.20981" lon="-3.11589">
        <ele>244</ele>
        <time>2016-03-07T13:49:07Z</time>
      </trkpt>
      <trkpt lat="48.20978" lon="-3.11586">
        <ele>244</ele>
        <time>2016-03-07T13:49:10Z</time>
      </trkpt>
      <trkpt lat="48.20977" lon="-3.11584">
        <ele>244</ele>
        <time>2016-03-07T13:49:12Z</time>
      </trkpt>
      <trkpt lat="48.20973" lon="-3.11582">
        <ele>244</ele>
        <time>2016-03-07T13:49:15Z</time>
      </trkpt>
      <trkpt lat="48.20972" lon="-3.1158">
        <ele>244</ele>
        <time>2016-03-07T13:49:17Z</time>
      </trkpt>
      <trkpt lat="48.20969" lon="-3.11579">
        <ele>245</ele>
        <time>2016-03-07T13:49:20Z</time>
      </trkpt>
      <trkpt lat="48.20964" lon="-3.11579">
        <ele>245</ele>
        <time>2016-03-07T13:49:23Z</time>
      </trkpt>
      <trkpt lat="48.2096" lon="-3.11579">
        <ele>244</ele>
        <time>2016-03-07T13:49:26Z</time>
      </trkpt>
      <trkpt lat="48.20956" lon="-3.1158">
        <ele>244</ele>
        <time>2016-03-07T13:49:29Z</time>
      </trkpt>
      <trkpt lat="48.20953" lon="-3.1158">
        <ele>244</ele>
        <time>2016-03-07T13:49:31Z</time>
      </trkpt>
      <trkpt lat="48.2095" lon="-3.11581">
        <ele>244</ele>
        <time>2016-03-07T13:49:34Z</time>
      </trkpt>
      <trkpt lat="48.20946" lon="-3.11583">
        <ele>244</ele>
        <time>2016-03-07T13:49:37Z</time>
      </trkpt>
      <trkpt lat="48.20943" lon="-3.11584">
        <ele>244</ele>
        <time>2016-03-07T13:49:39Z</time>
      </trkpt>
      <trkpt lat="48.20939" lon="-3.11586">
        <ele>243</ele>
        <time>2016-03-07T13:49:42Z</time>
      </trkpt>
      <trkpt lat="48.20936" lon="-3.11586">
        <ele>244</ele>
        <time>2016-03-07T13:49:44Z</time>
      </trkpt>
      <trkpt lat="48.20933" lon="-3.11588">
        <ele>244</ele>
        <time>2016-03-07T13:49:46Z</time>
      </trkpt>
      <trkpt lat="48.2093" lon="-3.11589">
        <ele>244</ele>
        <time>2016-03-07T13:49:49Z</time>
      </trkpt>
      <trkpt lat="48.20928" lon="-3.11589">
        <ele>244</ele>
        <time>2016-03-07T13:49:51Z</time>
      </trkpt>
      <trkpt lat="48.20927" lon="-3.11588">
        <ele>244</ele>
        <time>2016-03-07T13:49:54Z</time>
      </trkpt>
      <trkpt lat="48.20926" lon="-3.11587">
        <ele>244</ele>
        <time>2016-03-07T13:49:56Z</time>
      </trkpt>
      <trkpt lat="48.20925" lon="-3.11588">
        <ele>244</ele>
        <time>2016-03-07T13:49:59Z</time>
      </trkpt>
      <trkpt lat="48.20925" lon="-3.11588">
        <ele>244</ele>
        <time>2016-03-07T13:50:01Z</time>
      </trkpt>
      <trkpt lat="48.20926" lon="-3.11587">
        <ele>244</ele>
        <time>2016-03-07T13:50:04Z</time>
      </trkpt>
      <trkpt lat="48.20926" lon="-3.11586">
        <ele>244</ele>
        <time>2016-03-07T13:50:06Z</time>
      </trkpt>
      <trkpt lat="48.20926" lon="-3.11586">
        <ele>244</ele>
        <time>2016-03-07T13:50:10Z</time>
      </trkpt>
      <trkpt lat="48.20927" lon="-3.11587">
        <ele>244</ele>
        <time>2016-03-07T13:50:13Z</time>
      </trkpt>
      <trkpt lat="48.20927" lon="-3.11587">
        <ele>244</ele>
        <time>2016-03-07T13:50:15Z</time>
      </trkpt>
      <trkpt lat="48.20928" lon="-3.11587">
        <ele>243</ele>
        <time>2016-03-07T13:50:18Z</time>
      </trkpt>
      <trkpt lat="48.20929" lon="-3.11589">
        <ele>244</ele>
        <time>2016-03-07T13:50:20Z</time>
      </trkpt>
      <trkpt lat="48.2093" lon="-3.1159">
        <ele>244</ele>
        <time>2016-03-07T13:50:22Z</time>
      </trkpt>
      <trkpt lat="48.20932" lon="-3.11592">
        <ele>244</ele>
        <time>2016-03-07T13:50:25Z</time>
      </trkpt>
      <trkpt lat="48.20933" lon="-3.11595">
        <ele>244</ele>
        <time>2016-03-07T13:50:28Z</time>
      </trkpt>
      <trkpt lat="48.20931" lon="-3.11599">
        <ele>244</ele>
        <time>2016-03-07T13:50:31Z</time>
      </trkpt>
      <trkpt lat="48.20929" lon="-3.11601">
        <ele>244</ele>
        <time>2016-03-07T13:50:33Z</time>
      </trkpt>
      <trkpt lat="48.20926" lon="-3.11605">
        <ele>244</ele>
        <time>2016-03-07T13:50:36Z</time>
      </trkpt>
      <trkpt lat="48.20921" lon="-3.11608">
        <ele>244</ele>
        <time>2016-03-07T13:50:39Z</time>
      </trkpt>
      <trkpt lat="48.20919" lon="-3.11609">
        <ele>244</ele>
        <time>2016-03-07T13:50:41Z</time>
      </trkpt>
      <trkpt lat="48.20914" lon="-3.1161">
        <ele>244</ele>
        <time>2016-03-07T13:50:44Z</time>
      </trkpt>
      <trkpt lat="48.20911" lon="-3.11611">
        <ele>244</ele>
        <time>2016-03-07T13:50:46Z</time>
      </trkpt>
      <trkpt lat="48.20907" lon="-3.11612">
        <ele>244</ele>
        <time>2016-03-07T13:50:48Z</time>
      </trkpt>
      <trkpt lat="48.20902" lon="-3.11613">
        <ele>244</ele>
        <time>2016-03-07T13:50:51Z</time>
      </trkpt>
      <trkpt lat="48.20895" lon="-3.11613">
        <ele>244</ele>
        <time>2016-03-07T13:50:54Z</time>
      </trkpt>
      <trkpt lat="48.20892" lon="-3.11614">
        <ele>244</ele>
        <time>2016-03-07T13:50:56Z</time>
      </trkpt>
      <trkpt lat="48.20888" lon="-3.11614">
        <ele>245</ele>
        <time>2016-03-07T13:50:59Z</time>
      </trkpt>
      <trkpt lat="48.20883" lon="-3.11613">
        <ele>244</ele>
        <time>2016-03-07T13:51:02Z</time>
      </trkpt>
      <trkpt lat="48.2088" lon="-3.11612">
        <ele>244</ele>
        <time>2016-03-07T13:51:04Z</time>
      </trkpt>
      <trkpt lat="48.20876" lon="-3.11611">
        <ele>244</ele>
        <time>2016-03-07T13:51:07Z</time>
      </trkpt>
      <trkpt lat="48.20871" lon="-3.1161">
        <ele>244</ele>
        <time>2016-03-07T13:51:10Z</time>
      </trkpt>
      <trkpt lat="48.20869" lon="-3.11609">
        <ele>244</ele>
        <time>2016-03-07T13:51:12Z</time>
      </trkpt>
      <trkpt lat="48.20864" lon="-3.11609">
        <ele>244</ele>
        <time>2016-03-07T13:51:15Z</time>
      </trkpt>
      <trkpt lat="48.20862" lon="-3.11608">
        <ele>245</ele>
        <time>2016-03-07T13:51:17Z</time>
      </trkpt>
      <trkpt lat="48.20858" lon="-3.11606">
        <ele>245</ele>
        <time>2016-03-07T13:51:20Z</time>
      </trkpt>
      <trkpt lat="48.20854" lon="-3.11604">
        <ele>245</ele>
        <time>2016-03-07T13:51:23Z</time>
      </trkpt>
      <trkpt lat="48.20851" lon="-3.11603">
        <ele>245</ele>
        <time>2016-03-07T13:51:25Z</time>
      </trkpt>
      <trkpt lat="48.20847" lon="-3.11601">
        <ele>244</ele>
        <time>2016-03-07T13:51:28Z</time>
      </trkpt>
      <trkpt lat="48.20844" lon="-3.116">
        <ele>244</ele>
        <time>2016-03-07T13:51:30Z</time>
      </trkpt>
      <trkpt lat="48.2084" lon="-3.11599">
        <ele>244</ele>
        <time>2016-03-07T13:51:33Z</time>
      </trkpt>
      <trkpt lat="48.20837" lon="-3.11598">
        <ele>245</ele>
        <time>2016-03-07T13:51:36Z</time>
      </trkpt>
      <trkpt lat="48.20834" lon="-3.11596">
        <ele>245</ele>
        <time>2016-03-07T13:51:39Z</time>
      </trkpt>
      <trkpt lat="48.20832" lon="-3.11595">
        <ele>246</ele>
        <time>2016-03-07T13:51:41Z</time>
      </trkpt>
      <trkpt lat="48.20827" lon="-3.11595">
        <ele>246</ele>
        <time>2016-03-07T13:51:44Z</time>
      </trkpt>
      <trkpt lat="48.20824" lon="-3.11594">
        <ele>245</ele>
        <time>2016-03-07T13:51:46Z</time>
      </trkpt>
      <trkpt lat="48.2082" lon="-3.11592">
        <ele>245</ele>
        <time>2016-03-07T13:51:49Z</time>
      </trkpt>
      <trkpt lat="48.20816" lon="-3.11589">
        <ele>245</ele>
        <time>2016-03-07T13:51:52Z</time>
      </trkpt>
      <trkpt lat="48.20812" lon="-3.11587">
        <ele>245</ele>
        <time>2016-03-07T13:51:55Z</time>
      </trkpt>
      <trkpt lat="48.20808" lon="-3.11584">
        <ele>244</ele>
        <time>2016-03-07T13:51:58Z</time>
      </trkpt>
      <trkpt lat="48.20807" lon="-3.11583">
        <ele>244</ele>
        <time>2016-03-07T13:52:00Z</time>
      </trkpt>
      <trkpt lat="48.20805" lon="-3.11583">
        <ele>244</ele>
        <time>2016-03-07T13:52:03Z</time>
      </trkpt>
      <trkpt lat="48.20805" lon="-3.11584">
        <ele>244</ele>
        <time>2016-03-07T13:52:06Z</time>
      </trkpt>
      <trkpt lat="48.20802" lon="-3.11584">
        <ele>245</ele>
        <time>2016-03-07T13:52:09Z</time>
      </trkpt>
      <trkpt lat="48.20797" lon="-3.11583">
        <ele>245</ele>
        <time>2016-03-07T13:52:12Z</time>
      </trkpt>
      <trkpt lat="48.20795" lon="-3.11582">
        <ele>245</ele>
        <time>2016-03-07T13:52:14Z</time>
      </trkpt>
      <trkpt lat="48.20791" lon="-3.11579">
        <ele>245</ele>
        <time>2016-03-07T13:52:17Z</time>
      </trkpt>
      <trkpt lat="48.20789" lon="-3.11578">
        <ele>245</ele>
        <time>2016-03-07T13:52:19Z</time>
      </trkpt>
      <trkpt lat="48.20785" lon="-3.11576">
        <ele>245</ele>
        <time>2016-03-07T13:52:22Z</time>
      </trkpt>
      <trkpt lat="48.20782" lon="-3.11573">
        <ele>245</ele>
        <time>2016-03-07T13:52:25Z</time>
      </trkpt>
      <trkpt lat="48.20779" lon="-3.11571">
        <ele>245</ele>
        <time>2016-03-07T13:52:27Z</time>
      </trkpt>
      <trkpt lat="48.20777" lon="-3.11569">
        <ele>245</ele>
        <time>2016-03-07T13:52:29Z</time>
      </trkpt>
      <trkpt lat="48.20775" lon="-3.11567">
        <ele>246</ele>
        <time>2016-03-07T13:52:31Z</time>
      </trkpt>
      <trkpt lat="48.20771" lon="-3.11563">
        <ele>245</ele>
        <time>2016-03-07T13:52:34Z</time>
      </trkpt>
      <trkpt lat="48.20769" lon="-3.1156">
        <ele>245</ele>
        <time>2016-03-07T13:52:36Z</time>
      </trkpt>
      <trkpt lat="48.20766" lon="-3.11556">
        <ele>245</ele>
        <time>2016-03-07T13:52:39Z</time>
      </trkpt>
      <trkpt lat="48.20764" lon="-3.11554">
        <ele>245</ele>
        <time>2016-03-07T13:52:41Z</time>
      </trkpt>
      <trkpt lat="48.2076" lon="-3.1155">
        <ele>245</ele>
        <time>2016-03-07T13:52:44Z</time>
      </trkpt>
      <trkpt lat="48.20757" lon="-3.11546">
        <ele>245</ele>
        <time>2016-03-07T13:52:47Z</time>
      </trkpt>
      <trkpt lat="48.20754" lon="-3.11543">
        <ele>245</ele>
        <time>2016-03-07T13:52:49Z</time>
      </trkpt>
      <trkpt lat="48.20752" lon="-3.11541">
        <ele>244</ele>
        <time>2016-03-07T13:52:51Z</time>
      </trkpt>
      <trkpt lat="48.20749" lon="-3.11536">
        <ele>244</ele>
        <time>2016-03-07T13:52:54Z</time>
      </trkpt>
      <trkpt lat="48.20746" lon="-3.11534">
        <ele>245</ele>
        <time>2016-03-07T13:52:56Z</time>
      </trkpt>
      <trkpt lat="48.20742" lon="-3.1153">
        <ele>245</ele>
        <time>2016-03-07T13:52:59Z</time>
      </trkpt>
      <trkpt lat="48.20739" lon="-3.11528">
        <ele>245</ele>
        <time>2016-03-07T13:53:01Z</time>
      </trkpt>
      <trkpt lat="48.20736" lon="-3.11524">
        <ele>246</ele>
        <time>2016-03-07T13:53:04Z</time>
      </trkpt>
      <trkpt lat="48.20734" lon="-3.11521">
        <ele>246</ele>
        <time>2016-03-07T13:53:06Z</time>
      </trkpt>
      <trkpt lat="48.2073" lon="-3.11516">
        <ele>246</ele>
        <time>2016-03-07T13:53:09Z</time>
      </trkpt>
      <trkpt lat="48.20728" lon="-3.11513">
        <ele>246</ele>
        <time>2016-03-07T13:53:11Z</time>
      </trkpt>
      <trkpt lat="48.20724" lon="-3.1151">
        <ele>245</ele>
        <time>2016-03-07T13:53:14Z</time>
      </trkpt>
      <trkpt lat="48.20721" lon="-3.11505">
        <ele>245</ele>
        <time>2016-03-07T13:53:17Z</time>
      </trkpt>
      <trkpt lat="48.20717" lon="-3.11501">
        <ele>245</ele>
        <time>2016-03-07T13:53:20Z</time>
      </trkpt>
      <trkpt lat="48.20715" lon="-3.11498">
        <ele>245</ele>
        <time>2016-03-07T13:53:22Z</time>
      </trkpt>
      <trkpt lat="48.20713" lon="-3.11494">
        <ele>244</ele>
        <time>2016-03-07T13:53:25Z</time>
      </trkpt>
      <trkpt lat="48.20709" lon="-3.11489">
        <ele>244</ele>
        <time>2016-03-07T13:53:28Z</time>
      </trkpt>
      <trkpt lat="48.20707" lon="-3.11485">
        <ele>244</ele>
        <time>2016-03-07T13:53:31Z</time>
      </trkpt>
      <trkpt lat="48.20704" lon="-3.1148">
        <ele>244</ele>
        <time>2016-03-07T13:53:34Z</time>
      </trkpt>
      <trkpt lat="48.20701" lon="-3.11476">
        <ele>245</ele>
        <time>2016-03-07T13:53:37Z</time>
      </trkpt>
      <trkpt lat="48.20699" lon="-3.11473">
        <ele>244</ele>
        <time>2016-03-07T13:53:39Z</time>
      </trkpt>
      <trkpt lat="48.20697" lon="-3.11468">
        <ele>245</ele>
        <time>2016-03-07T13:53:42Z</time>
      </trkpt>
      <trkpt lat="48.20693" lon="-3.11462">
        <ele>245</ele>
        <time>2016-03-07T13:53:45Z</time>
      </trkpt>
      <trkpt lat="48.20689" lon="-3.11457">
        <ele>245</ele>
        <time>2016-03-07T13:53:48Z</time>
      </trkpt>
      <trkpt lat="48.20687" lon="-3.11453">
        <ele>245</ele>
        <time>2016-03-07T13:53:50Z</time>
      </trkpt>
      <trkpt lat="48.20684" lon="-3.11448">
        <ele>245</ele>
        <time>2016-03-07T13:53:53Z</time>
      </trkpt>
      <trkpt lat="48.20683" lon="-3.11445">
        <ele>245</ele>
        <time>2016-03-07T13:53:55Z</time>
      </trkpt>
      <trkpt lat="48.20682" lon="-3.11439">
        <ele>245</ele>
        <time>2016-03-07T13:53:58Z</time>
      </trkpt>
      <trkpt lat="48.20679" lon="-3.11434">
        <ele>245</ele>
        <time>2016-03-07T13:54:01Z</time>
      </trkpt>
      <trkpt lat="48.20677" lon="-3.11431">
        <ele>245</ele>
        <time>2016-03-07T13:54:03Z</time>
      </trkpt>
      <trkpt lat="48.20675" lon="-3.11428">
        <ele>244</ele>
        <time>2016-03-07T13:54:05Z</time>
      </trkpt>
      <trkpt lat="48.20673" lon="-3.11422">
        <ele>245</ele>
        <time>2016-03-07T13:54:08Z</time>
      </trkpt>
      <trkpt lat="48.20671" lon="-3.11418">
        <ele>245</ele>
        <time>2016-03-07T13:54:10Z</time>
      </trkpt>
      <trkpt lat="48.2067" lon="-3.11415">
        <ele>244</ele>
        <time>2016-03-07T13:54:12Z</time>
      </trkpt>
      <trkpt lat="48.20668" lon="-3.1141">
        <ele>244</ele>
        <time>2016-03-07T13:54:15Z</time>
      </trkpt>
      <trkpt lat="48.20665" lon="-3.11406">
        <ele>244</ele>
        <time>2016-03-07T13:54:18Z</time>
      </trkpt>
      <trkpt lat="48.20663" lon="-3.11403">
        <ele>244</ele>
        <time>2016-03-07T13:54:20Z</time>
      </trkpt>
      <trkpt lat="48.20662" lon="-3.11401">
        <ele>244</ele>
        <time>2016-03-07T13:54:22Z</time>
      </trkpt>
      <trkpt lat="48.20659" lon="-3.11397">
        <ele>244</ele>
        <time>2016-03-07T13:54:25Z</time>
      </trkpt>
      <trkpt lat="48.20656" lon="-3.11394">
        <ele>243</ele>
        <time>2016-03-07T13:54:27Z</time>
      </trkpt>
      <trkpt lat="48.20654" lon="-3.1139">
        <ele>243</ele>
        <time>2016-03-07T13:54:30Z</time>
      </trkpt>
      <trkpt lat="48.20652" lon="-3.11386">
        <ele>243</ele>
        <time>2016-03-07T13:54:32Z</time>
      </trkpt>
      <trkpt lat="48.20649" lon="-3.11384">
        <ele>243</ele>
        <time>2016-03-07T13:54:34Z</time>
      </trkpt>
      <trkpt lat="48.20646" lon="-3.11379">
        <ele>244</ele>
        <time>2016-03-07T13:54:37Z</time>
      </trkpt>
      <trkpt lat="48.20644" lon="-3.11376">
        <ele>244</ele>
        <time>2016-03-07T13:54:39Z</time>
      </trkpt>
      <trkpt lat="48.20642" lon="-3.11372">
        <ele>244</ele>
        <time>2016-03-07T13:54:41Z</time>
      </trkpt>
      <trkpt lat="48.20639" lon="-3.11366">
        <ele>244</ele>
        <time>2016-03-07T13:54:44Z</time>
      </trkpt>
      <trkpt lat="48.20638" lon="-3.11361">
        <ele>244</ele>
        <time>2016-03-07T13:54:46Z</time>
      </trkpt>
      <trkpt lat="48.20636" lon="-3.11357">
        <ele>244</ele>
        <time>2016-03-07T13:54:49Z</time>
      </trkpt>
      <trkpt lat="48.20633" lon="-3.11354">
        <ele>244</ele>
        <time>2016-03-07T13:54:51Z</time>
      </trkpt>
      <trkpt lat="48.20631" lon="-3.11348">
        <ele>244</ele>
        <time>2016-03-07T13:54:54Z</time>
      </trkpt>
      <trkpt lat="48.2063" lon="-3.11343">
        <ele>244</ele>
        <time>2016-03-07T13:54:57Z</time>
      </trkpt>
      <trkpt lat="48.20628" lon="-3.1134">
        <ele>244</ele>
        <time>2016-03-07T13:54:59Z</time>
      </trkpt>
      <trkpt lat="48.20625" lon="-3.11335">
        <ele>244</ele>
        <time>2016-03-07T13:55:02Z</time>
      </trkpt>
      <trkpt lat="48.20624" lon="-3.11332">
        <ele>244</ele>
        <time>2016-03-07T13:55:04Z</time>
      </trkpt>
      <trkpt lat="48.20622" lon="-3.11328">
        <ele>244</ele>
        <time>2016-03-07T13:55:06Z</time>
      </trkpt>
      <trkpt lat="48.2062" lon="-3.11322">
        <ele>244</ele>
        <time>2016-03-07T13:55:09Z</time>
      </trkpt>
      <trkpt lat="48.20617" lon="-3.11317">
        <ele>244</ele>
        <time>2016-03-07T13:55:12Z</time>
      </trkpt>
      <trkpt lat="48.20614" lon="-3.11312">
        <ele>244</ele>
        <time>2016-03-07T13:55:14Z</time>
      </trkpt>
      <trkpt lat="48.2061" lon="-3.11306">
        <ele>244</ele>
        <time>2016-03-07T13:55:17Z</time>
      </trkpt>
      <trkpt lat="48.20607" lon="-3.11303">
        <ele>244</ele>
        <time>2016-03-07T13:55:19Z</time>
      </trkpt>
      <trkpt lat="48.20605" lon="-3.11299">
        <ele>244</ele>
        <time>2016-03-07T13:55:21Z</time>
      </trkpt>
      <trkpt lat="48.20602" lon="-3.11294">
        <ele>243</ele>
        <time>2016-03-07T13:55:24Z</time>
      </trkpt>
      <trkpt lat="48.206" lon="-3.1129">
        <ele>244</ele>
        <time>2016-03-07T13:55:26Z</time>
      </trkpt>
      <trkpt lat="48.20598" lon="-3.11283">
        <ele>244</ele>
        <time>2016-03-07T13:55:29Z</time>
      </trkpt>
      <trkpt lat="48.20597" lon="-3.1128">
        <ele>244</ele>
        <time>2016-03-07T13:55:31Z</time>
      </trkpt>
      <trkpt lat="48.20596" lon="-3.11276">
        <ele>244</ele>
        <time>2016-03-07T13:55:33Z</time>
      </trkpt>
      <trkpt lat="48.20596" lon="-3.1127">
        <ele>244</ele>
        <time>2016-03-07T13:55:36Z</time>
      </trkpt>
      <trkpt lat="48.20595" lon="-3.11263">
        <ele>243</ele>
        <time>2016-03-07T13:55:39Z</time>
      </trkpt>
      <trkpt lat="48.20594" lon="-3.11256">
        <ele>243</ele>
        <time>2016-03-07T13:55:42Z</time>
      </trkpt>
      <trkpt lat="48.20592" lon="-3.11252">
        <ele>243</ele>
        <time>2016-03-07T13:55:44Z</time>
      </trkpt>
      <trkpt lat="48.20591" lon="-3.11247">
        <ele>243</ele>
        <time>2016-03-07T13:55:46Z</time>
      </trkpt>
      <trkpt lat="48.20589" lon="-3.1124">
        <ele>243</ele>
        <time>2016-03-07T13:55:49Z</time>
      </trkpt>
      <trkpt lat="48.20587" lon="-3.11236">
        <ele>244</ele>
        <time>2016-03-07T13:55:51Z</time>
      </trkpt>
      <trkpt lat="48.20584" lon="-3.11229">
        <ele>244</ele>
        <time>2016-03-07T13:55:54Z</time>
      </trkpt>
      <trkpt lat="48.20583" lon="-3.11226">
        <ele>244</ele>
        <time>2016-03-07T13:55:56Z</time>
      </trkpt>
      <trkpt lat="48.20582" lon="-3.11222">
        <ele>244</ele>
        <time>2016-03-07T13:55:58Z</time>
      </trkpt>
      <trkpt lat="48.20579" lon="-3.11216">
        <ele>244</ele>
        <time>2016-03-07T13:56:01Z</time>
      </trkpt>
      <trkpt lat="48.20578" lon="-3.11212">
        <ele>244</ele>
        <time>2016-03-07T13:56:03Z</time>
      </trkpt>
      <trkpt lat="48.20577" lon="-3.11207">
        <ele>244</ele>
        <time>2016-03-07T13:56:06Z</time>
      </trkpt>
      <trkpt lat="48.20575" lon="-3.11201">
        <ele>244</ele>
        <time>2016-03-07T13:56:09Z</time>
      </trkpt>
      <trkpt lat="48.20575" lon="-3.11198">
        <ele>244</ele>
        <time>2016-03-07T13:56:11Z</time>
      </trkpt>
      <trkpt lat="48.20575" lon="-3.11194">
        <ele>244</ele>
        <time>2016-03-07T13:56:13Z</time>
      </trkpt>
      <trkpt lat="48.20574" lon="-3.11188">
        <ele>244</ele>
        <time>2016-03-07T13:56:16Z</time>
      </trkpt>
      <trkpt lat="48.20574" lon="-3.11185">
        <ele>244</ele>
        <time>2016-03-07T13:56:18Z</time>
      </trkpt>
      <trkpt lat="48.20573" lon="-3.1118">
        <ele>243</ele>
        <time>2016-03-07T13:56:21Z</time>
      </trkpt>
      <trkpt lat="48.20574" lon="-3.11176">
        <ele>243</ele>
        <time>2016-03-07T13:56:23Z</time>
      </trkpt>
      <trkpt lat="48.20573" lon="-3.11171">
        <ele>243</ele>
        <time>2016-03-07T13:56:26Z</time>
      </trkpt>
      <trkpt lat="48.20573" lon="-3.11165">
        <ele>243</ele>
        <time>2016-03-07T13:56:29Z</time>
      </trkpt>
      <trkpt lat="48.20575" lon="-3.11159">
        <ele>244</ele>
        <time>2016-03-07T13:56:32Z</time>
      </trkpt>
      <trkpt lat="48.20575" lon="-3.11152">
        <ele>243</ele>
        <time>2016-03-07T13:56:35Z</time>
      </trkpt>
      <trkpt lat="48.20577" lon="-3.11147">
        <ele>243</ele>
        <time>2016-03-07T13:56:38Z</time>
      </trkpt>
      <trkpt lat="48.20577" lon="-3.11141">
        <ele>243</ele>
        <time>2016-03-07T13:56:41Z</time>
      </trkpt>
      <trkpt lat="48.20577" lon="-3.11137">
        <ele>243</ele>
        <time>2016-03-07T13:56:43Z</time>
      </trkpt>
      <trkpt lat="48.20577" lon="-3.1113">
        <ele>243</ele>
        <time>2016-03-07T13:56:46Z</time>
      </trkpt>
      <trkpt lat="48.20577" lon="-3.11126">
        <ele>243</ele>
        <time>2016-03-07T13:56:48Z</time>
      </trkpt>
      <trkpt lat="48.20577" lon="-3.11119">
        <ele>243</ele>
        <time>2016-03-07T13:56:51Z</time>
      </trkpt>
      <trkpt lat="48.20578" lon="-3.11112">
        <ele>243</ele>
        <time>2016-03-07T13:56:54Z</time>
      </trkpt>
      <trkpt lat="48.20578" lon="-3.11106">
        <ele>243</ele>
        <time>2016-03-07T13:56:57Z</time>
      </trkpt>
      <trkpt lat="48.20579" lon="-3.11099">
        <ele>243</ele>
        <time>2016-03-07T13:57:00Z</time>
      </trkpt>
      <trkpt lat="48.20579" lon="-3.11095">
        <ele>243</ele>
        <time>2016-03-07T13:57:02Z</time>
      </trkpt>
      <trkpt lat="48.2058" lon="-3.11088">
        <ele>244</ele>
        <time>2016-03-07T13:57:05Z</time>
      </trkpt>
      <trkpt lat="48.20581" lon="-3.11084">
        <ele>244</ele>
        <time>2016-03-07T13:57:07Z</time>
      </trkpt>
      <trkpt lat="48.20581" lon="-3.11081">
        <ele>244</ele>
        <time>2016-03-07T13:57:09Z</time>
      </trkpt>
      <trkpt lat="48.20583" lon="-3.11076">
        <ele>244</ele>
        <time>2016-03-07T13:57:12Z</time>
      </trkpt>
      <trkpt lat="48.20584" lon="-3.11073">
        <ele>243</ele>
        <time>2016-03-07T13:57:14Z</time>
      </trkpt>
      <trkpt lat="48.20586" lon="-3.11068">
        <ele>243</ele>
        <time>2016-03-07T13:57:17Z</time>
      </trkpt>
      <trkpt lat="48.20588" lon="-3.11065">
        <ele>243</ele>
        <time>2016-03-07T13:57:19Z</time>
      </trkpt>
      <trkpt lat="48.20589" lon="-3.11062">
        <ele>243</ele>
        <time>2016-03-07T13:57:21Z</time>
      </trkpt>
      <trkpt lat="48.20591" lon="-3.11057">
        <ele>243</ele>
        <time>2016-03-07T13:57:24Z</time>
      </trkpt>
      <trkpt lat="48.20593" lon="-3.11054">
        <ele>243</ele>
        <time>2016-03-07T13:57:26Z</time>
      </trkpt>
      <trkpt lat="48.20596" lon="-3.11051">
        <ele>243</ele>
        <time>2016-03-07T13:57:29Z</time>
      </trkpt>
      <trkpt lat="48.20597" lon="-3.1105">
        <ele>243</ele>
        <time>2016-03-07T13:57:31Z</time>
      </trkpt>
      <trkpt lat="48.20599" lon="-3.11048">
        <ele>244</ele>
        <time>2016-03-07T13:57:33Z</time>
      </trkpt>
      <trkpt lat="48.20601" lon="-3.11047">
        <ele>244</ele>
        <time>2016-03-07T13:57:35Z</time>
      </trkpt>
      <trkpt lat="48.20604" lon="-3.11044">
        <ele>244</ele>
        <time>2016-03-07T13:57:38Z</time>
      </trkpt>
      <trkpt lat="48.20604" lon="-3.11043">
        <ele>244</ele>
        <time>2016-03-07T13:57:41Z</time>
      </trkpt>
      <trkpt lat="48.20604" lon="-3.11043">
        <ele>244</ele>
        <time>2016-03-07T13:57:43Z</time>
      </trkpt>
      <trkpt lat="48.20606" lon="-3.11043">
        <ele>244</ele>
        <time>2016-03-07T13:57:46Z</time>
      </trkpt>
      <trkpt lat="48.20609" lon="-3.11042">
        <ele>244</ele>
        <time>2016-03-07T13:57:49Z</time>
      </trkpt>
      <trkpt lat="48.20612" lon="-3.11041">
        <ele>243</ele>
        <time>2016-03-07T13:57:52Z</time>
      </trkpt>
      <trkpt lat="48.20615" lon="-3.1104">
        <ele>243</ele>
        <time>2016-03-07T13:57:54Z</time>
      </trkpt>
      <trkpt lat="48.20619" lon="-3.11039">
        <ele>243</ele>
        <time>2016-03-07T13:57:57Z</time>
      </trkpt>
      <trkpt lat="48.20622" lon="-3.11038">
        <ele>243</ele>
        <time>2016-03-07T13:57:59Z</time>
      </trkpt>
      <trkpt lat="48.20625" lon="-3.11037">
        <ele>243</ele>
        <time>2016-03-07T13:58:01Z</time>
      </trkpt>
      <trkpt lat="48.20628" lon="-3.11036">
        <ele>244</ele>
        <time>2016-03-07T13:58:03Z</time>
      </trkpt>
      <trkpt lat="48.20632" lon="-3.11036">
        <ele>244</ele>
        <time>2016-03-07T13:58:06Z</time>
      </trkpt>
      <trkpt lat="48.20636" lon="-3.11036">
        <ele>244</ele>
        <time>2016-03-07T13:58:09Z</time>
      </trkpt>
      <trkpt lat="48.20639" lon="-3.11036">
        <ele>244</ele>
        <time>2016-03-07T13:58:11Z</time>
      </trkpt>
      <trkpt lat="48.20643" lon="-3.11035">
        <ele>244</ele>
        <time>2016-03-07T13:58:14Z</time>
      </trkpt>
      <trkpt lat="48.20646" lon="-3.11034">
        <ele>244</ele>
        <time>2016-03-07T13:58:16Z</time>
      </trkpt>
      <trkpt lat="48.2065" lon="-3.11032">
        <ele>244</ele>
        <time>2016-03-07T13:58:19Z</time>
      </trkpt>
      <trkpt lat="48.20653" lon="-3.11031">
        <ele>244</ele>
        <time>2016-03-07T13:58:21Z</time>
      </trkpt>
      <trkpt lat="48.20657" lon="-3.11029">
        <ele>244</ele>
        <time>2016-03-07T13:58:24Z</time>
      </trkpt>
      <trkpt lat="48.20659" lon="-3.11029">
        <ele>244</ele>
        <time>2016-03-07T13:58:26Z</time>
      </trkpt>
      <trkpt lat="48.20662" lon="-3.11028">
        <ele>244</ele>
        <time>2016-03-07T13:58:28Z</time>
      </trkpt>
      <trkpt lat="48.20666" lon="-3.11026">
        <ele>245</ele>
        <time>2016-03-07T13:58:31Z</time>
      </trkpt>
      <trkpt lat="48.20668" lon="-3.11024">
        <ele>245</ele>
        <time>2016-03-07T13:58:33Z</time>
      </trkpt>
      <trkpt lat="48.20672" lon="-3.11023">
        <ele>245</ele>
        <time>2016-03-07T13:58:36Z</time>
      </trkpt>
      <trkpt lat="48.20674" lon="-3.11022">
        <ele>245</ele>
        <time>2016-03-07T13:58:38Z</time>
      </trkpt>
      <trkpt lat="48.20678" lon="-3.1102">
        <ele>245</ele>
        <time>2016-03-07T13:58:41Z</time>
      </trkpt>
      <trkpt lat="48.20681" lon="-3.11018">
        <ele>245</ele>
        <time>2016-03-07T13:58:44Z</time>
      </trkpt>
      <trkpt lat="48.20685" lon="-3.11017">
        <ele>245</ele>
        <time>2016-03-07T13:58:47Z</time>
      </trkpt>
      <trkpt lat="48.20688" lon="-3.11015">
        <ele>244</ele>
        <time>2016-03-07T13:58:50Z</time>
      </trkpt>
      <trkpt lat="48.2069" lon="-3.11013">
        <ele>244</ele>
        <time>2016-03-07T13:58:52Z</time>
      </trkpt>
      <trkpt lat="48.20692" lon="-3.11012">
        <ele>244</ele>
        <time>2016-03-07T13:58:54Z</time>
      </trkpt>
      <trkpt lat="48.20695" lon="-3.11011">
        <ele>244</ele>
        <time>2016-03-07T13:58:57Z</time>
      </trkpt>
      <trkpt lat="48.20697" lon="-3.1101">
        <ele>244</ele>
        <time>2016-03-07T13:58:59Z</time>
      </trkpt>
      <trkpt lat="48.207" lon="-3.11008">
        <ele>244</ele>
        <time>2016-03-07T13:59:02Z</time>
      </trkpt>
      <trkpt lat="48.20702" lon="-3.11005">
        <ele>244</ele>
        <time>2016-03-07T13:59:05Z</time>
      </trkpt>
      <trkpt lat="48.20703" lon="-3.11002">
        <ele>244</ele>
        <time>2016-03-07T13:59:07Z</time>
      </trkpt>
      <trkpt lat="48.20704" lon="-3.11">
        <ele>244</ele>
        <time>2016-03-07T13:59:09Z</time>
      </trkpt>
      <trkpt lat="48.20704" lon="-3.10998">
        <ele>244</ele>
        <time>2016-03-07T13:59:11Z</time>
      </trkpt>
      <trkpt lat="48.20705" lon="-3.10993">
        <ele>244</ele>
        <time>2016-03-07T13:59:14Z</time>
      </trkpt>
      <trkpt lat="48.20705" lon="-3.10992">
        <ele>243</ele>
        <time>2016-03-07T13:59:16Z</time>
      </trkpt>
      <trkpt lat="48.20704" lon="-3.10991">
        <ele>243</ele>
        <time>2016-03-07T13:59:20Z</time>
      </trkpt>
      <trkpt lat="48.20705" lon="-3.1099">
        <ele>243</ele>
        <time>2016-03-07T13:59:22Z</time>
      </trkpt>
      <trkpt lat="48.20704" lon="-3.10989">
        <ele>243</ele>
        <time>2016-03-07T13:59:25Z</time>
      </trkpt>
      <trkpt lat="48.20703" lon="-3.10989">
        <ele>244</ele>
        <time>2016-03-07T13:59:28Z</time>
      </trkpt>
      <trkpt lat="48.20702" lon="-3.1099">
        <ele>244</ele>
        <time>2016-03-07T13:59:31Z</time>
      </trkpt>
      <trkpt lat="48.20702" lon="-3.1099">
        <ele>244</ele>
        <time>2016-03-07T13:59:34Z</time>
      </trkpt>
      <trkpt lat="48.20702" lon="-3.1099">
        <ele>244</ele>
        <time>2016-03-07T13:59:37Z</time>
      </trkpt>
      <trkpt lat="48.20702" lon="-3.1099">
        <ele>244</ele>
        <time>2016-03-07T13:59:39Z</time>
      </trkpt>
      <trkpt lat="48.20702" lon="-3.1099">
        <ele>244</ele>
        <time>2016-03-07T13:59:42Z</time>
      </trkpt>
      <trkpt lat="48.20702" lon="-3.10991">
        <ele>244</ele>
        <time>2016-03-07T13:59:44Z</time>
      </trkpt>
      <trkpt lat="48.20702" lon="-3.10992">
        <ele>244</ele>
        <time>2016-03-07T13:59:46Z</time>
      </trkpt>
      <trkpt lat="48.20702" lon="-3.10992">
        <ele>244</ele>
        <time>2016-03-07T13:59:49Z</time>
      </trkpt>
      <trkpt lat="48.20702" lon="-3.10992">
        <ele>244</ele>
        <time>2016-03-07T13:59:51Z</time>
      </trkpt>
      <trkpt lat="48.207" lon="-3.10991">
        <ele>244</ele>
        <time>2016-03-07T13:59:53Z</time>
      </trkpt>
      <trkpt lat="48.20698" lon="-3.10989">
        <ele>244</ele>
        <time>2016-03-07T13:59:56Z</time>
      </trkpt>
      <trkpt lat="48.20697" lon="-3.10987">
        <ele>244</ele>
        <time>2016-03-07T13:59:58Z</time>
      </trkpt>
      <trkpt lat="48.20696" lon="-3.10983">
        <ele>244</ele>
        <time>2016-03-07T14:00:01Z</time>
      </trkpt>
      <trkpt lat="48.20697" lon="-3.10982">
        <ele>245</ele>
        <time>2016-03-07T14:00:04Z</time>
      </trkpt>
      <trkpt lat="48.20696" lon="-3.10981">
        <ele>245</ele>
        <time>2016-03-07T14:00:06Z</time>
      </trkpt>
      <trkpt lat="48.20695" lon="-3.10977">
        <ele>245</ele>
        <time>2016-03-07T14:00:09Z</time>
      </trkpt>
      <trkpt lat="48.20694" lon="-3.10975">
        <ele>245</ele>
        <time>2016-03-07T14:00:12Z</time>
      </trkpt>
      <trkpt lat="48.20694" lon="-3.10973">
        <ele>245</ele>
        <time>2016-03-07T14:00:15Z</time>
      </trkpt>
      <trkpt lat="48.20694" lon="-3.10971">
        <ele>246</ele>
        <time>2016-03-07T14:00:18Z</time>
      </trkpt>
      <trkpt lat="48.20694" lon="-3.1097">
        <ele>246</ele>
        <time>2016-03-07T14:00:20Z</time>
      </trkpt>
      <trkpt lat="48.20694" lon="-3.10969">
        <ele>246</ele>
        <time>2016-03-07T14:00:22Z</time>
      </trkpt>
      <trkpt lat="48.20694" lon="-3.10968">
        <ele>246</ele>
        <time>2016-03-07T14:00:25Z</time>
      </trkpt>
      <trkpt lat="48.20693" lon="-3.10967">
        <ele>246</ele>
        <time>2016-03-07T14:00:27Z</time>
      </trkpt>
      <trkpt lat="48.20692" lon="-3.10962">
        <ele>246</ele>
        <time>2016-03-07T14:00:30Z</time>
      </trkpt>
      <trkpt lat="48.20692" lon="-3.1096">
        <ele>246</ele>
        <time>2016-03-07T14:00:32Z</time>
      </trkpt>
      <trkpt lat="48.20692" lon="-3.10955">
        <ele>246</ele>
        <time>2016-03-07T14:00:35Z</time>
      </trkpt>
      <trkpt lat="48.20691" lon="-3.10951">
        <ele>245</ele>
        <time>2016-03-07T14:00:37Z</time>
      </trkpt>
      <trkpt lat="48.20689" lon="-3.10947">
        <ele>245</ele>
        <time>2016-03-07T14:00:40Z</time>
      </trkpt>
      <trkpt lat="48.20689" lon="-3.10946">
        <ele>245</ele>
        <time>2016-03-07T14:00:42Z</time>
      </trkpt>
      <trkpt lat="48.20689" lon="-3.10946">
        <ele>245</ele>
        <time>2016-03-07T14:00:44Z</time>
      </trkpt>
      <trkpt lat="48.20689" lon="-3.10946">
        <ele>246</ele>
        <time>2016-03-07T14:00:48Z</time>
      </trkpt>
      <trkpt lat="48.20689" lon="-3.10946">
        <ele>246</ele>
        <time>2016-03-07T14:00:50Z</time>
      </trkpt>
      <trkpt lat="48.2069" lon="-3.10946">
        <ele>246</ele>
        <time>2016-03-07T14:00:54Z</time>
      </trkpt>
      <trkpt lat="48.20691" lon="-3.10946">
        <ele>245</ele>
        <time>2016-03-07T14:00:57Z</time>
      </trkpt>
      <trkpt lat="48.20691" lon="-3.10946">
        <ele>245</ele>
        <time>2016-03-07T14:00:59Z</time>
      </trkpt>
      <trkpt lat="48.20691" lon="-3.10945">
        <ele>246</ele>
        <time>2016-03-07T14:01:02Z</time>
      </trkpt>
      <trkpt lat="48.20692" lon="-3.10947">
        <ele>246</ele>
        <time>2016-03-07T14:01:04Z</time>
      </trkpt>
      <trkpt lat="48.20692" lon="-3.1095">
        <ele>246</ele>
        <time>2016-03-07T14:01:07Z</time>
      </trkpt>
      <trkpt lat="48.20693" lon="-3.10954">
        <ele>246</ele>
        <time>2016-03-07T14:01:10Z</time>
      </trkpt>
      <trkpt lat="48.20694" lon="-3.10956">
        <ele>245</ele>
        <time>2016-03-07T14:01:12Z</time>
      </trkpt>
      <trkpt lat="48.20694" lon="-3.10961">
        <ele>245</ele>
        <time>2016-03-07T14:01:15Z</time>
      </trkpt>
      <trkpt lat="48.20694" lon="-3.10963">
        <ele>245</ele>
        <time>2016-03-07T14:01:17Z</time>
      </trkpt>
      <trkpt lat="48.20694" lon="-3.10966">
        <ele>245</ele>
        <time>2016-03-07T14:01:19Z</time>
      </trkpt>
      <trkpt lat="48.20695" lon="-3.10971">
        <ele>245</ele>
        <time>2016-03-07T14:01:22Z</time>
      </trkpt>
      <trkpt lat="48.20695" lon="-3.10976">
        <ele>245</ele>
        <time>2016-03-07T14:01:24Z</time>
      </trkpt>
      <trkpt lat="48.20695" lon="-3.1098">
        <ele>245</ele>
        <time>2016-03-07T14:01:27Z</time>
      </trkpt>
      <trkpt lat="48.20695" lon="-3.10981">
        <ele>245</ele>
        <time>2016-03-07T14:01:29Z</time>
      </trkpt>
      <trkpt lat="48.20696" lon="-3.10983">
        <ele>246</ele>
        <time>2016-03-07T14:01:32Z</time>
      </trkpt>
      <trkpt lat="48.20696" lon="-3.10984">
        <ele>246</ele>
        <time>2016-03-07T14:01:34Z</time>
      </trkpt>
      <trkpt lat="48.20695" lon="-3.10985">
        <ele>246</ele>
        <time>2016-03-07T14:01:37Z</time>
      </trkpt>
      <trkpt lat="48.20695" lon="-3.10986">
        <ele>246</ele>
        <time>2016-03-07T14:01:39Z</time>
      </trkpt>
      <trkpt lat="48.20695" lon="-3.10986">
        <ele>246</ele>
        <time>2016-03-07T14:01:41Z</time>
      </trkpt>
      <trkpt lat="48.20695" lon="-3.10987">
        <ele>245</ele>
        <time>2016-03-07T14:01:44Z</time>
      </trkpt>
      <trkpt lat="48.20695" lon="-3.10988">
        <ele>245</ele>
        <time>2016-03-07T14:01:48Z</time>
      </trkpt>
      <trkpt lat="48.20695" lon="-3.10989">
        <ele>245</ele>
        <time>2016-03-07T14:01:51Z</time>
      </trkpt>
      <trkpt lat="48.20695" lon="-3.10995">
        <ele>244</ele>
        <time>2016-03-07T14:01:54Z</time>
      </trkpt>
      <trkpt lat="48.20697" lon="-3.10999">
        <ele>244</ele>
        <time>2016-03-07T14:01:57Z</time>
      </trkpt>
      <trkpt lat="48.207" lon="-3.11">
        <ele>244</ele>
        <time>2016-03-07T14:01:59Z</time>
      </trkpt>
      <trkpt lat="48.20704" lon="-3.11001">
        <ele>244</ele>
        <time>2016-03-07T14:02:02Z</time>
      </trkpt>
      <trkpt lat="48.20706" lon="-3.11002">
        <ele>245</ele>
        <time>2016-03-07T14:02:04Z</time>
      </trkpt>
      <trkpt lat="48.2071" lon="-3.11">
        <ele>245</ele>
        <time>2016-03-07T14:02:07Z</time>
      </trkpt>
      <trkpt lat="48.20715" lon="-3.10998">
        <ele>245</ele>
        <time>2016-03-07T14:02:10Z</time>
      </trkpt>
      <trkpt lat="48.20718" lon="-3.10996">
        <ele>245</ele>
        <time>2016-03-07T14:02:13Z</time>
      </trkpt>
      <trkpt lat="48.20721" lon="-3.10995">
        <ele>245</ele>
        <time>2016-03-07T14:02:15Z</time>
      </trkpt>
      <trkpt lat="48.20725" lon="-3.10994">
        <ele>244</ele>
        <time>2016-03-07T14:02:18Z</time>
      </trkpt>
      <trkpt lat="48.20729" lon="-3.10993">
        <ele>244</ele>
        <time>2016-03-07T14:02:21Z</time>
      </trkpt>
      <trkpt lat="48.20732" lon="-3.10991">
        <ele>244</ele>
        <time>2016-03-07T14:02:24Z</time>
      </trkpt>
      <trkpt lat="48.20736" lon="-3.10989">
        <ele>244</ele>
        <time>2016-03-07T14:02:27Z</time>
      </trkpt>
      <trkpt lat="48.20739" lon="-3.10988">
        <ele>243</ele>
        <time>2016-03-07T14:02:29Z</time>
      </trkpt>
      <trkpt lat="48.20742" lon="-3.10987">
        <ele>243</ele>
        <time>2016-03-07T14:02:32Z</time>
      </trkpt>
      <trkpt lat="48.20743" lon="-3.10985">
        <ele>243</ele>
        <time>2016-03-07T14:02:34Z</time>
      </trkpt>
      <trkpt lat="48.20745" lon="-3.10985">
        <ele>243</ele>
        <time>2016-03-07T14:02:37Z</time>
      </trkpt>
      <trkpt lat="48.20747" lon="-3.10984">
        <ele>243</ele>
        <time>2016-03-07T14:02:39Z</time>
      </trkpt>
      <trkpt lat="48.2075" lon="-3.10984">
        <ele>243</ele>
        <time>2016-03-07T14:02:42Z</time>
      </trkpt>
      <trkpt lat="48.20751" lon="-3.10985">
        <ele>243</ele>
        <time>2016-03-07T14:02:44Z</time>
      </trkpt>
      <trkpt lat="48.20752" lon="-3.10987">
        <ele>243</ele>
        <time>2016-03-07T14:02:46Z</time>
      </trkpt>
      <trkpt lat="48.20754" lon="-3.1099">
        <ele>244</ele>
        <time>2016-03-07T14:02:49Z</time>
      </trkpt>
      <trkpt lat="48.20755" lon="-3.10994">
        <ele>244</ele>
        <time>2016-03-07T14:02:52Z</time>
      </trkpt>
      <trkpt lat="48.20756" lon="-3.10996">
        <ele>244</ele>
        <time>2016-03-07T14:02:54Z</time>
      </trkpt>
      <trkpt lat="48.20759" lon="-3.10998">
        <ele>245</ele>
        <time>2016-03-07T14:02:57Z</time>
      </trkpt>
      <trkpt lat="48.20761" lon="-3.10999">
        <ele>245</ele>
        <time>2016-03-07T14:02:59Z</time>
      </trkpt>
      <trkpt lat="48.20763" lon="-3.10999">
        <ele>245</ele>
        <time>2016-03-07T14:03:01Z</time>
      </trkpt>
      <trkpt lat="48.20766" lon="-3.10999">
        <ele>245</ele>
        <time>2016-03-07T14:03:04Z</time>
      </trkpt>
      <trkpt lat="48.2077" lon="-3.10999">
        <ele>246</ele>
        <time>2016-03-07T14:03:07Z</time>
      </trkpt>
      <trkpt lat="48.20773" lon="-3.10999">
        <ele>246</ele>
        <time>2016-03-07T14:03:09Z</time>
      </trkpt>
      <trkpt lat="48.20775" lon="-3.11001">
        <ele>246</ele>
        <time>2016-03-07T14:03:12Z</time>
      </trkpt>
      <trkpt lat="48.20776" lon="-3.11001">
        <ele>246</ele>
        <time>2016-03-07T14:03:14Z</time>
      </trkpt>
      <trkpt lat="48.20776" lon="-3.11001">
        <ele>246</ele>
        <time>2016-03-07T14:03:17Z</time>
      </trkpt>
      <trkpt lat="48.20777" lon="-3.11001">
        <ele>246</ele>
        <time>2016-03-07T14:03:19Z</time>
      </trkpt>
      <trkpt lat="48.20778" lon="-3.11001">
        <ele>246</ele>
        <time>2016-03-07T14:03:21Z</time>
      </trkpt>
      <trkpt lat="48.20779" lon="-3.11002">
        <ele>246</ele>
        <time>2016-03-07T14:03:24Z</time>
      </trkpt>
      <trkpt lat="48.20778" lon="-3.11002">
        <ele>246</ele>
        <time>2016-03-07T14:03:26Z</time>
      </trkpt>
      <trkpt lat="48.20778" lon="-3.11001">
        <ele>246</ele>
        <time>2016-03-07T14:03:28Z</time>
      </trkpt>
      <trkpt lat="48.20777" lon="-3.11">
        <ele>246</ele>
        <time>2016-03-07T14:03:31Z</time>
      </trkpt>
      <trkpt lat="48.20777" lon="-3.11">
        <ele>246</ele>
        <time>2016-03-07T14:03:33Z</time>
      </trkpt>
      <trkpt lat="48.20776" lon="-3.10999">
        <ele>246</ele>
        <time>2016-03-07T14:03:36Z</time>
      </trkpt>
      <trkpt lat="48.20776" lon="-3.10999">
        <ele>246</ele>
        <time>2016-03-07T14:03:39Z</time>
      </trkpt>
      <trkpt lat="48.20776" lon="-3.10999">
        <ele>246</ele>
        <time>2016-03-07T14:03:41Z</time>
      </trkpt>
      <trkpt lat="48.20776" lon="-3.10998">
        <ele>246</ele>
        <time>2016-03-07T14:03:44Z</time>
      </trkpt>
      <trkpt lat="48.20776" lon="-3.10998">
        <ele>246</ele>
        <time>2016-03-07T14:03:47Z</time>
      </trkpt>
      <trkpt lat="48.20778" lon="-3.10999">
        <ele>246</ele>
        <time>2016-03-07T14:03:49Z</time>
      </trkpt>
      <trkpt lat="48.20778" lon="-3.10999">
        <ele>246</ele>
        <time>2016-03-07T14:03:51Z</time>
      </trkpt>
      <trkpt lat="48.20781" lon="-3.11001">
        <ele>246</ele>
        <time>2016-03-07T14:03:54Z</time>
      </trkpt>
      <trkpt lat="48.20782" lon="-3.11003">
        <ele>246</ele>
        <time>2016-03-07T14:03:57Z</time>
      </trkpt>
      <trkpt lat="48.20784" lon="-3.11005">
        <ele>246</ele>
        <time>2016-03-07T14:03:59Z</time>
      </trkpt>
      <trkpt lat="48.20784" lon="-3.11005">
        <ele>246</ele>
        <time>2016-03-07T14:04:02Z</time>
      </trkpt>
      <trkpt lat="48.20784" lon="-3.11006">
        <ele>246</ele>
        <time>2016-03-07T14:04:05Z</time>
      </trkpt>
      <trkpt lat="48.20785" lon="-3.11006">
        <ele>246</ele>
        <time>2016-03-07T14:04:07Z</time>
      </trkpt>
      <trkpt lat="48.20786" lon="-3.11007">
        <ele>246</ele>
        <time>2016-03-07T14:04:10Z</time>
      </trkpt>
      <trkpt lat="48.20787" lon="-3.11007">
        <ele>247</ele>
        <time>2016-03-07T14:04:13Z</time>
      </trkpt>
      <trkpt lat="48.20787" lon="-3.11009">
        <ele>246</ele>
        <time>2016-03-07T14:04:15Z</time>
      </trkpt>
      <trkpt lat="48.20787" lon="-3.11012">
        <ele>247</ele>
        <time>2016-03-07T14:04:18Z</time>
      </trkpt>
      <trkpt lat="48.20788" lon="-3.11013">
        <ele>247</ele>
        <time>2016-03-07T14:04:20Z</time>
      </trkpt>
      <trkpt lat="48.20788" lon="-3.11016">
        <ele>248</ele>
        <time>2016-03-07T14:04:23Z</time>
      </trkpt>
      <trkpt lat="48.20788" lon="-3.11018">
        <ele>248</ele>
        <time>2016-03-07T14:04:25Z</time>
      </trkpt>
      <trkpt lat="48.20789" lon="-3.11022">
        <ele>249</ele>
        <time>2016-03-07T14:04:28Z</time>
      </trkpt>
      <trkpt lat="48.20789" lon="-3.11025">
        <ele>249</ele>
        <time>2016-03-07T14:04:30Z</time>
      </trkpt>
      <trkpt lat="48.20789" lon="-3.11027">
        <ele>250</ele>
        <time>2016-03-07T14:04:32Z</time>
      </trkpt>
      <trkpt lat="48.20789" lon="-3.1103">
        <ele>250</ele>
        <time>2016-03-07T14:04:34Z</time>
      </trkpt>
      <trkpt lat="48.20788" lon="-3.11033">
        <ele>251</ele>
        <time>2016-03-07T14:04:36Z</time>
      </trkpt>
      <trkpt lat="48.20787" lon="-3.11036">
        <ele>251</ele>
        <time>2016-03-07T14:04:39Z</time>
      </trkpt>
      <trkpt lat="48.20785" lon="-3.11039">
        <ele>252</ele>
        <time>2016-03-07T14:04:41Z</time>
      </trkpt>
      <trkpt lat="48.20783" lon="-3.11042">
        <ele>252</ele>
        <time>2016-03-07T14:04:44Z</time>
      </trkpt>
      <trkpt lat="48.20781" lon="-3.11043">
        <ele>253</ele>
        <time>2016-03-07T14:04:46Z</time>
      </trkpt>
      <trkpt lat="48.20778" lon="-3.11046">
        <ele>254</ele>
        <time>2016-03-07T14:04:49Z</time>
      </trkpt>
      <trkpt lat="48.20776" lon="-3.11048">
        <ele>254</ele>
        <time>2016-03-07T14:04:51Z</time>
      </trkpt>
      <trkpt lat="48.20774" lon="-3.11051">
        <ele>255</ele>
        <time>2016-03-07T14:04:54Z</time>
      </trkpt>
      <trkpt lat="48.20772" lon="-3.11053">
        <ele>256</ele>
        <time>2016-03-07T14:04:56Z</time>
      </trkpt>
      <trkpt lat="48.20771" lon="-3.11056">
        <ele>256</ele>
        <time>2016-03-07T14:04:59Z</time>
      </trkpt>
      <trkpt lat="48.20769" lon="-3.11059">
        <ele>257</ele>
        <time>2016-03-07T14:05:02Z</time>
      </trkpt>
      <trkpt lat="48.20766" lon="-3.11063">
        <ele>258</ele>
        <time>2016-03-07T14:05:05Z</time>
      </trkpt>
      <trkpt lat="48.20765" lon="-3.11066">
        <ele>258</ele>
        <time>2016-03-07T14:05:08Z</time>
      </trkpt>
      <trkpt lat="48.20763" lon="-3.11068">
        <ele>259</ele>
        <time>2016-03-07T14:05:10Z</time>
      </trkpt>
      <trkpt lat="48.20763" lon="-3.11071">
        <ele>260</ele>
        <time>2016-03-07T14:05:13Z</time>
      </trkpt>
      <trkpt lat="48.20763" lon="-3.11073">
        <ele>261</ele>
        <time>2016-03-07T14:05:16Z</time>
      </trkpt>
      <trkpt lat="48.20763" lon="-3.11074">
        <ele>261</ele>
        <time>2016-03-07T14:05:19Z</time>
      </trkpt>
      <trkpt lat="48.20764" lon="-3.11076">
        <ele>262</ele>
        <time>2016-03-07T14:05:21Z</time>
      </trkpt>
      <trkpt lat="48.20764" lon="-3.11079">
        <ele>262</ele>
        <time>2016-03-07T14:05:23Z</time>
      </trkpt>
      <trkpt lat="48.20766" lon="-3.11083">
        <ele>262</ele>
        <time>2016-03-07T14:05:26Z</time>
      </trkpt>
      <trkpt lat="48.20767" lon="-3.11086">
        <ele>263</ele>
        <time>2016-03-07T14:05:29Z</time>
      </trkpt>
      <trkpt lat="48.2077" lon="-3.11088">
        <ele>263</ele>
        <time>2016-03-07T14:05:31Z</time>
      </trkpt>
      <trkpt lat="48.20772" lon="-3.11091">
        <ele>264</ele>
        <time>2016-03-07T14:05:34Z</time>
      </trkpt>
      <trkpt lat="48.20775" lon="-3.11093">
        <ele>264</ele>
        <time>2016-03-07T14:05:37Z</time>
      </trkpt>
      <trkpt lat="48.20777" lon="-3.11095">
        <ele>265</ele>
        <time>2016-03-07T14:05:40Z</time>
      </trkpt>
      <trkpt lat="48.20778" lon="-3.11097">
        <ele>265</ele>
        <time>2016-03-07T14:05:42Z</time>
      </trkpt>
      <trkpt lat="48.20781" lon="-3.111">
        <ele>265</ele>
        <time>2016-03-07T14:05:45Z</time>
      </trkpt>
      <trkpt lat="48.20783" lon="-3.11101">
        <ele>265</ele>
        <time>2016-03-07T14:05:48Z</time>
      </trkpt>
      <trkpt lat="48.20784" lon="-3.11102">
        <ele>265</ele>
        <time>2016-03-07T14:05:50Z</time>
      </trkpt>
      <trkpt lat="48.20786" lon="-3.11105">
        <ele>265</ele>
        <time>2016-03-07T14:05:53Z</time>
      </trkpt>
      <trkpt lat="48.20787" lon="-3.11109">
        <ele>266</ele>
        <time>2016-03-07T14:05:56Z</time>
      </trkpt>
      <trkpt lat="48.20789" lon="-3.11111">
        <ele>266</ele>
        <time>2016-03-07T14:05:58Z</time>
      </trkpt>
      <trkpt lat="48.20789" lon="-3.11115">
        <ele>267</ele>
        <time>2016-03-07T14:06:01Z</time>
      </trkpt>
      <trkpt lat="48.2079" lon="-3.11117">
        <ele>267</ele>
        <time>2016-03-07T14:06:03Z</time>
      </trkpt>
      <trkpt lat="48.2079" lon="-3.11117">
        <ele>267</ele>
        <time>2016-03-07T14:06:05Z</time>
      </trkpt>
      <trkpt lat="48.2079" lon="-3.11119">
        <ele>268</ele>
        <time>2016-03-07T14:06:08Z</time>
      </trkpt>
      <trkpt lat="48.20788" lon="-3.1112">
        <ele>268</ele>
        <time>2016-03-07T14:06:10Z</time>
      </trkpt>
      <trkpt lat="48.20787" lon="-3.11122">
        <ele>268</ele>
        <time>2016-03-07T14:06:13Z</time>
      </trkpt>
      <trkpt lat="48.20785" lon="-3.11125">
        <ele>268</ele>
        <time>2016-03-07T14:06:15Z</time>
      </trkpt>
      <trkpt lat="48.20784" lon="-3.11126">
        <ele>268</ele>
        <time>2016-03-07T14:06:17Z</time>
      </trkpt>
      <trkpt lat="48.20783" lon="-3.11129">
        <ele>269</ele>
        <time>2016-03-07T14:06:20Z</time>
      </trkpt>
      <trkpt lat="48.20781" lon="-3.11132">
        <ele>269</ele>
        <time>2016-03-07T14:06:23Z</time>
      </trkpt>
      <trkpt lat="48.2078" lon="-3.11135">
        <ele>270</ele>
        <time>2016-03-07T14:06:26Z</time>
      </trkpt>
      <trkpt lat="48.20779" lon="-3.11139">
        <ele>270</ele>
        <time>2016-03-07T14:06:29Z</time>
      </trkpt>
      <trkpt lat="48.20779" lon="-3.11141">
        <ele>270</ele>
        <time>2016-03-07T14:06:31Z</time>
      </trkpt>
      <trkpt lat="48.20779" lon="-3.11145">
        <ele>271</ele>
        <time>2016-03-07T14:06:34Z</time>
      </trkpt>
      <trkpt lat="48.20779" lon="-3.11149">
        <ele>271</ele>
        <time>2016-03-07T14:06:37Z</time>
      </trkpt>
      <trkpt lat="48.20779" lon="-3.11153">
        <ele>272</ele>
        <time>2016-03-07T14:06:40Z</time>
      </trkpt>
      <trkpt lat="48.20779" lon="-3.11155">
        <ele>272</ele>
        <time>2016-03-07T14:06:42Z</time>
      </trkpt>
      <trkpt lat="48.20778" lon="-3.11158">
        <ele>273</ele>
        <time>2016-03-07T14:06:44Z</time>
      </trkpt>
      <trkpt lat="48.20779" lon="-3.11162">
        <ele>273</ele>
        <time>2016-03-07T14:06:47Z</time>
      </trkpt>
      <trkpt lat="48.2078" lon="-3.11165">
        <ele>273</ele>
        <time>2016-03-07T14:06:49Z</time>
      </trkpt>
      <trkpt lat="48.20781" lon="-3.11169">
        <ele>273</ele>
        <time>2016-03-07T14:06:52Z</time>
      </trkpt>
      <trkpt lat="48.20781" lon="-3.11174">
        <ele>274</ele>
        <time>2016-03-07T14:06:55Z</time>
      </trkpt>
      <trkpt lat="48.20782" lon="-3.11178">
        <ele>274</ele>
        <time>2016-03-07T14:06:57Z</time>
      </trkpt>
      <trkpt lat="48.20782" lon="-3.11183">
        <ele>275</ele>
        <time>2016-03-07T14:07:00Z</time>
      </trkpt>
      <trkpt lat="48.20783" lon="-3.11188">
        <ele>276</ele>
        <time>2016-03-07T14:07:03Z</time>
      </trkpt>
      <trkpt lat="48.20785" lon="-3.11192">
        <ele>276</ele>
        <time>2016-03-07T14:07:06Z</time>
      </trkpt>
      <trkpt lat="48.20787" lon="-3.11195">
        <ele>276</ele>
        <time>2016-03-07T14:07:08Z</time>
      </trkpt>
      <trkpt lat="48.20788" lon="-3.112">
        <ele>276</ele>
        <time>2016-03-07T14:07:11Z</time>
      </trkpt>
      <trkpt lat="48.2079" lon="-3.11204">
        <ele>277</ele>
        <time>2016-03-07T14:07:14Z</time>
      </trkpt>
      <trkpt lat="48.20792" lon="-3.11206">
        <ele>277</ele>
        <time>2016-03-07T14:07:16Z</time>
      </trkpt>
      <trkpt lat="48.20794" lon="-3.1121">
        <ele>278</ele>
        <time>2016-03-07T14:07:19Z</time>
      </trkpt>
      <trkpt lat="48.20796" lon="-3.11213">
        <ele>278</ele>
        <time>2016-03-07T14:07:22Z</time>
      </trkpt>
      <trkpt lat="48.20797" lon="-3.11215">
        <ele>279</ele>
        <time>2016-03-07T14:07:24Z</time>
      </trkpt>
      <trkpt lat="48.208" lon="-3.11218">
        <ele>279</ele>
        <time>2016-03-07T14:07:27Z</time>
      </trkpt>
      <trkpt lat="48.208" lon="-3.1122">
        <ele>279</ele>
        <time>2016-03-07T14:07:29Z</time>
      </trkpt>
      <trkpt lat="48.20802" lon="-3.11224">
        <ele>279</ele>
        <time>2016-03-07T14:07:32Z</time>
      </trkpt>
      <trkpt lat="48.20803" lon="-3.11227">
        <ele>280</ele>
        <time>2016-03-07T14:07:35Z</time>
      </trkpt>
      <trkpt lat="48.20805" lon="-3.11229">
        <ele>280</ele>
        <time>2016-03-07T14:07:38Z</time>
      </trkpt>
      <trkpt lat="48.20807" lon="-3.11232">
        <ele>280</ele>
        <time>2016-03-07T14:07:41Z</time>
      </trkpt>
      <trkpt lat="48.20808" lon="-3.11236">
        <ele>281</ele>
        <time>2016-03-07T14:07:44Z</time>
      </trkpt>
      <trkpt lat="48.20808" lon="-3.11238">
        <ele>281</ele>
        <time>2016-03-07T14:07:46Z</time>
      </trkpt>
      <trkpt lat="48.20811" lon="-3.11242">
        <ele>281</ele>
        <time>2016-03-07T14:07:49Z</time>
      </trkpt>
      <trkpt lat="48.20813" lon="-3.11243">
        <ele>281</ele>
        <time>2016-03-07T14:07:52Z</time>
      </trkpt>
      <trkpt lat="48.20815" lon="-3.11244">
        <ele>282</ele>
        <time>2016-03-07T14:07:55Z</time>
      </trkpt>
      <trkpt lat="48.20817" lon="-3.11243">
        <ele>282</ele>
        <time>2016-03-07T14:07:58Z</time>
      </trkpt>
      <trkpt lat="48.20819" lon="-3.11243">
        <ele>282</ele>
        <time>2016-03-07T14:08:01Z</time>
      </trkpt>
      <trkpt lat="48.20821" lon="-3.11242">
        <ele>282</ele>
        <time>2016-03-07T14:08:03Z</time>
      </trkpt>
      <trkpt lat="48.20824" lon="-3.11243">
        <ele>282</ele>
        <time>2016-03-07T14:08:06Z</time>
      </trkpt>
      <trkpt lat="48.20826" lon="-3.11242">
        <ele>282</ele>
        <time>2016-03-07T14:08:09Z</time>
      </trkpt>
      <trkpt lat="48.20828" lon="-3.11241">
        <ele>282</ele>
        <time>2016-03-07T14:08:12Z</time>
      </trkpt>
      <trkpt lat="48.20829" lon="-3.11241">
        <ele>282</ele>
        <time>2016-03-07T14:08:14Z</time>
      </trkpt>
      <trkpt lat="48.2083" lon="-3.1124">
        <ele>282</ele>
        <time>2016-03-07T14:08:17Z</time>
      </trkpt>
      <trkpt lat="48.20831" lon="-3.1124">
        <ele>282</ele>
        <time>2016-03-07T14:08:20Z</time>
      </trkpt>
      <trkpt lat="48.20833" lon="-3.1124">
        <ele>282</ele>
        <time>2016-03-07T14:08:23Z</time>
      </trkpt>
      <trkpt lat="48.20835" lon="-3.1124">
        <ele>282</ele>
        <time>2016-03-07T14:08:26Z</time>
      </trkpt>
      <trkpt lat="48.20838" lon="-3.11239">
        <ele>282</ele>
        <time>2016-03-07T14:08:29Z</time>
      </trkpt>
      <trkpt lat="48.2084" lon="-3.11239">
        <ele>282</ele>
        <time>2016-03-07T14:08:31Z</time>
      </trkpt>
      <trkpt lat="48.20845" lon="-3.11238">
        <ele>283</ele>
        <time>2016-03-07T14:08:34Z</time>
      </trkpt>
      <trkpt lat="48.20847" lon="-3.11238">
        <ele>283</ele>
        <time>2016-03-07T14:08:36Z</time>
      </trkpt>
      <trkpt lat="48.20851" lon="-3.11237">
        <ele>283</ele>
        <time>2016-03-07T14:08:39Z</time>
      </trkpt>
      <trkpt lat="48.20854" lon="-3.11237">
        <ele>283</ele>
        <time>2016-03-07T14:08:42Z</time>
      </trkpt>
      <trkpt lat="48.20856" lon="-3.11237">
        <ele>283</ele>
        <time>2016-03-07T14:08:44Z</time>
      </trkpt>
      <trkpt lat="48.20859" lon="-3.11235">
        <ele>284</ele>
        <time>2016-03-07T14:08:47Z</time>
      </trkpt>
      <trkpt lat="48.20861" lon="-3.11234">
        <ele>284</ele>
        <time>2016-03-07T14:08:50Z</time>
      </trkpt>
      <trkpt lat="48.20861" lon="-3.11234">
        <ele>284</ele>
        <time>2016-03-07T14:08:52Z</time>
      </trkpt>
      <trkpt lat="48.20863" lon="-3.11234">
        <ele>284</ele>
        <time>2016-03-07T14:08:55Z</time>
      </trkpt>
      <trkpt lat="48.20863" lon="-3.11234">
        <ele>284</ele>
        <time>2016-03-07T14:08:57Z</time>
      </trkpt>
      <trkpt lat="48.20864" lon="-3.11234">
        <ele>284</ele>
        <time>2016-03-07T14:09:00Z</time>
      </trkpt>
      <trkpt lat="48.20865" lon="-3.11234">
        <ele>284</ele>
        <time>2016-03-07T14:09:02Z</time>
      </trkpt>
      <trkpt lat="48.20866" lon="-3.11234">
        <ele>284</ele>
        <time>2016-03-07T14:09:04Z</time>
      </trkpt>
      <trkpt lat="48.20867" lon="-3.11234">
        <ele>284</ele>
        <time>2016-03-07T14:09:07Z</time>
      </trkpt>
      <trkpt lat="48.20868" lon="-3.11234">
        <ele>283</ele>
        <time>2016-03-07T14:09:10Z</time>
      </trkpt>
      <trkpt lat="48.20869" lon="-3.11234">
        <ele>283</ele>
        <time>2016-03-07T14:09:13Z</time>
      </trkpt>
      <trkpt lat="48.20869" lon="-3.11234">
        <ele>283</ele>
        <time>2016-03-07T14:09:16Z</time>
      </trkpt>
      <trkpt lat="48.20869" lon="-3.11233">
        <ele>284</ele>
        <time>2016-03-07T14:09:19Z</time>
      </trkpt>
      <trkpt lat="48.20869" lon="-3.11233">
        <ele>284</ele>
        <time>2016-03-07T14:09:22Z</time>
      </trkpt>
      <trkpt lat="48.20869" lon="-3.11233">
        <ele>284</ele>
        <time>2016-03-07T14:09:24Z</time>
      </trkpt>
      <trkpt lat="48.20869" lon="-3.11232">
        <ele>284</ele>
        <time>2016-03-07T14:09:27Z</time>
      </trkpt>
      <trkpt lat="48.20869" lon="-3.11232">
        <ele>284</ele>
        <time>2016-03-07T14:09:30Z</time>
      </trkpt>
      <trkpt lat="48.20869" lon="-3.11232">
        <ele>284</ele>
        <time>2016-03-07T14:09:34Z</time>
      </trkpt>
      <trkpt lat="48.20869" lon="-3.11232">
        <ele>284</ele>
        <time>2016-03-07T14:09:37Z</time>
      </trkpt>
      <trkpt lat="48.20869" lon="-3.11232">
        <ele>284</ele>
        <time>2016-03-07T14:09:41Z</time>
      </trkpt>
      <trkpt lat="48.20869" lon="-3.11232">
        <ele>284</ele>
        <time>2016-03-07T14:09:45Z</time>
      </trkpt>
      <trkpt lat="48.20869" lon="-3.11232">
        <ele>284</ele>
        <time>2016-03-07T14:09:47Z</time>
      </trkpt>
      <trkpt lat="48.20869" lon="-3.11232">
        <ele>284</ele>
        <time>2016-03-07T14:09:50Z</time>
      </trkpt>
      <trkpt lat="48.20869" lon="-3.11232">
        <ele>284</ele>
        <time>2016-03-07T14:09:54Z</time>
      </trkpt>
      <trkpt lat="48.20869" lon="-3.11232">
        <ele>284</ele>
        <time>2016-03-07T14:09:58Z</time>
      </trkpt>
      <trkpt lat="48.20869" lon="-3.11233">
        <ele>284</ele>
        <time>2016-03-07T14:10:00Z</time>
      </trkpt>
      <trkpt lat="48.20868" lon="-3.11233">
        <ele>283</ele>
        <time>2016-03-07T14:10:03Z</time>
      </trkpt>
      <trkpt lat="48.20868" lon="-3.11232">
        <ele>284</ele>
        <time>2016-03-07T14:10:06Z</time>
      </trkpt>
      <trkpt lat="48.20869" lon="-3.11232">
        <ele>284</ele>
        <time>2016-03-07T14:10:09Z</time>
      </trkpt>
      <trkpt lat="48.20869" lon="-3.11231">
        <ele>284</ele>
        <time>2016-03-07T14:10:12Z</time>
      </trkpt>
      <trkpt lat="48.20868" lon="-3.11231">
        <ele>284</ele>
        <time>2016-03-07T14:10:14Z</time>
      </trkpt>
      <trkpt lat="48.20868" lon="-3.1123">
        <ele>284</ele>
        <time>2016-03-07T14:10:17Z</time>
      </trkpt>
      <trkpt lat="48.20868" lon="-3.11229">
        <ele>284</ele>
        <time>2016-03-07T14:10:19Z</time>
      </trkpt>
      <trkpt lat="48.20868" lon="-3.11229">
        <ele>284</ele>
        <time>2016-03-07T14:10:22Z</time>
      </trkpt>
      <trkpt lat="48.20868" lon="-3.11228">
        <ele>284</ele>
        <time>2016-03-07T14:10:25Z</time>
      </trkpt>
      <trkpt lat="48.20869" lon="-3.11228">
        <ele>284</ele>
        <time>2016-03-07T14:10:27Z</time>
      </trkpt>
      <trkpt lat="48.2087" lon="-3.11228">
        <ele>284</ele>
        <time>2016-03-07T14:10:31Z</time>
      </trkpt>
      <trkpt lat="48.2087" lon="-3.11228">
        <ele>284</ele>
        <time>2016-03-07T14:10:34Z</time>
      </trkpt>
      <trkpt lat="48.2087" lon="-3.11228">
        <ele>284</ele>
        <time>2016-03-07T14:10:36Z</time>
      </trkpt>
      <trkpt lat="48.2087" lon="-3.11229">
        <ele>284</ele>
        <time>2016-03-07T14:10:39Z</time>
      </trkpt>
      <trkpt lat="48.20871" lon="-3.1123">
        <ele>284</ele>
        <time>2016-03-07T14:10:41Z</time>
      </trkpt>
      <trkpt lat="48.20871" lon="-3.1123">
        <ele>284</ele>
        <time>2016-03-07T14:10:44Z</time>
      </trkpt>
      <trkpt lat="48.20871" lon="-3.1123">
        <ele>284</ele>
        <time>2016-03-07T14:10:46Z</time>
      </trkpt>
      <trkpt lat="48.20871" lon="-3.11231">
        <ele>284</ele>
        <time>2016-03-07T14:10:50Z</time>
      </trkpt>
      <trkpt lat="48.20871" lon="-3.1123">
        <ele>284</ele>
        <time>2016-03-07T14:10:54Z</time>
      </trkpt>
      <trkpt lat="48.20871" lon="-3.1123">
        <ele>284</ele>
        <time>2016-03-07T14:10:57Z</time>
      </trkpt>
      <trkpt lat="48.2087" lon="-3.1123">
        <ele>284</ele>
        <time>2016-03-07T14:11:00Z</time>
      </trkpt>
      <trkpt lat="48.20871" lon="-3.11229">
        <ele>284</ele>
        <time>2016-03-07T14:11:03Z</time>
      </trkpt>
      <trkpt lat="48.20872" lon="-3.11229">
        <ele>284</ele>
        <time>2016-03-07T14:11:06Z</time>
      </trkpt>
      <trkpt lat="48.20874" lon="-3.11228">
        <ele>284</ele>
        <time>2016-03-07T14:11:09Z</time>
      </trkpt>
      <trkpt lat="48.20876" lon="-3.11228">
        <ele>284</ele>
        <time>2016-03-07T14:11:11Z</time>
      </trkpt>
      <trkpt lat="48.20879" lon="-3.11227">
        <ele>284</ele>
        <time>2016-03-07T14:11:14Z</time>
      </trkpt>
      <trkpt lat="48.20881" lon="-3.11227">
        <ele>285</ele>
        <time>2016-03-07T14:11:17Z</time>
      </trkpt>
      <trkpt lat="48.20882" lon="-3.11226">
        <ele>285</ele>
        <time>2016-03-07T14:11:19Z</time>
      </trkpt>
      <trkpt lat="48.20884" lon="-3.11226">
        <ele>285</ele>
        <time>2016-03-07T14:11:22Z</time>
      </trkpt>
      <trkpt lat="48.20886" lon="-3.11225">
        <ele>285</ele>
        <time>2016-03-07T14:11:24Z</time>
      </trkpt>
      <trkpt lat="48.2089" lon="-3.11225">
        <ele>285</ele>
        <time>2016-03-07T14:11:27Z</time>
      </trkpt>
      <trkpt lat="48.20892" lon="-3.11224">
        <ele>286</ele>
        <time>2016-03-07T14:11:29Z</time>
      </trkpt>
      <trkpt lat="48.20895" lon="-3.11223">
        <ele>286</ele>
        <time>2016-03-07T14:11:32Z</time>
      </trkpt>
      <trkpt lat="48.20898" lon="-3.11223">
        <ele>286</ele>
        <time>2016-03-07T14:11:35Z</time>
      </trkpt>
      <trkpt lat="48.209" lon="-3.11222">
        <ele>286</ele>
        <time>2016-03-07T14:11:38Z</time>
      </trkpt>
      <trkpt lat="48.20901" lon="-3.11221">
        <ele>287</ele>
        <time>2016-03-07T14:11:40Z</time>
      </trkpt>
      <trkpt lat="48.20904" lon="-3.11219">
        <ele>287</ele>
        <time>2016-03-07T14:11:43Z</time>
      </trkpt>
      <trkpt lat="48.20907" lon="-3.11219">
        <ele>287</ele>
        <time>2016-03-07T14:11:46Z</time>
      </trkpt>
      <trkpt lat="48.20911" lon="-3.11216">
        <ele>287</ele>
        <time>2016-03-07T14:11:49Z</time>
      </trkpt>
      <trkpt lat="48.20912" lon="-3.11215">
        <ele>287</ele>
        <time>2016-03-07T14:11:51Z</time>
      </trkpt>
      <trkpt lat="48.20916" lon="-3.11212">
        <ele>287</ele>
        <time>2016-03-07T14:11:54Z</time>
      </trkpt>
      <trkpt lat="48.20918" lon="-3.1121">
        <ele>288</ele>
        <time>2016-03-07T14:11:56Z</time>
      </trkpt>
      <trkpt lat="48.2092" lon="-3.1121">
        <ele>288</ele>
        <time>2016-03-07T14:11:58Z</time>
      </trkpt>
      <trkpt lat="48.2092" lon="-3.11209">
        <ele>288</ele>
        <time>2016-03-07T14:12:00Z</time>
      </trkpt>
      <trkpt lat="48.20921" lon="-3.11208">
        <ele>288</ele>
        <time>2016-03-07T14:12:03Z</time>
      </trkpt>
      <trkpt lat="48.20922" lon="-3.11207">
        <ele>287</ele>
        <time>2016-03-07T14:12:05Z</time>
      </trkpt>
      <trkpt lat="48.20922" lon="-3.11207">
        <ele>287</ele>
        <time>2016-03-07T14:12:08Z</time>
      </trkpt>
      <trkpt lat="48.20923" lon="-3.11207">
        <ele>287</ele>
        <time>2016-03-07T14:12:10Z</time>
      </trkpt>
      <trkpt lat="48.20924" lon="-3.11207">
        <ele>288</ele>
        <time>2016-03-07T14:12:13Z</time>
      </trkpt>
      <trkpt lat="48.20924" lon="-3.11207">
        <ele>288</ele>
        <time>2016-03-07T14:12:15Z</time>
      </trkpt>
      <trkpt lat="48.20925" lon="-3.11206">
        <ele>288</ele>
        <time>2016-03-07T14:12:18Z</time>
      </trkpt>
      <trkpt lat="48.20926" lon="-3.11206">
        <ele>288</ele>
        <time>2016-03-07T14:12:21Z</time>
      </trkpt>
      <trkpt lat="48.20926" lon="-3.11206">
        <ele>289</ele>
        <time>2016-03-07T14:12:23Z</time>
      </trkpt>
      <trkpt lat="48.20926" lon="-3.11206">
        <ele>288</ele>
        <time>2016-03-07T14:12:26Z</time>
      </trkpt>
      <trkpt lat="48.20927" lon="-3.11206">
        <ele>288</ele>
        <time>2016-03-07T14:12:28Z</time>
      </trkpt>
      <trkpt lat="48.20929" lon="-3.11204">
        <ele>288</ele>
        <time>2016-03-07T14:12:31Z</time>
      </trkpt>
      <trkpt lat="48.2093" lon="-3.11204">
        <ele>288</ele>
        <time>2016-03-07T14:12:33Z</time>
      </trkpt>
      <trkpt lat="48.20933" lon="-3.11202">
        <ele>289</ele>
        <time>2016-03-07T14:12:36Z</time>
      </trkpt>
      <trkpt lat="48.20935" lon="-3.11201">
        <ele>289</ele>
        <time>2016-03-07T14:12:39Z</time>
      </trkpt>
      <trkpt lat="48.20936" lon="-3.11199">
        <ele>289</ele>
        <time>2016-03-07T14:12:41Z</time>
      </trkpt>
      <trkpt lat="48.20939" lon="-3.11198">
        <ele>289</ele>
        <time>2016-03-07T14:12:44Z</time>
      </trkpt>
      <trkpt lat="48.20941" lon="-3.11197">
        <ele>289</ele>
        <time>2016-03-07T14:12:46Z</time>
      </trkpt>
      <trkpt lat="48.20943" lon="-3.11196">
        <ele>289</ele>
        <time>2016-03-07T14:12:49Z</time>
      </trkpt>
      <trkpt lat="48.20945" lon="-3.11194">
        <ele>289</ele>
        <time>2016-03-07T14:12:51Z</time>
      </trkpt>
      <trkpt lat="48.20948" lon="-3.11191">
        <ele>289</ele>
        <time>2016-03-07T14:12:54Z</time>
      </trkpt>
      <trkpt lat="48.20951" lon="-3.11189">
        <ele>289</ele>
        <time>2016-03-07T14:12:56Z</time>
      </trkpt>
      <trkpt lat="48.20955" lon="-3.11187">
        <ele>289</ele>
        <time>2016-03-07T14:12:59Z</time>
      </trkpt>
      <trkpt lat="48.20957" lon="-3.11185">
        <ele>289</ele>
        <time>2016-03-07T14:13:01Z</time>
      </trkpt>
      <trkpt lat="48.2096" lon="-3.11182">
        <ele>289</ele>
        <time>2016-03-07T14:13:04Z</time>
      </trkpt>
      <trkpt lat="48.20962" lon="-3.11181">
        <ele>289</ele>
        <time>2016-03-07T14:13:06Z</time>
      </trkpt>
      <trkpt lat="48.20964" lon="-3.11178">
        <ele>289</ele>
        <time>2016-03-07T14:13:09Z</time>
      </trkpt>
      <trkpt lat="48.20966" lon="-3.11177">
        <ele>289</ele>
        <time>2016-03-07T14:13:11Z</time>
      </trkpt>
      <trkpt lat="48.20969" lon="-3.11176">
        <ele>289</ele>
        <time>2016-03-07T14:13:14Z</time>
      </trkpt>
      <trkpt lat="48.20972" lon="-3.11175">
        <ele>289</ele>
        <time>2016-03-07T14:13:16Z</time>
      </trkpt>
      <trkpt lat="48.20974" lon="-3.11172">
        <ele>289</ele>
        <time>2016-03-07T14:13:19Z</time>
      </trkpt>
      <trkpt lat="48.20977" lon="-3.1117">
        <ele>290</ele>
        <time>2016-03-07T14:13:22Z</time>
      </trkpt>
      <trkpt lat="48.20979" lon="-3.11169">
        <ele>290</ele>
        <time>2016-03-07T14:13:24Z</time>
      </trkpt>
      <trkpt lat="48.20983" lon="-3.11166">
        <ele>290</ele>
        <time>2016-03-07T14:13:27Z</time>
      </trkpt>
      <trkpt lat="48.20986" lon="-3.11165">
        <ele>290</ele>
        <time>2016-03-07T14:13:29Z</time>
      </trkpt>
      <trkpt lat="48.20988" lon="-3.11163">
        <ele>290</ele>
        <time>2016-03-07T14:13:31Z</time>
      </trkpt>
      <trkpt lat="48.20991" lon="-3.11161">
        <ele>290</ele>
        <time>2016-03-07T14:13:34Z</time>
      </trkpt>
      <trkpt lat="48.20993" lon="-3.11158">
        <ele>291</ele>
        <time>2016-03-07T14:13:37Z</time>
      </trkpt>
      <trkpt lat="48.20996" lon="-3.11157">
        <ele>291</ele>
        <time>2016-03-07T14:13:39Z</time>
      </trkpt>
      <trkpt lat="48.21" lon="-3.11154">
        <ele>291</ele>
        <time>2016-03-07T14:13:42Z</time>
      </trkpt>
      <trkpt lat="48.21002" lon="-3.11153">
        <ele>291</ele>
        <time>2016-03-07T14:13:44Z</time>
      </trkpt>
      <trkpt lat="48.21006" lon="-3.1115">
        <ele>291</ele>
        <time>2016-03-07T14:13:47Z</time>
      </trkpt>
      <trkpt lat="48.2101" lon="-3.11147">
        <ele>292</ele>
        <time>2016-03-07T14:13:50Z</time>
      </trkpt>
      <trkpt lat="48.21012" lon="-3.11145">
        <ele>292</ele>
        <time>2016-03-07T14:13:52Z</time>
      </trkpt>
      <trkpt lat="48.21016" lon="-3.11143">
        <ele>292</ele>
        <time>2016-03-07T14:13:55Z</time>
      </trkpt>
      <trkpt lat="48.21019" lon="-3.11142">
        <ele>293</ele>
        <time>2016-03-07T14:13:57Z</time>
      </trkpt>
      <trkpt lat="48.21023" lon="-3.11139">
        <ele>293</ele>
        <time>2016-03-07T14:14:00Z</time>
      </trkpt>
      <trkpt lat="48.21024" lon="-3.11139">
        <ele>294</ele>
        <time>2016-03-07T14:14:02Z</time>
      </trkpt>
      <trkpt lat="48.21028" lon="-3.11137">
        <ele>294</ele>
        <time>2016-03-07T14:14:05Z</time>
      </trkpt>
      <trkpt lat="48.2103" lon="-3.11136">
        <ele>294</ele>
        <time>2016-03-07T14:14:07Z</time>
      </trkpt>
      <trkpt lat="48.21034" lon="-3.11133">
        <ele>294</ele>
        <time>2016-03-07T14:14:10Z</time>
      </trkpt>
      <trkpt lat="48.21035" lon="-3.11133">
        <ele>294</ele>
        <time>2016-03-07T14:14:12Z</time>
      </trkpt>
      <trkpt lat="48.21038" lon="-3.11131">
        <ele>295</ele>
        <time>2016-03-07T14:14:15Z</time>
      </trkpt>
      <trkpt lat="48.2104" lon="-3.11128">
        <ele>295</ele>
        <time>2016-03-07T14:14:18Z</time>
      </trkpt>
      <trkpt lat="48.21042" lon="-3.11128">
        <ele>295</ele>
        <time>2016-03-07T14:14:20Z</time>
      </trkpt>
      <trkpt lat="48.21045" lon="-3.11126">
        <ele>295</ele>
        <time>2016-03-07T14:14:23Z</time>
      </trkpt>
      <trkpt lat="48.21048" lon="-3.11125">
        <ele>296</ele>
        <time>2016-03-07T14:14:26Z</time>
      </trkpt>
      <trkpt lat="48.2105" lon="-3.11123">
        <ele>296</ele>
        <time>2016-03-07T14:14:28Z</time>
      </trkpt>
      <trkpt lat="48.21052" lon="-3.11122">
        <ele>296</ele>
        <time>2016-03-07T14:14:31Z</time>
      </trkpt>
      <trkpt lat="48.21054" lon="-3.11121">
        <ele>296</ele>
        <time>2016-03-07T14:14:33Z</time>
      </trkpt>
      <trkpt lat="48.21056" lon="-3.11121">
        <ele>297</ele>
        <time>2016-03-07T14:14:35Z</time>
      </trkpt>
      <trkpt lat="48.21058" lon="-3.1112">
        <ele>297</ele>
        <time>2016-03-07T14:14:38Z</time>
      </trkpt>
      <trkpt lat="48.2106" lon="-3.11118">
        <ele>298</ele>
        <time>2016-03-07T14:14:41Z</time>
      </trkpt>
      <trkpt lat="48.21062" lon="-3.11117">
        <ele>298</ele>
        <time>2016-03-07T14:14:43Z</time>
      </trkpt>
      <trkpt lat="48.21066" lon="-3.11116">
        <ele>298</ele>
        <time>2016-03-07T14:14:46Z</time>
      </trkpt>
      <trkpt lat="48.21068" lon="-3.11115">
        <ele>298</ele>
        <time>2016-03-07T14:14:48Z</time>
      </trkpt>
      <trkpt lat="48.21071" lon="-3.11113">
        <ele>299</ele>
        <time>2016-03-07T14:14:51Z</time>
      </trkpt>
      <trkpt lat="48.21073" lon="-3.11111">
        <ele>299</ele>
        <time>2016-03-07T14:14:54Z</time>
      </trkpt>
      <trkpt lat="48.21075" lon="-3.1111">
        <ele>299</ele>
        <time>2016-03-07T14:14:56Z</time>
      </trkpt>
      <trkpt lat="48.21077" lon="-3.11109">
        <ele>299</ele>
        <time>2016-03-07T14:14:59Z</time>
      </trkpt>
      <trkpt lat="48.2108" lon="-3.11108">
        <ele>299</ele>
        <time>2016-03-07T14:15:01Z</time>
      </trkpt>
      <trkpt lat="48.21082" lon="-3.11106">
        <ele>300</ele>
        <time>2016-03-07T14:15:04Z</time>
      </trkpt>
      <trkpt lat="48.21083" lon="-3.11105">
        <ele>300</ele>
        <time>2016-03-07T14:15:06Z</time>
      </trkpt>
      <trkpt lat="48.21086" lon="-3.11103">
        <ele>300</ele>
        <time>2016-03-07T14:15:09Z</time>
      </trkpt>
      <trkpt lat="48.21088" lon="-3.11102">
        <ele>300</ele>
        <time>2016-03-07T14:15:11Z</time>
      </trkpt>
      <trkpt lat="48.21092" lon="-3.11099">
        <ele>300</ele>
        <time>2016-03-07T14:15:14Z</time>
      </trkpt>
      <trkpt lat="48.21094" lon="-3.11098">
        <ele>300</ele>
        <time>2016-03-07T14:15:16Z</time>
      </trkpt>
      <trkpt lat="48.21098" lon="-3.11096">
        <ele>300</ele>
        <time>2016-03-07T14:15:19Z</time>
      </trkpt>
      <trkpt lat="48.21101" lon="-3.11094">
        <ele>301</ele>
        <time>2016-03-07T14:15:22Z</time>
      </trkpt>
      <trkpt lat="48.21104" lon="-3.11092">
        <ele>301</ele>
        <time>2016-03-07T14:15:25Z</time>
      </trkpt>
      <trkpt lat="48.21107" lon="-3.11091">
        <ele>301</ele>
        <time>2016-03-07T14:15:28Z</time>
      </trkpt>
      <trkpt lat="48.21109" lon="-3.1109">
        <ele>301</ele>
        <time>2016-03-07T14:15:30Z</time>
      </trkpt>
      <trkpt lat="48.21112" lon="-3.11089">
        <ele>301</ele>
        <time>2016-03-07T14:15:33Z</time>
      </trkpt>
      <trkpt lat="48.21113" lon="-3.11088">
        <ele>301</ele>
        <time>2016-03-07T14:15:35Z</time>
      </trkpt>
      <trkpt lat="48.21115" lon="-3.11087">
        <ele>301</ele>
        <time>2016-03-07T14:15:38Z</time>
      </trkpt>
      <trkpt lat="48.21116" lon="-3.11086">
        <ele>301</ele>
        <time>2016-03-07T14:15:40Z</time>
      </trkpt>
      <trkpt lat="48.21117" lon="-3.11084">
        <ele>301</ele>
        <time>2016-03-07T14:15:43Z</time>
      </trkpt>
      <trkpt lat="48.21118" lon="-3.11083">
        <ele>301</ele>
        <time>2016-03-07T14:15:45Z</time>
      </trkpt>
      <trkpt lat="48.21118" lon="-3.11082">
        <ele>301</ele>
        <time>2016-03-07T14:15:48Z</time>
      </trkpt>
      <trkpt lat="48.2112" lon="-3.1108">
        <ele>301</ele>
        <time>2016-03-07T14:15:51Z</time>
      </trkpt>
      <trkpt lat="48.21122" lon="-3.11079">
        <ele>301</ele>
        <time>2016-03-07T14:15:53Z</time>
      </trkpt>
      <trkpt lat="48.21124" lon="-3.11077">
        <ele>301</ele>
        <time>2016-03-07T14:15:56Z</time>
      </trkpt>
      <trkpt lat="48.21126" lon="-3.11075">
        <ele>302</ele>
        <time>2016-03-07T14:15:59Z</time>
      </trkpt>
      <trkpt lat="48.21128" lon="-3.11074">
        <ele>301</ele>
        <time>2016-03-07T14:16:01Z</time>
      </trkpt>
      <trkpt lat="48.21131" lon="-3.11073">
        <ele>302</ele>
        <time>2016-03-07T14:16:04Z</time>
      </trkpt>
      <trkpt lat="48.21133" lon="-3.11071">
        <ele>301</ele>
        <time>2016-03-07T14:16:06Z</time>
      </trkpt>
      <trkpt lat="48.21135" lon="-3.1107">
        <ele>302</ele>
        <time>2016-03-07T14:16:08Z</time>
      </trkpt>
      <trkpt lat="48.21137" lon="-3.11068">
        <ele>302</ele>
        <time>2016-03-07T14:16:10Z</time>
      </trkpt>
      <trkpt lat="48.21141" lon="-3.11066">
        <ele>302</ele>
        <time>2016-03-07T14:16:13Z</time>
      </trkpt>
      <trkpt lat="48.21142" lon="-3.11065">
        <ele>302</ele>
        <time>2016-03-07T14:16:15Z</time>
      </trkpt>
      <trkpt lat="48.21146" lon="-3.11062">
        <ele>302</ele>
        <time>2016-03-07T14:16:18Z</time>
      </trkpt>
      <trkpt lat="48.21148" lon="-3.11061">
        <ele>302</ele>
        <time>2016-03-07T14:16:20Z</time>
      </trkpt>
      <trkpt lat="48.21151" lon="-3.1106">
        <ele>302</ele>
        <time>2016-03-07T14:16:22Z</time>
      </trkpt>
      <trkpt lat="48.21154" lon="-3.11057">
        <ele>302</ele>
        <time>2016-03-07T14:16:25Z</time>
      </trkpt>
      <trkpt lat="48.21157" lon="-3.11056">
        <ele>302</ele>
        <time>2016-03-07T14:16:27Z</time>
      </trkpt>
      <trkpt lat="48.2116" lon="-3.11054">
        <ele>303</ele>
        <time>2016-03-07T14:16:30Z</time>
      </trkpt>
      <trkpt lat="48.21162" lon="-3.11052">
        <ele>303</ele>
        <time>2016-03-07T14:16:32Z</time>
      </trkpt>
      <trkpt lat="48.21164" lon="-3.11051">
        <ele>303</ele>
        <time>2016-03-07T14:16:34Z</time>
      </trkpt>
      <trkpt lat="48.21167" lon="-3.11049">
        <ele>303</ele>
        <time>2016-03-07T14:16:37Z</time>
      </trkpt>
      <trkpt lat="48.21169" lon="-3.11047">
        <ele>303</ele>
        <time>2016-03-07T14:16:40Z</time>
      </trkpt>
      <trkpt lat="48.21171" lon="-3.11046">
        <ele>303</ele>
        <time>2016-03-07T14:16:42Z</time>
      </trkpt>
      <trkpt lat="48.21174" lon="-3.11043">
        <ele>303</ele>
        <time>2016-03-07T14:16:45Z</time>
      </trkpt>
      <trkpt lat="48.21177" lon="-3.11042">
        <ele>303</ele>
        <time>2016-03-07T14:16:48Z</time>
      </trkpt>
      <trkpt lat="48.2118" lon="-3.1104">
        <ele>303</ele>
        <time>2016-03-07T14:16:51Z</time>
      </trkpt>
      <trkpt lat="48.21182" lon="-3.11039">
        <ele>303</ele>
        <time>2016-03-07T14:16:53Z</time>
      </trkpt>
      <trkpt lat="48.21184" lon="-3.11036">
        <ele>303</ele>
        <time>2016-03-07T14:16:56Z</time>
      </trkpt>
      <trkpt lat="48.21187" lon="-3.11034">
        <ele>302</ele>
        <time>2016-03-07T14:16:59Z</time>
      </trkpt>
      <trkpt lat="48.21189" lon="-3.11033">
        <ele>302</ele>
        <time>2016-03-07T14:17:02Z</time>
      </trkpt>
      <trkpt lat="48.21191" lon="-3.11031">
        <ele>302</ele>
        <time>2016-03-07T14:17:05Z</time>
      </trkpt>
      <trkpt lat="48.21193" lon="-3.1103">
        <ele>301</ele>
        <time>2016-03-07T14:17:07Z</time>
      </trkpt>
      <trkpt lat="48.21196" lon="-3.11031">
        <ele>301</ele>
        <time>2016-03-07T14:17:10Z</time>
      </trkpt>
      <trkpt lat="48.21197" lon="-3.11033">
        <ele>301</ele>
        <time>2016-03-07T14:17:12Z</time>
      </trkpt>
      <trkpt lat="48.212" lon="-3.11035">
        <ele>301</ele>
        <time>2016-03-07T14:17:15Z</time>
      </trkpt>
      <trkpt lat="48.21201" lon="-3.11037">
        <ele>301</ele>
        <time>2016-03-07T14:17:17Z</time>
      </trkpt>
      <trkpt lat="48.21204" lon="-3.11039">
        <ele>301</ele>
        <time>2016-03-07T14:17:20Z</time>
      </trkpt>
      <trkpt lat="48.21205" lon="-3.1104">
        <ele>301</ele>
        <time>2016-03-07T14:17:22Z</time>
      </trkpt>
      <trkpt lat="48.21207" lon="-3.11041">
        <ele>300</ele>
        <time>2016-03-07T14:17:24Z</time>
      </trkpt>
      <trkpt lat="48.21209" lon="-3.11042">
        <ele>300</ele>
        <time>2016-03-07T14:17:26Z</time>
      </trkpt>
      <trkpt lat="48.21211" lon="-3.11042">
        <ele>300</ele>
        <time>2016-03-07T14:17:29Z</time>
      </trkpt>
      <trkpt lat="48.21213" lon="-3.11042">
        <ele>299</ele>
        <time>2016-03-07T14:17:32Z</time>
      </trkpt>
      <trkpt lat="48.21214" lon="-3.1104">
        <ele>299</ele>
        <time>2016-03-07T14:17:34Z</time>
      </trkpt>
      <trkpt lat="48.21215" lon="-3.11037">
        <ele>299</ele>
        <time>2016-03-07T14:17:37Z</time>
      </trkpt>
      <trkpt lat="48.21215" lon="-3.11034">
        <ele>299</ele>
        <time>2016-03-07T14:17:39Z</time>
      </trkpt>
      <trkpt lat="48.21215" lon="-3.11032">
        <ele>299</ele>
        <time>2016-03-07T14:17:41Z</time>
      </trkpt>
      <trkpt lat="48.21216" lon="-3.11028">
        <ele>299</ele>
        <time>2016-03-07T14:17:44Z</time>
      </trkpt>
      <trkpt lat="48.21217" lon="-3.11024">
        <ele>298</ele>
        <time>2016-03-07T14:17:47Z</time>
      </trkpt>
      <trkpt lat="48.21217" lon="-3.11022">
        <ele>298</ele>
        <time>2016-03-07T14:17:49Z</time>
      </trkpt>
      <trkpt lat="48.21218" lon="-3.11018">
        <ele>297</ele>
        <time>2016-03-07T14:17:52Z</time>
      </trkpt>
      <trkpt lat="48.21219" lon="-3.11016">
        <ele>297</ele>
        <time>2016-03-07T14:17:54Z</time>
      </trkpt>
      <trkpt lat="48.2122" lon="-3.11013">
        <ele>296</ele>
        <time>2016-03-07T14:17:57Z</time>
      </trkpt>
      <trkpt lat="48.2122" lon="-3.11011">
        <ele>296</ele>
        <time>2016-03-07T14:18:00Z</time>
      </trkpt>
      <trkpt lat="48.2122" lon="-3.1101">
        <ele>296</ele>
        <time>2016-03-07T14:18:03Z</time>
      </trkpt>
      <trkpt lat="48.2122" lon="-3.11009">
        <ele>296</ele>
        <time>2016-03-07T14:18:05Z</time>
      </trkpt>
      <trkpt lat="48.2122" lon="-3.11008">
        <ele>296</ele>
        <time>2016-03-07T14:18:07Z</time>
      </trkpt>
      <trkpt lat="48.21221" lon="-3.11007">
        <ele>296</ele>
        <time>2016-03-07T14:18:10Z</time>
      </trkpt>
      <trkpt lat="48.21221" lon="-3.11007">
        <ele>296</ele>
        <time>2016-03-07T14:18:13Z</time>
      </trkpt>
      <trkpt lat="48.21221" lon="-3.11006">
        <ele>296</ele>
        <time>2016-03-07T14:18:15Z</time>
      </trkpt>
      <trkpt lat="48.21222" lon="-3.11005">
        <ele>296</ele>
        <time>2016-03-07T14:18:17Z</time>
      </trkpt>
      <trkpt lat="48.21222" lon="-3.11005">
        <ele>296</ele>
        <time>2016-03-07T14:18:20Z</time>
      </trkpt>
      <trkpt lat="48.21222" lon="-3.11005">
        <ele>296</ele>
        <time>2016-03-07T14:18:23Z</time>
      </trkpt>
      <trkpt lat="48.21223" lon="-3.11005">
        <ele>296</ele>
        <time>2016-03-07T14:18:26Z</time>
      </trkpt>
      <trkpt lat="48.21223" lon="-3.11004">
        <ele>296</ele>
        <time>2016-03-07T14:18:29Z</time>
      </trkpt>
      <trkpt lat="48.21223" lon="-3.11004">
        <ele>296</ele>
        <time>2016-03-07T14:18:31Z</time>
      </trkpt>
      <trkpt lat="48.21223" lon="-3.11003">
        <ele>296</ele>
        <time>2016-03-07T14:18:33Z</time>
      </trkpt>
      <trkpt lat="48.21224" lon="-3.11002">
        <ele>296</ele>
        <time>2016-03-07T14:18:36Z</time>
      </trkpt>
      <trkpt lat="48.21224" lon="-3.11001">
        <ele>296</ele>
        <time>2016-03-07T14:18:39Z</time>
      </trkpt>
      <trkpt lat="48.21224" lon="-3.11">
        <ele>296</ele>
        <time>2016-03-07T14:18:42Z</time>
      </trkpt>
      <trkpt lat="48.21224" lon="-3.11">
        <ele>296</ele>
        <time>2016-03-07T14:18:44Z</time>
      </trkpt>
      <trkpt lat="48.21225" lon="-3.10999">
        <ele>296</ele>
        <time>2016-03-07T14:18:47Z</time>
      </trkpt>
      <trkpt lat="48.21225" lon="-3.10998">
        <ele>296</ele>
        <time>2016-03-07T14:18:49Z</time>
      </trkpt>
      <trkpt lat="48.21227" lon="-3.10997">
        <ele>296</ele>
        <time>2016-03-07T14:18:52Z</time>
      </trkpt>
      <trkpt lat="48.21227" lon="-3.10997">
        <ele>296</ele>
        <time>2016-03-07T14:18:54Z</time>
      </trkpt>
      <trkpt lat="48.21228" lon="-3.10997">
        <ele>296</ele>
        <time>2016-03-07T14:18:56Z</time>
      </trkpt>
      <trkpt lat="48.21229" lon="-3.10997">
        <ele>296</ele>
        <time>2016-03-07T14:18:59Z</time>
      </trkpt>
      <trkpt lat="48.21231" lon="-3.10998">
        <ele>296</ele>
        <time>2016-03-07T14:19:01Z</time>
      </trkpt>
      <trkpt lat="48.21233" lon="-3.10999">
        <ele>296</ele>
        <time>2016-03-07T14:19:03Z</time>
      </trkpt>
      <trkpt lat="48.21235" lon="-3.10999">
        <ele>296</ele>
        <time>2016-03-07T14:19:05Z</time>
      </trkpt>
      <trkpt lat="48.21238" lon="-3.11001">
        <ele>295</ele>
        <time>2016-03-07T14:19:08Z</time>
      </trkpt>
      <trkpt lat="48.2124" lon="-3.11002">
        <ele>295</ele>
        <time>2016-03-07T14:19:10Z</time>
      </trkpt>
      <trkpt lat="48.21243" lon="-3.11004">
        <ele>295</ele>
        <time>2016-03-07T14:19:13Z</time>
      </trkpt>
      <trkpt lat="48.21246" lon="-3.11006">
        <ele>294</ele>
        <time>2016-03-07T14:19:16Z</time>
      </trkpt>
      <trkpt lat="48.21248" lon="-3.11008">
        <ele>294</ele>
        <time>2016-03-07T14:19:19Z</time>
      </trkpt>
      <trkpt lat="48.21251" lon="-3.1101">
        <ele>293</ele>
        <time>2016-03-07T14:19:22Z</time>
      </trkpt>
      <trkpt lat="48.21254" lon="-3.11012">
        <ele>293</ele>
        <time>2016-03-07T14:19:25Z</time>
      </trkpt>
      <trkpt lat="48.21257" lon="-3.11013">
        <ele>292</ele>
        <time>2016-03-07T14:19:28Z</time>
      </trkpt>
      <trkpt lat="48.2126" lon="-3.11014">
        <ele>292</ele>
        <time>2016-03-07T14:19:30Z</time>
      </trkpt>
      <trkpt lat="48.21262" lon="-3.11015">
        <ele>292</ele>
        <time>2016-03-07T14:19:32Z</time>
      </trkpt>
      <trkpt lat="48.21265" lon="-3.11015">
        <ele>291</ele>
        <time>2016-03-07T14:19:35Z</time>
      </trkpt>
      <trkpt lat="48.21267" lon="-3.11014">
        <ele>291</ele>
        <time>2016-03-07T14:19:37Z</time>
      </trkpt>
      <trkpt lat="48.2127" lon="-3.11013">
        <ele>291</ele>
        <time>2016-03-07T14:19:39Z</time>
      </trkpt>
      <trkpt lat="48.21272" lon="-3.11012">
        <ele>291</ele>
        <time>2016-03-07T14:19:41Z</time>
      </trkpt>
      <trkpt lat="48.21275" lon="-3.11009">
        <ele>291</ele>
        <time>2016-03-07T14:19:44Z</time>
      </trkpt>
      <trkpt lat="48.21278" lon="-3.11006">
        <ele>291</ele>
        <time>2016-03-07T14:19:47Z</time>
      </trkpt>
      <trkpt lat="48.2128" lon="-3.11002">
        <ele>291</ele>
        <time>2016-03-07T14:19:50Z</time>
      </trkpt>
      <trkpt lat="48.21282" lon="-3.10998">
        <ele>291</ele>
        <time>2016-03-07T14:19:53Z</time>
      </trkpt>
      <trkpt lat="48.21284" lon="-3.10996">
        <ele>291</ele>
        <time>2016-03-07T14:19:55Z</time>
      </trkpt>
      <trkpt lat="48.21287" lon="-3.10993">
        <ele>291</ele>
        <time>2016-03-07T14:19:58Z</time>
      </trkpt>
      <trkpt lat="48.21288" lon="-3.1099">
        <ele>291</ele>
        <time>2016-03-07T14:20:00Z</time>
      </trkpt>
      <trkpt lat="48.21289" lon="-3.10987">
        <ele>291</ele>
        <time>2016-03-07T14:20:02Z</time>
      </trkpt>
      <trkpt lat="48.21292" lon="-3.10982">
        <ele>291</ele>
        <time>2016-03-07T14:20:05Z</time>
      </trkpt>
      <trkpt lat="48.21293" lon="-3.10978">
        <ele>291</ele>
        <time>2016-03-07T14:20:08Z</time>
      </trkpt>
      <trkpt lat="48.21294" lon="-3.10977">
        <ele>292</ele>
        <time>2016-03-07T14:20:10Z</time>
      </trkpt>
      <trkpt lat="48.21295" lon="-3.10974">
        <ele>292</ele>
        <time>2016-03-07T14:20:12Z</time>
      </trkpt>
      <trkpt lat="48.21297" lon="-3.10969">
        <ele>292</ele>
        <time>2016-03-07T14:20:15Z</time>
      </trkpt>
      <trkpt lat="48.21298" lon="-3.10967">
        <ele>292</ele>
        <time>2016-03-07T14:20:17Z</time>
      </trkpt>
      <trkpt lat="48.21299" lon="-3.10963">
        <ele>292</ele>
        <time>2016-03-07T14:20:19Z</time>
      </trkpt>
      <trkpt lat="48.213" lon="-3.10959">
        <ele>292</ele>
        <time>2016-03-07T14:20:22Z</time>
      </trkpt>
      <trkpt lat="48.21301" lon="-3.10955">
        <ele>292</ele>
        <time>2016-03-07T14:20:25Z</time>
      </trkpt>
      <trkpt lat="48.21302" lon="-3.10953">
        <ele>292</ele>
        <time>2016-03-07T14:20:27Z</time>
      </trkpt>
      <trkpt lat="48.21302" lon="-3.10948">
        <ele>293</ele>
        <time>2016-03-07T14:20:30Z</time>
      </trkpt>
      <trkpt lat="48.21304" lon="-3.10944">
        <ele>293</ele>
        <time>2016-03-07T14:20:33Z</time>
      </trkpt>
      <trkpt lat="48.21304" lon="-3.10941">
        <ele>293</ele>
        <time>2016-03-07T14:20:35Z</time>
      </trkpt>
      <trkpt lat="48.21306" lon="-3.10936">
        <ele>293</ele>
        <time>2016-03-07T14:20:38Z</time>
      </trkpt>
      <trkpt lat="48.21307" lon="-3.10933">
        <ele>293</ele>
        <time>2016-03-07T14:20:40Z</time>
      </trkpt>
      <trkpt lat="48.21309" lon="-3.10929">
        <ele>293</ele>
        <time>2016-03-07T14:20:43Z</time>
      </trkpt>
      <trkpt lat="48.2131" lon="-3.10926">
        <ele>293</ele>
        <time>2016-03-07T14:20:45Z</time>
      </trkpt>
      <trkpt lat="48.21312" lon="-3.10923">
        <ele>293</ele>
        <time>2016-03-07T14:20:47Z</time>
      </trkpt>
      <trkpt lat="48.21313" lon="-3.10919">
        <ele>293</ele>
        <time>2016-03-07T14:20:50Z</time>
      </trkpt>
      <trkpt lat="48.21315" lon="-3.10914">
        <ele>294</ele>
        <time>2016-03-07T14:20:53Z</time>
      </trkpt>
      <trkpt lat="48.21317" lon="-3.10911">
        <ele>294</ele>
        <time>2016-03-07T14:20:55Z</time>
      </trkpt>
      <trkpt lat="48.21319" lon="-3.10907">
        <ele>294</ele>
        <time>2016-03-07T14:20:58Z</time>
      </trkpt>
      <trkpt lat="48.2132" lon="-3.10903">
        <ele>294</ele>
        <time>2016-03-07T14:21:00Z</time>
      </trkpt>
      <trkpt lat="48.21322" lon="-3.10899">
        <ele>294</ele>
        <time>2016-03-07T14:21:03Z</time>
      </trkpt>
      <trkpt lat="48.21324" lon="-3.10895">
        <ele>294</ele>
        <time>2016-03-07T14:21:06Z</time>
      </trkpt>
      <trkpt lat="48.21325" lon="-3.10892">
        <ele>294</ele>
        <time>2016-03-07T14:21:08Z</time>
      </trkpt>
      <trkpt lat="48.21327" lon="-3.10888">
        <ele>294</ele>
        <time>2016-03-07T14:21:11Z</time>
      </trkpt>
      <trkpt lat="48.21328" lon="-3.10883">
        <ele>295</ele>
        <time>2016-03-07T14:21:14Z</time>
      </trkpt>
      <trkpt lat="48.21329" lon="-3.1088">
        <ele>295</ele>
        <time>2016-03-07T14:21:16Z</time>
      </trkpt>
      <trkpt lat="48.2133" lon="-3.10876">
        <ele>296</ele>
        <time>2016-03-07T14:21:19Z</time>
      </trkpt>
      <trkpt lat="48.21332" lon="-3.10871">
        <ele>296</ele>
        <time>2016-03-07T14:21:22Z</time>
      </trkpt>
      <trkpt lat="48.21333" lon="-3.10867">
        <ele>296</ele>
        <time>2016-03-07T14:21:25Z</time>
      </trkpt>
      <trkpt lat="48.21333" lon="-3.10864">
        <ele>296</ele>
        <time>2016-03-07T14:21:27Z</time>
      </trkpt>
      <trkpt lat="48.21334" lon="-3.10861">
        <ele>295</ele>
        <time>2016-03-07T14:21:30Z</time>
      </trkpt>
      <trkpt lat="48.21334" lon="-3.10859">
        <ele>295</ele>
        <time>2016-03-07T14:21:32Z</time>
      </trkpt>
      <trkpt lat="48.21335" lon="-3.10856">
        <ele>296</ele>
        <time>2016-03-07T14:21:35Z</time>
      </trkpt>
      <trkpt lat="48.21335" lon="-3.10851">
        <ele>296</ele>
        <time>2016-03-07T14:21:38Z</time>
      </trkpt>
      <trkpt lat="48.21336" lon="-3.10847">
        <ele>296</ele>
        <time>2016-03-07T14:21:41Z</time>
      </trkpt>
      <trkpt lat="48.21336" lon="-3.10842">
        <ele>297</ele>
        <time>2016-03-07T14:21:44Z</time>
      </trkpt>
      <trkpt lat="48.21336" lon="-3.10837">
        <ele>297</ele>
        <time>2016-03-07T14:21:47Z</time>
      </trkpt>
      <trkpt lat="48.21337" lon="-3.10833">
        <ele>297</ele>
        <time>2016-03-07T14:21:50Z</time>
      </trkpt>
      <trkpt lat="48.21338" lon="-3.10828">
        <ele>297</ele>
        <time>2016-03-07T14:21:53Z</time>
      </trkpt>
      <trkpt lat="48.21338" lon="-3.10823">
        <ele>297</ele>
        <time>2016-03-07T14:21:56Z</time>
      </trkpt>
      <trkpt lat="48.21339" lon="-3.10818">
        <ele>297</ele>
        <time>2016-03-07T14:21:59Z</time>
      </trkpt>
      <trkpt lat="48.21339" lon="-3.10815">
        <ele>296</ele>
        <time>2016-03-07T14:22:01Z</time>
      </trkpt>
      <trkpt lat="48.21339" lon="-3.10812">
        <ele>297</ele>
        <time>2016-03-07T14:22:03Z</time>
      </trkpt>
      <trkpt lat="48.21339" lon="-3.10807">
        <ele>297</ele>
        <time>2016-03-07T14:22:06Z</time>
      </trkpt>
      <trkpt lat="48.21339" lon="-3.10803">
        <ele>297</ele>
        <time>2016-03-07T14:22:09Z</time>
      </trkpt>
      <trkpt lat="48.21339" lon="-3.10799">
        <ele>297</ele>
        <time>2016-03-07T14:22:11Z</time>
      </trkpt>
      <trkpt lat="48.21339" lon="-3.10795">
        <ele>297</ele>
        <time>2016-03-07T14:22:14Z</time>
      </trkpt>
      <trkpt lat="48.2134" lon="-3.1079">
        <ele>297</ele>
        <time>2016-03-07T14:22:17Z</time>
      </trkpt>
      <trkpt lat="48.21341" lon="-3.10785">
        <ele>297</ele>
        <time>2016-03-07T14:22:20Z</time>
      </trkpt>
      <trkpt lat="48.21341" lon="-3.1078">
        <ele>297</ele>
        <time>2016-03-07T14:22:23Z</time>
      </trkpt>
      <trkpt lat="48.21343" lon="-3.10775">
        <ele>298</ele>
        <time>2016-03-07T14:22:26Z</time>
      </trkpt>
      <trkpt lat="48.21344" lon="-3.1077">
        <ele>298</ele>
        <time>2016-03-07T14:22:29Z</time>
      </trkpt>
      <trkpt lat="48.21344" lon="-3.10767">
        <ele>298</ele>
        <time>2016-03-07T14:22:31Z</time>
      </trkpt>
      <trkpt lat="48.21345" lon="-3.10763">
        <ele>298</ele>
        <time>2016-03-07T14:22:33Z</time>
      </trkpt>
      <trkpt lat="48.21346" lon="-3.10758">
        <ele>299</ele>
        <time>2016-03-07T14:22:36Z</time>
      </trkpt>
      <trkpt lat="48.21346" lon="-3.10754">
        <ele>299</ele>
        <time>2016-03-07T14:22:39Z</time>
      </trkpt>
      <trkpt lat="48.21346" lon="-3.10751">
        <ele>299</ele>
        <time>2016-03-07T14:22:41Z</time>
      </trkpt>
      <trkpt lat="48.21347" lon="-3.10746">
        <ele>299</ele>
        <time>2016-03-07T14:22:44Z</time>
      </trkpt>
      <trkpt lat="48.21347" lon="-3.10743">
        <ele>299</ele>
        <time>2016-03-07T14:22:46Z</time>
      </trkpt>
      <trkpt lat="48.21348" lon="-3.10739">
        <ele>299</ele>
        <time>2016-03-07T14:22:49Z</time>
      </trkpt>
      <trkpt lat="48.21349" lon="-3.10735">
        <ele>299</ele>
        <time>2016-03-07T14:22:52Z</time>
      </trkpt>
      <trkpt lat="48.21349" lon="-3.10731">
        <ele>299</ele>
        <time>2016-03-07T14:22:55Z</time>
      </trkpt>
      <trkpt lat="48.2135" lon="-3.10727">
        <ele>300</ele>
        <time>2016-03-07T14:22:58Z</time>
      </trkpt>
      <trkpt lat="48.21351" lon="-3.10724">
        <ele>300</ele>
        <time>2016-03-07T14:23:00Z</time>
      </trkpt>
      <trkpt lat="48.21352" lon="-3.1072">
        <ele>301</ele>
        <time>2016-03-07T14:23:02Z</time>
      </trkpt>
      <trkpt lat="48.21352" lon="-3.10716">
        <ele>301</ele>
        <time>2016-03-07T14:23:05Z</time>
      </trkpt>
      <trkpt lat="48.21354" lon="-3.10712">
        <ele>301</ele>
        <time>2016-03-07T14:23:07Z</time>
      </trkpt>
      <trkpt lat="48.21355" lon="-3.10708">
        <ele>301</ele>
        <time>2016-03-07T14:23:10Z</time>
      </trkpt>
      <trkpt lat="48.21355" lon="-3.10705">
        <ele>301</ele>
        <time>2016-03-07T14:23:12Z</time>
      </trkpt>
      <trkpt lat="48.21357" lon="-3.10701">
        <ele>301</ele>
        <time>2016-03-07T14:23:15Z</time>
      </trkpt>
      <trkpt lat="48.21358" lon="-3.10699">
        <ele>301</ele>
        <time>2016-03-07T14:23:17Z</time>
      </trkpt>
      <trkpt lat="48.2136" lon="-3.10696">
        <ele>301</ele>
        <time>2016-03-07T14:23:19Z</time>
      </trkpt>
      <trkpt lat="48.21362" lon="-3.10693">
        <ele>301</ele>
        <time>2016-03-07T14:23:22Z</time>
      </trkpt>
      <trkpt lat="48.21364" lon="-3.1069">
        <ele>301</ele>
        <time>2016-03-07T14:23:25Z</time>
      </trkpt>
      <trkpt lat="48.21365" lon="-3.10688">
        <ele>301</ele>
        <time>2016-03-07T14:23:27Z</time>
      </trkpt>
      <trkpt lat="48.21367" lon="-3.10685">
        <ele>302</ele>
        <time>2016-03-07T14:23:30Z</time>
      </trkpt>
      <trkpt lat="48.21368" lon="-3.10683">
        <ele>302</ele>
        <time>2016-03-07T14:23:32Z</time>
      </trkpt>
      <trkpt lat="48.2137" lon="-3.10682">
        <ele>302</ele>
        <time>2016-03-07T14:23:35Z</time>
      </trkpt>
      <trkpt lat="48.21371" lon="-3.10678">
        <ele>302</ele>
        <time>2016-03-07T14:23:38Z</time>
      </trkpt>
      <trkpt lat="48.21372" lon="-3.10675">
        <ele>302</ele>
        <time>2016-03-07T14:23:40Z</time>
      </trkpt>
      <trkpt lat="48.21373" lon="-3.10672">
        <ele>302</ele>
        <time>2016-03-07T14:23:42Z</time>
      </trkpt>
      <trkpt lat="48.21373" lon="-3.10668">
        <ele>302</ele>
        <time>2016-03-07T14:23:45Z</time>
      </trkpt>
      <trkpt lat="48.21375" lon="-3.10665">
        <ele>303</ele>
        <time>2016-03-07T14:23:48Z</time>
      </trkpt>
      <trkpt lat="48.21376" lon="-3.10663">
        <ele>303</ele>
        <time>2016-03-07T14:23:50Z</time>
      </trkpt>
      <trkpt lat="48.21378" lon="-3.1066">
        <ele>303</ele>
        <time>2016-03-07T14:23:53Z</time>
      </trkpt>
      <trkpt lat="48.21379" lon="-3.10656">
        <ele>304</ele>
        <time>2016-03-07T14:23:56Z</time>
      </trkpt>
      <trkpt lat="48.2138" lon="-3.10654">
        <ele>304</ele>
        <time>2016-03-07T14:23:58Z</time>
      </trkpt>
      <trkpt lat="48.21382" lon="-3.10651">
        <ele>304</ele>
        <time>2016-03-07T14:24:01Z</time>
      </trkpt>
      <trkpt lat="48.21384" lon="-3.10648">
        <ele>303</ele>
        <time>2016-03-07T14:24:03Z</time>
      </trkpt>
      <trkpt lat="48.21385" lon="-3.10644">
        <ele>303</ele>
        <time>2016-03-07T14:24:06Z</time>
      </trkpt>
      <trkpt lat="48.21387" lon="-3.10641">
        <ele>302</ele>
        <time>2016-03-07T14:24:09Z</time>
      </trkpt>
      <trkpt lat="48.21389" lon="-3.10638">
        <ele>302</ele>
        <time>2016-03-07T14:24:11Z</time>
      </trkpt>
      <trkpt lat="48.2139" lon="-3.10636">
        <ele>302</ele>
        <time>2016-03-07T14:24:13Z</time>
      </trkpt>
      <trkpt lat="48.21392" lon="-3.10633">
        <ele>301</ele>
        <time>2016-03-07T14:24:16Z</time>
      </trkpt>
      <trkpt lat="48.21393" lon="-3.10631">
        <ele>301</ele>
        <time>2016-03-07T14:24:18Z</time>
      </trkpt>
      <trkpt lat="48.21395" lon="-3.10628">
        <ele>301</ele>
        <time>2016-03-07T14:24:21Z</time>
      </trkpt>
      <trkpt lat="48.21397" lon="-3.10626">
        <ele>301</ele>
        <time>2016-03-07T14:24:23Z</time>
      </trkpt>
      <trkpt lat="48.21398" lon="-3.10622">
        <ele>301</ele>
        <time>2016-03-07T14:24:26Z</time>
      </trkpt>
      <trkpt lat="48.21399" lon="-3.1062">
        <ele>301</ele>
        <time>2016-03-07T14:24:28Z</time>
      </trkpt>
      <trkpt lat="48.21401" lon="-3.10617">
        <ele>301</ele>
        <time>2016-03-07T14:24:31Z</time>
      </trkpt>
      <trkpt lat="48.21403" lon="-3.10615">
        <ele>301</ele>
        <time>2016-03-07T14:24:33Z</time>
      </trkpt>
      <trkpt lat="48.21405" lon="-3.10611">
        <ele>301</ele>
        <time>2016-03-07T14:24:36Z</time>
      </trkpt>
      <trkpt lat="48.21406" lon="-3.10608">
        <ele>300</ele>
        <time>2016-03-07T14:24:38Z</time>
      </trkpt>
      <trkpt lat="48.21408" lon="-3.10606">
        <ele>300</ele>
        <time>2016-03-07T14:24:40Z</time>
      </trkpt>
      <trkpt lat="48.21409" lon="-3.10603">
        <ele>300</ele>
        <time>2016-03-07T14:24:43Z</time>
      </trkpt>
      <trkpt lat="48.21411" lon="-3.10599">
        <ele>300</ele>
        <time>2016-03-07T14:24:46Z</time>
      </trkpt>
      <trkpt lat="48.21414" lon="-3.10596">
        <ele>300</ele>
        <time>2016-03-07T14:24:49Z</time>
      </trkpt>
      <trkpt lat="48.21415" lon="-3.10594">
        <ele>300</ele>
        <time>2016-03-07T14:24:51Z</time>
      </trkpt>
      <trkpt lat="48.21417" lon="-3.1059">
        <ele>299</ele>
        <time>2016-03-07T14:24:53Z</time>
      </trkpt>
      <trkpt lat="48.21419" lon="-3.10585">
        <ele>299</ele>
        <time>2016-03-07T14:24:56Z</time>
      </trkpt>
      <trkpt lat="48.21421" lon="-3.1058">
        <ele>299</ele>
        <time>2016-03-07T14:24:59Z</time>
      </trkpt>
      <trkpt lat="48.21424" lon="-3.10575">
        <ele>299</ele>
        <time>2016-03-07T14:25:02Z</time>
      </trkpt>
      <trkpt lat="48.21426" lon="-3.10573">
        <ele>299</ele>
        <time>2016-03-07T14:25:04Z</time>
      </trkpt>
      <trkpt lat="48.21429" lon="-3.10568">
        <ele>299</ele>
        <time>2016-03-07T14:25:07Z</time>
      </trkpt>
      <trkpt lat="48.2143" lon="-3.10565">
        <ele>299</ele>
        <time>2016-03-07T14:25:09Z</time>
      </trkpt>
      <trkpt lat="48.21433" lon="-3.1056">
        <ele>299</ele>
        <time>2016-03-07T14:25:12Z</time>
      </trkpt>
      <trkpt lat="48.21435" lon="-3.10557">
        <ele>299</ele>
        <time>2016-03-07T14:25:14Z</time>
      </trkpt>
      <trkpt lat="48.21437" lon="-3.10553">
        <ele>299</ele>
        <time>2016-03-07T14:25:17Z</time>
      </trkpt>
      <trkpt lat="48.21439" lon="-3.10551">
        <ele>300</ele>
        <time>2016-03-07T14:25:19Z</time>
      </trkpt>
      <trkpt lat="48.21441" lon="-3.10548">
        <ele>300</ele>
        <time>2016-03-07T14:25:21Z</time>
      </trkpt>
      <trkpt lat="48.21442" lon="-3.10546">
        <ele>300</ele>
        <time>2016-03-07T14:25:23Z</time>
      </trkpt>
      <trkpt lat="48.21444" lon="-3.10543">
        <ele>300</ele>
        <time>2016-03-07T14:25:25Z</time>
      </trkpt>
      <trkpt lat="48.21446" lon="-3.10538">
        <ele>300</ele>
        <time>2016-03-07T14:25:28Z</time>
      </trkpt>
      <trkpt lat="48.21448" lon="-3.10534">
        <ele>300</ele>
        <time>2016-03-07T14:25:31Z</time>
      </trkpt>
      <trkpt lat="48.2145" lon="-3.10531">
        <ele>300</ele>
        <time>2016-03-07T14:25:33Z</time>
      </trkpt>
      <trkpt lat="48.21452" lon="-3.10527">
        <ele>300</ele>
        <time>2016-03-07T14:25:36Z</time>
      </trkpt>
      <trkpt lat="48.21453" lon="-3.10524">
        <ele>300</ele>
        <time>2016-03-07T14:25:38Z</time>
      </trkpt>
      <trkpt lat="48.21455" lon="-3.1052">
        <ele>300</ele>
        <time>2016-03-07T14:25:41Z</time>
      </trkpt>
      <trkpt lat="48.21458" lon="-3.10516">
        <ele>300</ele>
        <time>2016-03-07T14:25:44Z</time>
      </trkpt>
      <trkpt lat="48.2146" lon="-3.10512">
        <ele>300</ele>
        <time>2016-03-07T14:25:47Z</time>
      </trkpt>
      <trkpt lat="48.21461" lon="-3.10509">
        <ele>300</ele>
        <time>2016-03-07T14:25:49Z</time>
      </trkpt>
      <trkpt lat="48.21463" lon="-3.10506">
        <ele>300</ele>
        <time>2016-03-07T14:25:52Z</time>
      </trkpt>
      <trkpt lat="48.21465" lon="-3.10502">
        <ele>300</ele>
        <time>2016-03-07T14:25:55Z</time>
      </trkpt>
      <trkpt lat="48.21467" lon="-3.10498">
        <ele>300</ele>
        <time>2016-03-07T14:25:58Z</time>
      </trkpt>
      <trkpt lat="48.21468" lon="-3.10496">
        <ele>300</ele>
        <time>2016-03-07T14:26:00Z</time>
      </trkpt>
      <trkpt lat="48.2147" lon="-3.10492">
        <ele>301</ele>
        <time>2016-03-07T14:26:03Z</time>
      </trkpt>
      <trkpt lat="48.21471" lon="-3.1049">
        <ele>300</ele>
        <time>2016-03-07T14:26:05Z</time>
      </trkpt>
      <trkpt lat="48.21473" lon="-3.10486">
        <ele>300</ele>
        <time>2016-03-07T14:26:08Z</time>
      </trkpt>
      <trkpt lat="48.21475" lon="-3.10484">
        <ele>300</ele>
        <time>2016-03-07T14:26:10Z</time>
      </trkpt>
      <trkpt lat="48.21477" lon="-3.1048">
        <ele>300</ele>
        <time>2016-03-07T14:26:13Z</time>
      </trkpt>
      <trkpt lat="48.21479" lon="-3.10476">
        <ele>301</ele>
        <time>2016-03-07T14:26:16Z</time>
      </trkpt>
      <trkpt lat="48.21481" lon="-3.10473">
        <ele>301</ele>
        <time>2016-03-07T14:26:18Z</time>
      </trkpt>
      <trkpt lat="48.21482" lon="-3.1047">
        <ele>301</ele>
        <time>2016-03-07T14:26:20Z</time>
      </trkpt>
      <trkpt lat="48.21485" lon="-3.10465">
        <ele>301</ele>
        <time>2016-03-07T14:26:23Z</time>
      </trkpt>
      <trkpt lat="48.21487" lon="-3.10462">
        <ele>301</ele>
        <time>2016-03-07T14:26:26Z</time>
      </trkpt>
      <trkpt lat="48.21489" lon="-3.10458">
        <ele>301</ele>
        <time>2016-03-07T14:26:29Z</time>
      </trkpt>
      <trkpt lat="48.21491" lon="-3.10454">
        <ele>300</ele>
        <time>2016-03-07T14:26:32Z</time>
      </trkpt>
      <trkpt lat="48.21493" lon="-3.10451">
        <ele>300</ele>
        <time>2016-03-07T14:26:34Z</time>
      </trkpt>
      <trkpt lat="48.21495" lon="-3.10447">
        <ele>300</ele>
        <time>2016-03-07T14:26:37Z</time>
      </trkpt>
      <trkpt lat="48.21498" lon="-3.10443">
        <ele>300</ele>
        <time>2016-03-07T14:26:40Z</time>
      </trkpt>
      <trkpt lat="48.215" lon="-3.1044">
        <ele>301</ele>
        <time>2016-03-07T14:26:42Z</time>
      </trkpt>
      <trkpt lat="48.21501" lon="-3.10437">
        <ele>301</ele>
        <time>2016-03-07T14:26:44Z</time>
      </trkpt>
      <trkpt lat="48.21504" lon="-3.10433">
        <ele>301</ele>
        <time>2016-03-07T14:26:47Z</time>
      </trkpt>
      <trkpt lat="48.21505" lon="-3.1043">
        <ele>301</ele>
        <time>2016-03-07T14:26:49Z</time>
      </trkpt>
      <trkpt lat="48.21508" lon="-3.10425">
        <ele>301</ele>
        <time>2016-03-07T14:26:52Z</time>
      </trkpt>
      <trkpt lat="48.2151" lon="-3.10422">
        <ele>301</ele>
        <time>2016-03-07T14:26:54Z</time>
      </trkpt>
      <trkpt lat="48.21512" lon="-3.10417">
        <ele>301</ele>
        <time>2016-03-07T14:26:57Z</time>
      </trkpt>
      <trkpt lat="48.21515" lon="-3.10413">
        <ele>300</ele>
        <time>2016-03-07T14:27:00Z</time>
      </trkpt>
      <trkpt lat="48.21516" lon="-3.1041">
        <ele>300</ele>
        <time>2016-03-07T14:27:02Z</time>
      </trkpt>
      <trkpt lat="48.21518" lon="-3.10407">
        <ele>300</ele>
        <time>2016-03-07T14:27:05Z</time>
      </trkpt>
      <trkpt lat="48.2152" lon="-3.10405">
        <ele>300</ele>
        <time>2016-03-07T14:27:07Z</time>
      </trkpt>
      <trkpt lat="48.21522" lon="-3.10402">
        <ele>301</ele>
        <time>2016-03-07T14:27:10Z</time>
      </trkpt>
      <trkpt lat="48.21523" lon="-3.10401">
        <ele>301</ele>
        <time>2016-03-07T14:27:12Z</time>
      </trkpt>
      <trkpt lat="48.21524" lon="-3.10398">
        <ele>301</ele>
        <time>2016-03-07T14:27:14Z</time>
      </trkpt>
      <trkpt lat="48.21526" lon="-3.10393">
        <ele>301</ele>
        <time>2016-03-07T14:27:17Z</time>
      </trkpt>
      <trkpt lat="48.21529" lon="-3.10389">
        <ele>301</ele>
        <time>2016-03-07T14:27:20Z</time>
      </trkpt>
      <trkpt lat="48.2153" lon="-3.10386">
        <ele>301</ele>
        <time>2016-03-07T14:27:22Z</time>
      </trkpt>
      <trkpt lat="48.21533" lon="-3.10383">
        <ele>301</ele>
        <time>2016-03-07T14:27:25Z</time>
      </trkpt>
      <trkpt lat="48.21534" lon="-3.1038">
        <ele>301</ele>
        <time>2016-03-07T14:27:27Z</time>
      </trkpt>
      <trkpt lat="48.21536" lon="-3.10376">
        <ele>302</ele>
        <time>2016-03-07T14:27:30Z</time>
      </trkpt>
      <trkpt lat="48.21538" lon="-3.10373">
        <ele>302</ele>
        <time>2016-03-07T14:27:32Z</time>
      </trkpt>
      <trkpt lat="48.2154" lon="-3.1037">
        <ele>302</ele>
        <time>2016-03-07T14:27:35Z</time>
      </trkpt>
      <trkpt lat="48.21541" lon="-3.10367">
        <ele>302</ele>
        <time>2016-03-07T14:27:37Z</time>
      </trkpt>
      <trkpt lat="48.21543" lon="-3.10362">
        <ele>301</ele>
        <time>2016-03-07T14:27:40Z</time>
      </trkpt>
      <trkpt lat="48.21545" lon="-3.10359">
        <ele>301</ele>
        <time>2016-03-07T14:27:42Z</time>
      </trkpt>
      <trkpt lat="48.21547" lon="-3.10355">
        <ele>301</ele>
        <time>2016-03-07T14:27:45Z</time>
      </trkpt>
      <trkpt lat="48.21549" lon="-3.10352">
        <ele>302</ele>
        <time>2016-03-07T14:27:47Z</time>
      </trkpt>
      <trkpt lat="48.21552" lon="-3.10348">
        <ele>302</ele>
        <time>2016-03-07T14:27:50Z</time>
      </trkpt>
      <trkpt lat="48.21554" lon="-3.10346">
        <ele>302</ele>
        <time>2016-03-07T14:27:52Z</time>
      </trkpt>
      <trkpt lat="48.21556" lon="-3.10341">
        <ele>303</ele>
        <time>2016-03-07T14:27:55Z</time>
      </trkpt>
      <trkpt lat="48.21558" lon="-3.10338">
        <ele>303</ele>
        <time>2016-03-07T14:27:57Z</time>
      </trkpt>
      <trkpt lat="48.21559" lon="-3.10336">
        <ele>303</ele>
        <time>2016-03-07T14:28:00Z</time>
      </trkpt>
      <trkpt lat="48.21561" lon="-3.10333">
        <ele>303</ele>
        <time>2016-03-07T14:28:02Z</time>
      </trkpt>
      <trkpt lat="48.21562" lon="-3.10331">
        <ele>303</ele>
        <time>2016-03-07T14:28:04Z</time>
      </trkpt>
      <trkpt lat="48.21563" lon="-3.1033">
        <ele>303</ele>
        <time>2016-03-07T14:28:07Z</time>
      </trkpt>
      <trkpt lat="48.21563" lon="-3.1033">
        <ele>303</ele>
        <time>2016-03-07T14:28:09Z</time>
      </trkpt>
      <trkpt lat="48.21562" lon="-3.10329">
        <ele>303</ele>
        <time>2016-03-07T14:28:11Z</time>
      </trkpt>
      <trkpt lat="48.21562" lon="-3.10327">
        <ele>303</ele>
        <time>2016-03-07T14:28:14Z</time>
      </trkpt>
      <trkpt lat="48.21562" lon="-3.10327">
        <ele>303</ele>
        <time>2016-03-07T14:28:16Z</time>
      </trkpt>
      <trkpt lat="48.21564" lon="-3.10325">
        <ele>303</ele>
        <time>2016-03-07T14:28:19Z</time>
      </trkpt>
      <trkpt lat="48.21564" lon="-3.1032">
        <ele>303</ele>
        <time>2016-03-07T14:28:22Z</time>
      </trkpt>
      <trkpt lat="48.21565" lon="-3.10316">
        <ele>303</ele>
        <time>2016-03-07T14:28:24Z</time>
      </trkpt>
      <trkpt lat="48.21564" lon="-3.10312">
        <ele>303</ele>
        <time>2016-03-07T14:28:27Z</time>
      </trkpt>
      <trkpt lat="48.21565" lon="-3.10312">
        <ele>303</ele>
        <time>2016-03-07T14:28:30Z</time>
      </trkpt>
      <trkpt lat="48.21567" lon="-3.10314">
        <ele>302</ele>
        <time>2016-03-07T14:28:33Z</time>
      </trkpt>
      <trkpt lat="48.21569" lon="-3.10312">
        <ele>302</ele>
        <time>2016-03-07T14:28:36Z</time>
      </trkpt>
      <trkpt lat="48.2157" lon="-3.10309">
        <ele>302</ele>
        <time>2016-03-07T14:28:38Z</time>
      </trkpt>
      <trkpt lat="48.21571" lon="-3.10306">
        <ele>302</ele>
        <time>2016-03-07T14:28:40Z</time>
      </trkpt>
      <trkpt lat="48.21572" lon="-3.10302">
        <ele>302</ele>
        <time>2016-03-07T14:28:43Z</time>
      </trkpt>
      <trkpt lat="48.21574" lon="-3.10298">
        <ele>303</ele>
        <time>2016-03-07T14:28:46Z</time>
      </trkpt>
      <trkpt lat="48.21574" lon="-3.10295">
        <ele>303</ele>
        <time>2016-03-07T14:28:48Z</time>
      </trkpt>
      <trkpt lat="48.21575" lon="-3.10291">
        <ele>303</ele>
        <time>2016-03-07T14:28:50Z</time>
      </trkpt>
      <trkpt lat="48.21576" lon="-3.10287">
        <ele>303</ele>
        <time>2016-03-07T14:28:53Z</time>
      </trkpt>
      <trkpt lat="48.21577" lon="-3.10282">
        <ele>303</ele>
        <time>2016-03-07T14:28:56Z</time>
      </trkpt>
      <trkpt lat="48.21579" lon="-3.10277">
        <ele>303</ele>
        <time>2016-03-07T14:28:59Z</time>
      </trkpt>
      <trkpt lat="48.2158" lon="-3.10274">
        <ele>303</ele>
        <time>2016-03-07T14:29:01Z</time>
      </trkpt>
      <trkpt lat="48.21581" lon="-3.10269">
        <ele>302</ele>
        <time>2016-03-07T14:29:04Z</time>
      </trkpt>
      <trkpt lat="48.21582" lon="-3.10266">
        <ele>302</ele>
        <time>2016-03-07T14:29:06Z</time>
      </trkpt>
      <trkpt lat="48.21583" lon="-3.10262">
        <ele>303</ele>
        <time>2016-03-07T14:29:08Z</time>
      </trkpt>
      <trkpt lat="48.21584" lon="-3.10257">
        <ele>303</ele>
        <time>2016-03-07T14:29:11Z</time>
      </trkpt>
      <trkpt lat="48.21585" lon="-3.10254">
        <ele>303</ele>
        <time>2016-03-07T14:29:13Z</time>
      </trkpt>
      <trkpt lat="48.21587" lon="-3.10249">
        <ele>303</ele>
        <time>2016-03-07T14:29:16Z</time>
      </trkpt>
      <trkpt lat="48.21588" lon="-3.10244">
        <ele>303</ele>
        <time>2016-03-07T14:29:19Z</time>
      </trkpt>
      <trkpt lat="48.21588" lon="-3.10241">
        <ele>303</ele>
        <time>2016-03-07T14:29:21Z</time>
      </trkpt>
      <trkpt lat="48.21589" lon="-3.10237">
        <ele>303</ele>
        <time>2016-03-07T14:29:23Z</time>
      </trkpt>
      <trkpt lat="48.21591" lon="-3.10232">
        <ele>303</ele>
        <time>2016-03-07T14:29:26Z</time>
      </trkpt>
      <trkpt lat="48.21592" lon="-3.10228">
        <ele>303</ele>
        <time>2016-03-07T14:29:28Z</time>
      </trkpt>
      <trkpt lat="48.21594" lon="-3.10224">
        <ele>303</ele>
        <time>2016-03-07T14:29:31Z</time>
      </trkpt>
      <trkpt lat="48.21595" lon="-3.1022">
        <ele>303</ele>
        <time>2016-03-07T14:29:33Z</time>
      </trkpt>
      <trkpt lat="48.21597" lon="-3.10215">
        <ele>303</ele>
        <time>2016-03-07T14:29:36Z</time>
      </trkpt>
      <trkpt lat="48.21598" lon="-3.10211">
        <ele>303</ele>
        <time>2016-03-07T14:29:39Z</time>
      </trkpt>
      <trkpt lat="48.21599" lon="-3.10208">
        <ele>303</ele>
        <time>2016-03-07T14:29:41Z</time>
      </trkpt>
      <trkpt lat="48.21601" lon="-3.10203">
        <ele>303</ele>
        <time>2016-03-07T14:29:44Z</time>
      </trkpt>
      <trkpt lat="48.21602" lon="-3.10199">
        <ele>303</ele>
        <time>2016-03-07T14:29:46Z</time>
      </trkpt>
      <trkpt lat="48.21603" lon="-3.10194">
        <ele>303</ele>
        <time>2016-03-07T14:29:49Z</time>
      </trkpt>
      <trkpt lat="48.21605" lon="-3.1019">
        <ele>303</ele>
        <time>2016-03-07T14:29:52Z</time>
      </trkpt>
      <trkpt lat="48.21606" lon="-3.10187">
        <ele>303</ele>
        <time>2016-03-07T14:29:54Z</time>
      </trkpt>
      <trkpt lat="48.21607" lon="-3.10184">
        <ele>303</ele>
        <time>2016-03-07T14:29:56Z</time>
      </trkpt>
      <trkpt lat="48.21609" lon="-3.10179">
        <ele>304</ele>
        <time>2016-03-07T14:29:59Z</time>
      </trkpt>
      <trkpt lat="48.2161" lon="-3.10176">
        <ele>304</ele>
        <time>2016-03-07T14:30:01Z</time>
      </trkpt>
      <trkpt lat="48.21611" lon="-3.10171">
        <ele>304</ele>
        <time>2016-03-07T14:30:04Z</time>
      </trkpt>
      <trkpt lat="48.21612" lon="-3.10166">
        <ele>304</ele>
        <time>2016-03-07T14:30:07Z</time>
      </trkpt>
      <trkpt lat="48.21613" lon="-3.10162">
        <ele>304</ele>
        <time>2016-03-07T14:30:09Z</time>
      </trkpt>
      <trkpt lat="48.21613" lon="-3.10161">
        <ele>304</ele>
        <time>2016-03-07T14:30:11Z</time>
      </trkpt>
      <trkpt lat="48.21614" lon="-3.10159">
        <ele>304</ele>
        <time>2016-03-07T14:30:14Z</time>
      </trkpt>
      <trkpt lat="48.21614" lon="-3.10159">
        <ele>304</ele>
        <time>2016-03-07T14:30:16Z</time>
      </trkpt>
      <trkpt lat="48.21614" lon="-3.10158">
        <ele>305</ele>
        <time>2016-03-07T14:30:18Z</time>
      </trkpt>
      <trkpt lat="48.21616" lon="-3.10155">
        <ele>305</ele>
        <time>2016-03-07T14:30:21Z</time>
      </trkpt>
      <trkpt lat="48.21618" lon="-3.10152">
        <ele>304</ele>
        <time>2016-03-07T14:30:23Z</time>
      </trkpt>
      <trkpt lat="48.2162" lon="-3.10146">
        <ele>304</ele>
        <time>2016-03-07T14:30:26Z</time>
      </trkpt>
      <trkpt lat="48.21621" lon="-3.10143">
        <ele>304</ele>
        <time>2016-03-07T14:30:28Z</time>
      </trkpt>
      <trkpt lat="48.21622" lon="-3.10139">
        <ele>304</ele>
        <time>2016-03-07T14:30:30Z</time>
      </trkpt>
      <trkpt lat="48.21623" lon="-3.10134">
        <ele>304</ele>
        <time>2016-03-07T14:30:33Z</time>
      </trkpt>
      <trkpt lat="48.21624" lon="-3.10131">
        <ele>304</ele>
        <time>2016-03-07T14:30:35Z</time>
      </trkpt>
      <trkpt lat="48.21625" lon="-3.10126">
        <ele>303</ele>
        <time>2016-03-07T14:30:38Z</time>
      </trkpt>
      <trkpt lat="48.21627" lon="-3.10121">
        <ele>303</ele>
        <time>2016-03-07T14:30:41Z</time>
      </trkpt>
      <trkpt lat="48.21629" lon="-3.10117">
        <ele>304</ele>
        <time>2016-03-07T14:30:44Z</time>
      </trkpt>
      <trkpt lat="48.2163" lon="-3.10112">
        <ele>304</ele>
        <time>2016-03-07T14:30:47Z</time>
      </trkpt>
      <trkpt lat="48.21631" lon="-3.10108">
        <ele>305</ele>
        <time>2016-03-07T14:30:49Z</time>
      </trkpt>
      <trkpt lat="48.21633" lon="-3.10103">
        <ele>305</ele>
        <time>2016-03-07T14:30:52Z</time>
      </trkpt>
      <trkpt lat="48.21633" lon="-3.101">
        <ele>304</ele>
        <time>2016-03-07T14:30:54Z</time>
      </trkpt>
      <trkpt lat="48.21635" lon="-3.10095">
        <ele>304</ele>
        <time>2016-03-07T14:30:57Z</time>
      </trkpt>
      <trkpt lat="48.21637" lon="-3.1009">
        <ele>304</ele>
        <time>2016-03-07T14:31:00Z</time>
      </trkpt>
      <trkpt lat="48.21638" lon="-3.10087">
        <ele>304</ele>
        <time>2016-03-07T14:31:02Z</time>
      </trkpt>
      <trkpt lat="48.21639" lon="-3.10082">
        <ele>305</ele>
        <time>2016-03-07T14:31:05Z</time>
      </trkpt>
      <trkpt lat="48.2164" lon="-3.10079">
        <ele>305</ele>
        <time>2016-03-07T14:31:07Z</time>
      </trkpt>
      <trkpt lat="48.21641" lon="-3.10076">
        <ele>305</ele>
        <time>2016-03-07T14:31:09Z</time>
      </trkpt>
      <trkpt lat="48.21642" lon="-3.10072">
        <ele>305</ele>
        <time>2016-03-07T14:31:11Z</time>
      </trkpt>
      <trkpt lat="48.21644" lon="-3.10068">
        <ele>305</ele>
        <time>2016-03-07T14:31:14Z</time>
      </trkpt>
      <trkpt lat="48.21645" lon="-3.10065">
        <ele>305</ele>
        <time>2016-03-07T14:31:16Z</time>
      </trkpt>
      <trkpt lat="48.21647" lon="-3.10061">
        <ele>305</ele>
        <time>2016-03-07T14:31:19Z</time>
      </trkpt>
      <trkpt lat="48.21649" lon="-3.10057">
        <ele>305</ele>
        <time>2016-03-07T14:31:22Z</time>
      </trkpt>
      <trkpt lat="48.2165" lon="-3.10053">
        <ele>305</ele>
        <time>2016-03-07T14:31:24Z</time>
      </trkpt>
      <trkpt lat="48.21651" lon="-3.10049">
        <ele>305</ele>
        <time>2016-03-07T14:31:27Z</time>
      </trkpt>
      <trkpt lat="48.21651" lon="-3.10047">
        <ele>305</ele>
        <time>2016-03-07T14:31:29Z</time>
      </trkpt>
      <trkpt lat="48.21653" lon="-3.10042">
        <ele>305</ele>
        <time>2016-03-07T14:31:32Z</time>
      </trkpt>
      <trkpt lat="48.21654" lon="-3.10038">
        <ele>305</ele>
        <time>2016-03-07T14:31:35Z</time>
      </trkpt>
      <trkpt lat="48.21655" lon="-3.10034">
        <ele>305</ele>
        <time>2016-03-07T14:31:37Z</time>
      </trkpt>
      <trkpt lat="48.21656" lon="-3.10032">
        <ele>305</ele>
        <time>2016-03-07T14:31:39Z</time>
      </trkpt>
      <trkpt lat="48.21657" lon="-3.10027">
        <ele>306</ele>
        <time>2016-03-07T14:31:42Z</time>
      </trkpt>
      <trkpt lat="48.21658" lon="-3.10024">
        <ele>306</ele>
        <time>2016-03-07T14:31:44Z</time>
      </trkpt>
      <trkpt lat="48.21659" lon="-3.10019">
        <ele>306</ele>
        <time>2016-03-07T14:31:47Z</time>
      </trkpt>
      <trkpt lat="48.21661" lon="-3.10016">
        <ele>305</ele>
        <time>2016-03-07T14:31:49Z</time>
      </trkpt>
      <trkpt lat="48.21663" lon="-3.10011">
        <ele>305</ele>
        <time>2016-03-07T14:31:52Z</time>
      </trkpt>
      <trkpt lat="48.21664" lon="-3.10008">
        <ele>305</ele>
        <time>2016-03-07T14:31:54Z</time>
      </trkpt>
      <trkpt lat="48.21665" lon="-3.10003">
        <ele>306</ele>
        <time>2016-03-07T14:31:57Z</time>
      </trkpt>
      <trkpt lat="48.21666" lon="-3.09998">
        <ele>305</ele>
        <time>2016-03-07T14:32:00Z</time>
      </trkpt>
      <trkpt lat="48.21668" lon="-3.09995">
        <ele>305</ele>
        <time>2016-03-07T14:32:02Z</time>
      </trkpt>
      <trkpt lat="48.21669" lon="-3.0999">
        <ele>305</ele>
        <time>2016-03-07T14:32:05Z</time>
      </trkpt>
      <trkpt lat="48.21671" lon="-3.09987">
        <ele>305</ele>
        <time>2016-03-07T14:32:07Z</time>
      </trkpt>
      <trkpt lat="48.21672" lon="-3.09982">
        <ele>305</ele>
        <time>2016-03-07T14:32:10Z</time>
      </trkpt>
      <trkpt lat="48.21673" lon="-3.09977">
        <ele>306</ele>
        <time>2016-03-07T14:32:13Z</time>
      </trkpt>
      <trkpt lat="48.21674" lon="-3.09974">
        <ele>305</ele>
        <time>2016-03-07T14:32:15Z</time>
      </trkpt>
      <trkpt lat="48.21675" lon="-3.09971">
        <ele>306</ele>
        <time>2016-03-07T14:32:17Z</time>
      </trkpt>
      <trkpt lat="48.21676" lon="-3.09966">
        <ele>306</ele>
        <time>2016-03-07T14:32:20Z</time>
      </trkpt>
      <trkpt lat="48.21677" lon="-3.09963">
        <ele>306</ele>
        <time>2016-03-07T14:32:22Z</time>
      </trkpt>
      <trkpt lat="48.21679" lon="-3.09958">
        <ele>306</ele>
        <time>2016-03-07T14:32:25Z</time>
      </trkpt>
      <trkpt lat="48.2168" lon="-3.09953">
        <ele>306</ele>
        <time>2016-03-07T14:32:28Z</time>
      </trkpt>
      <trkpt lat="48.21681" lon="-3.0995">
        <ele>306</ele>
        <time>2016-03-07T14:32:30Z</time>
      </trkpt>
      <trkpt lat="48.21682" lon="-3.09945">
        <ele>306</ele>
        <time>2016-03-07T14:32:33Z</time>
      </trkpt>
      <trkpt lat="48.21683" lon="-3.09942">
        <ele>306</ele>
        <time>2016-03-07T14:32:35Z</time>
      </trkpt>
      <trkpt lat="48.21684" lon="-3.09939">
        <ele>306</ele>
        <time>2016-03-07T14:32:37Z</time>
      </trkpt>
      <trkpt lat="48.21685" lon="-3.09934">
        <ele>306</ele>
        <time>2016-03-07T14:32:40Z</time>
      </trkpt>
      <trkpt lat="48.21687" lon="-3.09929">
        <ele>306</ele>
        <time>2016-03-07T14:32:43Z</time>
      </trkpt>
      <trkpt lat="48.2169" lon="-3.09924">
        <ele>306</ele>
        <time>2016-03-07T14:32:46Z</time>
      </trkpt>
      <trkpt lat="48.21692" lon="-3.0992">
        <ele>306</ele>
        <time>2016-03-07T14:32:49Z</time>
      </trkpt>
      <trkpt lat="48.21693" lon="-3.09918">
        <ele>306</ele>
        <time>2016-03-07T14:32:51Z</time>
      </trkpt>
      <trkpt lat="48.21693" lon="-3.09916">
        <ele>306</ele>
        <time>2016-03-07T14:32:53Z</time>
      </trkpt>
      <trkpt lat="48.21693" lon="-3.09914">
        <ele>306</ele>
        <time>2016-03-07T14:32:56Z</time>
      </trkpt>
      <trkpt lat="48.21694" lon="-3.09913">
        <ele>306</ele>
        <time>2016-03-07T14:32:58Z</time>
      </trkpt>
      <trkpt lat="48.21695" lon="-3.09913">
        <ele>305</ele>
        <time>2016-03-07T14:33:01Z</time>
      </trkpt>
      <trkpt lat="48.21696" lon="-3.09912">
        <ele>305</ele>
        <time>2016-03-07T14:33:03Z</time>
      </trkpt>
      <trkpt lat="48.21696" lon="-3.09907">
        <ele>306</ele>
        <time>2016-03-07T14:33:06Z</time>
      </trkpt>
      <trkpt lat="48.21697" lon="-3.09903">
        <ele>306</ele>
        <time>2016-03-07T14:33:08Z</time>
      </trkpt>
      <trkpt lat="48.21699" lon="-3.09897">
        <ele>306</ele>
        <time>2016-03-07T14:33:11Z</time>
      </trkpt>
      <trkpt lat="48.217" lon="-3.09893">
        <ele>307</ele>
        <time>2016-03-07T14:33:13Z</time>
      </trkpt>
      <trkpt lat="48.21702" lon="-3.09886">
        <ele>307</ele>
        <time>2016-03-07T14:33:16Z</time>
      </trkpt>
      <trkpt lat="48.21705" lon="-3.09878">
        <ele>307</ele>
        <time>2016-03-07T14:33:19Z</time>
      </trkpt>
      <trkpt lat="48.21708" lon="-3.09875">
        <ele>306</ele>
        <time>2016-03-07T14:33:21Z</time>
      </trkpt>
      <trkpt lat="48.21711" lon="-3.09868">
        <ele>306</ele>
        <time>2016-03-07T14:33:24Z</time>
      </trkpt>
      <trkpt lat="48.21714" lon="-3.09863">
        <ele>307</ele>
        <time>2016-03-07T14:33:27Z</time>
      </trkpt>
      <trkpt lat="48.21716" lon="-3.09857">
        <ele>307</ele>
        <time>2016-03-07T14:33:30Z</time>
      </trkpt>
      <trkpt lat="48.21718" lon="-3.09854">
        <ele>307</ele>
        <time>2016-03-07T14:33:32Z</time>
      </trkpt>
      <trkpt lat="48.21721" lon="-3.09848">
        <ele>307</ele>
        <time>2016-03-07T14:33:35Z</time>
      </trkpt>
      <trkpt lat="48.21723" lon="-3.09845">
        <ele>307</ele>
        <time>2016-03-07T14:33:37Z</time>
      </trkpt>
      <trkpt lat="48.21725" lon="-3.0984">
        <ele>307</ele>
        <time>2016-03-07T14:33:40Z</time>
      </trkpt>
      <trkpt lat="48.21726" lon="-3.09835">
        <ele>307</ele>
        <time>2016-03-07T14:33:42Z</time>
      </trkpt>
      <trkpt lat="48.21728" lon="-3.0983">
        <ele>307</ele>
        <time>2016-03-07T14:33:45Z</time>
      </trkpt>
      <trkpt lat="48.21729" lon="-3.09828">
        <ele>308</ele>
        <time>2016-03-07T14:33:47Z</time>
      </trkpt>
      <trkpt lat="48.2173" lon="-3.09823">
        <ele>308</ele>
        <time>2016-03-07T14:33:50Z</time>
      </trkpt>
      <trkpt lat="48.21729" lon="-3.09823">
        <ele>308</ele>
        <time>2016-03-07T14:33:52Z</time>
      </trkpt>
      <trkpt lat="48.21729" lon="-3.09822">
        <ele>308</ele>
        <time>2016-03-07T14:33:55Z</time>
      </trkpt>
      <trkpt lat="48.21729" lon="-3.09817">
        <ele>308</ele>
        <time>2016-03-07T14:33:58Z</time>
      </trkpt>
      <trkpt lat="48.2173" lon="-3.09811">
        <ele>308</ele>
        <time>2016-03-07T14:34:01Z</time>
      </trkpt>
      <trkpt lat="48.21733" lon="-3.09805">
        <ele>308</ele>
        <time>2016-03-07T14:34:04Z</time>
      </trkpt>
      <trkpt lat="48.21734" lon="-3.09799">
        <ele>308</ele>
        <time>2016-03-07T14:34:07Z</time>
      </trkpt>
      <trkpt lat="48.21735" lon="-3.09795">
        <ele>308</ele>
        <time>2016-03-07T14:34:09Z</time>
      </trkpt>
      <trkpt lat="48.21736" lon="-3.0979">
        <ele>308</ele>
        <time>2016-03-07T14:34:12Z</time>
      </trkpt>
      <trkpt lat="48.21737" lon="-3.09786">
        <ele>308</ele>
        <time>2016-03-07T14:34:14Z</time>
      </trkpt>
      <trkpt lat="48.21739" lon="-3.09781">
        <ele>308</ele>
        <time>2016-03-07T14:34:17Z</time>
      </trkpt>
      <trkpt lat="48.2174" lon="-3.09777">
        <ele>308</ele>
        <time>2016-03-07T14:34:19Z</time>
      </trkpt>
      <trkpt lat="48.21741" lon="-3.09772">
        <ele>308</ele>
        <time>2016-03-07T14:34:22Z</time>
      </trkpt>
      <trkpt lat="48.21743" lon="-3.09767">
        <ele>308</ele>
        <time>2016-03-07T14:34:25Z</time>
      </trkpt>
      <trkpt lat="48.21743" lon="-3.09763">
        <ele>308</ele>
        <time>2016-03-07T14:34:28Z</time>
      </trkpt>
      <trkpt lat="48.21745" lon="-3.0976">
        <ele>309</ele>
        <time>2016-03-07T14:34:30Z</time>
      </trkpt>
      <trkpt lat="48.21747" lon="-3.09754">
        <ele>309</ele>
        <time>2016-03-07T14:34:33Z</time>
      </trkpt>
      <trkpt lat="48.21748" lon="-3.09751">
        <ele>309</ele>
        <time>2016-03-07T14:34:35Z</time>
      </trkpt>
      <trkpt lat="48.21749" lon="-3.09748">
        <ele>309</ele>
        <time>2016-03-07T14:34:37Z</time>
      </trkpt>
      <trkpt lat="48.21751" lon="-3.09743">
        <ele>309</ele>
        <time>2016-03-07T14:34:40Z</time>
      </trkpt>
      <trkpt lat="48.21751" lon="-3.09739">
        <ele>309</ele>
        <time>2016-03-07T14:34:42Z</time>
      </trkpt>
      <trkpt lat="48.21753" lon="-3.09735">
        <ele>309</ele>
        <time>2016-03-07T14:34:45Z</time>
      </trkpt>
      <trkpt lat="48.21754" lon="-3.09731">
        <ele>309</ele>
        <time>2016-03-07T14:34:47Z</time>
      </trkpt>
      <trkpt lat="48.21755" lon="-3.09726">
        <ele>309</ele>
        <time>2016-03-07T14:34:50Z</time>
      </trkpt>
      <trkpt lat="48.21756" lon="-3.09721">
        <ele>309</ele>
        <time>2016-03-07T14:34:53Z</time>
      </trkpt>
      <trkpt lat="48.21758" lon="-3.09716">
        <ele>309</ele>
        <time>2016-03-07T14:34:56Z</time>
      </trkpt>
      <trkpt lat="48.2176" lon="-3.09711">
        <ele>309</ele>
        <time>2016-03-07T14:34:59Z</time>
      </trkpt>
      <trkpt lat="48.21762" lon="-3.09706">
        <ele>309</ele>
        <time>2016-03-07T14:35:02Z</time>
      </trkpt>
      <trkpt lat="48.21763" lon="-3.09701">
        <ele>309</ele>
        <time>2016-03-07T14:35:05Z</time>
      </trkpt>
      <trkpt lat="48.21764" lon="-3.09698">
        <ele>310</ele>
        <time>2016-03-07T14:35:07Z</time>
      </trkpt>
      <trkpt lat="48.21765" lon="-3.09693">
        <ele>310</ele>
        <time>2016-03-07T14:35:10Z</time>
      </trkpt>
      <trkpt lat="48.21766" lon="-3.0969">
        <ele>310</ele>
        <time>2016-03-07T14:35:12Z</time>
      </trkpt>
      <trkpt lat="48.21767" lon="-3.09687">
        <ele>310</ele>
        <time>2016-03-07T14:35:14Z</time>
      </trkpt>
      <trkpt lat="48.21768" lon="-3.09682">
        <ele>310</ele>
        <time>2016-03-07T14:35:17Z</time>
      </trkpt>
      <trkpt lat="48.21769" lon="-3.09677">
        <ele>310</ele>
        <time>2016-03-07T14:35:20Z</time>
      </trkpt>
      <trkpt lat="48.21771" lon="-3.09672">
        <ele>310</ele>
        <time>2016-03-07T14:35:23Z</time>
      </trkpt>
      <trkpt lat="48.21772" lon="-3.09669">
        <ele>310</ele>
        <time>2016-03-07T14:35:25Z</time>
      </trkpt>
      <trkpt lat="48.21774" lon="-3.09664">
        <ele>310</ele>
        <time>2016-03-07T14:35:28Z</time>
      </trkpt>
      <trkpt lat="48.21775" lon="-3.09661">
        <ele>310</ele>
        <time>2016-03-07T14:35:30Z</time>
      </trkpt>
      <trkpt lat="48.21777" lon="-3.09655">
        <ele>310</ele>
        <time>2016-03-07T14:35:33Z</time>
      </trkpt>
      <trkpt lat="48.21778" lon="-3.0965">
        <ele>310</ele>
        <time>2016-03-07T14:35:36Z</time>
      </trkpt>
      <trkpt lat="48.21779" lon="-3.09645">
        <ele>310</ele>
        <time>2016-03-07T14:35:39Z</time>
      </trkpt>
      <trkpt lat="48.2178" lon="-3.09642">
        <ele>311</ele>
        <time>2016-03-07T14:35:41Z</time>
      </trkpt>
      <trkpt lat="48.21781" lon="-3.09637">
        <ele>311</ele>
        <time>2016-03-07T14:35:44Z</time>
      </trkpt>
      <trkpt lat="48.21782" lon="-3.09632">
        <ele>311</ele>
        <time>2016-03-07T14:35:47Z</time>
      </trkpt>
      <trkpt lat="48.21783" lon="-3.09627">
        <ele>311</ele>
        <time>2016-03-07T14:35:50Z</time>
      </trkpt>
      <trkpt lat="48.21785" lon="-3.09621">
        <ele>311</ele>
        <time>2016-03-07T14:35:53Z</time>
      </trkpt>
      <trkpt lat="48.21786" lon="-3.09618">
        <ele>311</ele>
        <time>2016-03-07T14:35:55Z</time>
      </trkpt>
      <trkpt lat="48.21787" lon="-3.09615">
        <ele>311</ele>
        <time>2016-03-07T14:35:57Z</time>
      </trkpt>
      <trkpt lat="48.21788" lon="-3.0961">
        <ele>311</ele>
        <time>2016-03-07T14:36:00Z</time>
      </trkpt>
      <trkpt lat="48.21789" lon="-3.09607">
        <ele>311</ele>
        <time>2016-03-07T14:36:02Z</time>
      </trkpt>
      <trkpt lat="48.2179" lon="-3.09603">
        <ele>311</ele>
        <time>2016-03-07T14:36:05Z</time>
      </trkpt>
      <trkpt lat="48.21792" lon="-3.09598">
        <ele>311</ele>
        <time>2016-03-07T14:36:08Z</time>
      </trkpt>
      <trkpt lat="48.21793" lon="-3.09594">
        <ele>311</ele>
        <time>2016-03-07T14:36:11Z</time>
      </trkpt>
      <trkpt lat="48.21793" lon="-3.09588">
        <ele>311</ele>
        <time>2016-03-07T14:36:14Z</time>
      </trkpt>
      <trkpt lat="48.21794" lon="-3.09585">
        <ele>311</ele>
        <time>2016-03-07T14:36:16Z</time>
      </trkpt>
      <trkpt lat="48.21795" lon="-3.0958">
        <ele>312</ele>
        <time>2016-03-07T14:36:19Z</time>
      </trkpt>
      <trkpt lat="48.21796" lon="-3.09577">
        <ele>312</ele>
        <time>2016-03-07T14:36:21Z</time>
      </trkpt>
      <trkpt lat="48.21796" lon="-3.09572">
        <ele>312</ele>
        <time>2016-03-07T14:36:24Z</time>
      </trkpt>
      <trkpt lat="48.21797" lon="-3.09567">
        <ele>312</ele>
        <time>2016-03-07T14:36:27Z</time>
      </trkpt>
      <trkpt lat="48.21797" lon="-3.09562">
        <ele>311</ele>
        <time>2016-03-07T14:36:30Z</time>
      </trkpt>
      <trkpt lat="48.21797" lon="-3.09557">
        <ele>311</ele>
        <time>2016-03-07T14:36:33Z</time>
      </trkpt>
      <trkpt lat="48.21798" lon="-3.09553">
        <ele>312</ele>
        <time>2016-03-07T14:36:35Z</time>
      </trkpt>
      <trkpt lat="48.21799" lon="-3.0955">
        <ele>312</ele>
        <time>2016-03-07T14:36:38Z</time>
      </trkpt>
      <trkpt lat="48.218" lon="-3.09545">
        <ele>312</ele>
        <time>2016-03-07T14:36:41Z</time>
      </trkpt>
      <trkpt lat="48.218" lon="-3.09541">
        <ele>312</ele>
        <time>2016-03-07T14:36:44Z</time>
      </trkpt>
      <trkpt lat="48.21801" lon="-3.09537">
        <ele>312</ele>
        <time>2016-03-07T14:36:46Z</time>
      </trkpt>
      <trkpt lat="48.21801" lon="-3.09532">
        <ele>312</ele>
        <time>2016-03-07T14:36:49Z</time>
      </trkpt>
      <trkpt lat="48.21802" lon="-3.09526">
        <ele>312</ele>
        <time>2016-03-07T14:36:52Z</time>
      </trkpt>
      <trkpt lat="48.21803" lon="-3.09521">
        <ele>312</ele>
        <time>2016-03-07T14:36:55Z</time>
      </trkpt>
      <trkpt lat="48.21804" lon="-3.09517">
        <ele>312</ele>
        <time>2016-03-07T14:36:58Z</time>
      </trkpt>
      <trkpt lat="48.21804" lon="-3.09512">
        <ele>312</ele>
        <time>2016-03-07T14:37:01Z</time>
      </trkpt>
      <trkpt lat="48.21804" lon="-3.09508">
        <ele>312</ele>
        <time>2016-03-07T14:37:03Z</time>
      </trkpt>
      <trkpt lat="48.21804" lon="-3.09505">
        <ele>312</ele>
        <time>2016-03-07T14:37:05Z</time>
      </trkpt>
      <trkpt lat="48.21805" lon="-3.09501">
        <ele>312</ele>
        <time>2016-03-07T14:37:08Z</time>
      </trkpt>
      <trkpt lat="48.21805" lon="-3.09497">
        <ele>313</ele>
        <time>2016-03-07T14:37:10Z</time>
      </trkpt>
      <trkpt lat="48.21805" lon="-3.09492">
        <ele>312</ele>
        <time>2016-03-07T14:37:13Z</time>
      </trkpt>
      <trkpt lat="48.21805" lon="-3.09488">
        <ele>312</ele>
        <time>2016-03-07T14:37:15Z</time>
      </trkpt>
      <trkpt lat="48.21805" lon="-3.09483">
        <ele>312</ele>
        <time>2016-03-07T14:37:18Z</time>
      </trkpt>
      <trkpt lat="48.21805" lon="-3.09477">
        <ele>313</ele>
        <time>2016-03-07T14:37:21Z</time>
      </trkpt>
      <trkpt lat="48.21805" lon="-3.09473">
        <ele>313</ele>
        <time>2016-03-07T14:37:23Z</time>
      </trkpt>
      <trkpt lat="48.21805" lon="-3.0947">
        <ele>313</ele>
        <time>2016-03-07T14:37:25Z</time>
      </trkpt>
      <trkpt lat="48.21805" lon="-3.09464">
        <ele>313</ele>
        <time>2016-03-07T14:37:28Z</time>
      </trkpt>
      <trkpt lat="48.21806" lon="-3.09458">
        <ele>313</ele>
        <time>2016-03-07T14:37:31Z</time>
      </trkpt>
      <trkpt lat="48.21806" lon="-3.09457">
        <ele>313</ele>
        <time>2016-03-07T14:37:33Z</time>
      </trkpt>
      <trkpt lat="48.21806" lon="-3.09452">
        <ele>313</ele>
        <time>2016-03-07T14:37:36Z</time>
      </trkpt>
      <trkpt lat="48.21806" lon="-3.09449">
        <ele>313</ele>
        <time>2016-03-07T14:37:39Z</time>
      </trkpt>
      <trkpt lat="48.21806" lon="-3.09447">
        <ele>313</ele>
        <time>2016-03-07T14:37:41Z</time>
      </trkpt>
      <trkpt lat="48.21806" lon="-3.09441">
        <ele>313</ele>
        <time>2016-03-07T14:37:44Z</time>
      </trkpt>
      <trkpt lat="48.21807" lon="-3.09438">
        <ele>313</ele>
        <time>2016-03-07T14:37:46Z</time>
      </trkpt>
      <trkpt lat="48.21807" lon="-3.09434">
        <ele>313</ele>
        <time>2016-03-07T14:37:48Z</time>
      </trkpt>
      <trkpt lat="48.21808" lon="-3.09429">
        <ele>313</ele>
        <time>2016-03-07T14:37:51Z</time>
      </trkpt>
      <trkpt lat="48.21808" lon="-3.09423">
        <ele>313</ele>
        <time>2016-03-07T14:37:54Z</time>
      </trkpt>
      <trkpt lat="48.21809" lon="-3.09419">
        <ele>313</ele>
        <time>2016-03-07T14:37:56Z</time>
      </trkpt>
      <trkpt lat="48.21809" lon="-3.09413">
        <ele>313</ele>
        <time>2016-03-07T14:37:59Z</time>
      </trkpt>
      <trkpt lat="48.21809" lon="-3.09409">
        <ele>313</ele>
        <time>2016-03-07T14:38:01Z</time>
      </trkpt>
      <trkpt lat="48.21809" lon="-3.09404">
        <ele>313</ele>
        <time>2016-03-07T14:38:04Z</time>
      </trkpt>
      <trkpt lat="48.2181" lon="-3.094">
        <ele>313</ele>
        <time>2016-03-07T14:38:06Z</time>
      </trkpt>
      <trkpt lat="48.21811" lon="-3.09396">
        <ele>313</ele>
        <time>2016-03-07T14:38:09Z</time>
      </trkpt>
      <trkpt lat="48.21811" lon="-3.09392">
        <ele>313</ele>
        <time>2016-03-07T14:38:11Z</time>
      </trkpt>
      <trkpt lat="48.21811" lon="-3.09388">
        <ele>314</ele>
        <time>2016-03-07T14:38:14Z</time>
      </trkpt>
      <trkpt lat="48.2181" lon="-3.09384">
        <ele>314</ele>
        <time>2016-03-07T14:38:16Z</time>
      </trkpt>
      <trkpt lat="48.2181" lon="-3.09382">
        <ele>314</ele>
        <time>2016-03-07T14:38:18Z</time>
      </trkpt>
      <trkpt lat="48.21809" lon="-3.09377">
        <ele>314</ele>
        <time>2016-03-07T14:38:21Z</time>
      </trkpt>
      <trkpt lat="48.21809" lon="-3.09371">
        <ele>314</ele>
        <time>2016-03-07T14:38:24Z</time>
      </trkpt>
      <trkpt lat="48.21809" lon="-3.09367">
        <ele>314</ele>
        <time>2016-03-07T14:38:27Z</time>
      </trkpt>
      <trkpt lat="48.21808" lon="-3.09363">
        <ele>314</ele>
        <time>2016-03-07T14:38:29Z</time>
      </trkpt>
      <trkpt lat="48.21808" lon="-3.09357">
        <ele>314</ele>
        <time>2016-03-07T14:38:32Z</time>
      </trkpt>
      <trkpt lat="48.21807" lon="-3.09352">
        <ele>314</ele>
        <time>2016-03-07T14:38:35Z</time>
      </trkpt>
      <trkpt lat="48.21806" lon="-3.09348">
        <ele>314</ele>
        <time>2016-03-07T14:38:38Z</time>
      </trkpt>
      <trkpt lat="48.21806" lon="-3.09343">
        <ele>314</ele>
        <time>2016-03-07T14:38:41Z</time>
      </trkpt>
      <trkpt lat="48.21806" lon="-3.09339">
        <ele>314</ele>
        <time>2016-03-07T14:38:43Z</time>
      </trkpt>
      <trkpt lat="48.21806" lon="-3.09335">
        <ele>315</ele>
        <time>2016-03-07T14:38:45Z</time>
      </trkpt>
      <trkpt lat="48.21805" lon="-3.0933">
        <ele>315</ele>
        <time>2016-03-07T14:38:48Z</time>
      </trkpt>
      <trkpt lat="48.21805" lon="-3.09325">
        <ele>315</ele>
        <time>2016-03-07T14:38:51Z</time>
      </trkpt>
      <trkpt lat="48.21804" lon="-3.0932">
        <ele>315</ele>
        <time>2016-03-07T14:38:54Z</time>
      </trkpt>
      <trkpt lat="48.21803" lon="-3.09316">
        <ele>315</ele>
        <time>2016-03-07T14:38:57Z</time>
      </trkpt>
      <trkpt lat="48.21803" lon="-3.09311">
        <ele>315</ele>
        <time>2016-03-07T14:39:00Z</time>
      </trkpt>
      <trkpt lat="48.21803" lon="-3.09307">
        <ele>314</ele>
        <time>2016-03-07T14:39:02Z</time>
      </trkpt>
      <trkpt lat="48.21802" lon="-3.09304">
        <ele>315</ele>
        <time>2016-03-07T14:39:04Z</time>
      </trkpt>
      <trkpt lat="48.21801" lon="-3.09299">
        <ele>314</ele>
        <time>2016-03-07T14:39:07Z</time>
      </trkpt>
      <trkpt lat="48.21801" lon="-3.09294">
        <ele>314</ele>
        <time>2016-03-07T14:39:10Z</time>
      </trkpt>
      <trkpt lat="48.218" lon="-3.0929">
        <ele>314</ele>
        <time>2016-03-07T14:39:12Z</time>
      </trkpt>
      <trkpt lat="48.218" lon="-3.09285">
        <ele>315</ele>
        <time>2016-03-07T14:39:15Z</time>
      </trkpt>
      <trkpt lat="48.218" lon="-3.09282">
        <ele>315</ele>
        <time>2016-03-07T14:39:17Z</time>
      </trkpt>
      <trkpt lat="48.21799" lon="-3.09279">
        <ele>315</ele>
        <time>2016-03-07T14:39:19Z</time>
      </trkpt>
      <trkpt lat="48.21799" lon="-3.09273">
        <ele>315</ele>
        <time>2016-03-07T14:39:22Z</time>
      </trkpt>
      <trkpt lat="48.21798" lon="-3.09269">
        <ele>315</ele>
        <time>2016-03-07T14:39:24Z</time>
      </trkpt>
      <trkpt lat="48.21797" lon="-3.09265">
        <ele>315</ele>
        <time>2016-03-07T14:39:26Z</time>
      </trkpt>
      <trkpt lat="48.21797" lon="-3.0926">
        <ele>315</ele>
        <time>2016-03-07T14:39:29Z</time>
      </trkpt>
      <trkpt lat="48.21796" lon="-3.09257">
        <ele>316</ele>
        <time>2016-03-07T14:39:31Z</time>
      </trkpt>
      <trkpt lat="48.21795" lon="-3.09251">
        <ele>316</ele>
        <time>2016-03-07T14:39:34Z</time>
      </trkpt>
      <trkpt lat="48.21795" lon="-3.09247">
        <ele>316</ele>
        <time>2016-03-07T14:39:36Z</time>
      </trkpt>
      <trkpt lat="48.21793" lon="-3.09241">
        <ele>316</ele>
        <time>2016-03-07T14:39:39Z</time>
      </trkpt>
      <trkpt lat="48.21793" lon="-3.09235">
        <ele>316</ele>
        <time>2016-03-07T14:39:42Z</time>
      </trkpt>
      <trkpt lat="48.21792" lon="-3.09231">
        <ele>316</ele>
        <time>2016-03-07T14:39:44Z</time>
      </trkpt>
      <trkpt lat="48.21791" lon="-3.09226">
        <ele>316</ele>
        <time>2016-03-07T14:39:47Z</time>
      </trkpt>
      <trkpt lat="48.21791" lon="-3.09222">
        <ele>316</ele>
        <time>2016-03-07T14:39:49Z</time>
      </trkpt>
      <trkpt lat="48.2179" lon="-3.09215">
        <ele>316</ele>
        <time>2016-03-07T14:39:52Z</time>
      </trkpt>
      <trkpt lat="48.21789" lon="-3.09211">
        <ele>316</ele>
        <time>2016-03-07T14:39:54Z</time>
      </trkpt>
      <trkpt lat="48.21788" lon="-3.09205">
        <ele>316</ele>
        <time>2016-03-07T14:39:57Z</time>
      </trkpt>
      <trkpt lat="48.21787" lon="-3.09198">
        <ele>316</ele>
        <time>2016-03-07T14:40:00Z</time>
      </trkpt>
      <trkpt lat="48.21786" lon="-3.09193">
        <ele>316</ele>
        <time>2016-03-07T14:40:03Z</time>
      </trkpt>
      <trkpt lat="48.21785" lon="-3.09189">
        <ele>316</ele>
        <time>2016-03-07T14:40:05Z</time>
      </trkpt>
      <trkpt lat="48.21784" lon="-3.09184">
        <ele>316</ele>
        <time>2016-03-07T14:40:08Z</time>
      </trkpt>
      <trkpt lat="48.21783" lon="-3.09179">
        <ele>316</ele>
        <time>2016-03-07T14:40:11Z</time>
      </trkpt>
      <trkpt lat="48.21782" lon="-3.09174">
        <ele>316</ele>
        <time>2016-03-07T14:40:14Z</time>
      </trkpt>
      <trkpt lat="48.21781" lon="-3.0917">
        <ele>316</ele>
        <time>2016-03-07T14:40:16Z</time>
      </trkpt>
      <trkpt lat="48.2178" lon="-3.09165">
        <ele>316</ele>
        <time>2016-03-07T14:40:19Z</time>
      </trkpt>
      <trkpt lat="48.21779" lon="-3.09162">
        <ele>316</ele>
        <time>2016-03-07T14:40:21Z</time>
      </trkpt>
      <trkpt lat="48.21778" lon="-3.09157">
        <ele>317</ele>
        <time>2016-03-07T14:40:24Z</time>
      </trkpt>
      <trkpt lat="48.21778" lon="-3.09153">
        <ele>317</ele>
        <time>2016-03-07T14:40:26Z</time>
      </trkpt>
      <trkpt lat="48.21777" lon="-3.09148">
        <ele>317</ele>
        <time>2016-03-07T14:40:29Z</time>
      </trkpt>
      <trkpt lat="48.21777" lon="-3.09143">
        <ele>316</ele>
        <time>2016-03-07T14:40:32Z</time>
      </trkpt>
      <trkpt lat="48.21776" lon="-3.09137">
        <ele>317</ele>
        <time>2016-03-07T14:40:35Z</time>
      </trkpt>
      <trkpt lat="48.21774" lon="-3.09132">
        <ele>317</ele>
        <time>2016-03-07T14:40:38Z</time>
      </trkpt>
      <trkpt lat="48.21773" lon="-3.09128">
        <ele>317</ele>
        <time>2016-03-07T14:40:41Z</time>
      </trkpt>
      <trkpt lat="48.21773" lon="-3.09125">
        <ele>317</ele>
        <time>2016-03-07T14:40:43Z</time>
      </trkpt>
      <trkpt lat="48.21772" lon="-3.0912">
        <ele>317</ele>
        <time>2016-03-07T14:40:46Z</time>
      </trkpt>
      <trkpt lat="48.21771" lon="-3.09118">
        <ele>317</ele>
        <time>2016-03-07T14:40:48Z</time>
      </trkpt>
      <trkpt lat="48.2177" lon="-3.09113">
        <ele>317</ele>
        <time>2016-03-07T14:40:51Z</time>
      </trkpt>
      <trkpt lat="48.21769" lon="-3.09108">
        <ele>317</ele>
        <time>2016-03-07T14:40:54Z</time>
      </trkpt>
      <trkpt lat="48.21768" lon="-3.09105">
        <ele>317</ele>
        <time>2016-03-07T14:40:56Z</time>
      </trkpt>
      <trkpt lat="48.21767" lon="-3.09101">
        <ele>317</ele>
        <time>2016-03-07T14:40:58Z</time>
      </trkpt>
      <trkpt lat="48.21766" lon="-3.09096">
        <ele>317</ele>
        <time>2016-03-07T14:41:01Z</time>
      </trkpt>
      <trkpt lat="48.21765" lon="-3.0909">
        <ele>317</ele>
        <time>2016-03-07T14:41:04Z</time>
      </trkpt>
      <trkpt lat="48.21765" lon="-3.09086">
        <ele>317</ele>
        <time>2016-03-07T14:41:06Z</time>
      </trkpt>
      <trkpt lat="48.21764" lon="-3.09083">
        <ele>317</ele>
        <time>2016-03-07T14:41:08Z</time>
      </trkpt>
      <trkpt lat="48.21763" lon="-3.09077">
        <ele>317</ele>
        <time>2016-03-07T14:41:11Z</time>
      </trkpt>
      <trkpt lat="48.21763" lon="-3.09073">
        <ele>317</ele>
        <time>2016-03-07T14:41:13Z</time>
      </trkpt>
      <trkpt lat="48.21762" lon="-3.09066">
        <ele>317</ele>
        <time>2016-03-07T14:41:16Z</time>
      </trkpt>
      <trkpt lat="48.21761" lon="-3.0906">
        <ele>317</ele>
        <time>2016-03-07T14:41:19Z</time>
      </trkpt>
      <trkpt lat="48.21759" lon="-3.09054">
        <ele>317</ele>
        <time>2016-03-07T14:41:22Z</time>
      </trkpt>
      <trkpt lat="48.21759" lon="-3.09051">
        <ele>317</ele>
        <time>2016-03-07T14:41:24Z</time>
      </trkpt>
      <trkpt lat="48.21758" lon="-3.09045">
        <ele>317</ele>
        <time>2016-03-07T14:41:27Z</time>
      </trkpt>
      <trkpt lat="48.21756" lon="-3.09041">
        <ele>317</ele>
        <time>2016-03-07T14:41:30Z</time>
      </trkpt>
      <trkpt lat="48.21755" lon="-3.09037">
        <ele>317</ele>
        <time>2016-03-07T14:41:32Z</time>
      </trkpt>
      <trkpt lat="48.21755" lon="-3.09032">
        <ele>317</ele>
        <time>2016-03-07T14:41:35Z</time>
      </trkpt>
      <trkpt lat="48.21754" lon="-3.09029">
        <ele>317</ele>
        <time>2016-03-07T14:41:37Z</time>
      </trkpt>
      <trkpt lat="48.21754" lon="-3.09023">
        <ele>317</ele>
        <time>2016-03-07T14:41:40Z</time>
      </trkpt>
      <trkpt lat="48.21753" lon="-3.0902">
        <ele>317</ele>
        <time>2016-03-07T14:41:42Z</time>
      </trkpt>
      <trkpt lat="48.21753" lon="-3.09015">
        <ele>317</ele>
        <time>2016-03-07T14:41:45Z</time>
      </trkpt>
      <trkpt lat="48.21752" lon="-3.09012">
        <ele>317</ele>
        <time>2016-03-07T14:41:47Z</time>
      </trkpt>
      <trkpt lat="48.21752" lon="-3.09006">
        <ele>318</ele>
        <time>2016-03-07T14:41:50Z</time>
      </trkpt>
      <trkpt lat="48.21752" lon="-3.09002">
        <ele>317</ele>
        <time>2016-03-07T14:41:52Z</time>
      </trkpt>
      <trkpt lat="48.21751" lon="-3.08998">
        <ele>317</ele>
        <time>2016-03-07T14:41:55Z</time>
      </trkpt>
      <trkpt lat="48.2175" lon="-3.08995">
        <ele>317</ele>
        <time>2016-03-07T14:41:57Z</time>
      </trkpt>
      <trkpt lat="48.2175" lon="-3.08992">
        <ele>317</ele>
        <time>2016-03-07T14:41:59Z</time>
      </trkpt>
      <trkpt lat="48.2175" lon="-3.08987">
        <ele>317</ele>
        <time>2016-03-07T14:42:02Z</time>
      </trkpt>
      <trkpt lat="48.21749" lon="-3.08983">
        <ele>318</ele>
        <time>2016-03-07T14:42:05Z</time>
      </trkpt>
      <trkpt lat="48.21749" lon="-3.0898">
        <ele>318</ele>
        <time>2016-03-07T14:42:07Z</time>
      </trkpt>
      <trkpt lat="48.21748" lon="-3.08974">
        <ele>318</ele>
        <time>2016-03-07T14:42:10Z</time>
      </trkpt>
      <trkpt lat="48.21748" lon="-3.08971">
        <ele>318</ele>
        <time>2016-03-07T14:42:12Z</time>
      </trkpt>
      <trkpt lat="48.21748" lon="-3.08966">
        <ele>318</ele>
        <time>2016-03-07T14:42:15Z</time>
      </trkpt>
      <trkpt lat="48.21748" lon="-3.08962">
        <ele>318</ele>
        <time>2016-03-07T14:42:18Z</time>
      </trkpt>
      <trkpt lat="48.21748" lon="-3.08957">
        <ele>318</ele>
        <time>2016-03-07T14:42:21Z</time>
      </trkpt>
      <trkpt lat="48.21747" lon="-3.08952">
        <ele>318</ele>
        <time>2016-03-07T14:42:24Z</time>
      </trkpt>
      <trkpt lat="48.21746" lon="-3.08948">
        <ele>318</ele>
        <time>2016-03-07T14:42:26Z</time>
      </trkpt>
      <trkpt lat="48.21746" lon="-3.08943">
        <ele>318</ele>
        <time>2016-03-07T14:42:29Z</time>
      </trkpt>
      <trkpt lat="48.21746" lon="-3.08938">
        <ele>318</ele>
        <time>2016-03-07T14:42:32Z</time>
      </trkpt>
      <trkpt lat="48.21746" lon="-3.08935">
        <ele>318</ele>
        <time>2016-03-07T14:42:34Z</time>
      </trkpt>
      <trkpt lat="48.21745" lon="-3.08929">
        <ele>318</ele>
        <time>2016-03-07T14:42:37Z</time>
      </trkpt>
      <trkpt lat="48.21744" lon="-3.08926">
        <ele>318</ele>
        <time>2016-03-07T14:42:39Z</time>
      </trkpt>
      <trkpt lat="48.21743" lon="-3.0892">
        <ele>318</ele>
        <time>2016-03-07T14:42:42Z</time>
      </trkpt>
      <trkpt lat="48.21743" lon="-3.08914">
        <ele>318</ele>
        <time>2016-03-07T14:42:45Z</time>
      </trkpt>
      <trkpt lat="48.21743" lon="-3.08911">
        <ele>318</ele>
        <time>2016-03-07T14:42:47Z</time>
      </trkpt>
      <trkpt lat="48.21742" lon="-3.08908">
        <ele>318</ele>
        <time>2016-03-07T14:42:49Z</time>
      </trkpt>
      <trkpt lat="48.21742" lon="-3.08902">
        <ele>318</ele>
        <time>2016-03-07T14:42:52Z</time>
      </trkpt>
      <trkpt lat="48.21741" lon="-3.08897">
        <ele>319</ele>
        <time>2016-03-07T14:42:55Z</time>
      </trkpt>
      <trkpt lat="48.21742" lon="-3.08891">
        <ele>319</ele>
        <time>2016-03-07T14:42:58Z</time>
      </trkpt>
      <trkpt lat="48.21741" lon="-3.08886">
        <ele>319</ele>
        <time>2016-03-07T14:43:01Z</time>
      </trkpt>
      <trkpt lat="48.21741" lon="-3.08881">
        <ele>319</ele>
        <time>2016-03-07T14:43:04Z</time>
      </trkpt>
      <trkpt lat="48.21741" lon="-3.08876">
        <ele>318</ele>
        <time>2016-03-07T14:43:07Z</time>
      </trkpt>
      <trkpt lat="48.21741" lon="-3.08872">
        <ele>318</ele>
        <time>2016-03-07T14:43:09Z</time>
      </trkpt>
      <trkpt lat="48.21741" lon="-3.08869">
        <ele>318</ele>
        <time>2016-03-07T14:43:11Z</time>
      </trkpt>
      <trkpt lat="48.21741" lon="-3.08863">
        <ele>319</ele>
        <time>2016-03-07T14:43:14Z</time>
      </trkpt>
      <trkpt lat="48.21741" lon="-3.0886">
        <ele>318</ele>
        <time>2016-03-07T14:43:16Z</time>
      </trkpt>
      <trkpt lat="48.21741" lon="-3.08857">
        <ele>319</ele>
        <time>2016-03-07T14:43:18Z</time>
      </trkpt>
      <trkpt lat="48.21741" lon="-3.08851">
        <ele>319</ele>
        <time>2016-03-07T14:43:21Z</time>
      </trkpt>
      <trkpt lat="48.21741" lon="-3.08848">
        <ele>319</ele>
        <time>2016-03-07T14:43:23Z</time>
      </trkpt>
      <trkpt lat="48.21741" lon="-3.08842">
        <ele>319</ele>
        <time>2016-03-07T14:43:26Z</time>
      </trkpt>
      <trkpt lat="48.21741" lon="-3.08837">
        <ele>319</ele>
        <time>2016-03-07T14:43:29Z</time>
      </trkpt>
      <trkpt lat="48.21741" lon="-3.08832">
        <ele>319</ele>
        <time>2016-03-07T14:43:32Z</time>
      </trkpt>
      <trkpt lat="48.21741" lon="-3.08826">
        <ele>319</ele>
        <time>2016-03-07T14:43:35Z</time>
      </trkpt>
      <trkpt lat="48.21741" lon="-3.08822">
        <ele>319</ele>
        <time>2016-03-07T14:43:37Z</time>
      </trkpt>
      <trkpt lat="48.21742" lon="-3.08817">
        <ele>319</ele>
        <time>2016-03-07T14:43:40Z</time>
      </trkpt>
      <trkpt lat="48.21742" lon="-3.08812">
        <ele>319</ele>
        <time>2016-03-07T14:43:43Z</time>
      </trkpt>
      <trkpt lat="48.21742" lon="-3.08809">
        <ele>319</ele>
        <time>2016-03-07T14:43:45Z</time>
      </trkpt>
      <trkpt lat="48.21742" lon="-3.08806">
        <ele>319</ele>
        <time>2016-03-07T14:43:47Z</time>
      </trkpt>
      <trkpt lat="48.21743" lon="-3.08801">
        <ele>319</ele>
        <time>2016-03-07T14:43:50Z</time>
      </trkpt>
      <trkpt lat="48.21743" lon="-3.08797">
        <ele>319</ele>
        <time>2016-03-07T14:43:52Z</time>
      </trkpt>
      <trkpt lat="48.21743" lon="-3.08793">
        <ele>319</ele>
        <time>2016-03-07T14:43:54Z</time>
      </trkpt>
      <trkpt lat="48.21744" lon="-3.08788">
        <ele>319</ele>
        <time>2016-03-07T14:43:57Z</time>
      </trkpt>
      <trkpt lat="48.21745" lon="-3.08782">
        <ele>319</ele>
        <time>2016-03-07T14:44:00Z</time>
      </trkpt>
      <trkpt lat="48.21745" lon="-3.08777">
        <ele>319</ele>
        <time>2016-03-07T14:44:03Z</time>
      </trkpt>
      <trkpt lat="48.21746" lon="-3.08772">
        <ele>320</ele>
        <time>2016-03-07T14:44:06Z</time>
      </trkpt>
      <trkpt lat="48.21746" lon="-3.08769">
        <ele>320</ele>
        <time>2016-03-07T14:44:08Z</time>
      </trkpt>
      <trkpt lat="48.21746" lon="-3.08766">
        <ele>320</ele>
        <time>2016-03-07T14:44:10Z</time>
      </trkpt>
      <trkpt lat="48.21746" lon="-3.08761">
        <ele>320</ele>
        <time>2016-03-07T14:44:13Z</time>
      </trkpt>
      <trkpt lat="48.21747" lon="-3.08758">
        <ele>320</ele>
        <time>2016-03-07T14:44:15Z</time>
      </trkpt>
      <trkpt lat="48.21747" lon="-3.08754">
        <ele>320</ele>
        <time>2016-03-07T14:44:18Z</time>
      </trkpt>
      <trkpt lat="48.21747" lon="-3.08752">
        <ele>320</ele>
        <time>2016-03-07T14:44:20Z</time>
      </trkpt>
      <trkpt lat="48.21747" lon="-3.08747">
        <ele>320</ele>
        <time>2016-03-07T14:44:23Z</time>
      </trkpt>
      <trkpt lat="48.21748" lon="-3.08742">
        <ele>320</ele>
        <time>2016-03-07T14:44:26Z</time>
      </trkpt>
      <trkpt lat="48.21749" lon="-3.08738">
        <ele>320</ele>
        <time>2016-03-07T14:44:29Z</time>
      </trkpt>
      <trkpt lat="48.2175" lon="-3.08733">
        <ele>320</ele>
        <time>2016-03-07T14:44:32Z</time>
      </trkpt>
      <trkpt lat="48.21751" lon="-3.08728">
        <ele>320</ele>
        <time>2016-03-07T14:44:35Z</time>
      </trkpt>
      <trkpt lat="48.21753" lon="-3.08723">
        <ele>321</ele>
        <time>2016-03-07T14:44:38Z</time>
      </trkpt>
      <trkpt lat="48.21754" lon="-3.0872">
        <ele>321</ele>
        <time>2016-03-07T14:44:40Z</time>
      </trkpt>
      <trkpt lat="48.21755" lon="-3.08715">
        <ele>321</ele>
        <time>2016-03-07T14:44:43Z</time>
      </trkpt>
      <trkpt lat="48.21756" lon="-3.08712">
        <ele>320</ele>
        <time>2016-03-07T14:44:45Z</time>
      </trkpt>
      <trkpt lat="48.21758" lon="-3.08707">
        <ele>320</ele>
        <time>2016-03-07T14:44:48Z</time>
      </trkpt>
      <trkpt lat="48.21759" lon="-3.08704">
        <ele>320</ele>
        <time>2016-03-07T14:44:50Z</time>
      </trkpt>
      <trkpt lat="48.2176" lon="-3.08701">
        <ele>320</ele>
        <time>2016-03-07T14:44:52Z</time>
      </trkpt>
      <trkpt lat="48.21762" lon="-3.08696">
        <ele>320</ele>
        <time>2016-03-07T14:44:55Z</time>
      </trkpt>
      <trkpt lat="48.21763" lon="-3.08692">
        <ele>320</ele>
        <time>2016-03-07T14:44:57Z</time>
      </trkpt>
      <trkpt lat="48.21765" lon="-3.08686">
        <ele>320</ele>
        <time>2016-03-07T14:45:00Z</time>
      </trkpt>
      <trkpt lat="48.21766" lon="-3.08682">
        <ele>320</ele>
        <time>2016-03-07T14:45:02Z</time>
      </trkpt>
      <trkpt lat="48.21767" lon="-3.08677">
        <ele>320</ele>
        <time>2016-03-07T14:45:05Z</time>
      </trkpt>
      <trkpt lat="48.2177" lon="-3.08671">
        <ele>320</ele>
        <time>2016-03-07T14:45:08Z</time>
      </trkpt>
      <trkpt lat="48.21772" lon="-3.08666">
        <ele>320</ele>
        <time>2016-03-07T14:45:11Z</time>
      </trkpt>
      <trkpt lat="48.21773" lon="-3.08663">
        <ele>320</ele>
        <time>2016-03-07T14:45:13Z</time>
      </trkpt>
      <trkpt lat="48.21775" lon="-3.08657">
        <ele>320</ele>
        <time>2016-03-07T14:45:16Z</time>
      </trkpt>
      <trkpt lat="48.21777" lon="-3.08652">
        <ele>320</ele>
        <time>2016-03-07T14:45:19Z</time>
      </trkpt>
      <trkpt lat="48.21778" lon="-3.08647">
        <ele>321</ele>
        <time>2016-03-07T14:45:22Z</time>
      </trkpt>
      <trkpt lat="48.2178" lon="-3.08642">
        <ele>321</ele>
        <time>2016-03-07T14:45:25Z</time>
      </trkpt>
      <trkpt lat="48.21782" lon="-3.08639">
        <ele>320</ele>
        <time>2016-03-07T14:45:27Z</time>
      </trkpt>
      <trkpt lat="48.21784" lon="-3.08633">
        <ele>320</ele>
        <time>2016-03-07T14:45:30Z</time>
      </trkpt>
      <trkpt lat="48.21787" lon="-3.08628">
        <ele>321</ele>
        <time>2016-03-07T14:45:33Z</time>
      </trkpt>
      <trkpt lat="48.21788" lon="-3.08625">
        <ele>321</ele>
        <time>2016-03-07T14:45:35Z</time>
      </trkpt>
      <trkpt lat="48.2179" lon="-3.08622">
        <ele>321</ele>
        <time>2016-03-07T14:45:37Z</time>
      </trkpt>
      <trkpt lat="48.21791" lon="-3.08617">
        <ele>321</ele>
        <time>2016-03-07T14:45:40Z</time>
      </trkpt>
      <trkpt lat="48.21794" lon="-3.08612">
        <ele>320</ele>
        <time>2016-03-07T14:45:43Z</time>
      </trkpt>
      <trkpt lat="48.21795" lon="-3.08609">
        <ele>320</ele>
        <time>2016-03-07T14:45:45Z</time>
      </trkpt>
      <trkpt lat="48.21796" lon="-3.08607">
        <ele>320</ele>
        <time>2016-03-07T14:45:47Z</time>
      </trkpt>
      <trkpt lat="48.21798" lon="-3.08605">
        <ele>320</ele>
        <time>2016-03-07T14:45:50Z</time>
      </trkpt>
      <trkpt lat="48.21798" lon="-3.08605">
        <ele>320</ele>
        <time>2016-03-07T14:45:54Z</time>
      </trkpt>
      <trkpt lat="48.21798" lon="-3.08604">
        <ele>321</ele>
        <time>2016-03-07T14:45:56Z</time>
      </trkpt>
      <trkpt lat="48.21798" lon="-3.08603">
        <ele>321</ele>
        <time>2016-03-07T14:45:59Z</time>
      </trkpt>
      <trkpt lat="48.21798" lon="-3.08603">
        <ele>320</ele>
        <time>2016-03-07T14:46:02Z</time>
      </trkpt>
      <trkpt lat="48.21797" lon="-3.08603">
        <ele>321</ele>
        <time>2016-03-07T14:46:05Z</time>
      </trkpt>
      <trkpt lat="48.21797" lon="-3.08603">
        <ele>321</ele>
        <time>2016-03-07T14:46:08Z</time>
      </trkpt>
      <trkpt lat="48.21797" lon="-3.08602">
        <ele>321</ele>
        <time>2016-03-07T14:46:11Z</time>
      </trkpt>
      <trkpt lat="48.21797" lon="-3.08603">
        <ele>320</ele>
        <time>2016-03-07T14:46:13Z</time>
      </trkpt>
      <trkpt lat="48.21797" lon="-3.08602">
        <ele>320</ele>
        <time>2016-03-07T14:46:16Z</time>
      </trkpt>
      <trkpt lat="48.21796" lon="-3.08602">
        <ele>320</ele>
        <time>2016-03-07T14:46:18Z</time>
      </trkpt>
      <trkpt lat="48.21797" lon="-3.08602">
        <ele>320</ele>
        <time>2016-03-07T14:46:22Z</time>
      </trkpt>
      <trkpt lat="48.21797" lon="-3.08602">
        <ele>320</ele>
        <time>2016-03-07T14:46:26Z</time>
      </trkpt>
      <trkpt lat="48.21796" lon="-3.08599">
        <ele>320</ele>
        <time>2016-03-07T14:46:29Z</time>
      </trkpt>
      <trkpt lat="48.21795" lon="-3.08599">
        <ele>320</ele>
        <time>2016-03-07T14:46:32Z</time>
      </trkpt>
      <trkpt lat="48.21794" lon="-3.08597">
        <ele>320</ele>
        <time>2016-03-07T14:46:34Z</time>
      </trkpt>
      <trkpt lat="48.21793" lon="-3.08596">
        <ele>320</ele>
        <time>2016-03-07T14:46:37Z</time>
      </trkpt>
      <trkpt lat="48.21793" lon="-3.08595">
        <ele>320</ele>
        <time>2016-03-07T14:46:39Z</time>
      </trkpt>
      <trkpt lat="48.21792" lon="-3.08595">
        <ele>320</ele>
        <time>2016-03-07T14:46:41Z</time>
      </trkpt>
      <trkpt lat="48.21793" lon="-3.08593">
        <ele>320</ele>
        <time>2016-03-07T14:46:44Z</time>
      </trkpt>
      <trkpt lat="48.21793" lon="-3.08589">
        <ele>320</ele>
        <time>2016-03-07T14:46:47Z</time>
      </trkpt>
      <trkpt lat="48.21793" lon="-3.08586">
        <ele>319</ele>
        <time>2016-03-07T14:46:49Z</time>
      </trkpt>
      <trkpt lat="48.21794" lon="-3.08582">
        <ele>319</ele>
        <time>2016-03-07T14:46:52Z</time>
      </trkpt>
      <trkpt lat="48.21796" lon="-3.08581">
        <ele>319</ele>
        <time>2016-03-07T14:46:55Z</time>
      </trkpt>
      <trkpt lat="48.21797" lon="-3.0858">
        <ele>320</ele>
        <time>2016-03-07T14:46:58Z</time>
      </trkpt>
      <trkpt lat="48.21797" lon="-3.0858">
        <ele>320</ele>
        <time>2016-03-07T14:47:01Z</time>
      </trkpt>
      <trkpt lat="48.21798" lon="-3.0858">
        <ele>320</ele>
        <time>2016-03-07T14:47:04Z</time>
      </trkpt>
      <trkpt lat="48.21798" lon="-3.0858">
        <ele>320</ele>
        <time>2016-03-07T14:47:07Z</time>
      </trkpt>
      <trkpt lat="48.21798" lon="-3.0858">
        <ele>319</ele>
        <time>2016-03-07T14:47:10Z</time>
      </trkpt>
      <trkpt lat="48.21799" lon="-3.0858">
        <ele>319</ele>
        <time>2016-03-07T14:47:14Z</time>
      </trkpt>
      <trkpt lat="48.21799" lon="-3.0858">
        <ele>319</ele>
        <time>2016-03-07T14:47:17Z</time>
      </trkpt>
      <trkpt lat="48.21799" lon="-3.0858">
        <ele>320</ele>
        <time>2016-03-07T14:47:19Z</time>
      </trkpt>
      <trkpt lat="48.21799" lon="-3.08579">
        <ele>320</ele>
        <time>2016-03-07T14:47:22Z</time>
      </trkpt>
      <trkpt lat="48.21796" lon="-3.08577">
        <ele>320</ele>
        <time>2016-03-07T14:47:24Z</time>
      </trkpt>
      <trkpt lat="48.21796" lon="-3.08574">
        <ele>319</ele>
        <time>2016-03-07T14:47:26Z</time>
      </trkpt>
      <trkpt lat="48.21795" lon="-3.0857">
        <ele>319</ele>
        <time>2016-03-07T14:47:28Z</time>
      </trkpt>
      <trkpt lat="48.21796" lon="-3.08565">
        <ele>319</ele>
        <time>2016-03-07T14:47:31Z</time>
      </trkpt>
      <trkpt lat="48.21796" lon="-3.08562">
        <ele>319</ele>
        <time>2016-03-07T14:47:33Z</time>
      </trkpt>
      <trkpt lat="48.21797" lon="-3.08557">
        <ele>318</ele>
        <time>2016-03-07T14:47:36Z</time>
      </trkpt>
      <trkpt lat="48.21798" lon="-3.08553">
        <ele>318</ele>
        <time>2016-03-07T14:47:39Z</time>
      </trkpt>
      <trkpt lat="48.21799" lon="-3.08548">
        <ele>317</ele>
        <time>2016-03-07T14:47:42Z</time>
      </trkpt>
      <trkpt lat="48.218" lon="-3.08544">
        <ele>317</ele>
        <time>2016-03-07T14:47:45Z</time>
      </trkpt>
      <trkpt lat="48.218" lon="-3.0854">
        <ele>317</ele>
        <time>2016-03-07T14:47:48Z</time>
      </trkpt>
      <trkpt lat="48.21801" lon="-3.08535">
        <ele>316</ele>
        <time>2016-03-07T14:47:51Z</time>
      </trkpt>
      <trkpt lat="48.21801" lon="-3.0853">
        <ele>316</ele>
        <time>2016-03-07T14:47:54Z</time>
      </trkpt>
      <trkpt lat="48.21803" lon="-3.08528">
        <ele>316</ele>
        <time>2016-03-07T14:47:56Z</time>
      </trkpt>
      <trkpt lat="48.21803" lon="-3.08525">
        <ele>315</ele>
        <time>2016-03-07T14:47:58Z</time>
      </trkpt>
      <trkpt lat="48.21804" lon="-3.0852">
        <ele>315</ele>
        <time>2016-03-07T14:48:01Z</time>
      </trkpt>
      <trkpt lat="48.21804" lon="-3.08517">
        <ele>315</ele>
        <time>2016-03-07T14:48:03Z</time>
      </trkpt>
      <trkpt lat="48.21804" lon="-3.08511">
        <ele>315</ele>
        <time>2016-03-07T14:48:06Z</time>
      </trkpt>
      <trkpt lat="48.21805" lon="-3.08506">
        <ele>315</ele>
        <time>2016-03-07T14:48:09Z</time>
      </trkpt>
      <trkpt lat="48.21806" lon="-3.08499">
        <ele>314</ele>
        <time>2016-03-07T14:48:12Z</time>
      </trkpt>
      <trkpt lat="48.21807" lon="-3.08495">
        <ele>314</ele>
        <time>2016-03-07T14:48:14Z</time>
      </trkpt>
      <trkpt lat="48.21807" lon="-3.08489">
        <ele>313</ele>
        <time>2016-03-07T14:48:17Z</time>
      </trkpt>
      <trkpt lat="48.21807" lon="-3.08484">
        <ele>313</ele>
        <time>2016-03-07T14:48:19Z</time>
      </trkpt>
      <trkpt lat="48.21806" lon="-3.08478">
        <ele>313</ele>
        <time>2016-03-07T14:48:22Z</time>
      </trkpt>
      <trkpt lat="48.21806" lon="-3.08472">
        <ele>312</ele>
        <time>2016-03-07T14:48:25Z</time>
      </trkpt>
      <trkpt lat="48.21806" lon="-3.08466">
        <ele>312</ele>
        <time>2016-03-07T14:48:28Z</time>
      </trkpt>
      <trkpt lat="48.21804" lon="-3.08461">
        <ele>312</ele>
        <time>2016-03-07T14:48:31Z</time>
      </trkpt>
      <trkpt lat="48.21804" lon="-3.08456">
        <ele>312</ele>
        <time>2016-03-07T14:48:34Z</time>
      </trkpt>
      <trkpt lat="48.21803" lon="-3.08453">
        <ele>312</ele>
        <time>2016-03-07T14:48:36Z</time>
      </trkpt>
      <trkpt lat="48.21801" lon="-3.08448">
        <ele>311</ele>
        <time>2016-03-07T14:48:39Z</time>
      </trkpt>
      <trkpt lat="48.21801" lon="-3.08445">
        <ele>311</ele>
        <time>2016-03-07T14:48:41Z</time>
      </trkpt>
      <trkpt lat="48.21799" lon="-3.0844">
        <ele>311</ele>
        <time>2016-03-07T14:48:44Z</time>
      </trkpt>
      <trkpt lat="48.21797" lon="-3.08436">
        <ele>310</ele>
        <time>2016-03-07T14:48:47Z</time>
      </trkpt>
      <trkpt lat="48.21796" lon="-3.08433">
        <ele>310</ele>
        <time>2016-03-07T14:48:49Z</time>
      </trkpt>
      <trkpt lat="48.21795" lon="-3.08428">
        <ele>309</ele>
        <time>2016-03-07T14:48:52Z</time>
      </trkpt>
      <trkpt lat="48.21793" lon="-3.08423">
        <ele>309</ele>
        <time>2016-03-07T14:48:55Z</time>
      </trkpt>
      <trkpt lat="48.21792" lon="-3.0842">
        <ele>309</ele>
        <time>2016-03-07T14:48:57Z</time>
      </trkpt>
      <trkpt lat="48.2179" lon="-3.08415">
        <ele>309</ele>
        <time>2016-03-07T14:49:00Z</time>
      </trkpt>
      <trkpt lat="48.2179" lon="-3.08413">
        <ele>308</ele>
        <time>2016-03-07T14:49:02Z</time>
      </trkpt>
      <trkpt lat="48.21788" lon="-3.08409">
        <ele>308</ele>
        <time>2016-03-07T14:49:05Z</time>
      </trkpt>
      <trkpt lat="48.21787" lon="-3.08405">
        <ele>307</ele>
        <time>2016-03-07T14:49:07Z</time>
      </trkpt>
      <trkpt lat="48.21785" lon="-3.084">
        <ele>307</ele>
        <time>2016-03-07T14:49:10Z</time>
      </trkpt>
      <trkpt lat="48.21784" lon="-3.08396">
        <ele>307</ele>
        <time>2016-03-07T14:49:12Z</time>
      </trkpt>
      <trkpt lat="48.21783" lon="-3.0839">
        <ele>306</ele>
        <time>2016-03-07T14:49:15Z</time>
      </trkpt>
      <trkpt lat="48.21781" lon="-3.08384">
        <ele>306</ele>
        <time>2016-03-07T14:49:18Z</time>
      </trkpt>
      <trkpt lat="48.2178" lon="-3.08379">
        <ele>305</ele>
        <time>2016-03-07T14:49:21Z</time>
      </trkpt>
      <trkpt lat="48.21779" lon="-3.08375">
        <ele>305</ele>
        <time>2016-03-07T14:49:23Z</time>
      </trkpt>
      <trkpt lat="48.21777" lon="-3.08371">
        <ele>305</ele>
        <time>2016-03-07T14:49:25Z</time>
      </trkpt>
      <trkpt lat="48.21776" lon="-3.08366">
        <ele>304</ele>
        <time>2016-03-07T14:49:28Z</time>
      </trkpt>
      <trkpt lat="48.21774" lon="-3.08362">
        <ele>304</ele>
        <time>2016-03-07T14:49:30Z</time>
      </trkpt>
      <trkpt lat="48.21772" lon="-3.08358">
        <ele>304</ele>
        <time>2016-03-07T14:49:32Z</time>
      </trkpt>
      <trkpt lat="48.21769" lon="-3.08352">
        <ele>303</ele>
        <time>2016-03-07T14:49:35Z</time>
      </trkpt>
      <trkpt lat="48.21767" lon="-3.08349">
        <ele>303</ele>
        <time>2016-03-07T14:49:37Z</time>
      </trkpt>
      <trkpt lat="48.21765" lon="-3.08346">
        <ele>303</ele>
        <time>2016-03-07T14:49:39Z</time>
      </trkpt>
      <trkpt lat="48.21762" lon="-3.08343">
        <ele>302</ele>
        <time>2016-03-07T14:49:42Z</time>
      </trkpt>
      <trkpt lat="48.2176" lon="-3.0834">
        <ele>302</ele>
        <time>2016-03-07T14:49:44Z</time>
      </trkpt>
      <trkpt lat="48.21758" lon="-3.08338">
        <ele>302</ele>
        <time>2016-03-07T14:49:46Z</time>
      </trkpt>
      <trkpt lat="48.21754" lon="-3.08336">
        <ele>302</ele>
        <time>2016-03-07T14:49:49Z</time>
      </trkpt>
      <trkpt lat="48.2175" lon="-3.08333">
        <ele>301</ele>
        <time>2016-03-07T14:49:52Z</time>
      </trkpt>
      <trkpt lat="48.21748" lon="-3.08332">
        <ele>301</ele>
        <time>2016-03-07T14:49:54Z</time>
      </trkpt>
      <trkpt lat="48.21745" lon="-3.08331">
        <ele>300</ele>
        <time>2016-03-07T14:49:56Z</time>
      </trkpt>
      <trkpt lat="48.2174" lon="-3.08329">
        <ele>300</ele>
        <time>2016-03-07T14:49:59Z</time>
      </trkpt>
      <trkpt lat="48.21738" lon="-3.08329">
        <ele>300</ele>
        <time>2016-03-07T14:50:02Z</time>
      </trkpt>
      <trkpt lat="48.21734" lon="-3.08329">
        <ele>299</ele>
        <time>2016-03-07T14:50:05Z</time>
      </trkpt>
      <trkpt lat="48.2173" lon="-3.08329">
        <ele>299</ele>
        <time>2016-03-07T14:50:08Z</time>
      </trkpt>
      <trkpt lat="48.21728" lon="-3.0833">
        <ele>298</ele>
        <time>2016-03-07T14:50:10Z</time>
      </trkpt>
      <trkpt lat="48.21724" lon="-3.08331">
        <ele>297</ele>
        <time>2016-03-07T14:50:13Z</time>
      </trkpt>
      <trkpt lat="48.21721" lon="-3.08333">
        <ele>297</ele>
        <time>2016-03-07T14:50:15Z</time>
      </trkpt>
      <trkpt lat="48.21718" lon="-3.08334">
        <ele>297</ele>
        <time>2016-03-07T14:50:17Z</time>
      </trkpt>
      <trkpt lat="48.21716" lon="-3.08335">
        <ele>297</ele>
        <time>2016-03-07T14:50:19Z</time>
      </trkpt>
      <trkpt lat="48.21714" lon="-3.08337">
        <ele>297</ele>
        <time>2016-03-07T14:50:21Z</time>
      </trkpt>
      <trkpt lat="48.2171" lon="-3.0834">
        <ele>296</ele>
        <time>2016-03-07T14:50:24Z</time>
      </trkpt>
      <trkpt lat="48.21707" lon="-3.08341">
        <ele>296</ele>
        <time>2016-03-07T14:50:26Z</time>
      </trkpt>
      <trkpt lat="48.21704" lon="-3.08343">
        <ele>295</ele>
        <time>2016-03-07T14:50:28Z</time>
      </trkpt>
      <trkpt lat="48.21702" lon="-3.08344">
        <ele>295</ele>
        <time>2016-03-07T14:50:30Z</time>
      </trkpt>
      <trkpt lat="48.217" lon="-3.08347">
        <ele>295</ele>
        <time>2016-03-07T14:50:33Z</time>
      </trkpt>
      <trkpt lat="48.21697" lon="-3.08348">
        <ele>295</ele>
        <time>2016-03-07T14:50:35Z</time>
      </trkpt>
      <trkpt lat="48.21693" lon="-3.0835">
        <ele>295</ele>
        <time>2016-03-07T14:50:38Z</time>
      </trkpt>
      <trkpt lat="48.21689" lon="-3.08353">
        <ele>294</ele>
        <time>2016-03-07T14:50:41Z</time>
      </trkpt>
      <trkpt lat="48.21685" lon="-3.08355">
        <ele>294</ele>
        <time>2016-03-07T14:50:44Z</time>
      </trkpt>
      <trkpt lat="48.21683" lon="-3.08357">
        <ele>294</ele>
        <time>2016-03-07T14:50:46Z</time>
      </trkpt>
      <trkpt lat="48.21681" lon="-3.08358">
        <ele>294</ele>
        <time>2016-03-07T14:50:48Z</time>
      </trkpt>
      <trkpt lat="48.21677" lon="-3.08361">
        <ele>293</ele>
        <time>2016-03-07T14:50:51Z</time>
      </trkpt>
      <trkpt lat="48.21674" lon="-3.08363">
        <ele>293</ele>
        <time>2016-03-07T14:50:53Z</time>
      </trkpt>
      <trkpt lat="48.2167" lon="-3.08367">
        <ele>292</ele>
        <time>2016-03-07T14:50:56Z</time>
      </trkpt>
      <trkpt lat="48.21666" lon="-3.08369">
        <ele>292</ele>
        <time>2016-03-07T14:50:59Z</time>
      </trkpt>
      <trkpt lat="48.21663" lon="-3.08371">
        <ele>292</ele>
        <time>2016-03-07T14:51:02Z</time>
      </trkpt>
      <trkpt lat="48.2166" lon="-3.08374">
        <ele>292</ele>
        <time>2016-03-07T14:51:05Z</time>
      </trkpt>
      <trkpt lat="48.21658" lon="-3.08376">
        <ele>292</ele>
        <time>2016-03-07T14:51:07Z</time>
      </trkpt>
      <trkpt lat="48.21655" lon="-3.08379">
        <ele>292</ele>
        <time>2016-03-07T14:51:09Z</time>
      </trkpt>
      <trkpt lat="48.21652" lon="-3.08383">
        <ele>291</ele>
        <time>2016-03-07T14:51:12Z</time>
      </trkpt>
      <trkpt lat="48.2165" lon="-3.08387">
        <ele>291</ele>
        <time>2016-03-07T14:51:15Z</time>
      </trkpt>
      <trkpt lat="48.21647" lon="-3.08391">
        <ele>290</ele>
        <time>2016-03-07T14:51:18Z</time>
      </trkpt>
      <trkpt lat="48.21645" lon="-3.08396">
        <ele>290</ele>
        <time>2016-03-07T14:51:21Z</time>
      </trkpt>
      <trkpt lat="48.21644" lon="-3.08399">
        <ele>290</ele>
        <time>2016-03-07T14:51:23Z</time>
      </trkpt>
      <trkpt lat="48.21641" lon="-3.08403">
        <ele>290</ele>
        <time>2016-03-07T14:51:26Z</time>
      </trkpt>
      <trkpt lat="48.2164" lon="-3.08407">
        <ele>290</ele>
        <time>2016-03-07T14:51:28Z</time>
      </trkpt>
      <trkpt lat="48.21638" lon="-3.0841">
        <ele>290</ele>
        <time>2016-03-07T14:51:30Z</time>
      </trkpt>
      <trkpt lat="48.21636" lon="-3.08415">
        <ele>290</ele>
        <time>2016-03-07T14:51:33Z</time>
      </trkpt>
      <trkpt lat="48.21634" lon="-3.08418">
        <ele>290</ele>
        <time>2016-03-07T14:51:35Z</time>
      </trkpt>
      <trkpt lat="48.21632" lon="-3.08422">
        <ele>289</ele>
        <time>2016-03-07T14:51:38Z</time>
      </trkpt>
      <trkpt lat="48.2163" lon="-3.08425">
        <ele>289</ele>
        <time>2016-03-07T14:51:40Z</time>
      </trkpt>
      <trkpt lat="48.21629" lon="-3.08429">
        <ele>289</ele>
        <time>2016-03-07T14:51:42Z</time>
      </trkpt>
      <trkpt lat="48.21627" lon="-3.08432">
        <ele>289</ele>
        <time>2016-03-07T14:51:44Z</time>
      </trkpt>
      <trkpt lat="48.21624" lon="-3.08436">
        <ele>289</ele>
        <time>2016-03-07T14:51:47Z</time>
      </trkpt>
      <trkpt lat="48.21621" lon="-3.08441">
        <ele>290</ele>
        <time>2016-03-07T14:51:50Z</time>
      </trkpt>
      <trkpt lat="48.21619" lon="-3.08446">
        <ele>289</ele>
        <time>2016-03-07T14:51:53Z</time>
      </trkpt>
      <trkpt lat="48.21617" lon="-3.08449">
        <ele>289</ele>
        <time>2016-03-07T14:51:55Z</time>
      </trkpt>
      <trkpt lat="48.21615" lon="-3.08452">
        <ele>289</ele>
        <time>2016-03-07T14:51:57Z</time>
      </trkpt>
      <trkpt lat="48.21613" lon="-3.08455">
        <ele>288</ele>
        <time>2016-03-07T14:52:00Z</time>
      </trkpt>
      <trkpt lat="48.21611" lon="-3.08459">
        <ele>288</ele>
        <time>2016-03-07T14:52:02Z</time>
      </trkpt>
      <trkpt lat="48.21609" lon="-3.08461">
        <ele>288</ele>
        <time>2016-03-07T14:52:04Z</time>
      </trkpt>
      <trkpt lat="48.21606" lon="-3.08466">
        <ele>288</ele>
        <time>2016-03-07T14:52:07Z</time>
      </trkpt>
      <trkpt lat="48.21604" lon="-3.08471">
        <ele>289</ele>
        <time>2016-03-07T14:52:10Z</time>
      </trkpt>
      <trkpt lat="48.21602" lon="-3.08474">
        <ele>289</ele>
        <time>2016-03-07T14:52:13Z</time>
      </trkpt>
      <trkpt lat="48.21601" lon="-3.08479">
        <ele>289</ele>
        <time>2016-03-07T14:52:16Z</time>
      </trkpt>
      <trkpt lat="48.216" lon="-3.08482">
        <ele>289</ele>
        <time>2016-03-07T14:52:18Z</time>
      </trkpt>
      <trkpt lat="48.21598" lon="-3.08486">
        <ele>288</ele>
        <time>2016-03-07T14:52:21Z</time>
      </trkpt>
      <trkpt lat="48.21597" lon="-3.0849">
        <ele>288</ele>
        <time>2016-03-07T14:52:24Z</time>
      </trkpt>
      <trkpt lat="48.21595" lon="-3.08493">
        <ele>289</ele>
        <time>2016-03-07T14:52:27Z</time>
      </trkpt>
      <trkpt lat="48.21593" lon="-3.08496">
        <ele>289</ele>
        <time>2016-03-07T14:52:29Z</time>
      </trkpt>
      <trkpt lat="48.21591" lon="-3.085">
        <ele>289</ele>
        <time>2016-03-07T14:52:32Z</time>
      </trkpt>
      <trkpt lat="48.21589" lon="-3.08503">
        <ele>289</ele>
        <time>2016-03-07T14:52:35Z</time>
      </trkpt>
      <trkpt lat="48.21588" lon="-3.08505">
        <ele>289</ele>
        <time>2016-03-07T14:52:37Z</time>
      </trkpt>
      <trkpt lat="48.21587" lon="-3.08509">
        <ele>290</ele>
        <time>2016-03-07T14:52:40Z</time>
      </trkpt>
      <trkpt lat="48.21585" lon="-3.08511">
        <ele>290</ele>
        <time>2016-03-07T14:52:42Z</time>
      </trkpt>
      <trkpt lat="48.21583" lon="-3.08516">
        <ele>290</ele>
        <time>2016-03-07T14:52:45Z</time>
      </trkpt>
      <trkpt lat="48.21582" lon="-3.08518">
        <ele>290</ele>
        <time>2016-03-07T14:52:47Z</time>
      </trkpt>
      <trkpt lat="48.2158" lon="-3.08522">
        <ele>290</ele>
        <time>2016-03-07T14:52:50Z</time>
      </trkpt>
      <trkpt lat="48.21578" lon="-3.08524">
        <ele>290</ele>
        <time>2016-03-07T14:52:52Z</time>
      </trkpt>
      <trkpt lat="48.21575" lon="-3.08528">
        <ele>290</ele>
        <time>2016-03-07T14:52:55Z</time>
      </trkpt>
      <trkpt lat="48.21574" lon="-3.0853">
        <ele>290</ele>
        <time>2016-03-07T14:52:57Z</time>
      </trkpt>
      <trkpt lat="48.21572" lon="-3.08535">
        <ele>290</ele>
        <time>2016-03-07T14:53:00Z</time>
      </trkpt>
      <trkpt lat="48.2157" lon="-3.08538">
        <ele>290</ele>
        <time>2016-03-07T14:53:02Z</time>
      </trkpt>
      <trkpt lat="48.21569" lon="-3.08541">
        <ele>290</ele>
        <time>2016-03-07T14:53:04Z</time>
      </trkpt>
      <trkpt lat="48.21566" lon="-3.08545">
        <ele>290</ele>
        <time>2016-03-07T14:53:07Z</time>
      </trkpt>
      <trkpt lat="48.21564" lon="-3.08549">
        <ele>290</ele>
        <time>2016-03-07T14:53:10Z</time>
      </trkpt>
      <trkpt lat="48.21563" lon="-3.08552">
        <ele>291</ele>
        <time>2016-03-07T14:53:12Z</time>
      </trkpt>
      <trkpt lat="48.21561" lon="-3.08556">
        <ele>291</ele>
        <time>2016-03-07T14:53:15Z</time>
      </trkpt>
      <trkpt lat="48.21559" lon="-3.0856">
        <ele>291</ele>
        <time>2016-03-07T14:53:18Z</time>
      </trkpt>
      <trkpt lat="48.21557" lon="-3.08565">
        <ele>291</ele>
        <time>2016-03-07T14:53:21Z</time>
      </trkpt>
      <trkpt lat="48.21555" lon="-3.0857">
        <ele>291</ele>
        <time>2016-03-07T14:53:24Z</time>
      </trkpt>
      <trkpt lat="48.21553" lon="-3.08573">
        <ele>291</ele>
        <time>2016-03-07T14:53:26Z</time>
      </trkpt>
      <trkpt lat="48.21552" lon="-3.08576">
        <ele>291</ele>
        <time>2016-03-07T14:53:28Z</time>
      </trkpt>
      <trkpt lat="48.21549" lon="-3.08581">
        <ele>291</ele>
        <time>2016-03-07T14:53:31Z</time>
      </trkpt>
      <trkpt lat="48.21548" lon="-3.08583">
        <ele>292</ele>
        <time>2016-03-07T14:53:33Z</time>
      </trkpt>
      <trkpt lat="48.21546" lon="-3.08587">
        <ele>292</ele>
        <time>2016-03-07T14:53:35Z</time>
      </trkpt>
      <trkpt lat="48.21544" lon="-3.08592">
        <ele>292</ele>
        <time>2016-03-07T14:53:38Z</time>
      </trkpt>
      <trkpt lat="48.21543" lon="-3.08595">
        <ele>292</ele>
        <time>2016-03-07T14:53:40Z</time>
      </trkpt>
      <trkpt lat="48.21541" lon="-3.086">
        <ele>292</ele>
        <time>2016-03-07T14:53:43Z</time>
      </trkpt>
      <trkpt lat="48.21539" lon="-3.08603">
        <ele>292</ele>
        <time>2016-03-07T14:53:45Z</time>
      </trkpt>
      <trkpt lat="48.21537" lon="-3.08608">
        <ele>292</ele>
        <time>2016-03-07T14:53:48Z</time>
      </trkpt>
      <trkpt lat="48.21535" lon="-3.08613">
        <ele>292</ele>
        <time>2016-03-07T14:53:51Z</time>
      </trkpt>
      <trkpt lat="48.21534" lon="-3.08616">
        <ele>292</ele>
        <time>2016-03-07T14:53:53Z</time>
      </trkpt>
      <trkpt lat="48.21532" lon="-3.08621">
        <ele>292</ele>
        <time>2016-03-07T14:53:56Z</time>
      </trkpt>
      <trkpt lat="48.21531" lon="-3.08624">
        <ele>292</ele>
        <time>2016-03-07T14:53:58Z</time>
      </trkpt>
      <trkpt lat="48.21529" lon="-3.08628">
        <ele>292</ele>
        <time>2016-03-07T14:54:01Z</time>
      </trkpt>
      <trkpt lat="48.21527" lon="-3.08633">
        <ele>292</ele>
        <time>2016-03-07T14:54:04Z</time>
      </trkpt>
      <trkpt lat="48.21526" lon="-3.08636">
        <ele>292</ele>
        <time>2016-03-07T14:54:06Z</time>
      </trkpt>
      <trkpt lat="48.21525" lon="-3.08638">
        <ele>292</ele>
        <time>2016-03-07T14:54:08Z</time>
      </trkpt>
      <trkpt lat="48.21524" lon="-3.08642">
        <ele>292</ele>
        <time>2016-03-07T14:54:11Z</time>
      </trkpt>
      <trkpt lat="48.21522" lon="-3.08646">
        <ele>292</ele>
        <time>2016-03-07T14:54:14Z</time>
      </trkpt>
      <trkpt lat="48.2152" lon="-3.0865">
        <ele>292</ele>
        <time>2016-03-07T14:54:17Z</time>
      </trkpt>
      <trkpt lat="48.21519" lon="-3.08654">
        <ele>292</ele>
        <time>2016-03-07T14:54:19Z</time>
      </trkpt>
      <trkpt lat="48.21518" lon="-3.08658">
        <ele>292</ele>
        <time>2016-03-07T14:54:22Z</time>
      </trkpt>
      <trkpt lat="48.21516" lon="-3.08661">
        <ele>292</ele>
        <time>2016-03-07T14:54:24Z</time>
      </trkpt>
      <trkpt lat="48.21515" lon="-3.08665">
        <ele>292</ele>
        <time>2016-03-07T14:54:27Z</time>
      </trkpt>
      <trkpt lat="48.21514" lon="-3.08668">
        <ele>292</ele>
        <time>2016-03-07T14:54:29Z</time>
      </trkpt>
      <trkpt lat="48.21513" lon="-3.08673">
        <ele>292</ele>
        <time>2016-03-07T14:54:32Z</time>
      </trkpt>
      <trkpt lat="48.21511" lon="-3.08678">
        <ele>292</ele>
        <time>2016-03-07T14:54:35Z</time>
      </trkpt>
      <trkpt lat="48.2151" lon="-3.08681">
        <ele>292</ele>
        <time>2016-03-07T14:54:37Z</time>
      </trkpt>
      <trkpt lat="48.21508" lon="-3.08685">
        <ele>292</ele>
        <time>2016-03-07T14:54:40Z</time>
      </trkpt>
      <trkpt lat="48.21506" lon="-3.08689">
        <ele>292</ele>
        <time>2016-03-07T14:54:42Z</time>
      </trkpt>
      <trkpt lat="48.21504" lon="-3.08694">
        <ele>291</ele>
        <time>2016-03-07T14:54:45Z</time>
      </trkpt>
      <trkpt lat="48.21503" lon="-3.08697">
        <ele>291</ele>
        <time>2016-03-07T14:54:47Z</time>
      </trkpt>
      <trkpt lat="48.21501" lon="-3.08702">
        <ele>291</ele>
        <time>2016-03-07T14:54:50Z</time>
      </trkpt>
      <trkpt lat="48.215" lon="-3.08706">
        <ele>291</ele>
        <time>2016-03-07T14:54:53Z</time>
      </trkpt>
      <trkpt lat="48.21498" lon="-3.0871">
        <ele>292</ele>
        <time>2016-03-07T14:54:55Z</time>
      </trkpt>
      <trkpt lat="48.21497" lon="-3.08713">
        <ele>291</ele>
        <time>2016-03-07T14:54:57Z</time>
      </trkpt>
      <trkpt lat="48.21495" lon="-3.08717">
        <ele>291</ele>
        <time>2016-03-07T14:55:00Z</time>
      </trkpt>
      <trkpt lat="48.21492" lon="-3.08721">
        <ele>291</ele>
        <time>2016-03-07T14:55:03Z</time>
      </trkpt>
      <trkpt lat="48.21489" lon="-3.08725">
        <ele>291</ele>
        <time>2016-03-07T14:55:06Z</time>
      </trkpt>
      <trkpt lat="48.21487" lon="-3.08728">
        <ele>291</ele>
        <time>2016-03-07T14:55:08Z</time>
      </trkpt>
      <trkpt lat="48.21484" lon="-3.08731">
        <ele>291</ele>
        <time>2016-03-07T14:55:11Z</time>
      </trkpt>
      <trkpt lat="48.21482" lon="-3.08732">
        <ele>291</ele>
        <time>2016-03-07T14:55:13Z</time>
      </trkpt>
      <trkpt lat="48.21479" lon="-3.08734">
        <ele>291</ele>
        <time>2016-03-07T14:55:16Z</time>
      </trkpt>
      <trkpt lat="48.21477" lon="-3.08735">
        <ele>290</ele>
        <time>2016-03-07T14:55:18Z</time>
      </trkpt>
      <trkpt lat="48.21474" lon="-3.08736">
        <ele>290</ele>
        <time>2016-03-07T14:55:21Z</time>
      </trkpt>
      <trkpt lat="48.21471" lon="-3.08736">
        <ele>289</ele>
        <time>2016-03-07T14:55:23Z</time>
      </trkpt>
      <trkpt lat="48.21468" lon="-3.08737">
        <ele>289</ele>
        <time>2016-03-07T14:55:26Z</time>
      </trkpt>
      <trkpt lat="48.21465" lon="-3.08735">
        <ele>288</ele>
        <time>2016-03-07T14:55:29Z</time>
      </trkpt>
      <trkpt lat="48.21462" lon="-3.08734">
        <ele>288</ele>
        <time>2016-03-07T14:55:32Z</time>
      </trkpt>
      <trkpt lat="48.2146" lon="-3.08732">
        <ele>288</ele>
        <time>2016-03-07T14:55:34Z</time>
      </trkpt>
      <trkpt lat="48.21458" lon="-3.0873">
        <ele>288</ele>
        <time>2016-03-07T14:55:36Z</time>
      </trkpt>
      <trkpt lat="48.21456" lon="-3.08729">
        <ele>288</ele>
        <time>2016-03-07T14:55:38Z</time>
      </trkpt>
      <trkpt lat="48.21453" lon="-3.08725">
        <ele>288</ele>
        <time>2016-03-07T14:55:41Z</time>
      </trkpt>
      <trkpt lat="48.21451" lon="-3.08723">
        <ele>288</ele>
        <time>2016-03-07T14:55:43Z</time>
      </trkpt>
      <trkpt lat="48.2145" lon="-3.0872">
        <ele>288</ele>
        <time>2016-03-07T14:55:45Z</time>
      </trkpt>
      <trkpt lat="48.21448" lon="-3.08718">
        <ele>288</ele>
        <time>2016-03-07T14:55:47Z</time>
      </trkpt>
      <trkpt lat="48.21445" lon="-3.08715">
        <ele>287</ele>
        <time>2016-03-07T14:55:50Z</time>
      </trkpt>
      <trkpt lat="48.21442" lon="-3.08712">
        <ele>287</ele>
        <time>2016-03-07T14:55:53Z</time>
      </trkpt>
      <trkpt lat="48.2144" lon="-3.0871">
        <ele>286</ele>
        <time>2016-03-07T14:55:55Z</time>
      </trkpt>
      <trkpt lat="48.21437" lon="-3.08707">
        <ele>286</ele>
        <time>2016-03-07T14:55:58Z</time>
      </trkpt>
      <trkpt lat="48.21434" lon="-3.08704">
        <ele>286</ele>
        <time>2016-03-07T14:56:01Z</time>
      </trkpt>
      <trkpt lat="48.21431" lon="-3.08702">
        <ele>286</ele>
        <time>2016-03-07T14:56:04Z</time>
      </trkpt>
      <trkpt lat="48.21429" lon="-3.087">
        <ele>286</ele>
        <time>2016-03-07T14:56:06Z</time>
      </trkpt>
      <trkpt lat="48.21426" lon="-3.08698">
        <ele>286</ele>
        <time>2016-03-07T14:56:09Z</time>
      </trkpt>
      <trkpt lat="48.21422" lon="-3.08696">
        <ele>286</ele>
        <time>2016-03-07T14:56:12Z</time>
      </trkpt>
      <trkpt lat="48.2142" lon="-3.08694">
        <ele>285</ele>
        <time>2016-03-07T14:56:14Z</time>
      </trkpt>
      <trkpt lat="48.21418" lon="-3.08693">
        <ele>285</ele>
        <time>2016-03-07T14:56:16Z</time>
      </trkpt>
      <trkpt lat="48.21415" lon="-3.08691">
        <ele>285</ele>
        <time>2016-03-07T14:56:19Z</time>
      </trkpt>
      <trkpt lat="48.21413" lon="-3.08689">
        <ele>285</ele>
        <time>2016-03-07T14:56:21Z</time>
      </trkpt>
      <trkpt lat="48.21411" lon="-3.08688">
        <ele>285</ele>
        <time>2016-03-07T14:56:23Z</time>
      </trkpt>
      <trkpt lat="48.21408" lon="-3.08686">
        <ele>284</ele>
        <time>2016-03-07T14:56:26Z</time>
      </trkpt>
      <trkpt lat="48.21405" lon="-3.08684">
        <ele>284</ele>
        <time>2016-03-07T14:56:29Z</time>
      </trkpt>
      <trkpt lat="48.21401" lon="-3.08682">
        <ele>284</ele>
        <time>2016-03-07T14:56:32Z</time>
      </trkpt>
      <trkpt lat="48.21398" lon="-3.0868">
        <ele>283</ele>
        <time>2016-03-07T14:56:35Z</time>
      </trkpt>
      <trkpt lat="48.21396" lon="-3.08679">
        <ele>283</ele>
        <time>2016-03-07T14:56:37Z</time>
      </trkpt>
      <trkpt lat="48.21393" lon="-3.08677">
        <ele>283</ele>
        <time>2016-03-07T14:56:40Z</time>
      </trkpt>
      <trkpt lat="48.21389" lon="-3.08676">
        <ele>283</ele>
        <time>2016-03-07T14:56:43Z</time>
      </trkpt>
      <trkpt lat="48.21387" lon="-3.08674">
        <ele>283</ele>
        <time>2016-03-07T14:56:45Z</time>
      </trkpt>
      <trkpt lat="48.21384" lon="-3.08673">
        <ele>282</ele>
        <time>2016-03-07T14:56:48Z</time>
      </trkpt>
      <trkpt lat="48.21381" lon="-3.08672">
        <ele>282</ele>
        <time>2016-03-07T14:56:50Z</time>
      </trkpt>
      <trkpt lat="48.21378" lon="-3.0867">
        <ele>282</ele>
        <time>2016-03-07T14:56:53Z</time>
      </trkpt>
      <trkpt lat="48.21376" lon="-3.08669">
        <ele>282</ele>
        <time>2016-03-07T14:56:55Z</time>
      </trkpt>
      <trkpt lat="48.21372" lon="-3.08668">
        <ele>282</ele>
        <time>2016-03-07T14:56:57Z</time>
      </trkpt>
      <trkpt lat="48.2137" lon="-3.08667">
        <ele>282</ele>
        <time>2016-03-07T14:57:00Z</time>
      </trkpt>
      <trkpt lat="48.21366" lon="-3.08666">
        <ele>282</ele>
        <time>2016-03-07T14:57:03Z</time>
      </trkpt>
      <trkpt lat="48.21364" lon="-3.08664">
        <ele>281</ele>
        <time>2016-03-07T14:57:05Z</time>
      </trkpt>
      <trkpt lat="48.2136" lon="-3.08663">
        <ele>281</ele>
        <time>2016-03-07T14:57:08Z</time>
      </trkpt>
      <trkpt lat="48.21357" lon="-3.08662">
        <ele>281</ele>
        <time>2016-03-07T14:57:10Z</time>
      </trkpt>
      <trkpt lat="48.21355" lon="-3.08661">
        <ele>281</ele>
        <time>2016-03-07T14:57:12Z</time>
      </trkpt>
      <trkpt lat="48.21352" lon="-3.0866">
        <ele>281</ele>
        <time>2016-03-07T14:57:15Z</time>
      </trkpt>
      <trkpt lat="48.21349" lon="-3.08659">
        <ele>281</ele>
        <time>2016-03-07T14:57:17Z</time>
      </trkpt>
      <trkpt lat="48.21347" lon="-3.08658">
        <ele>281</ele>
        <time>2016-03-07T14:57:20Z</time>
      </trkpt>
      <trkpt lat="48.21344" lon="-3.08657">
        <ele>281</ele>
        <time>2016-03-07T14:57:22Z</time>
      </trkpt>
      <trkpt lat="48.21341" lon="-3.08656">
        <ele>281</ele>
        <time>2016-03-07T14:57:25Z</time>
      </trkpt>
      <trkpt lat="48.21336" lon="-3.08655">
        <ele>281</ele>
        <time>2016-03-07T14:57:28Z</time>
      </trkpt>
      <trkpt lat="48.21333" lon="-3.08653">
        <ele>280</ele>
        <time>2016-03-07T14:57:30Z</time>
      </trkpt>
      <trkpt lat="48.21331" lon="-3.08652">
        <ele>280</ele>
        <time>2016-03-07T14:57:33Z</time>
      </trkpt>
      <trkpt lat="48.21327" lon="-3.08651">
        <ele>280</ele>
        <time>2016-03-07T14:57:36Z</time>
      </trkpt>
      <trkpt lat="48.21324" lon="-3.08649">
        <ele>280</ele>
        <time>2016-03-07T14:57:39Z</time>
      </trkpt>
      <trkpt lat="48.2132" lon="-3.08648">
        <ele>280</ele>
        <time>2016-03-07T14:57:42Z</time>
      </trkpt>
      <trkpt lat="48.21317" lon="-3.08646">
        <ele>280</ele>
        <time>2016-03-07T14:57:45Z</time>
      </trkpt>
      <trkpt lat="48.21315" lon="-3.08646">
        <ele>280</ele>
        <time>2016-03-07T14:57:47Z</time>
      </trkpt>
      <trkpt lat="48.21313" lon="-3.08645">
        <ele>279</ele>
        <time>2016-03-07T14:57:49Z</time>
      </trkpt>
      <trkpt lat="48.21311" lon="-3.08644">
        <ele>279</ele>
        <time>2016-03-07T14:57:51Z</time>
      </trkpt>
      <trkpt lat="48.21307" lon="-3.08643">
        <ele>279</ele>
        <time>2016-03-07T14:57:54Z</time>
      </trkpt>
      <trkpt lat="48.21304" lon="-3.08641">
        <ele>279</ele>
        <time>2016-03-07T14:57:57Z</time>
      </trkpt>
      <trkpt lat="48.21301" lon="-3.08639">
        <ele>279</ele>
        <time>2016-03-07T14:57:59Z</time>
      </trkpt>
      <trkpt lat="48.21298" lon="-3.08638">
        <ele>279</ele>
        <time>2016-03-07T14:58:02Z</time>
      </trkpt>
      <trkpt lat="48.21296" lon="-3.08636">
        <ele>279</ele>
        <time>2016-03-07T14:58:04Z</time>
      </trkpt>
      <trkpt lat="48.21293" lon="-3.08635">
        <ele>278</ele>
        <time>2016-03-07T14:58:07Z</time>
      </trkpt>
      <trkpt lat="48.21291" lon="-3.08633">
        <ele>278</ele>
        <time>2016-03-07T14:58:09Z</time>
      </trkpt>
      <trkpt lat="48.21287" lon="-3.08631">
        <ele>278</ele>
        <time>2016-03-07T14:58:11Z</time>
      </trkpt>
      <trkpt lat="48.21285" lon="-3.0863">
        <ele>278</ele>
        <time>2016-03-07T14:58:14Z</time>
      </trkpt>
      <trkpt lat="48.21283" lon="-3.08629">
        <ele>278</ele>
        <time>2016-03-07T14:58:16Z</time>
      </trkpt>
      <trkpt lat="48.2128" lon="-3.08628">
        <ele>278</ele>
        <time>2016-03-07T14:58:18Z</time>
      </trkpt>
      <trkpt lat="48.21277" lon="-3.08626">
        <ele>278</ele>
        <time>2016-03-07T14:58:21Z</time>
      </trkpt>
      <trkpt lat="48.21274" lon="-3.08625">
        <ele>278</ele>
        <time>2016-03-07T14:58:24Z</time>
      </trkpt>
      <trkpt lat="48.21271" lon="-3.08623">
        <ele>278</ele>
        <time>2016-03-07T14:58:26Z</time>
      </trkpt>
      <trkpt lat="48.21269" lon="-3.08623">
        <ele>278</ele>
        <time>2016-03-07T14:58:28Z</time>
      </trkpt>
      <trkpt lat="48.21267" lon="-3.08624">
        <ele>278</ele>
        <time>2016-03-07T14:58:31Z</time>
      </trkpt>
      <trkpt lat="48.21265" lon="-3.08625">
        <ele>278</ele>
        <time>2016-03-07T14:58:33Z</time>
      </trkpt>
      <trkpt lat="48.21263" lon="-3.08626">
        <ele>278</ele>
        <time>2016-03-07T14:58:35Z</time>
      </trkpt>
      <trkpt lat="48.21262" lon="-3.08629">
        <ele>278</ele>
        <time>2016-03-07T14:58:37Z</time>
      </trkpt>
      <trkpt lat="48.21261" lon="-3.08631">
        <ele>278</ele>
        <time>2016-03-07T14:58:40Z</time>
      </trkpt>
      <trkpt lat="48.2126" lon="-3.08633">
        <ele>278</ele>
        <time>2016-03-07T14:58:42Z</time>
      </trkpt>
      <trkpt lat="48.21259" lon="-3.08636">
        <ele>278</ele>
        <time>2016-03-07T14:58:44Z</time>
      </trkpt>
      <trkpt lat="48.21257" lon="-3.08639">
        <ele>278</ele>
        <time>2016-03-07T14:58:46Z</time>
      </trkpt>
      <trkpt lat="48.21256" lon="-3.08642">
        <ele>278</ele>
        <time>2016-03-07T14:58:49Z</time>
      </trkpt>
      <trkpt lat="48.21255" lon="-3.08645">
        <ele>278</ele>
        <time>2016-03-07T14:58:51Z</time>
      </trkpt>
      <trkpt lat="48.21254" lon="-3.08647">
        <ele>278</ele>
        <time>2016-03-07T14:58:54Z</time>
      </trkpt>
      <trkpt lat="48.21252" lon="-3.08652">
        <ele>278</ele>
        <time>2016-03-07T14:58:57Z</time>
      </trkpt>
      <trkpt lat="48.21251" lon="-3.08656">
        <ele>277</ele>
        <time>2016-03-07T14:58:59Z</time>
      </trkpt>
      <trkpt lat="48.2125" lon="-3.08659">
        <ele>277</ele>
        <time>2016-03-07T14:59:02Z</time>
      </trkpt>
      <trkpt lat="48.21248" lon="-3.08663">
        <ele>277</ele>
        <time>2016-03-07T14:59:04Z</time>
      </trkpt>
      <trkpt lat="48.21247" lon="-3.08666">
        <ele>277</ele>
        <time>2016-03-07T14:59:07Z</time>
      </trkpt>
      <trkpt lat="48.21246" lon="-3.0867">
        <ele>277</ele>
        <time>2016-03-07T14:59:10Z</time>
      </trkpt>
      <trkpt lat="48.21244" lon="-3.08675">
        <ele>277</ele>
        <time>2016-03-07T14:59:13Z</time>
      </trkpt>
      <trkpt lat="48.21244" lon="-3.08678">
        <ele>277</ele>
        <time>2016-03-07T14:59:15Z</time>
      </trkpt>
      <trkpt lat="48.21244" lon="-3.08682">
        <ele>277</ele>
        <time>2016-03-07T14:59:18Z</time>
      </trkpt>
      <trkpt lat="48.21244" lon="-3.08686">
        <ele>277</ele>
        <time>2016-03-07T14:59:21Z</time>
      </trkpt>
      <trkpt lat="48.21245" lon="-3.0869">
        <ele>277</ele>
        <time>2016-03-07T14:59:23Z</time>
      </trkpt>
      <trkpt lat="48.21246" lon="-3.08692">
        <ele>277</ele>
        <time>2016-03-07T14:59:26Z</time>
      </trkpt>
      <trkpt lat="48.21247" lon="-3.08695">
        <ele>277</ele>
        <time>2016-03-07T14:59:28Z</time>
      </trkpt>
      <trkpt lat="48.21249" lon="-3.08697">
        <ele>276</ele>
        <time>2016-03-07T14:59:30Z</time>
      </trkpt>
      <trkpt lat="48.2125" lon="-3.08699">
        <ele>276</ele>
        <time>2016-03-07T14:59:32Z</time>
      </trkpt>
      <trkpt lat="48.21252" lon="-3.08702">
        <ele>275</ele>
        <time>2016-03-07T14:59:34Z</time>
      </trkpt>
      <trkpt lat="48.21252" lon="-3.08704">
        <ele>275</ele>
        <time>2016-03-07T14:59:37Z</time>
      </trkpt>
      <trkpt lat="48.21254" lon="-3.08707">
        <ele>275</ele>
        <time>2016-03-07T14:59:39Z</time>
      </trkpt>
      <trkpt lat="48.21255" lon="-3.0871">
        <ele>274</ele>
        <time>2016-03-07T14:59:42Z</time>
      </trkpt>
      <trkpt lat="48.21257" lon="-3.08713">
        <ele>274</ele>
        <time>2016-03-07T14:59:45Z</time>
      </trkpt>
      <trkpt lat="48.21258" lon="-3.08717">
        <ele>273</ele>
        <time>2016-03-07T14:59:48Z</time>
      </trkpt>
      <trkpt lat="48.21259" lon="-3.08719">
        <ele>273</ele>
        <time>2016-03-07T14:59:50Z</time>
      </trkpt>
      <trkpt lat="48.2126" lon="-3.08724">
        <ele>272</ele>
        <time>2016-03-07T14:59:53Z</time>
      </trkpt>
      <trkpt lat="48.21261" lon="-3.0873">
        <ele>272</ele>
        <time>2016-03-07T14:59:55Z</time>
      </trkpt>
      <trkpt lat="48.21262" lon="-3.08732">
        <ele>271</ele>
        <time>2016-03-07T14:59:58Z</time>
      </trkpt>
      <trkpt lat="48.21262" lon="-3.08737">
        <ele>271</ele>
        <time>2016-03-07T15:00:00Z</time>
      </trkpt>
      <trkpt lat="48.21263" lon="-3.0874">
        <ele>270</ele>
        <time>2016-03-07T15:00:02Z</time>
      </trkpt>
      <trkpt lat="48.21263" lon="-3.08744">
        <ele>270</ele>
        <time>2016-03-07T15:00:05Z</time>
      </trkpt>
      <trkpt lat="48.21264" lon="-3.08747">
        <ele>270</ele>
        <time>2016-03-07T15:00:07Z</time>
      </trkpt>
      <trkpt lat="48.21264" lon="-3.08751">
        <ele>270</ele>
        <time>2016-03-07T15:00:09Z</time>
      </trkpt>
      <trkpt lat="48.21265" lon="-3.08755">
        <ele>269</ele>
        <time>2016-03-07T15:00:12Z</time>
      </trkpt>
      <trkpt lat="48.21265" lon="-3.08759">
        <ele>269</ele>
        <time>2016-03-07T15:00:15Z</time>
      </trkpt>
      <trkpt lat="48.21266" lon="-3.08764">
        <ele>268</ele>
        <time>2016-03-07T15:00:17Z</time>
      </trkpt>
      <trkpt lat="48.21267" lon="-3.08767">
        <ele>267</ele>
        <time>2016-03-07T15:00:20Z</time>
      </trkpt>
      <trkpt lat="48.21268" lon="-3.08771">
        <ele>267</ele>
        <time>2016-03-07T15:00:22Z</time>
      </trkpt>
      <trkpt lat="48.21268" lon="-3.08774">
        <ele>266</ele>
        <time>2016-03-07T15:00:25Z</time>
      </trkpt>
      <trkpt lat="48.2127" lon="-3.08778">
        <ele>265</ele>
        <time>2016-03-07T15:00:27Z</time>
      </trkpt>
      <trkpt lat="48.21271" lon="-3.08782">
        <ele>265</ele>
        <time>2016-03-07T15:00:31Z</time>
      </trkpt>
      <trkpt lat="48.21273" lon="-3.08787">
        <ele>264</ele>
        <time>2016-03-07T15:00:33Z</time>
      </trkpt>
      <trkpt lat="48.21274" lon="-3.0879">
        <ele>263</ele>
        <time>2016-03-07T15:00:36Z</time>
      </trkpt>
      <trkpt lat="48.21276" lon="-3.08795">
        <ele>263</ele>
        <time>2016-03-07T15:00:39Z</time>
      </trkpt>
      <trkpt lat="48.21277" lon="-3.088">
        <ele>262</ele>
        <time>2016-03-07T15:00:41Z</time>
      </trkpt>
      <trkpt lat="48.21278" lon="-3.08804">
        <ele>261</ele>
        <time>2016-03-07T15:00:44Z</time>
      </trkpt>
      <trkpt lat="48.21279" lon="-3.08809">
        <ele>261</ele>
        <time>2016-03-07T15:00:47Z</time>
      </trkpt>
      <trkpt lat="48.21279" lon="-3.08815">
        <ele>260</ele>
        <time>2016-03-07T15:00:50Z</time>
      </trkpt>
      <trkpt lat="48.21279" lon="-3.08821">
        <ele>260</ele>
        <time>2016-03-07T15:00:53Z</time>
      </trkpt>
      <trkpt lat="48.21278" lon="-3.08827">
        <ele>259</ele>
        <time>2016-03-07T15:00:56Z</time>
      </trkpt>
      <trkpt lat="48.21278" lon="-3.08832">
        <ele>259</ele>
        <time>2016-03-07T15:00:58Z</time>
      </trkpt>
      <trkpt lat="48.21278" lon="-3.08836">
        <ele>258</ele>
        <time>2016-03-07T15:01:01Z</time>
      </trkpt>
      <trkpt lat="48.21278" lon="-3.08839">
        <ele>258</ele>
        <time>2016-03-07T15:01:03Z</time>
      </trkpt>
      <trkpt lat="48.21279" lon="-3.08844">
        <ele>257</ele>
        <time>2016-03-07T15:01:05Z</time>
      </trkpt>
      <trkpt lat="48.21278" lon="-3.08847">
        <ele>256</ele>
        <time>2016-03-07T15:01:08Z</time>
      </trkpt>
      <trkpt lat="48.21278" lon="-3.08852">
        <ele>255</ele>
        <time>2016-03-07T15:01:11Z</time>
      </trkpt>
      <trkpt lat="48.21279" lon="-3.08857">
        <ele>255</ele>
        <time>2016-03-07T15:01:14Z</time>
      </trkpt>
      <trkpt lat="48.21279" lon="-3.0886">
        <ele>255</ele>
        <time>2016-03-07T15:01:16Z</time>
      </trkpt>
      <trkpt lat="48.2128" lon="-3.08864">
        <ele>255</ele>
        <time>2016-03-07T15:01:18Z</time>
      </trkpt>
      <trkpt lat="48.2128" lon="-3.08869">
        <ele>254</ele>
        <time>2016-03-07T15:01:22Z</time>
      </trkpt>
      <trkpt lat="48.21281" lon="-3.08874">
        <ele>254</ele>
        <time>2016-03-07T15:01:24Z</time>
      </trkpt>
      <trkpt lat="48.21281" lon="-3.08877">
        <ele>254</ele>
        <time>2016-03-07T15:01:27Z</time>
      </trkpt>
      <trkpt lat="48.21281" lon="-3.08882">
        <ele>254</ele>
        <time>2016-03-07T15:01:30Z</time>
      </trkpt>
      <trkpt lat="48.21282" lon="-3.08887">
        <ele>253</ele>
        <time>2016-03-07T15:01:33Z</time>
      </trkpt>
      <trkpt lat="48.21283" lon="-3.08891">
        <ele>253</ele>
        <time>2016-03-07T15:01:35Z</time>
      </trkpt>
      <trkpt lat="48.21284" lon="-3.08895">
        <ele>253</ele>
        <time>2016-03-07T15:01:37Z</time>
      </trkpt>
      <trkpt lat="48.21285" lon="-3.089">
        <ele>253</ele>
        <time>2016-03-07T15:01:41Z</time>
      </trkpt>
      <trkpt lat="48.21285" lon="-3.08907">
        <ele>253</ele>
        <time>2016-03-07T15:01:43Z</time>
      </trkpt>
      <trkpt lat="48.21286" lon="-3.0891">
        <ele>253</ele>
        <time>2016-03-07T15:01:46Z</time>
      </trkpt>
      <trkpt lat="48.21286" lon="-3.08914">
        <ele>253</ele>
        <time>2016-03-07T15:01:48Z</time>
      </trkpt>
      <trkpt lat="48.21287" lon="-3.0892">
        <ele>253</ele>
        <time>2016-03-07T15:01:51Z</time>
      </trkpt>
      <trkpt lat="48.21287" lon="-3.08925">
        <ele>252</ele>
        <time>2016-03-07T15:01:53Z</time>
      </trkpt>
      <trkpt lat="48.21288" lon="-3.08928">
        <ele>253</ele>
        <time>2016-03-07T15:01:56Z</time>
      </trkpt>
      <trkpt lat="48.21289" lon="-3.08935">
        <ele>252</ele>
        <time>2016-03-07T15:01:58Z</time>
      </trkpt>
      <trkpt lat="48.21289" lon="-3.08939">
        <ele>252</ele>
        <time>2016-03-07T15:02:00Z</time>
      </trkpt>
      <trkpt lat="48.21289" lon="-3.08944">
        <ele>252</ele>
        <time>2016-03-07T15:02:04Z</time>
      </trkpt>
      <trkpt lat="48.21289" lon="-3.08949">
        <ele>252</ele>
        <time>2016-03-07T15:02:06Z</time>
      </trkpt>
      <trkpt lat="48.2129" lon="-3.08953">
        <ele>252</ele>
        <time>2016-03-07T15:02:08Z</time>
      </trkpt>
      <trkpt lat="48.2129" lon="-3.08958">
        <ele>252</ele>
        <time>2016-03-07T15:02:11Z</time>
      </trkpt>
      <trkpt lat="48.2129" lon="-3.08962">
        <ele>252</ele>
        <time>2016-03-07T15:02:13Z</time>
      </trkpt>
      <trkpt lat="48.2129" lon="-3.08967">
        <ele>252</ele>
        <time>2016-03-07T15:02:16Z</time>
      </trkpt>
      <trkpt lat="48.21291" lon="-3.0897">
        <ele>252</ele>
        <time>2016-03-07T15:02:19Z</time>
      </trkpt>
      <trkpt lat="48.21291" lon="-3.08975">
        <ele>252</ele>
        <time>2016-03-07T15:02:21Z</time>
      </trkpt>
      <trkpt lat="48.21291" lon="-3.08979">
        <ele>252</ele>
        <time>2016-03-07T15:02:24Z</time>
      </trkpt>
      <trkpt lat="48.21291" lon="-3.08984">
        <ele>253</ele>
        <time>2016-03-07T15:02:26Z</time>
      </trkpt>
      <trkpt lat="48.21292" lon="-3.0899">
        <ele>253</ele>
        <time>2016-03-07T15:02:30Z</time>
      </trkpt>
      <trkpt lat="48.21292" lon="-3.08995">
        <ele>253</ele>
        <time>2016-03-07T15:02:32Z</time>
      </trkpt>
      <trkpt lat="48.21292" lon="-3.08999">
        <ele>253</ele>
        <time>2016-03-07T15:02:34Z</time>
      </trkpt>
      <trkpt lat="48.21292" lon="-3.09002">
        <ele>253</ele>
        <time>2016-03-07T15:02:37Z</time>
      </trkpt>
      <trkpt lat="48.21292" lon="-3.09008">
        <ele>253</ele>
        <time>2016-03-07T15:02:39Z</time>
      </trkpt>
      <trkpt lat="48.21291" lon="-3.09011">
        <ele>253</ele>
        <time>2016-03-07T15:02:42Z</time>
      </trkpt>
      <trkpt lat="48.21292" lon="-3.09017">
        <ele>253</ele>
        <time>2016-03-07T15:02:44Z</time>
      </trkpt>
      <trkpt lat="48.21292" lon="-3.0902">
        <ele>253</ele>
        <time>2016-03-07T15:02:46Z</time>
      </trkpt>
      <trkpt lat="48.21291" lon="-3.09026">
        <ele>253</ele>
        <time>2016-03-07T15:02:49Z</time>
      </trkpt>
      <trkpt lat="48.21291" lon="-3.09031">
        <ele>253</ele>
        <time>2016-03-07T15:02:53Z</time>
      </trkpt>
      <trkpt lat="48.21291" lon="-3.09036">
        <ele>253</ele>
        <time>2016-03-07T15:02:55Z</time>
      </trkpt>
      <trkpt lat="48.21291" lon="-3.0904">
        <ele>253</ele>
        <time>2016-03-07T15:02:57Z</time>
      </trkpt>
      <trkpt lat="48.21292" lon="-3.09043">
        <ele>253</ele>
        <time>2016-03-07T15:02:59Z</time>
      </trkpt>
      <trkpt lat="48.21292" lon="-3.09048">
        <ele>253</ele>
        <time>2016-03-07T15:03:03Z</time>
      </trkpt>
      <trkpt lat="48.21292" lon="-3.09054">
        <ele>253</ele>
        <time>2016-03-07T15:03:05Z</time>
      </trkpt>
      <trkpt lat="48.21292" lon="-3.09058">
        <ele>253</ele>
        <time>2016-03-07T15:03:07Z</time>
      </trkpt>
      <trkpt lat="48.21293" lon="-3.09064">
        <ele>253</ele>
        <time>2016-03-07T15:03:11Z</time>
      </trkpt>
      <trkpt lat="48.21292" lon="-3.09069">
        <ele>254</ele>
        <time>2016-03-07T15:03:13Z</time>
      </trkpt>
      <trkpt lat="48.21293" lon="-3.09074">
        <ele>253</ele>
        <time>2016-03-07T15:03:17Z</time>
      </trkpt>
      <trkpt lat="48.21293" lon="-3.09076">
        <ele>253</ele>
        <time>2016-03-07T15:03:19Z</time>
      </trkpt>
      <trkpt lat="48.21294" lon="-3.09081">
        <ele>253</ele>
        <time>2016-03-07T15:03:21Z</time>
      </trkpt>
      <trkpt lat="48.21294" lon="-3.09085">
        <ele>254</ele>
        <time>2016-03-07T15:03:23Z</time>
      </trkpt>
      <trkpt lat="48.21295" lon="-3.09089">
        <ele>254</ele>
        <time>2016-03-07T15:03:27Z</time>
      </trkpt>
      <trkpt lat="48.21295" lon="-3.09094">
        <ele>253</ele>
        <time>2016-03-07T15:03:29Z</time>
      </trkpt>
      <trkpt lat="48.21295" lon="-3.09098">
        <ele>254</ele>
        <time>2016-03-07T15:03:33Z</time>
      </trkpt>
      <trkpt lat="48.21295" lon="-3.09102">
        <ele>254</ele>
        <time>2016-03-07T15:03:35Z</time>
      </trkpt>
      <trkpt lat="48.21294" lon="-3.09105">
        <ele>254</ele>
        <time>2016-03-07T15:03:37Z</time>
      </trkpt>
      <trkpt lat="48.21292" lon="-3.09106">
        <ele>253</ele>
        <time>2016-03-07T15:03:39Z</time>
      </trkpt>
      <trkpt lat="48.21291" lon="-3.09106">
        <ele>253</ele>
        <time>2016-03-07T15:03:42Z</time>
      </trkpt>
      <trkpt lat="48.2129" lon="-3.09106">
        <ele>253</ele>
        <time>2016-03-07T15:03:44Z</time>
      </trkpt>
      <trkpt lat="48.21289" lon="-3.09106">
        <ele>253</ele>
        <time>2016-03-07T15:03:47Z</time>
      </trkpt>
      <trkpt lat="48.21288" lon="-3.09106">
        <ele>253</ele>
        <time>2016-03-07T15:03:49Z</time>
      </trkpt>
      <trkpt lat="48.21287" lon="-3.09106">
        <ele>253</ele>
        <time>2016-03-07T15:03:51Z</time>
      </trkpt>
      <trkpt lat="48.21286" lon="-3.09106">
        <ele>253</ele>
        <time>2016-03-07T15:03:53Z</time>
      </trkpt>
      <trkpt lat="48.21284" lon="-3.09107">
        <ele>253</ele>
        <time>2016-03-07T15:03:55Z</time>
      </trkpt>
      <trkpt lat="48.21283" lon="-3.09108">
        <ele>253</ele>
        <time>2016-03-07T15:03:57Z</time>
      </trkpt>
      <trkpt lat="48.21281" lon="-3.0911">
        <ele>253</ele>
        <time>2016-03-07T15:04:00Z</time>
      </trkpt>
      <trkpt lat="48.2128" lon="-3.09111">
        <ele>254</ele>
        <time>2016-03-07T15:04:02Z</time>
      </trkpt>
      <trkpt lat="48.2128" lon="-3.09112">
        <ele>254</ele>
        <time>2016-03-07T15:04:05Z</time>
      </trkpt>
      <trkpt lat="48.21279" lon="-3.09114">
        <ele>255</ele>
        <time>2016-03-07T15:04:08Z</time>
      </trkpt>
      <trkpt lat="48.21278" lon="-3.09115">
        <ele>255</ele>
        <time>2016-03-07T15:04:10Z</time>
      </trkpt>
      <trkpt lat="48.21277" lon="-3.09115">
        <ele>255</ele>
        <time>2016-03-07T15:04:14Z</time>
      </trkpt>
      <trkpt lat="48.21277" lon="-3.09116">
        <ele>255</ele>
        <time>2016-03-07T15:04:16Z</time>
      </trkpt>
      <trkpt lat="48.21277" lon="-3.09116">
        <ele>255</ele>
        <time>2016-03-07T15:04:19Z</time>
      </trkpt>
      <trkpt lat="48.21276" lon="-3.09117">
        <ele>255</ele>
        <time>2016-03-07T15:04:21Z</time>
      </trkpt>
      <trkpt lat="48.21276" lon="-3.09119">
        <ele>255</ele>
        <time>2016-03-07T15:04:24Z</time>
      </trkpt>
      <trkpt lat="48.21276" lon="-3.0912">
        <ele>256</ele>
        <time>2016-03-07T15:04:26Z</time>
      </trkpt>
      <trkpt lat="48.21275" lon="-3.09121">
        <ele>256</ele>
        <time>2016-03-07T15:04:29Z</time>
      </trkpt>
      <trkpt lat="48.21273" lon="-3.0912">
        <ele>256</ele>
        <time>2016-03-07T15:04:31Z</time>
      </trkpt>
      <trkpt lat="48.21272" lon="-3.0912">
        <ele>256</ele>
        <time>2016-03-07T15:04:33Z</time>
      </trkpt>
      <trkpt lat="48.21272" lon="-3.09119">
        <ele>255</ele>
        <time>2016-03-07T15:04:36Z</time>
      </trkpt>
      <trkpt lat="48.21272" lon="-3.0912">
        <ele>256</ele>
        <time>2016-03-07T15:04:38Z</time>
      </trkpt>
      <trkpt lat="48.21273" lon="-3.0912">
        <ele>256</ele>
        <time>2016-03-07T15:04:41Z</time>
      </trkpt>
      <trkpt lat="48.21274" lon="-3.09121">
        <ele>256</ele>
        <time>2016-03-07T15:04:44Z</time>
      </trkpt>
      <trkpt lat="48.21275" lon="-3.09121">
        <ele>256</ele>
        <time>2016-03-07T15:04:46Z</time>
      </trkpt>
      <trkpt lat="48.21276" lon="-3.09122">
        <ele>255</ele>
        <time>2016-03-07T15:04:48Z</time>
      </trkpt>
      <trkpt lat="48.21277" lon="-3.09123">
        <ele>255</ele>
        <time>2016-03-07T15:04:52Z</time>
      </trkpt>
      <trkpt lat="48.21278" lon="-3.09124">
        <ele>255</ele>
        <time>2016-03-07T15:04:54Z</time>
      </trkpt>
      <trkpt lat="48.21278" lon="-3.09124">
        <ele>255</ele>
        <time>2016-03-07T15:04:57Z</time>
      </trkpt>
      <trkpt lat="48.21279" lon="-3.09125">
        <ele>255</ele>
        <time>2016-03-07T15:04:59Z</time>
      </trkpt>
      <trkpt lat="48.2128" lon="-3.09126">
        <ele>255</ele>
        <time>2016-03-07T15:05:02Z</time>
      </trkpt>
      <trkpt lat="48.21281" lon="-3.09126">
        <ele>255</ele>
        <time>2016-03-07T15:05:06Z</time>
      </trkpt>
      <trkpt lat="48.21281" lon="-3.09126">
        <ele>255</ele>
        <time>2016-03-07T15:05:08Z</time>
      </trkpt>
      <trkpt lat="48.21282" lon="-3.09126">
        <ele>256</ele>
        <time>2016-03-07T15:05:13Z</time>
      </trkpt>
      <trkpt lat="48.21282" lon="-3.09126">
        <ele>256</ele>
        <time>2016-03-07T15:05:15Z</time>
      </trkpt>
      <trkpt lat="48.21283" lon="-3.09126">
        <ele>256</ele>
        <time>2016-03-07T15:05:19Z</time>
      </trkpt>
      <trkpt lat="48.21283" lon="-3.09126">
        <ele>256</ele>
        <time>2016-03-07T15:05:22Z</time>
      </trkpt>
      <trkpt lat="48.21283" lon="-3.09126">
        <ele>256</ele>
        <time>2016-03-07T15:05:25Z</time>
      </trkpt>
      <trkpt lat="48.21284" lon="-3.09126">
        <ele>256</ele>
        <time>2016-03-07T15:05:28Z</time>
      </trkpt>
      <trkpt lat="48.21284" lon="-3.09126">
        <ele>256</ele>
        <time>2016-03-07T15:05:30Z</time>
      </trkpt>
      <trkpt lat="48.21285" lon="-3.09127">
        <ele>255</ele>
        <time>2016-03-07T15:05:33Z</time>
      </trkpt>
      <trkpt lat="48.21286" lon="-3.09127">
        <ele>256</ele>
        <time>2016-03-07T15:05:35Z</time>
      </trkpt>
      <trkpt lat="48.21287" lon="-3.09129">
        <ele>255</ele>
        <time>2016-03-07T15:05:38Z</time>
      </trkpt>
      <trkpt lat="48.21288" lon="-3.0913">
        <ele>256</ele>
        <time>2016-03-07T15:05:40Z</time>
      </trkpt>
      <trkpt lat="48.21289" lon="-3.09132">
        <ele>256</ele>
        <time>2016-03-07T15:05:44Z</time>
      </trkpt>
      <trkpt lat="48.21291" lon="-3.09134">
        <ele>256</ele>
        <time>2016-03-07T15:05:46Z</time>
      </trkpt>
      <trkpt lat="48.21292" lon="-3.09136">
        <ele>256</ele>
        <time>2016-03-07T15:05:48Z</time>
      </trkpt>
      <trkpt lat="48.21293" lon="-3.09138">
        <ele>256</ele>
        <time>2016-03-07T15:05:51Z</time>
      </trkpt>
      <trkpt lat="48.21294" lon="-3.0914">
        <ele>256</ele>
        <time>2016-03-07T15:05:53Z</time>
      </trkpt>
      <trkpt lat="48.21295" lon="-3.09141">
        <ele>256</ele>
        <time>2016-03-07T15:05:55Z</time>
      </trkpt>
      <trkpt lat="48.21296" lon="-3.09144">
        <ele>256</ele>
        <time>2016-03-07T15:05:58Z</time>
      </trkpt>
      <trkpt lat="48.21297" lon="-3.09147">
        <ele>256</ele>
        <time>2016-03-07T15:06:01Z</time>
      </trkpt>
      <trkpt lat="48.21298" lon="-3.09149">
        <ele>256</ele>
        <time>2016-03-07T15:06:04Z</time>
      </trkpt>
      <trkpt lat="48.21299" lon="-3.09151">
        <ele>256</ele>
        <time>2016-03-07T15:06:07Z</time>
      </trkpt>
      <trkpt lat="48.21301" lon="-3.09154">
        <ele>256</ele>
        <time>2016-03-07T15:06:09Z</time>
      </trkpt>
      <trkpt lat="48.21301" lon="-3.09156">
        <ele>256</ele>
        <time>2016-03-07T15:06:12Z</time>
      </trkpt>
      <trkpt lat="48.21302" lon="-3.09158">
        <ele>257</ele>
        <time>2016-03-07T15:06:14Z</time>
      </trkpt>
      <trkpt lat="48.21304" lon="-3.09161">
        <ele>257</ele>
        <time>2016-03-07T15:06:17Z</time>
      </trkpt>
      <trkpt lat="48.21306" lon="-3.09164">
        <ele>257</ele>
        <time>2016-03-07T15:06:20Z</time>
      </trkpt>
      <trkpt lat="48.21307" lon="-3.09167">
        <ele>257</ele>
        <time>2016-03-07T15:06:23Z</time>
      </trkpt>
      <trkpt lat="48.21309" lon="-3.0917">
        <ele>257</ele>
        <time>2016-03-07T15:06:26Z</time>
      </trkpt>
      <trkpt lat="48.2131" lon="-3.09173">
        <ele>257</ele>
        <time>2016-03-07T15:06:29Z</time>
      </trkpt>
      <trkpt lat="48.21311" lon="-3.09175">
        <ele>257</ele>
        <time>2016-03-07T15:06:31Z</time>
      </trkpt>
      <trkpt lat="48.21312" lon="-3.09178">
        <ele>257</ele>
        <time>2016-03-07T15:06:34Z</time>
      </trkpt>
      <trkpt lat="48.21315" lon="-3.09181">
        <ele>257</ele>
        <time>2016-03-07T15:06:36Z</time>
      </trkpt>
      <trkpt lat="48.21315" lon="-3.09185">
        <ele>257</ele>
        <time>2016-03-07T15:06:38Z</time>
      </trkpt>
      <trkpt lat="48.21317" lon="-3.09187">
        <ele>257</ele>
        <time>2016-03-07T15:06:40Z</time>
      </trkpt>
      <trkpt lat="48.21318" lon="-3.0919">
        <ele>257</ele>
        <time>2016-03-07T15:06:43Z</time>
      </trkpt>
      <trkpt lat="48.2132" lon="-3.09192">
        <ele>257</ele>
        <time>2016-03-07T15:06:45Z</time>
      </trkpt>
      <trkpt lat="48.21321" lon="-3.09195">
        <ele>257</ele>
        <time>2016-03-07T15:06:49Z</time>
      </trkpt>
      <trkpt lat="48.21323" lon="-3.09199">
        <ele>258</ele>
        <time>2016-03-07T15:06:51Z</time>
      </trkpt>
      <trkpt lat="48.21326" lon="-3.09202">
        <ele>258</ele>
        <time>2016-03-07T15:06:54Z</time>
      </trkpt>
      <trkpt lat="48.21327" lon="-3.09205">
        <ele>257</ele>
        <time>2016-03-07T15:06:56Z</time>
      </trkpt>
      <trkpt lat="48.21329" lon="-3.09208">
        <ele>258</ele>
        <time>2016-03-07T15:06:59Z</time>
      </trkpt>
      <trkpt lat="48.21331" lon="-3.09211">
        <ele>258</ele>
        <time>2016-03-07T15:07:01Z</time>
      </trkpt>
      <trkpt lat="48.21333" lon="-3.09214">
        <ele>258</ele>
        <time>2016-03-07T15:07:05Z</time>
      </trkpt>
      <trkpt lat="48.21336" lon="-3.09218">
        <ele>258</ele>
        <time>2016-03-07T15:07:07Z</time>
      </trkpt>
      <trkpt lat="48.21338" lon="-3.09222">
        <ele>258</ele>
        <time>2016-03-07T15:07:10Z</time>
      </trkpt>
      <trkpt lat="48.21339" lon="-3.09224">
        <ele>258</ele>
        <time>2016-03-07T15:07:12Z</time>
      </trkpt>
      <trkpt lat="48.21341" lon="-3.09228">
        <ele>258</ele>
        <time>2016-03-07T15:07:15Z</time>
      </trkpt>
      <trkpt lat="48.21343" lon="-3.09231">
        <ele>259</ele>
        <time>2016-03-07T15:07:19Z</time>
      </trkpt>
      <trkpt lat="48.21346" lon="-3.09236">
        <ele>259</ele>
        <time>2016-03-07T15:07:21Z</time>
      </trkpt>
      <trkpt lat="48.21347" lon="-3.09239">
        <ele>259</ele>
        <time>2016-03-07T15:07:23Z</time>
      </trkpt>
      <trkpt lat="48.21349" lon="-3.09243">
        <ele>259</ele>
        <time>2016-03-07T15:07:26Z</time>
      </trkpt>
      <trkpt lat="48.2135" lon="-3.09247">
        <ele>259</ele>
        <time>2016-03-07T15:07:29Z</time>
      </trkpt>
      <trkpt lat="48.21351" lon="-3.09249">
        <ele>259</ele>
        <time>2016-03-07T15:07:31Z</time>
      </trkpt>
      <trkpt lat="48.21353" lon="-3.09253">
        <ele>259</ele>
        <time>2016-03-07T15:07:34Z</time>
      </trkpt>
      <trkpt lat="48.21354" lon="-3.09256">
        <ele>259</ele>
        <time>2016-03-07T15:07:36Z</time>
      </trkpt>
      <trkpt lat="48.21354" lon="-3.0926">
        <ele>259</ele>
        <time>2016-03-07T15:07:39Z</time>
      </trkpt>
      <trkpt lat="48.21355" lon="-3.09263">
        <ele>259</ele>
        <time>2016-03-07T15:07:42Z</time>
      </trkpt>
      <trkpt lat="48.21355" lon="-3.09266">
        <ele>259</ele>
        <time>2016-03-07T15:07:45Z</time>
      </trkpt>
      <trkpt lat="48.21355" lon="-3.09269">
        <ele>259</ele>
        <time>2016-03-07T15:07:48Z</time>
      </trkpt>
      <trkpt lat="48.21355" lon="-3.09271">
        <ele>259</ele>
        <time>2016-03-07T15:07:50Z</time>
      </trkpt>
      <trkpt lat="48.21355" lon="-3.09274">
        <ele>260</ele>
        <time>2016-03-07T15:07:53Z</time>
      </trkpt>
      <trkpt lat="48.21355" lon="-3.09276">
        <ele>259</ele>
        <time>2016-03-07T15:07:56Z</time>
      </trkpt>
      <trkpt lat="48.21355" lon="-3.09279">
        <ele>260</ele>
        <time>2016-03-07T15:07:59Z</time>
      </trkpt>
      <trkpt lat="48.21355" lon="-3.09282">
        <ele>260</ele>
        <time>2016-03-07T15:08:02Z</time>
      </trkpt>
      <trkpt lat="48.21355" lon="-3.09285">
        <ele>260</ele>
        <time>2016-03-07T15:08:04Z</time>
      </trkpt>
      <trkpt lat="48.21354" lon="-3.09287">
        <ele>260</ele>
        <time>2016-03-07T15:08:07Z</time>
      </trkpt>
      <trkpt lat="48.21354" lon="-3.09291">
        <ele>260</ele>
        <time>2016-03-07T15:08:09Z</time>
      </trkpt>
      <trkpt lat="48.21354" lon="-3.09296">
        <ele>260</ele>
        <time>2016-03-07T15:08:12Z</time>
      </trkpt>
      <trkpt lat="48.21354" lon="-3.09299">
        <ele>261</ele>
        <time>2016-03-07T15:08:15Z</time>
      </trkpt>
      <trkpt lat="48.21355" lon="-3.09302">
        <ele>261</ele>
        <time>2016-03-07T15:08:18Z</time>
      </trkpt>
      <trkpt lat="48.21355" lon="-3.09304">
        <ele>261</ele>
        <time>2016-03-07T15:08:20Z</time>
      </trkpt>
      <trkpt lat="48.21355" lon="-3.09306">
        <ele>261</ele>
        <time>2016-03-07T15:08:23Z</time>
      </trkpt>
      <trkpt lat="48.21356" lon="-3.09309">
        <ele>261</ele>
        <time>2016-03-07T15:08:25Z</time>
      </trkpt>
      <trkpt lat="48.21357" lon="-3.09313">
        <ele>261</ele>
        <time>2016-03-07T15:08:28Z</time>
      </trkpt>
      <trkpt lat="48.21358" lon="-3.09315">
        <ele>261</ele>
        <time>2016-03-07T15:08:30Z</time>
      </trkpt>
      <trkpt lat="48.21359" lon="-3.09319">
        <ele>262</ele>
        <time>2016-03-07T15:08:33Z</time>
      </trkpt>
      <trkpt lat="48.21359" lon="-3.09323">
        <ele>262</ele>
        <time>2016-03-07T15:08:36Z</time>
      </trkpt>
      <trkpt lat="48.2136" lon="-3.09326">
        <ele>262</ele>
        <time>2016-03-07T15:08:39Z</time>
      </trkpt>
      <trkpt lat="48.21361" lon="-3.09329">
        <ele>263</ele>
        <time>2016-03-07T15:08:42Z</time>
      </trkpt>
      <trkpt lat="48.21361" lon="-3.09332">
        <ele>262</ele>
        <time>2016-03-07T15:08:44Z</time>
      </trkpt>
      <trkpt lat="48.21361" lon="-3.09335">
        <ele>262</ele>
        <time>2016-03-07T15:08:47Z</time>
      </trkpt>
      <trkpt lat="48.21361" lon="-3.09337">
        <ele>263</ele>
        <time>2016-03-07T15:08:49Z</time>
      </trkpt>
      <trkpt lat="48.21361" lon="-3.0934">
        <ele>263</ele>
        <time>2016-03-07T15:08:52Z</time>
      </trkpt>
      <trkpt lat="48.21361" lon="-3.09342">
        <ele>263</ele>
        <time>2016-03-07T15:08:55Z</time>
      </trkpt>
      <trkpt lat="48.21361" lon="-3.09343">
        <ele>264</ele>
        <time>2016-03-07T15:08:57Z</time>
      </trkpt>
      <trkpt lat="48.21361" lon="-3.09345">
        <ele>264</ele>
        <time>2016-03-07T15:09:00Z</time>
      </trkpt>
      <trkpt lat="48.21361" lon="-3.09348">
        <ele>264</ele>
        <time>2016-03-07T15:09:03Z</time>
      </trkpt>
      <trkpt lat="48.2136" lon="-3.09351">
        <ele>265</ele>
        <time>2016-03-07T15:09:06Z</time>
      </trkpt>
      <trkpt lat="48.2136" lon="-3.09355">
        <ele>265</ele>
        <time>2016-03-07T15:09:09Z</time>
      </trkpt>
      <trkpt lat="48.2136" lon="-3.09358">
        <ele>266</ele>
        <time>2016-03-07T15:09:12Z</time>
      </trkpt>
      <trkpt lat="48.21361" lon="-3.09362">
        <ele>266</ele>
        <time>2016-03-07T15:09:15Z</time>
      </trkpt>
      <trkpt lat="48.21361" lon="-3.09366">
        <ele>267</ele>
        <time>2016-03-07T15:09:18Z</time>
      </trkpt>
      <trkpt lat="48.21361" lon="-3.09368">
        <ele>267</ele>
        <time>2016-03-07T15:09:20Z</time>
      </trkpt>
      <trkpt lat="48.21361" lon="-3.09372">
        <ele>267</ele>
        <time>2016-03-07T15:09:23Z</time>
      </trkpt>
      <trkpt lat="48.21361" lon="-3.09374">
        <ele>267</ele>
        <time>2016-03-07T15:09:26Z</time>
      </trkpt>
      <trkpt lat="48.21361" lon="-3.09376">
        <ele>267</ele>
        <time>2016-03-07T15:09:28Z</time>
      </trkpt>
      <trkpt lat="48.21361" lon="-3.09377">
        <ele>267</ele>
        <time>2016-03-07T15:09:30Z</time>
      </trkpt>
      <trkpt lat="48.21361" lon="-3.09381">
        <ele>267</ele>
        <time>2016-03-07T15:09:33Z</time>
      </trkpt>
      <trkpt lat="48.21361" lon="-3.09384">
        <ele>268</ele>
        <time>2016-03-07T15:09:35Z</time>
      </trkpt>
      <trkpt lat="48.21362" lon="-3.09386">
        <ele>268</ele>
        <time>2016-03-07T15:09:37Z</time>
      </trkpt>
      <trkpt lat="48.21362" lon="-3.0939">
        <ele>268</ele>
        <time>2016-03-07T15:09:40Z</time>
      </trkpt>
      <trkpt lat="48.21363" lon="-3.09394">
        <ele>268</ele>
        <time>2016-03-07T15:09:43Z</time>
      </trkpt>
      <trkpt lat="48.21363" lon="-3.09398">
        <ele>268</ele>
        <time>2016-03-07T15:09:46Z</time>
      </trkpt>
      <trkpt lat="48.21364" lon="-3.09403">
        <ele>268</ele>
        <time>2016-03-07T15:09:49Z</time>
      </trkpt>
      <trkpt lat="48.21365" lon="-3.09406">
        <ele>268</ele>
        <time>2016-03-07T15:09:51Z</time>
      </trkpt>
      <trkpt lat="48.21365" lon="-3.09408">
        <ele>269</ele>
        <time>2016-03-07T15:09:54Z</time>
      </trkpt>
      <trkpt lat="48.21365" lon="-3.09412">
        <ele>269</ele>
        <time>2016-03-07T15:09:56Z</time>
      </trkpt>
      <trkpt lat="48.21364" lon="-3.09415">
        <ele>269</ele>
        <time>2016-03-07T15:09:59Z</time>
      </trkpt>
      <trkpt lat="48.21365" lon="-3.09417">
        <ele>269</ele>
        <time>2016-03-07T15:10:02Z</time>
      </trkpt>
      <trkpt lat="48.21365" lon="-3.09419">
        <ele>270</ele>
        <time>2016-03-07T15:10:04Z</time>
      </trkpt>
      <trkpt lat="48.21365" lon="-3.09423">
        <ele>270</ele>
        <time>2016-03-07T15:10:07Z</time>
      </trkpt>
      <trkpt lat="48.21365" lon="-3.09425">
        <ele>270</ele>
        <time>2016-03-07T15:10:09Z</time>
      </trkpt>
      <trkpt lat="48.21366" lon="-3.09428">
        <ele>270</ele>
        <time>2016-03-07T15:10:12Z</time>
      </trkpt>
      <trkpt lat="48.21367" lon="-3.09431">
        <ele>270</ele>
        <time>2016-03-07T15:10:15Z</time>
      </trkpt>
      <trkpt lat="48.21366" lon="-3.09432">
        <ele>270</ele>
        <time>2016-03-07T15:10:17Z</time>
      </trkpt>
      <trkpt lat="48.21366" lon="-3.09434">
        <ele>270</ele>
        <time>2016-03-07T15:10:20Z</time>
      </trkpt>
      <trkpt lat="48.21366" lon="-3.09436">
        <ele>270</ele>
        <time>2016-03-07T15:10:22Z</time>
      </trkpt>
      <trkpt lat="48.21366" lon="-3.09436">
        <ele>270</ele>
        <time>2016-03-07T15:10:25Z</time>
      </trkpt>
      <trkpt lat="48.21366" lon="-3.09437">
        <ele>271</ele>
        <time>2016-03-07T15:10:27Z</time>
      </trkpt>
      <trkpt lat="48.21366" lon="-3.09439">
        <ele>271</ele>
        <time>2016-03-07T15:10:30Z</time>
      </trkpt>
      <trkpt lat="48.21367" lon="-3.09441">
        <ele>271</ele>
        <time>2016-03-07T15:10:33Z</time>
      </trkpt>
      <trkpt lat="48.21367" lon="-3.09443">
        <ele>271</ele>
        <time>2016-03-07T15:10:35Z</time>
      </trkpt>
      <trkpt lat="48.21367" lon="-3.09445">
        <ele>271</ele>
        <time>2016-03-07T15:10:37Z</time>
      </trkpt>
      <trkpt lat="48.21367" lon="-3.09447">
        <ele>271</ele>
        <time>2016-03-07T15:10:40Z</time>
      </trkpt>
      <trkpt lat="48.21367" lon="-3.09449">
        <ele>272</ele>
        <time>2016-03-07T15:10:42Z</time>
      </trkpt>
      <trkpt lat="48.21366" lon="-3.09452">
        <ele>272</ele>
        <time>2016-03-07T15:10:45Z</time>
      </trkpt>
      <trkpt lat="48.21367" lon="-3.09456">
        <ele>272</ele>
        <time>2016-03-07T15:10:48Z</time>
      </trkpt>
      <trkpt lat="48.21367" lon="-3.09458">
        <ele>273</ele>
        <time>2016-03-07T15:10:50Z</time>
      </trkpt>
      <trkpt lat="48.21368" lon="-3.09462">
        <ele>273</ele>
        <time>2016-03-07T15:10:53Z</time>
      </trkpt>
      <trkpt lat="48.21367" lon="-3.09465">
        <ele>273</ele>
        <time>2016-03-07T15:10:56Z</time>
      </trkpt>
      <trkpt lat="48.21367" lon="-3.09469">
        <ele>272</ele>
        <time>2016-03-07T15:10:59Z</time>
      </trkpt>
      <trkpt lat="48.21366" lon="-3.09473">
        <ele>272</ele>
        <time>2016-03-07T15:11:02Z</time>
      </trkpt>
      <trkpt lat="48.21365" lon="-3.09477">
        <ele>272</ele>
        <time>2016-03-07T15:11:05Z</time>
      </trkpt>
      <trkpt lat="48.21365" lon="-3.09481">
        <ele>272</ele>
        <time>2016-03-07T15:11:07Z</time>
      </trkpt>
      <trkpt lat="48.21364" lon="-3.09485">
        <ele>273</ele>
        <time>2016-03-07T15:11:10Z</time>
      </trkpt>
      <trkpt lat="48.21364" lon="-3.09487">
        <ele>273</ele>
        <time>2016-03-07T15:11:12Z</time>
      </trkpt>
      <trkpt lat="48.21364" lon="-3.0949">
        <ele>273</ele>
        <time>2016-03-07T15:11:15Z</time>
      </trkpt>
      <trkpt lat="48.21363" lon="-3.09493">
        <ele>273</ele>
        <time>2016-03-07T15:11:18Z</time>
      </trkpt>
      <trkpt lat="48.21362" lon="-3.09496">
        <ele>273</ele>
        <time>2016-03-07T15:11:20Z</time>
      </trkpt>
      <trkpt lat="48.21361" lon="-3.09498">
        <ele>273</ele>
        <time>2016-03-07T15:11:22Z</time>
      </trkpt>
      <trkpt lat="48.2136" lon="-3.095">
        <ele>274</ele>
        <time>2016-03-07T15:11:25Z</time>
      </trkpt>
      <trkpt lat="48.21358" lon="-3.09503">
        <ele>274</ele>
        <time>2016-03-07T15:11:28Z</time>
      </trkpt>
      <trkpt lat="48.21359" lon="-3.09505">
        <ele>274</ele>
        <time>2016-03-07T15:11:30Z</time>
      </trkpt>
      <trkpt lat="48.2136" lon="-3.09508">
        <ele>274</ele>
        <time>2016-03-07T15:11:33Z</time>
      </trkpt>
      <trkpt lat="48.2136" lon="-3.09512">
        <ele>274</ele>
        <time>2016-03-07T15:11:35Z</time>
      </trkpt>
      <trkpt lat="48.2136" lon="-3.09517">
        <ele>274</ele>
        <time>2016-03-07T15:11:38Z</time>
      </trkpt>
      <trkpt lat="48.2136" lon="-3.09521">
        <ele>275</ele>
        <time>2016-03-07T15:11:41Z</time>
      </trkpt>
      <trkpt lat="48.2136" lon="-3.09523">
        <ele>275</ele>
        <time>2016-03-07T15:11:43Z</time>
      </trkpt>
      <trkpt lat="48.21359" lon="-3.09527">
        <ele>275</ele>
        <time>2016-03-07T15:11:46Z</time>
      </trkpt>
      <trkpt lat="48.21359" lon="-3.0953">
        <ele>275</ele>
        <time>2016-03-07T15:11:49Z</time>
      </trkpt>
      <trkpt lat="48.21358" lon="-3.09534">
        <ele>275</ele>
        <time>2016-03-07T15:11:51Z</time>
      </trkpt>
      <trkpt lat="48.21357" lon="-3.09535">
        <ele>276</ele>
        <time>2016-03-07T15:11:53Z</time>
      </trkpt>
      <trkpt lat="48.21356" lon="-3.09538">
        <ele>276</ele>
        <time>2016-03-07T15:11:56Z</time>
      </trkpt>
      <trkpt lat="48.21356" lon="-3.09542">
        <ele>276</ele>
        <time>2016-03-07T15:11:59Z</time>
      </trkpt>
      <trkpt lat="48.21356" lon="-3.09545">
        <ele>277</ele>
        <time>2016-03-07T15:12:01Z</time>
      </trkpt>
      <trkpt lat="48.21357" lon="-3.09547">
        <ele>277</ele>
        <time>2016-03-07T15:12:04Z</time>
      </trkpt>
      <trkpt lat="48.21357" lon="-3.0955">
        <ele>277</ele>
        <time>2016-03-07T15:12:06Z</time>
      </trkpt>
      <trkpt lat="48.21357" lon="-3.09551">
        <ele>277</ele>
        <time>2016-03-07T15:12:08Z</time>
      </trkpt>
      <trkpt lat="48.21357" lon="-3.09556">
        <ele>278</ele>
        <time>2016-03-07T15:12:11Z</time>
      </trkpt>
      <trkpt lat="48.21357" lon="-3.09558">
        <ele>278</ele>
        <time>2016-03-07T15:12:13Z</time>
      </trkpt>
      <trkpt lat="48.21357" lon="-3.09563">
        <ele>278</ele>
        <time>2016-03-07T15:12:16Z</time>
      </trkpt>
      <trkpt lat="48.21357" lon="-3.09566">
        <ele>278</ele>
        <time>2016-03-07T15:12:18Z</time>
      </trkpt>
      <trkpt lat="48.21356" lon="-3.09569">
        <ele>278</ele>
        <time>2016-03-07T15:12:21Z</time>
      </trkpt>
      <trkpt lat="48.21356" lon="-3.09573">
        <ele>279</ele>
        <time>2016-03-07T15:12:24Z</time>
      </trkpt>
      <trkpt lat="48.21357" lon="-3.09577">
        <ele>279</ele>
        <time>2016-03-07T15:12:27Z</time>
      </trkpt>
      <trkpt lat="48.21357" lon="-3.09581">
        <ele>279</ele>
        <time>2016-03-07T15:12:30Z</time>
      </trkpt>
      <trkpt lat="48.21358" lon="-3.09584">
        <ele>279</ele>
        <time>2016-03-07T15:12:34Z</time>
      </trkpt>
      <trkpt lat="48.21357" lon="-3.09588">
        <ele>279</ele>
        <time>2016-03-07T15:12:36Z</time>
      </trkpt>
      <trkpt lat="48.21357" lon="-3.09591">
        <ele>279</ele>
        <time>2016-03-07T15:12:39Z</time>
      </trkpt>
      <trkpt lat="48.21357" lon="-3.09593">
        <ele>279</ele>
        <time>2016-03-07T15:12:41Z</time>
      </trkpt>
      <trkpt lat="48.21358" lon="-3.09596">
        <ele>279</ele>
        <time>2016-03-07T15:12:44Z</time>
      </trkpt>
      <trkpt lat="48.21359" lon="-3.096">
        <ele>279</ele>
        <time>2016-03-07T15:12:47Z</time>
      </trkpt>
      <trkpt lat="48.2136" lon="-3.09604">
        <ele>279</ele>
        <time>2016-03-07T15:12:49Z</time>
      </trkpt>
      <trkpt lat="48.21361" lon="-3.09607">
        <ele>279</ele>
        <time>2016-03-07T15:12:52Z</time>
      </trkpt>
      <trkpt lat="48.21362" lon="-3.09611">
        <ele>278</ele>
        <time>2016-03-07T15:12:55Z</time>
      </trkpt>
      <trkpt lat="48.21363" lon="-3.09615">
        <ele>278</ele>
        <time>2016-03-07T15:12:58Z</time>
      </trkpt>
      <trkpt lat="48.21363" lon="-3.09619">
        <ele>278</ele>
        <time>2016-03-07T15:13:01Z</time>
      </trkpt>
      <trkpt lat="48.21365" lon="-3.09623">
        <ele>278</ele>
        <time>2016-03-07T15:13:05Z</time>
      </trkpt>
      <trkpt lat="48.21366" lon="-3.09626">
        <ele>278</ele>
        <time>2016-03-07T15:13:07Z</time>
      </trkpt>
      <trkpt lat="48.21368" lon="-3.09627">
        <ele>278</ele>
        <time>2016-03-07T15:13:09Z</time>
      </trkpt>
      <trkpt lat="48.21369" lon="-3.0963">
        <ele>277</ele>
        <time>2016-03-07T15:13:12Z</time>
      </trkpt>
      <trkpt lat="48.2137" lon="-3.09633">
        <ele>277</ele>
        <time>2016-03-07T15:13:14Z</time>
      </trkpt>
      <trkpt lat="48.21372" lon="-3.09637">
        <ele>277</ele>
        <time>2016-03-07T15:13:17Z</time>
      </trkpt>
      <trkpt lat="48.21374" lon="-3.09641">
        <ele>277</ele>
        <time>2016-03-07T15:13:20Z</time>
      </trkpt>
      <trkpt lat="48.21374" lon="-3.09644">
        <ele>277</ele>
        <time>2016-03-07T15:13:23Z</time>
      </trkpt>
      <trkpt lat="48.21375" lon="-3.09645">
        <ele>277</ele>
        <time>2016-03-07T15:13:26Z</time>
      </trkpt>
      <trkpt lat="48.21374" lon="-3.09647">
        <ele>277</ele>
        <time>2016-03-07T15:13:28Z</time>
      </trkpt>
      <trkpt lat="48.21373" lon="-3.09648">
        <ele>277</ele>
        <time>2016-03-07T15:13:31Z</time>
      </trkpt>
      <trkpt lat="48.21373" lon="-3.0965">
        <ele>277</ele>
        <time>2016-03-07T15:13:34Z</time>
      </trkpt>
      <trkpt lat="48.21371" lon="-3.09651">
        <ele>277</ele>
        <time>2016-03-07T15:13:37Z</time>
      </trkpt>
      <trkpt lat="48.21371" lon="-3.09653">
        <ele>278</ele>
        <time>2016-03-07T15:13:40Z</time>
      </trkpt>
      <trkpt lat="48.2137" lon="-3.09654">
        <ele>278</ele>
        <time>2016-03-07T15:13:42Z</time>
      </trkpt>
      <trkpt lat="48.2137" lon="-3.09655">
        <ele>278</ele>
        <time>2016-03-07T15:13:46Z</time>
      </trkpt>
      <trkpt lat="48.21369" lon="-3.09658">
        <ele>278</ele>
        <time>2016-03-07T15:13:48Z</time>
      </trkpt>
      <trkpt lat="48.21369" lon="-3.09659">
        <ele>278</ele>
        <time>2016-03-07T15:13:50Z</time>
      </trkpt>
      <trkpt lat="48.2137" lon="-3.09662">
        <ele>278</ele>
        <time>2016-03-07T15:13:53Z</time>
      </trkpt>
      <trkpt lat="48.21368" lon="-3.09664">
        <ele>278</ele>
        <time>2016-03-07T15:13:56Z</time>
      </trkpt>
      <trkpt lat="48.21368" lon="-3.09665">
        <ele>278</ele>
        <time>2016-03-07T15:13:58Z</time>
      </trkpt>
      <trkpt lat="48.21367" lon="-3.09666">
        <ele>278</ele>
        <time>2016-03-07T15:14:01Z</time>
      </trkpt>
      <trkpt lat="48.21366" lon="-3.09667">
        <ele>279</ele>
        <time>2016-03-07T15:14:04Z</time>
      </trkpt>
      <trkpt lat="48.21366" lon="-3.09668">
        <ele>278</ele>
        <time>2016-03-07T15:14:07Z</time>
      </trkpt>
      <trkpt lat="48.21366" lon="-3.09669">
        <ele>279</ele>
        <time>2016-03-07T15:14:09Z</time>
      </trkpt>
      <trkpt lat="48.21365" lon="-3.09668">
        <ele>279</ele>
        <time>2016-03-07T15:14:13Z</time>
      </trkpt>
      <trkpt lat="48.21366" lon="-3.09669">
        <ele>279</ele>
        <time>2016-03-07T15:14:15Z</time>
      </trkpt>
      <trkpt lat="48.21366" lon="-3.09669">
        <ele>279</ele>
        <time>2016-03-07T15:14:17Z</time>
      </trkpt>
      <trkpt lat="48.21365" lon="-3.0967">
        <ele>278</ele>
        <time>2016-03-07T15:14:20Z</time>
      </trkpt>
      <trkpt lat="48.21365" lon="-3.09671">
        <ele>278</ele>
        <time>2016-03-07T15:14:23Z</time>
      </trkpt>
      <trkpt lat="48.21365" lon="-3.09672">
        <ele>278</ele>
        <time>2016-03-07T15:14:25Z</time>
      </trkpt>
      <trkpt lat="48.21366" lon="-3.09673">
        <ele>278</ele>
        <time>2016-03-07T15:14:27Z</time>
      </trkpt>
      <trkpt lat="48.21366" lon="-3.09674">
        <ele>278</ele>
        <time>2016-03-07T15:14:30Z</time>
      </trkpt>
      <trkpt lat="48.21366" lon="-3.09675">
        <ele>278</ele>
        <time>2016-03-07T15:14:32Z</time>
      </trkpt>
      <trkpt lat="48.21366" lon="-3.09676">
        <ele>278</ele>
        <time>2016-03-07T15:14:35Z</time>
      </trkpt>
      <trkpt lat="48.21365" lon="-3.09676">
        <ele>278</ele>
        <time>2016-03-07T15:14:37Z</time>
      </trkpt>
      <trkpt lat="48.21365" lon="-3.09677">
        <ele>279</ele>
        <time>2016-03-07T15:14:39Z</time>
      </trkpt>
      <trkpt lat="48.21365" lon="-3.09677">
        <ele>279</ele>
        <time>2016-03-07T15:14:42Z</time>
      </trkpt>
      <trkpt lat="48.21364" lon="-3.09678">
        <ele>279</ele>
        <time>2016-03-07T15:14:44Z</time>
      </trkpt>
      <trkpt lat="48.21364" lon="-3.09679">
        <ele>279</ele>
        <time>2016-03-07T15:14:47Z</time>
      </trkpt>
      <trkpt lat="48.21363" lon="-3.0968">
        <ele>279</ele>
        <time>2016-03-07T15:14:49Z</time>
      </trkpt>
      <trkpt lat="48.21363" lon="-3.0968">
        <ele>279</ele>
        <time>2016-03-07T15:14:52Z</time>
      </trkpt>
      <trkpt lat="48.21363" lon="-3.0968">
        <ele>279</ele>
        <time>2016-03-07T15:14:54Z</time>
      </trkpt>
      <trkpt lat="48.21362" lon="-3.0968">
        <ele>278</ele>
        <time>2016-03-07T15:14:57Z</time>
      </trkpt>
      <trkpt lat="48.21361" lon="-3.0968">
        <ele>278</ele>
        <time>2016-03-07T15:15:00Z</time>
      </trkpt>
      <trkpt lat="48.2136" lon="-3.0968">
        <ele>278</ele>
        <time>2016-03-07T15:15:02Z</time>
      </trkpt>
      <trkpt lat="48.2136" lon="-3.09679">
        <ele>278</ele>
        <time>2016-03-07T15:15:05Z</time>
      </trkpt>
      <trkpt lat="48.2136" lon="-3.09679">
        <ele>278</ele>
        <time>2016-03-07T15:15:07Z</time>
      </trkpt>
      <trkpt lat="48.21359" lon="-3.09676">
        <ele>279</ele>
        <time>2016-03-07T15:15:10Z</time>
      </trkpt>
      <trkpt lat="48.21358" lon="-3.09674">
        <ele>279</ele>
        <time>2016-03-07T15:15:12Z</time>
      </trkpt>
      <trkpt lat="48.21358" lon="-3.0967">
        <ele>279</ele>
        <time>2016-03-07T15:15:15Z</time>
      </trkpt>
      <trkpt lat="48.21357" lon="-3.09667">
        <ele>279</ele>
        <time>2016-03-07T15:15:18Z</time>
      </trkpt>
      <trkpt lat="48.21356" lon="-3.09664">
        <ele>279</ele>
        <time>2016-03-07T15:15:21Z</time>
      </trkpt>
      <trkpt lat="48.21356" lon="-3.09661">
        <ele>279</ele>
        <time>2016-03-07T15:15:23Z</time>
      </trkpt>
      <trkpt lat="48.21356" lon="-3.09659">
        <ele>280</ele>
        <time>2016-03-07T15:15:25Z</time>
      </trkpt>
      <trkpt lat="48.21356" lon="-3.09655">
        <ele>280</ele>
        <time>2016-03-07T15:15:28Z</time>
      </trkpt>
      <trkpt lat="48.21356" lon="-3.09651">
        <ele>280</ele>
        <time>2016-03-07T15:15:31Z</time>
      </trkpt>
      <trkpt lat="48.21356" lon="-3.09647">
        <ele>280</ele>
        <time>2016-03-07T15:15:34Z</time>
      </trkpt>
      <trkpt lat="48.21355" lon="-3.09644">
        <ele>280</ele>
        <time>2016-03-07T15:15:36Z</time>
      </trkpt>
      <trkpt lat="48.21355" lon="-3.09639">
        <ele>281</ele>
        <time>2016-03-07T15:15:39Z</time>
      </trkpt>
      <trkpt lat="48.21354" lon="-3.09635">
        <ele>281</ele>
        <time>2016-03-07T15:15:42Z</time>
      </trkpt>
      <trkpt lat="48.21354" lon="-3.09631">
        <ele>281</ele>
        <time>2016-03-07T15:15:44Z</time>
      </trkpt>
      <trkpt lat="48.21354" lon="-3.09628">
        <ele>281</ele>
        <time>2016-03-07T15:15:47Z</time>
      </trkpt>
      <trkpt lat="48.21353" lon="-3.09625">
        <ele>281</ele>
        <time>2016-03-07T15:15:49Z</time>
      </trkpt>
      <trkpt lat="48.21352" lon="-3.09621">
        <ele>281</ele>
        <time>2016-03-07T15:15:52Z</time>
      </trkpt>
      <trkpt lat="48.21352" lon="-3.09618">
        <ele>280</ele>
        <time>2016-03-07T15:15:54Z</time>
      </trkpt>
      <trkpt lat="48.2135" lon="-3.09613">
        <ele>281</ele>
        <time>2016-03-07T15:15:57Z</time>
      </trkpt>
      <trkpt lat="48.2135" lon="-3.09609">
        <ele>282</ele>
        <time>2016-03-07T15:16:00Z</time>
      </trkpt>
      <trkpt lat="48.21349" lon="-3.09604">
        <ele>282</ele>
        <time>2016-03-07T15:16:03Z</time>
      </trkpt>
      <trkpt lat="48.21349" lon="-3.096">
        <ele>283</ele>
        <time>2016-03-07T15:16:05Z</time>
      </trkpt>
      <trkpt lat="48.21348" lon="-3.09596">
        <ele>282</ele>
        <time>2016-03-07T15:16:08Z</time>
      </trkpt>
      <trkpt lat="48.21347" lon="-3.09593">
        <ele>282</ele>
        <time>2016-03-07T15:16:10Z</time>
      </trkpt>
      <trkpt lat="48.21346" lon="-3.09589">
        <ele>282</ele>
        <time>2016-03-07T15:16:13Z</time>
      </trkpt>
      <trkpt lat="48.21345" lon="-3.09585">
        <ele>283</ele>
        <time>2016-03-07T15:16:16Z</time>
      </trkpt>
      <trkpt lat="48.21344" lon="-3.09583">
        <ele>283</ele>
        <time>2016-03-07T15:16:18Z</time>
      </trkpt>
      <trkpt lat="48.21343" lon="-3.0958">
        <ele>283</ele>
        <time>2016-03-07T15:16:21Z</time>
      </trkpt>
      <trkpt lat="48.21342" lon="-3.09576">
        <ele>283</ele>
        <time>2016-03-07T15:16:23Z</time>
      </trkpt>
      <trkpt lat="48.21341" lon="-3.09574">
        <ele>283</ele>
        <time>2016-03-07T15:16:25Z</time>
      </trkpt>
      <trkpt lat="48.21338" lon="-3.09571">
        <ele>284</ele>
        <time>2016-03-07T15:16:28Z</time>
      </trkpt>
      <trkpt lat="48.21337" lon="-3.09569">
        <ele>284</ele>
        <time>2016-03-07T15:16:30Z</time>
      </trkpt>
      <trkpt lat="48.21335" lon="-3.09566">
        <ele>285</ele>
        <time>2016-03-07T15:16:33Z</time>
      </trkpt>
      <trkpt lat="48.21333" lon="-3.09562">
        <ele>285</ele>
        <time>2016-03-07T15:16:36Z</time>
      </trkpt>
      <trkpt lat="48.2133" lon="-3.09558">
        <ele>285</ele>
        <time>2016-03-07T15:16:39Z</time>
      </trkpt>
      <trkpt lat="48.21328" lon="-3.09554">
        <ele>286</ele>
        <time>2016-03-07T15:16:42Z</time>
      </trkpt>
      <trkpt lat="48.21326" lon="-3.09551">
        <ele>286</ele>
        <time>2016-03-07T15:16:44Z</time>
      </trkpt>
      <trkpt lat="48.21325" lon="-3.09548">
        <ele>287</ele>
        <time>2016-03-07T15:16:46Z</time>
      </trkpt>
      <trkpt lat="48.21323" lon="-3.09545">
        <ele>287</ele>
        <time>2016-03-07T15:16:49Z</time>
      </trkpt>
      <trkpt lat="48.21321" lon="-3.09542">
        <ele>287</ele>
        <time>2016-03-07T15:16:51Z</time>
      </trkpt>
      <trkpt lat="48.21319" lon="-3.09537">
        <ele>287</ele>
        <time>2016-03-07T15:16:54Z</time>
      </trkpt>
      <trkpt lat="48.21318" lon="-3.09535">
        <ele>287</ele>
        <time>2016-03-07T15:16:56Z</time>
      </trkpt>
      <trkpt lat="48.21316" lon="-3.09532">
        <ele>288</ele>
        <time>2016-03-07T15:16:58Z</time>
      </trkpt>
      <trkpt lat="48.21315" lon="-3.09529">
        <ele>288</ele>
        <time>2016-03-07T15:17:00Z</time>
      </trkpt>
      <trkpt lat="48.21312" lon="-3.09525">
        <ele>288</ele>
        <time>2016-03-07T15:17:03Z</time>
      </trkpt>
      <trkpt lat="48.2131" lon="-3.09521">
        <ele>289</ele>
        <time>2016-03-07T15:17:06Z</time>
      </trkpt>
      <trkpt lat="48.21308" lon="-3.09518">
        <ele>290</ele>
        <time>2016-03-07T15:17:09Z</time>
      </trkpt>
      <trkpt lat="48.21307" lon="-3.09515">
        <ele>290</ele>
        <time>2016-03-07T15:17:11Z</time>
      </trkpt>
      <trkpt lat="48.21305" lon="-3.09512">
        <ele>290</ele>
        <time>2016-03-07T15:17:13Z</time>
      </trkpt>
      <trkpt lat="48.21303" lon="-3.09509">
        <ele>290</ele>
        <time>2016-03-07T15:17:16Z</time>
      </trkpt>
      <trkpt lat="48.21301" lon="-3.09508">
        <ele>290</ele>
        <time>2016-03-07T15:17:18Z</time>
      </trkpt>
      <trkpt lat="48.21299" lon="-3.09506">
        <ele>291</ele>
        <time>2016-03-07T15:17:20Z</time>
      </trkpt>
      <trkpt lat="48.21298" lon="-3.09503">
        <ele>291</ele>
        <time>2016-03-07T15:17:23Z</time>
      </trkpt>
      <trkpt lat="48.21297" lon="-3.09501">
        <ele>291</ele>
        <time>2016-03-07T15:17:25Z</time>
      </trkpt>
      <trkpt lat="48.21295" lon="-3.095">
        <ele>292</ele>
        <time>2016-03-07T15:17:27Z</time>
      </trkpt>
      <trkpt lat="48.21293" lon="-3.09497">
        <ele>292</ele>
        <time>2016-03-07T15:17:30Z</time>
      </trkpt>
      <trkpt lat="48.2129" lon="-3.09494">
        <ele>293</ele>
        <time>2016-03-07T15:17:33Z</time>
      </trkpt>
      <trkpt lat="48.21288" lon="-3.09491">
        <ele>293</ele>
        <time>2016-03-07T15:17:36Z</time>
      </trkpt>
      <trkpt lat="48.21285" lon="-3.09488">
        <ele>294</ele>
        <time>2016-03-07T15:17:39Z</time>
      </trkpt>
      <trkpt lat="48.21283" lon="-3.09486">
        <ele>294</ele>
        <time>2016-03-07T15:17:41Z</time>
      </trkpt>
      <trkpt lat="48.21281" lon="-3.09484">
        <ele>294</ele>
        <time>2016-03-07T15:17:44Z</time>
      </trkpt>
      <trkpt lat="48.21278" lon="-3.09482">
        <ele>294</ele>
        <time>2016-03-07T15:17:46Z</time>
      </trkpt>
      <trkpt lat="48.21274" lon="-3.0948">
        <ele>295</ele>
        <time>2016-03-07T15:17:49Z</time>
      </trkpt>
      <trkpt lat="48.21271" lon="-3.09478">
        <ele>295</ele>
        <time>2016-03-07T15:17:52Z</time>
      </trkpt>
      <trkpt lat="48.21268" lon="-3.09475">
        <ele>295</ele>
        <time>2016-03-07T15:17:55Z</time>
      </trkpt>
      <trkpt lat="48.21264" lon="-3.09474">
        <ele>296</ele>
        <time>2016-03-07T15:17:58Z</time>
      </trkpt>
      <trkpt lat="48.21262" lon="-3.09473">
        <ele>296</ele>
        <time>2016-03-07T15:18:00Z</time>
      </trkpt>
      <trkpt lat="48.21259" lon="-3.09473">
        <ele>296</ele>
        <time>2016-03-07T15:18:02Z</time>
      </trkpt>
      <trkpt lat="48.21257" lon="-3.09473">
        <ele>296</ele>
        <time>2016-03-07T15:18:05Z</time>
      </trkpt>
      <trkpt lat="48.21254" lon="-3.09473">
        <ele>296</ele>
        <time>2016-03-07T15:18:07Z</time>
      </trkpt>
      <trkpt lat="48.21251" lon="-3.09474">
        <ele>296</ele>
        <time>2016-03-07T15:18:09Z</time>
      </trkpt>
      <trkpt lat="48.21248" lon="-3.09474">
        <ele>296</ele>
        <time>2016-03-07T15:18:11Z</time>
      </trkpt>
      <trkpt lat="48.21246" lon="-3.09474">
        <ele>296</ele>
        <time>2016-03-07T15:18:13Z</time>
      </trkpt>
      <trkpt lat="48.21244" lon="-3.09475">
        <ele>296</ele>
        <time>2016-03-07T15:18:15Z</time>
      </trkpt>
      <trkpt lat="48.21241" lon="-3.09475">
        <ele>296</ele>
        <time>2016-03-07T15:18:17Z</time>
      </trkpt>
      <trkpt lat="48.21239" lon="-3.09476">
        <ele>297</ele>
        <time>2016-03-07T15:18:19Z</time>
      </trkpt>
      <trkpt lat="48.21237" lon="-3.09476">
        <ele>297</ele>
        <time>2016-03-07T15:18:21Z</time>
      </trkpt>
      <trkpt lat="48.21233" lon="-3.09477">
        <ele>297</ele>
        <time>2016-03-07T15:18:24Z</time>
      </trkpt>
      <trkpt lat="48.21231" lon="-3.09478">
        <ele>296</ele>
        <time>2016-03-07T15:18:26Z</time>
      </trkpt>
      <trkpt lat="48.21229" lon="-3.09479">
        <ele>296</ele>
        <time>2016-03-07T15:18:28Z</time>
      </trkpt>
      <trkpt lat="48.21227" lon="-3.0948">
        <ele>296</ele>
        <time>2016-03-07T15:18:30Z</time>
      </trkpt>
      <trkpt lat="48.21223" lon="-3.09481">
        <ele>296</ele>
        <time>2016-03-07T15:18:33Z</time>
      </trkpt>
      <trkpt lat="48.21221" lon="-3.09482">
        <ele>296</ele>
        <time>2016-03-07T15:18:35Z</time>
      </trkpt>
      <trkpt lat="48.21219" lon="-3.09483">
        <ele>297</ele>
        <time>2016-03-07T15:18:37Z</time>
      </trkpt>
      <trkpt lat="48.21217" lon="-3.09484">
        <ele>297</ele>
        <time>2016-03-07T15:18:39Z</time>
      </trkpt>
      <trkpt lat="48.21215" lon="-3.09484">
        <ele>297</ele>
        <time>2016-03-07T15:18:41Z</time>
      </trkpt>
      <trkpt lat="48.21212" lon="-3.09485">
        <ele>297</ele>
        <time>2016-03-07T15:18:43Z</time>
      </trkpt>
      <trkpt lat="48.21209" lon="-3.09486">
        <ele>297</ele>
        <time>2016-03-07T15:18:46Z</time>
      </trkpt>
      <trkpt lat="48.21207" lon="-3.09487">
        <ele>297</ele>
        <time>2016-03-07T15:18:48Z</time>
      </trkpt>
      <trkpt lat="48.21205" lon="-3.09487">
        <ele>297</ele>
        <time>2016-03-07T15:18:50Z</time>
      </trkpt>
      <trkpt lat="48.21201" lon="-3.09487">
        <ele>297</ele>
        <time>2016-03-07T15:18:52Z</time>
      </trkpt>
      <trkpt lat="48.21198" lon="-3.09488">
        <ele>297</ele>
        <time>2016-03-07T15:18:55Z</time>
      </trkpt>
      <trkpt lat="48.21195" lon="-3.09489">
        <ele>297</ele>
        <time>2016-03-07T15:18:57Z</time>
      </trkpt>
      <trkpt lat="48.21193" lon="-3.09489">
        <ele>297</ele>
        <time>2016-03-07T15:18:59Z</time>
      </trkpt>
      <trkpt lat="48.21191" lon="-3.0949">
        <ele>297</ele>
        <time>2016-03-07T15:19:01Z</time>
      </trkpt>
      <trkpt lat="48.2119" lon="-3.0949">
        <ele>297</ele>
        <time>2016-03-07T15:19:04Z</time>
      </trkpt>
      <trkpt lat="48.21188" lon="-3.09491">
        <ele>297</ele>
        <time>2016-03-07T15:19:06Z</time>
      </trkpt>
      <trkpt lat="48.21185" lon="-3.09492">
        <ele>297</ele>
        <time>2016-03-07T15:19:09Z</time>
      </trkpt>
      <trkpt lat="48.21183" lon="-3.09493">
        <ele>297</ele>
        <time>2016-03-07T15:19:11Z</time>
      </trkpt>
      <trkpt lat="48.2118" lon="-3.09494">
        <ele>297</ele>
        <time>2016-03-07T15:19:14Z</time>
      </trkpt>
      <trkpt lat="48.21177" lon="-3.09494">
        <ele>297</ele>
        <time>2016-03-07T15:19:17Z</time>
      </trkpt>
      <trkpt lat="48.21174" lon="-3.09495">
        <ele>297</ele>
        <time>2016-03-07T15:19:19Z</time>
      </trkpt>
      <trkpt lat="48.21172" lon="-3.09496">
        <ele>297</ele>
        <time>2016-03-07T15:19:21Z</time>
      </trkpt>
      <trkpt lat="48.21169" lon="-3.09496">
        <ele>297</ele>
        <time>2016-03-07T15:19:24Z</time>
      </trkpt>
      <trkpt lat="48.21166" lon="-3.09497">
        <ele>297</ele>
        <time>2016-03-07T15:19:27Z</time>
      </trkpt>
      <trkpt lat="48.21164" lon="-3.09497">
        <ele>297</ele>
        <time>2016-03-07T15:19:30Z</time>
      </trkpt>
      <trkpt lat="48.21162" lon="-3.09497">
        <ele>297</ele>
        <time>2016-03-07T15:19:34Z</time>
      </trkpt>
      <trkpt lat="48.21162" lon="-3.09498">
        <ele>297</ele>
        <time>2016-03-07T15:19:37Z</time>
      </trkpt>
      <trkpt lat="48.2116" lon="-3.09498">
        <ele>297</ele>
        <time>2016-03-07T15:19:39Z</time>
      </trkpt>
      <trkpt lat="48.21158" lon="-3.09497">
        <ele>297</ele>
        <time>2016-03-07T15:19:42Z</time>
      </trkpt>
      <trkpt lat="48.21156" lon="-3.09497">
        <ele>297</ele>
        <time>2016-03-07T15:19:44Z</time>
      </trkpt>
      <trkpt lat="48.21154" lon="-3.09497">
        <ele>297</ele>
        <time>2016-03-07T15:19:47Z</time>
      </trkpt>
      <trkpt lat="48.21151" lon="-3.09496">
        <ele>297</ele>
        <time>2016-03-07T15:19:50Z</time>
      </trkpt>
      <trkpt lat="48.2115" lon="-3.09496">
        <ele>297</ele>
        <time>2016-03-07T15:19:52Z</time>
      </trkpt>
      <trkpt lat="48.21149" lon="-3.09493">
        <ele>297</ele>
        <time>2016-03-07T15:19:54Z</time>
      </trkpt>
      <trkpt lat="48.21148" lon="-3.0949">
        <ele>297</ele>
        <time>2016-03-07T15:19:56Z</time>
      </trkpt>
      <trkpt lat="48.21147" lon="-3.09487">
        <ele>296</ele>
        <time>2016-03-07T15:19:59Z</time>
      </trkpt>
      <trkpt lat="48.21146" lon="-3.09484">
        <ele>296</ele>
        <time>2016-03-07T15:20:01Z</time>
      </trkpt>
      <trkpt lat="48.21146" lon="-3.09481">
        <ele>295</ele>
        <time>2016-03-07T15:20:04Z</time>
      </trkpt>
      <trkpt lat="48.21146" lon="-3.09479">
        <ele>295</ele>
        <time>2016-03-07T15:20:06Z</time>
      </trkpt>
      <trkpt lat="48.21146" lon="-3.09479">
        <ele>295</ele>
        <time>2016-03-07T15:20:09Z</time>
      </trkpt>
      <trkpt lat="48.21146" lon="-3.09478">
        <ele>295</ele>
        <time>2016-03-07T15:20:11Z</time>
      </trkpt>
      <trkpt lat="48.21146" lon="-3.09477">
        <ele>295</ele>
        <time>2016-03-07T15:20:14Z</time>
      </trkpt>
      <trkpt lat="48.21146" lon="-3.09477">
        <ele>295</ele>
        <time>2016-03-07T15:20:16Z</time>
      </trkpt>
      <trkpt lat="48.21146" lon="-3.09477">
        <ele>295</ele>
        <time>2016-03-07T15:20:18Z</time>
      </trkpt>
      <trkpt lat="48.21146" lon="-3.09476">
        <ele>295</ele>
        <time>2016-03-07T15:20:21Z</time>
      </trkpt>
      <trkpt lat="48.21147" lon="-3.09476">
        <ele>295</ele>
        <time>2016-03-07T15:20:23Z</time>
      </trkpt>
      <trkpt lat="48.21147" lon="-3.09475">
        <ele>295</ele>
        <time>2016-03-07T15:20:26Z</time>
      </trkpt>
      <trkpt lat="48.21147" lon="-3.09475">
        <ele>295</ele>
        <time>2016-03-07T15:20:29Z</time>
      </trkpt>
      <trkpt lat="48.21147" lon="-3.09474">
        <ele>295</ele>
        <time>2016-03-07T15:20:32Z</time>
      </trkpt>
      <trkpt lat="48.21147" lon="-3.09473">
        <ele>295</ele>
        <time>2016-03-07T15:20:36Z</time>
      </trkpt>
      <trkpt lat="48.21147" lon="-3.09473">
        <ele>295</ele>
        <time>2016-03-07T15:20:39Z</time>
      </trkpt>
      <trkpt lat="48.21147" lon="-3.09473">
        <ele>295</ele>
        <time>2016-03-07T15:20:42Z</time>
      </trkpt>
      <trkpt lat="48.21147" lon="-3.09472">
        <ele>295</ele>
        <time>2016-03-07T15:20:44Z</time>
      </trkpt>
      <trkpt lat="48.21147" lon="-3.09472">
        <ele>295</ele>
        <time>2016-03-07T15:20:47Z</time>
      </trkpt>
      <trkpt lat="48.21148" lon="-3.09472">
        <ele>295</ele>
        <time>2016-03-07T15:20:49Z</time>
      </trkpt>
      <trkpt lat="48.21148" lon="-3.09473">
        <ele>295</ele>
        <time>2016-03-07T15:20:52Z</time>
      </trkpt>
      <trkpt lat="48.21148" lon="-3.09473">
        <ele>295</ele>
        <time>2016-03-07T15:20:54Z</time>
      </trkpt>
      <trkpt lat="48.21148" lon="-3.09477">
        <ele>295</ele>
        <time>2016-03-07T15:20:57Z</time>
      </trkpt>
      <trkpt lat="48.21148" lon="-3.0948">
        <ele>296</ele>
        <time>2016-03-07T15:21:00Z</time>
      </trkpt>
      <trkpt lat="48.21147" lon="-3.09483">
        <ele>296</ele>
        <time>2016-03-07T15:21:02Z</time>
      </trkpt>
      <trkpt lat="48.21147" lon="-3.09486">
        <ele>296</ele>
        <time>2016-03-07T15:21:04Z</time>
      </trkpt>
      <trkpt lat="48.21146" lon="-3.09489">
        <ele>297</ele>
        <time>2016-03-07T15:21:07Z</time>
      </trkpt>
      <trkpt lat="48.21145" lon="-3.09492">
        <ele>297</ele>
        <time>2016-03-07T15:21:10Z</time>
      </trkpt>
      <trkpt lat="48.21144" lon="-3.09493">
        <ele>297</ele>
        <time>2016-03-07T15:21:13Z</time>
      </trkpt>
      <trkpt lat="48.21144" lon="-3.09494">
        <ele>297</ele>
        <time>2016-03-07T15:21:15Z</time>
      </trkpt>
      <trkpt lat="48.21143" lon="-3.09495">
        <ele>297</ele>
        <time>2016-03-07T15:21:18Z</time>
      </trkpt>
      <trkpt lat="48.21141" lon="-3.09497">
        <ele>297</ele>
        <time>2016-03-07T15:21:21Z</time>
      </trkpt>
      <trkpt lat="48.21139" lon="-3.09497">
        <ele>297</ele>
        <time>2016-03-07T15:21:24Z</time>
      </trkpt>
      <trkpt lat="48.21139" lon="-3.09498">
        <ele>297</ele>
        <time>2016-03-07T15:21:27Z</time>
      </trkpt>
      <trkpt lat="48.21139" lon="-3.09499">
        <ele>297</ele>
        <time>2016-03-07T15:21:30Z</time>
      </trkpt>
      <trkpt lat="48.21139" lon="-3.095">
        <ele>297</ele>
        <time>2016-03-07T15:21:32Z</time>
      </trkpt>
      <trkpt lat="48.21139" lon="-3.095">
        <ele>297</ele>
        <time>2016-03-07T15:21:35Z</time>
      </trkpt>
      <trkpt lat="48.21138" lon="-3.09502">
        <ele>297</ele>
        <time>2016-03-07T15:21:38Z</time>
      </trkpt>
      <trkpt lat="48.21138" lon="-3.09502">
        <ele>297</ele>
        <time>2016-03-07T15:21:40Z</time>
      </trkpt>
      <trkpt lat="48.21138" lon="-3.09503">
        <ele>297</ele>
        <time>2016-03-07T15:21:42Z</time>
      </trkpt>
      <trkpt lat="48.21138" lon="-3.09503">
        <ele>297</ele>
        <time>2016-03-07T15:21:45Z</time>
      </trkpt>
      <trkpt lat="48.21137" lon="-3.09503">
        <ele>297</ele>
        <time>2016-03-07T15:21:47Z</time>
      </trkpt>
      <trkpt lat="48.21137" lon="-3.09504">
        <ele>297</ele>
        <time>2016-03-07T15:21:50Z</time>
      </trkpt>
      <trkpt lat="48.21136" lon="-3.09504">
        <ele>297</ele>
        <time>2016-03-07T15:21:53Z</time>
      </trkpt>
      <trkpt lat="48.21136" lon="-3.09504">
        <ele>297</ele>
        <time>2016-03-07T15:21:56Z</time>
      </trkpt>
      <trkpt lat="48.21135" lon="-3.09505">
        <ele>297</ele>
        <time>2016-03-07T15:21:59Z</time>
      </trkpt>
      <trkpt lat="48.21135" lon="-3.09505">
        <ele>297</ele>
        <time>2016-03-07T15:22:01Z</time>
      </trkpt>
      <trkpt lat="48.21135" lon="-3.09506">
        <ele>297</ele>
        <time>2016-03-07T15:22:05Z</time>
      </trkpt>
      <trkpt lat="48.21135" lon="-3.09506">
        <ele>297</ele>
        <time>2016-03-07T15:22:08Z</time>
      </trkpt>
      <trkpt lat="48.21135" lon="-3.09505">
        <ele>297</ele>
        <time>2016-03-07T15:22:10Z</time>
      </trkpt>
      <trkpt lat="48.21134" lon="-3.09505">
        <ele>297</ele>
        <time>2016-03-07T15:22:13Z</time>
      </trkpt>
      <trkpt lat="48.21134" lon="-3.09505">
        <ele>297</ele>
        <time>2016-03-07T15:22:15Z</time>
      </trkpt>
      <trkpt lat="48.21134" lon="-3.09506">
        <ele>297</ele>
        <time>2016-03-07T15:22:18Z</time>
      </trkpt>
      <trkpt lat="48.21133" lon="-3.09507">
        <ele>297</ele>
        <time>2016-03-07T15:22:20Z</time>
      </trkpt>
      <trkpt lat="48.21131" lon="-3.09509">
        <ele>297</ele>
        <time>2016-03-07T15:22:23Z</time>
      </trkpt>
      <trkpt lat="48.2113" lon="-3.0951">
        <ele>297</ele>
        <time>2016-03-07T15:22:25Z</time>
      </trkpt>
      <trkpt lat="48.21127" lon="-3.0951">
        <ele>298</ele>
        <time>2016-03-07T15:22:28Z</time>
      </trkpt>
      <trkpt lat="48.21125" lon="-3.09511">
        <ele>298</ele>
        <time>2016-03-07T15:22:30Z</time>
      </trkpt>
      <trkpt lat="48.21124" lon="-3.09512">
        <ele>298</ele>
        <time>2016-03-07T15:22:32Z</time>
      </trkpt>
      <trkpt lat="48.21121" lon="-3.09512">
        <ele>298</ele>
        <time>2016-03-07T15:22:35Z</time>
      </trkpt>
      <trkpt lat="48.21119" lon="-3.09514">
        <ele>298</ele>
        <time>2016-03-07T15:22:38Z</time>
      </trkpt>
      <trkpt lat="48.21117" lon="-3.09516">
        <ele>299</ele>
        <time>2016-03-07T15:22:40Z</time>
      </trkpt>
      <trkpt lat="48.21115" lon="-3.09517">
        <ele>299</ele>
        <time>2016-03-07T15:22:42Z</time>
      </trkpt>
      <trkpt lat="48.21112" lon="-3.0952">
        <ele>299</ele>
        <time>2016-03-07T15:22:45Z</time>
      </trkpt>
      <trkpt lat="48.21109" lon="-3.09522">
        <ele>300</ele>
        <time>2016-03-07T15:22:48Z</time>
      </trkpt>
      <trkpt lat="48.21107" lon="-3.09524">
        <ele>299</ele>
        <time>2016-03-07T15:22:50Z</time>
      </trkpt>
      <trkpt lat="48.21105" lon="-3.09526">
        <ele>300</ele>
        <time>2016-03-07T15:22:52Z</time>
      </trkpt>
      <trkpt lat="48.21102" lon="-3.09529">
        <ele>300</ele>
        <time>2016-03-07T15:22:55Z</time>
      </trkpt>
      <trkpt lat="48.211" lon="-3.09532">
        <ele>300</ele>
        <time>2016-03-07T15:22:57Z</time>
      </trkpt>
      <trkpt lat="48.21098" lon="-3.09534">
        <ele>301</ele>
        <time>2016-03-07T15:22:59Z</time>
      </trkpt>
      <trkpt lat="48.21097" lon="-3.09539">
        <ele>301</ele>
        <time>2016-03-07T15:23:02Z</time>
      </trkpt>
      <trkpt lat="48.21096" lon="-3.09542">
        <ele>301</ele>
        <time>2016-03-07T15:23:04Z</time>
      </trkpt>
      <trkpt lat="48.21094" lon="-3.09547">
        <ele>302</ele>
        <time>2016-03-07T15:23:07Z</time>
      </trkpt>
      <trkpt lat="48.21093" lon="-3.0955">
        <ele>302</ele>
        <time>2016-03-07T15:23:09Z</time>
      </trkpt>
      <trkpt lat="48.21091" lon="-3.09554">
        <ele>302</ele>
        <time>2016-03-07T15:23:12Z</time>
      </trkpt>
      <trkpt lat="48.2109" lon="-3.09557">
        <ele>302</ele>
        <time>2016-03-07T15:23:14Z</time>
      </trkpt>
      <trkpt lat="48.21088" lon="-3.0956">
        <ele>302</ele>
        <time>2016-03-07T15:23:16Z</time>
      </trkpt>
      <trkpt lat="48.21087" lon="-3.09565">
        <ele>303</ele>
        <time>2016-03-07T15:23:19Z</time>
      </trkpt>
      <trkpt lat="48.21086" lon="-3.09568">
        <ele>303</ele>
        <time>2016-03-07T15:23:21Z</time>
      </trkpt>
      <trkpt lat="48.21085" lon="-3.09572">
        <ele>303</ele>
        <time>2016-03-07T15:23:23Z</time>
      </trkpt>
      <trkpt lat="48.21084" lon="-3.09575">
        <ele>303</ele>
        <time>2016-03-07T15:23:26Z</time>
      </trkpt>
      <trkpt lat="48.21083" lon="-3.09579">
        <ele>304</ele>
        <time>2016-03-07T15:23:28Z</time>
      </trkpt>
      <trkpt lat="48.21082" lon="-3.09583">
        <ele>304</ele>
        <time>2016-03-07T15:23:30Z</time>
      </trkpt>
      <trkpt lat="48.21082" lon="-3.09586">
        <ele>304</ele>
        <time>2016-03-07T15:23:32Z</time>
      </trkpt>
      <trkpt lat="48.21081" lon="-3.09591">
        <ele>304</ele>
        <time>2016-03-07T15:23:35Z</time>
      </trkpt>
      <trkpt lat="48.2108" lon="-3.09595">
        <ele>305</ele>
        <time>2016-03-07T15:23:38Z</time>
      </trkpt>
      <trkpt lat="48.21079" lon="-3.09599">
        <ele>305</ele>
        <time>2016-03-07T15:23:40Z</time>
      </trkpt>
      <trkpt lat="48.21078" lon="-3.09604">
        <ele>305</ele>
        <time>2016-03-07T15:23:43Z</time>
      </trkpt>
      <trkpt lat="48.21077" lon="-3.09609">
        <ele>306</ele>
        <time>2016-03-07T15:23:46Z</time>
      </trkpt>
      <trkpt lat="48.21076" lon="-3.09612">
        <ele>306</ele>
        <time>2016-03-07T15:23:48Z</time>
      </trkpt>
      <trkpt lat="48.21075" lon="-3.09616">
        <ele>306</ele>
        <time>2016-03-07T15:23:51Z</time>
      </trkpt>
      <trkpt lat="48.21074" lon="-3.09619">
        <ele>306</ele>
        <time>2016-03-07T15:23:53Z</time>
      </trkpt>
      <trkpt lat="48.21074" lon="-3.09622">
        <ele>307</ele>
        <time>2016-03-07T15:23:55Z</time>
      </trkpt>
      <trkpt lat="48.21073" lon="-3.09627">
        <ele>308</ele>
        <time>2016-03-07T15:23:58Z</time>
      </trkpt>
      <trkpt lat="48.21072" lon="-3.0963">
        <ele>308</ele>
        <time>2016-03-07T15:24:00Z</time>
      </trkpt>
      <trkpt lat="48.21072" lon="-3.09633">
        <ele>308</ele>
        <time>2016-03-07T15:24:02Z</time>
      </trkpt>
      <trkpt lat="48.21071" lon="-3.09637">
        <ele>308</ele>
        <time>2016-03-07T15:24:05Z</time>
      </trkpt>
      <trkpt lat="48.21069" lon="-3.09639">
        <ele>309</ele>
        <time>2016-03-07T15:24:08Z</time>
      </trkpt>
      <trkpt lat="48.21068" lon="-3.09639">
        <ele>309</ele>
        <time>2016-03-07T15:24:10Z</time>
      </trkpt>
      <trkpt lat="48.21067" lon="-3.0964">
        <ele>309</ele>
        <time>2016-03-07T15:24:13Z</time>
      </trkpt>
      <trkpt lat="48.21067" lon="-3.09641">
        <ele>309</ele>
        <time>2016-03-07T15:24:16Z</time>
      </trkpt>
      <trkpt lat="48.21069" lon="-3.09645">
        <ele>309</ele>
        <time>2016-03-07T15:24:19Z</time>
      </trkpt>
      <trkpt lat="48.2107" lon="-3.09647">
        <ele>309</ele>
        <time>2016-03-07T15:24:21Z</time>
      </trkpt>
      <trkpt lat="48.21069" lon="-3.09651">
        <ele>310</ele>
        <time>2016-03-07T15:24:24Z</time>
      </trkpt>
      <trkpt lat="48.21069" lon="-3.09655">
        <ele>310</ele>
        <time>2016-03-07T15:24:26Z</time>
      </trkpt>
      <trkpt lat="48.2107" lon="-3.09658">
        <ele>311</ele>
        <time>2016-03-07T15:24:28Z</time>
      </trkpt>
      <trkpt lat="48.2107" lon="-3.09661">
        <ele>311</ele>
        <time>2016-03-07T15:24:30Z</time>
      </trkpt>
      <trkpt lat="48.2107" lon="-3.09666">
        <ele>311</ele>
        <time>2016-03-07T15:24:33Z</time>
      </trkpt>
      <trkpt lat="48.2107" lon="-3.09669">
        <ele>311</ele>
        <time>2016-03-07T15:24:35Z</time>
      </trkpt>
      <trkpt lat="48.2107" lon="-3.09674">
        <ele>312</ele>
        <time>2016-03-07T15:24:38Z</time>
      </trkpt>
      <trkpt lat="48.2107" lon="-3.09679">
        <ele>312</ele>
        <time>2016-03-07T15:24:41Z</time>
      </trkpt>
      <trkpt lat="48.21069" lon="-3.09682">
        <ele>313</ele>
        <time>2016-03-07T15:24:43Z</time>
      </trkpt>
      <trkpt lat="48.21069" lon="-3.09687">
        <ele>313</ele>
        <time>2016-03-07T15:24:46Z</time>
      </trkpt>
      <trkpt lat="48.21069" lon="-3.09689">
        <ele>314</ele>
        <time>2016-03-07T15:24:48Z</time>
      </trkpt>
      <trkpt lat="48.2107" lon="-3.09693">
        <ele>313</ele>
        <time>2016-03-07T15:24:50Z</time>
      </trkpt>
      <trkpt lat="48.21071" lon="-3.09695">
        <ele>313</ele>
        <time>2016-03-07T15:24:52Z</time>
      </trkpt>
      <trkpt lat="48.21072" lon="-3.09698">
        <ele>313</ele>
        <time>2016-03-07T15:24:54Z</time>
      </trkpt>
      <trkpt lat="48.21073" lon="-3.097">
        <ele>312</ele>
        <time>2016-03-07T15:24:56Z</time>
      </trkpt>
      <trkpt lat="48.21075" lon="-3.09702">
        <ele>312</ele>
        <time>2016-03-07T15:24:58Z</time>
      </trkpt>
      <trkpt lat="48.21076" lon="-3.09704">
        <ele>313</ele>
        <time>2016-03-07T15:25:00Z</time>
      </trkpt>
      <trkpt lat="48.21076" lon="-3.09708">
        <ele>313</ele>
        <time>2016-03-07T15:25:03Z</time>
      </trkpt>
      <trkpt lat="48.21077" lon="-3.09712">
        <ele>313</ele>
        <time>2016-03-07T15:25:06Z</time>
      </trkpt>
      <trkpt lat="48.21077" lon="-3.09715">
        <ele>313</ele>
        <time>2016-03-07T15:25:09Z</time>
      </trkpt>
      <trkpt lat="48.21078" lon="-3.09719">
        <ele>313</ele>
        <time>2016-03-07T15:25:12Z</time>
      </trkpt>
      <trkpt lat="48.21078" lon="-3.09723">
        <ele>313</ele>
        <time>2016-03-07T15:25:15Z</time>
      </trkpt>
      <trkpt lat="48.21078" lon="-3.09727">
        <ele>314</ele>
        <time>2016-03-07T15:25:18Z</time>
      </trkpt>
      <trkpt lat="48.21078" lon="-3.0973">
        <ele>314</ele>
        <time>2016-03-07T15:25:20Z</time>
      </trkpt>
      <trkpt lat="48.21078" lon="-3.09732">
        <ele>315</ele>
        <time>2016-03-07T15:25:22Z</time>
      </trkpt>
      <trkpt lat="48.21078" lon="-3.09736">
        <ele>315</ele>
        <time>2016-03-07T15:25:25Z</time>
      </trkpt>
      <trkpt lat="48.21078" lon="-3.09739">
        <ele>315</ele>
        <time>2016-03-07T15:25:27Z</time>
      </trkpt>
      <trkpt lat="48.21078" lon="-3.09743">
        <ele>315</ele>
        <time>2016-03-07T15:25:30Z</time>
      </trkpt>
      <trkpt lat="48.21078" lon="-3.09747">
        <ele>316</ele>
        <time>2016-03-07T15:25:33Z</time>
      </trkpt>
      <trkpt lat="48.21079" lon="-3.0975">
        <ele>316</ele>
        <time>2016-03-07T15:25:35Z</time>
      </trkpt>
      <trkpt lat="48.21079" lon="-3.09755">
        <ele>316</ele>
        <time>2016-03-07T15:25:38Z</time>
      </trkpt>
      <trkpt lat="48.21079" lon="-3.09759">
        <ele>317</ele>
        <time>2016-03-07T15:25:41Z</time>
      </trkpt>
      <trkpt lat="48.2108" lon="-3.09762">
        <ele>317</ele>
        <time>2016-03-07T15:25:43Z</time>
      </trkpt>
      <trkpt lat="48.2108" lon="-3.09765">
        <ele>317</ele>
        <time>2016-03-07T15:25:45Z</time>
      </trkpt>
      <trkpt lat="48.2108" lon="-3.09769">
        <ele>317</ele>
        <time>2016-03-07T15:25:48Z</time>
      </trkpt>
      <trkpt lat="48.21081" lon="-3.09772">
        <ele>318</ele>
        <time>2016-03-07T15:25:50Z</time>
      </trkpt>
      <trkpt lat="48.21081" lon="-3.09776">
        <ele>317</ele>
        <time>2016-03-07T15:25:52Z</time>
      </trkpt>
      <trkpt lat="48.21081" lon="-3.09782">
        <ele>318</ele>
        <time>2016-03-07T15:25:55Z</time>
      </trkpt>
      <trkpt lat="48.21081" lon="-3.09785">
        <ele>318</ele>
        <time>2016-03-07T15:25:57Z</time>
      </trkpt>
      <trkpt lat="48.2108" lon="-3.09791">
        <ele>318</ele>
        <time>2016-03-07T15:26:00Z</time>
      </trkpt>
      <trkpt lat="48.2108" lon="-3.09795">
        <ele>318</ele>
        <time>2016-03-07T15:26:02Z</time>
      </trkpt>
      <trkpt lat="48.21079" lon="-3.098">
        <ele>318</ele>
        <time>2016-03-07T15:26:05Z</time>
      </trkpt>
      <trkpt lat="48.21079" lon="-3.09805">
        <ele>318</ele>
        <time>2016-03-07T15:26:08Z</time>
      </trkpt>
      <trkpt lat="48.21079" lon="-3.09809">
        <ele>318</ele>
        <time>2016-03-07T15:26:11Z</time>
      </trkpt>
      <trkpt lat="48.21079" lon="-3.09811">
        <ele>318</ele>
        <time>2016-03-07T15:26:13Z</time>
      </trkpt>
      <trkpt lat="48.21079" lon="-3.09815">
        <ele>318</ele>
        <time>2016-03-07T15:26:15Z</time>
      </trkpt>
      <trkpt lat="48.21079" lon="-3.09818">
        <ele>319</ele>
        <time>2016-03-07T15:26:17Z</time>
      </trkpt>
      <trkpt lat="48.21079" lon="-3.09823">
        <ele>319</ele>
        <time>2016-03-07T15:26:20Z</time>
      </trkpt>
      <trkpt lat="48.21078" lon="-3.09826">
        <ele>319</ele>
        <time>2016-03-07T15:26:22Z</time>
      </trkpt>
      <trkpt lat="48.21077" lon="-3.09829">
        <ele>319</ele>
        <time>2016-03-07T15:26:25Z</time>
      </trkpt>
      <trkpt lat="48.21077" lon="-3.09832">
        <ele>319</ele>
        <time>2016-03-07T15:26:27Z</time>
      </trkpt>
      <trkpt lat="48.21077" lon="-3.09836">
        <ele>319</ele>
        <time>2016-03-07T15:26:29Z</time>
      </trkpt>
      <trkpt lat="48.21076" lon="-3.0984">
        <ele>319</ele>
        <time>2016-03-07T15:26:32Z</time>
      </trkpt>
      <trkpt lat="48.21075" lon="-3.09845">
        <ele>319</ele>
        <time>2016-03-07T15:26:35Z</time>
      </trkpt>
      <trkpt lat="48.21075" lon="-3.0985">
        <ele>320</ele>
        <time>2016-03-07T15:26:38Z</time>
      </trkpt>
      <trkpt lat="48.21075" lon="-3.09853">
        <ele>320</ele>
        <time>2016-03-07T15:26:40Z</time>
      </trkpt>
      <trkpt lat="48.21075" lon="-3.09856">
        <ele>320</ele>
        <time>2016-03-07T15:26:42Z</time>
      </trkpt>
      <trkpt lat="48.21075" lon="-3.09862">
        <ele>321</ele>
        <time>2016-03-07T15:26:45Z</time>
      </trkpt>
      <trkpt lat="48.21075" lon="-3.09867">
        <ele>321</ele>
        <time>2016-03-07T15:26:48Z</time>
      </trkpt>
      <trkpt lat="48.21075" lon="-3.0987">
        <ele>321</ele>
        <time>2016-03-07T15:26:50Z</time>
      </trkpt>
      <trkpt lat="48.21074" lon="-3.09876">
        <ele>321</ele>
        <time>2016-03-07T15:26:53Z</time>
      </trkpt>
      <trkpt lat="48.21074" lon="-3.09881">
        <ele>321</ele>
        <time>2016-03-07T15:26:56Z</time>
      </trkpt>
      <trkpt lat="48.21074" lon="-3.09885">
        <ele>321</ele>
        <time>2016-03-07T15:26:58Z</time>
      </trkpt>
      <trkpt lat="48.21074" lon="-3.09888">
        <ele>321</ele>
        <time>2016-03-07T15:27:00Z</time>
      </trkpt>
      <trkpt lat="48.21074" lon="-3.09894">
        <ele>321</ele>
        <time>2016-03-07T15:27:03Z</time>
      </trkpt>
      <trkpt lat="48.21075" lon="-3.09897">
        <ele>321</ele>
        <time>2016-03-07T15:27:05Z</time>
      </trkpt>
      <trkpt lat="48.21075" lon="-3.09901">
        <ele>321</ele>
        <time>2016-03-07T15:27:07Z</time>
      </trkpt>
      <trkpt lat="48.21076" lon="-3.09904">
        <ele>321</ele>
        <time>2016-03-07T15:27:09Z</time>
      </trkpt>
      <trkpt lat="48.21076" lon="-3.09908">
        <ele>321</ele>
        <time>2016-03-07T15:27:11Z</time>
      </trkpt>
      <trkpt lat="48.21077" lon="-3.09913">
        <ele>321</ele>
        <time>2016-03-07T15:27:14Z</time>
      </trkpt>
      <trkpt lat="48.21077" lon="-3.09916">
        <ele>321</ele>
        <time>2016-03-07T15:27:16Z</time>
      </trkpt>
      <trkpt lat="48.21078" lon="-3.0992">
        <ele>321</ele>
        <time>2016-03-07T15:27:19Z</time>
      </trkpt>
      <trkpt lat="48.21077" lon="-3.09924">
        <ele>321</ele>
        <time>2016-03-07T15:27:22Z</time>
      </trkpt>
      <trkpt lat="48.21077" lon="-3.09928">
        <ele>321</ele>
        <time>2016-03-07T15:27:25Z</time>
      </trkpt>
      <trkpt lat="48.21077" lon="-3.09933">
        <ele>321</ele>
        <time>2016-03-07T15:27:28Z</time>
      </trkpt>
      <trkpt lat="48.21077" lon="-3.09939">
        <ele>321</ele>
        <time>2016-03-07T15:27:31Z</time>
      </trkpt>
      <trkpt lat="48.21077" lon="-3.09942">
        <ele>322</ele>
        <time>2016-03-07T15:27:33Z</time>
      </trkpt>
      <trkpt lat="48.21078" lon="-3.09946">
        <ele>322</ele>
        <time>2016-03-07T15:27:35Z</time>
      </trkpt>
      <trkpt lat="48.21079" lon="-3.0995">
        <ele>322</ele>
        <time>2016-03-07T15:27:37Z</time>
      </trkpt>
      <trkpt lat="48.21079" lon="-3.09954">
        <ele>322</ele>
        <time>2016-03-07T15:27:39Z</time>
      </trkpt>
      <trkpt lat="48.2108" lon="-3.09957">
        <ele>322</ele>
        <time>2016-03-07T15:27:41Z</time>
      </trkpt>
      <trkpt lat="48.2108" lon="-3.09961">
        <ele>322</ele>
        <time>2016-03-07T15:27:43Z</time>
      </trkpt>
      <trkpt lat="48.21081" lon="-3.09967">
        <ele>322</ele>
        <time>2016-03-07T15:27:46Z</time>
      </trkpt>
      <trkpt lat="48.21082" lon="-3.09971">
        <ele>322</ele>
        <time>2016-03-07T15:27:48Z</time>
      </trkpt>
      <trkpt lat="48.21083" lon="-3.09975">
        <ele>322</ele>
        <time>2016-03-07T15:27:50Z</time>
      </trkpt>
      <trkpt lat="48.21084" lon="-3.09979">
        <ele>322</ele>
        <time>2016-03-07T15:27:52Z</time>
      </trkpt>
      <trkpt lat="48.21085" lon="-3.09985">
        <ele>322</ele>
        <time>2016-03-07T15:27:55Z</time>
      </trkpt>
      <trkpt lat="48.21086" lon="-3.09989">
        <ele>322</ele>
        <time>2016-03-07T15:27:57Z</time>
      </trkpt>
      <trkpt lat="48.21087" lon="-3.09994">
        <ele>322</ele>
        <time>2016-03-07T15:28:00Z</time>
      </trkpt>
      <trkpt lat="48.21088" lon="-3.09997">
        <ele>322</ele>
        <time>2016-03-07T15:28:02Z</time>
      </trkpt>
      <trkpt lat="48.21089" lon="-3.1">
        <ele>322</ele>
        <time>2016-03-07T15:28:04Z</time>
      </trkpt>
      <trkpt lat="48.2109" lon="-3.10005">
        <ele>322</ele>
        <time>2016-03-07T15:28:07Z</time>
      </trkpt>
      <trkpt lat="48.2109" lon="-3.10008">
        <ele>322</ele>
        <time>2016-03-07T15:28:09Z</time>
      </trkpt>
      <trkpt lat="48.2109" lon="-3.10013">
        <ele>322</ele>
        <time>2016-03-07T15:28:12Z</time>
      </trkpt>
      <trkpt lat="48.21091" lon="-3.10018">
        <ele>322</ele>
        <time>2016-03-07T15:28:15Z</time>
      </trkpt>
      <trkpt lat="48.21092" lon="-3.10023">
        <ele>322</ele>
        <time>2016-03-07T15:28:18Z</time>
      </trkpt>
      <trkpt lat="48.21092" lon="-3.10027">
        <ele>322</ele>
        <time>2016-03-07T15:28:20Z</time>
      </trkpt>
      <trkpt lat="48.21092" lon="-3.10029">
        <ele>322</ele>
        <time>2016-03-07T15:28:22Z</time>
      </trkpt>
      <trkpt lat="48.21092" lon="-3.10033">
        <ele>322</ele>
        <time>2016-03-07T15:28:24Z</time>
      </trkpt>
      <trkpt lat="48.21092" lon="-3.10038">
        <ele>322</ele>
        <time>2016-03-07T15:28:27Z</time>
      </trkpt>
      <trkpt lat="48.21093" lon="-3.10041">
        <ele>321</ele>
        <time>2016-03-07T15:28:29Z</time>
      </trkpt>
      <trkpt lat="48.21093" lon="-3.10046">
        <ele>322</ele>
        <time>2016-03-07T15:28:32Z</time>
      </trkpt>
      <trkpt lat="48.21093" lon="-3.10051">
        <ele>322</ele>
        <time>2016-03-07T15:28:35Z</time>
      </trkpt>
      <trkpt lat="48.21093" lon="-3.10054">
        <ele>322</ele>
        <time>2016-03-07T15:28:37Z</time>
      </trkpt>
      <trkpt lat="48.21093" lon="-3.10059">
        <ele>322</ele>
        <time>2016-03-07T15:28:40Z</time>
      </trkpt>
      <trkpt lat="48.21093" lon="-3.10062">
        <ele>322</ele>
        <time>2016-03-07T15:28:42Z</time>
      </trkpt>
      <trkpt lat="48.21094" lon="-3.10064">
        <ele>322</ele>
        <time>2016-03-07T15:28:44Z</time>
      </trkpt>
      <trkpt lat="48.21094" lon="-3.10068">
        <ele>322</ele>
        <time>2016-03-07T15:28:47Z</time>
      </trkpt>
      <trkpt lat="48.21095" lon="-3.10074">
        <ele>321</ele>
        <time>2016-03-07T15:28:50Z</time>
      </trkpt>
      <trkpt lat="48.21095" lon="-3.10077">
        <ele>322</ele>
        <time>2016-03-07T15:28:52Z</time>
      </trkpt>
      <trkpt lat="48.21096" lon="-3.10081">
        <ele>322</ele>
        <time>2016-03-07T15:28:55Z</time>
      </trkpt>
      <trkpt lat="48.21095" lon="-3.10084">
        <ele>322</ele>
        <time>2016-03-07T15:28:57Z</time>
      </trkpt>
      <trkpt lat="48.21095" lon="-3.10087">
        <ele>322</ele>
        <time>2016-03-07T15:28:59Z</time>
      </trkpt>
      <trkpt lat="48.21095" lon="-3.10092">
        <ele>321</ele>
        <time>2016-03-07T15:29:02Z</time>
      </trkpt>
      <trkpt lat="48.21096" lon="-3.10097">
        <ele>321</ele>
        <time>2016-03-07T15:29:05Z</time>
      </trkpt>
      <trkpt lat="48.21096" lon="-3.101">
        <ele>321</ele>
        <time>2016-03-07T15:29:07Z</time>
      </trkpt>
      <trkpt lat="48.21096" lon="-3.10106">
        <ele>321</ele>
        <time>2016-03-07T15:29:10Z</time>
      </trkpt>
      <trkpt lat="48.21097" lon="-3.1011">
        <ele>321</ele>
        <time>2016-03-07T15:29:13Z</time>
      </trkpt>
      <trkpt lat="48.21098" lon="-3.10114">
        <ele>321</ele>
        <time>2016-03-07T15:29:15Z</time>
      </trkpt>
      <trkpt lat="48.21098" lon="-3.10119">
        <ele>322</ele>
        <time>2016-03-07T15:29:18Z</time>
      </trkpt>
      <trkpt lat="48.21098" lon="-3.10125">
        <ele>322</ele>
        <time>2016-03-07T15:29:21Z</time>
      </trkpt>
      <trkpt lat="48.21099" lon="-3.10129">
        <ele>321</ele>
        <time>2016-03-07T15:29:23Z</time>
      </trkpt>
      <trkpt lat="48.21099" lon="-3.10132">
        <ele>321</ele>
        <time>2016-03-07T15:29:25Z</time>
      </trkpt>
      <trkpt lat="48.21099" lon="-3.10136">
        <ele>321</ele>
        <time>2016-03-07T15:29:27Z</time>
      </trkpt>
      <trkpt lat="48.21099" lon="-3.10141">
        <ele>322</ele>
        <time>2016-03-07T15:29:30Z</time>
      </trkpt>
      <trkpt lat="48.211" lon="-3.10146">
        <ele>322</ele>
        <time>2016-03-07T15:29:33Z</time>
      </trkpt>
      <trkpt lat="48.211" lon="-3.1015">
        <ele>322</ele>
        <time>2016-03-07T15:29:35Z</time>
      </trkpt>
      <trkpt lat="48.211" lon="-3.10153">
        <ele>322</ele>
        <time>2016-03-07T15:29:37Z</time>
      </trkpt>
      <trkpt lat="48.21101" lon="-3.10156">
        <ele>322</ele>
        <time>2016-03-07T15:29:39Z</time>
      </trkpt>
      <trkpt lat="48.21101" lon="-3.1016">
        <ele>322</ele>
        <time>2016-03-07T15:29:41Z</time>
      </trkpt>
      <trkpt lat="48.21101" lon="-3.10164">
        <ele>321</ele>
        <time>2016-03-07T15:29:43Z</time>
      </trkpt>
      <trkpt lat="48.21101" lon="-3.10167">
        <ele>322</ele>
        <time>2016-03-07T15:29:45Z</time>
      </trkpt>
      <trkpt lat="48.21101" lon="-3.10172">
        <ele>322</ele>
        <time>2016-03-07T15:29:48Z</time>
      </trkpt>
      <trkpt lat="48.21102" lon="-3.10175">
        <ele>322</ele>
        <time>2016-03-07T15:29:50Z</time>
      </trkpt>
      <trkpt lat="48.21103" lon="-3.10179">
        <ele>322</ele>
        <time>2016-03-07T15:29:52Z</time>
      </trkpt>
      <trkpt lat="48.21103" lon="-3.10182">
        <ele>321</ele>
        <time>2016-03-07T15:29:54Z</time>
      </trkpt>
      <trkpt lat="48.21104" lon="-3.10185">
        <ele>321</ele>
        <time>2016-03-07T15:29:56Z</time>
      </trkpt>
      <trkpt lat="48.21104" lon="-3.10188">
        <ele>321</ele>
        <time>2016-03-07T15:29:58Z</time>
      </trkpt>
      <trkpt lat="48.21105" lon="-3.10191">
        <ele>320</ele>
        <time>2016-03-07T15:30:00Z</time>
      </trkpt>
      <trkpt lat="48.21106" lon="-3.10196">
        <ele>321</ele>
        <time>2016-03-07T15:30:03Z</time>
      </trkpt>
      <trkpt lat="48.21106" lon="-3.10199">
        <ele>321</ele>
        <time>2016-03-07T15:30:05Z</time>
      </trkpt>
      <trkpt lat="48.21107" lon="-3.10204">
        <ele>321</ele>
        <time>2016-03-07T15:30:08Z</time>
      </trkpt>
      <trkpt lat="48.21109" lon="-3.10209">
        <ele>320</ele>
        <time>2016-03-07T15:30:11Z</time>
      </trkpt>
      <trkpt lat="48.2111" lon="-3.10214">
        <ele>320</ele>
        <time>2016-03-07T15:30:14Z</time>
      </trkpt>
      <trkpt lat="48.21111" lon="-3.10218">
        <ele>321</ele>
        <time>2016-03-07T15:30:16Z</time>
      </trkpt>
      <trkpt lat="48.21113" lon="-3.10223">
        <ele>321</ele>
        <time>2016-03-07T15:30:19Z</time>
      </trkpt>
      <trkpt lat="48.21114" lon="-3.10226">
        <ele>321</ele>
        <time>2016-03-07T15:30:21Z</time>
      </trkpt>
      <trkpt lat="48.21115" lon="-3.10232">
        <ele>321</ele>
        <time>2016-03-07T15:30:24Z</time>
      </trkpt>
      <trkpt lat="48.21115" lon="-3.10237">
        <ele>320</ele>
        <time>2016-03-07T15:30:27Z</time>
      </trkpt>
      <trkpt lat="48.21116" lon="-3.10243">
        <ele>320</ele>
        <time>2016-03-07T15:30:30Z</time>
      </trkpt>
      <trkpt lat="48.21116" lon="-3.10249">
        <ele>319</ele>
        <time>2016-03-07T15:30:33Z</time>
      </trkpt>
      <trkpt lat="48.21117" lon="-3.10252">
        <ele>319</ele>
        <time>2016-03-07T15:30:35Z</time>
      </trkpt>
      <trkpt lat="48.21118" lon="-3.10255">
        <ele>319</ele>
        <time>2016-03-07T15:30:37Z</time>
      </trkpt>
      <trkpt lat="48.21119" lon="-3.1026">
        <ele>318</ele>
        <time>2016-03-07T15:30:40Z</time>
      </trkpt>
      <trkpt lat="48.2112" lon="-3.10265">
        <ele>318</ele>
        <time>2016-03-07T15:30:43Z</time>
      </trkpt>
      <trkpt lat="48.21121" lon="-3.1027">
        <ele>317</ele>
        <time>2016-03-07T15:30:46Z</time>
      </trkpt>
      <trkpt lat="48.21121" lon="-3.10273">
        <ele>317</ele>
        <time>2016-03-07T15:30:48Z</time>
      </trkpt>
      <trkpt lat="48.21121" lon="-3.10278">
        <ele>317</ele>
        <time>2016-03-07T15:30:51Z</time>
      </trkpt>
      <trkpt lat="48.21122" lon="-3.10282">
        <ele>316</ele>
        <time>2016-03-07T15:30:54Z</time>
      </trkpt>
      <trkpt lat="48.21122" lon="-3.10286">
        <ele>316</ele>
        <time>2016-03-07T15:30:56Z</time>
      </trkpt>
      <trkpt lat="48.21122" lon="-3.10289">
        <ele>316</ele>
        <time>2016-03-07T15:30:58Z</time>
      </trkpt>
      <trkpt lat="48.21123" lon="-3.10295">
        <ele>316</ele>
        <time>2016-03-07T15:31:01Z</time>
      </trkpt>
      <trkpt lat="48.21123" lon="-3.10301">
        <ele>316</ele>
        <time>2016-03-07T15:31:04Z</time>
      </trkpt>
      <trkpt lat="48.21124" lon="-3.10306">
        <ele>315</ele>
        <time>2016-03-07T15:31:07Z</time>
      </trkpt>
      <trkpt lat="48.21125" lon="-3.10311">
        <ele>315</ele>
        <time>2016-03-07T15:31:10Z</time>
      </trkpt>
      <trkpt lat="48.21125" lon="-3.10314">
        <ele>315</ele>
        <time>2016-03-07T15:31:12Z</time>
      </trkpt>
      <trkpt lat="48.21126" lon="-3.10319">
        <ele>315</ele>
        <time>2016-03-07T15:31:15Z</time>
      </trkpt>
      <trkpt lat="48.21126" lon="-3.10323">
        <ele>315</ele>
        <time>2016-03-07T15:31:17Z</time>
      </trkpt>
      <trkpt lat="48.21127" lon="-3.10327">
        <ele>315</ele>
        <time>2016-03-07T15:31:20Z</time>
      </trkpt>
      <trkpt lat="48.21127" lon="-3.10331">
        <ele>314</ele>
        <time>2016-03-07T15:31:22Z</time>
      </trkpt>
      <trkpt lat="48.21128" lon="-3.10337">
        <ele>314</ele>
        <time>2016-03-07T15:31:25Z</time>
      </trkpt>
      <trkpt lat="48.21128" lon="-3.10339">
        <ele>313</ele>
        <time>2016-03-07T15:31:27Z</time>
      </trkpt>
      <trkpt lat="48.2113" lon="-3.10344">
        <ele>313</ele>
        <time>2016-03-07T15:31:30Z</time>
      </trkpt>
      <trkpt lat="48.2113" lon="-3.10348">
        <ele>313</ele>
        <time>2016-03-07T15:31:33Z</time>
      </trkpt>
      <trkpt lat="48.21131" lon="-3.10353">
        <ele>313</ele>
        <time>2016-03-07T15:31:36Z</time>
      </trkpt>
      <trkpt lat="48.21132" lon="-3.10356">
        <ele>313</ele>
        <time>2016-03-07T15:31:38Z</time>
      </trkpt>
      <trkpt lat="48.21131" lon="-3.1036">
        <ele>313</ele>
        <time>2016-03-07T15:31:40Z</time>
      </trkpt>
      <trkpt lat="48.21131" lon="-3.10363">
        <ele>313</ele>
        <time>2016-03-07T15:31:42Z</time>
      </trkpt>
      <trkpt lat="48.21132" lon="-3.10369">
        <ele>312</ele>
        <time>2016-03-07T15:31:45Z</time>
      </trkpt>
      <trkpt lat="48.21131" lon="-3.10374">
        <ele>312</ele>
        <time>2016-03-07T15:31:48Z</time>
      </trkpt>
      <trkpt lat="48.21132" lon="-3.10378">
        <ele>312</ele>
        <time>2016-03-07T15:31:50Z</time>
      </trkpt>
      <trkpt lat="48.21133" lon="-3.10383">
        <ele>312</ele>
        <time>2016-03-07T15:31:53Z</time>
      </trkpt>
      <trkpt lat="48.21134" lon="-3.10388">
        <ele>312</ele>
        <time>2016-03-07T15:31:56Z</time>
      </trkpt>
      <trkpt lat="48.21134" lon="-3.10394">
        <ele>312</ele>
        <time>2016-03-07T15:31:59Z</time>
      </trkpt>
      <trkpt lat="48.21135" lon="-3.10397">
        <ele>312</ele>
        <time>2016-03-07T15:32:01Z</time>
      </trkpt>
      <trkpt lat="48.21136" lon="-3.10401">
        <ele>311</ele>
        <time>2016-03-07T15:32:04Z</time>
      </trkpt>
      <trkpt lat="48.21138" lon="-3.10406">
        <ele>311</ele>
        <time>2016-03-07T15:32:07Z</time>
      </trkpt>
      <trkpt lat="48.21138" lon="-3.10409">
        <ele>311</ele>
        <time>2016-03-07T15:32:09Z</time>
      </trkpt>
      <trkpt lat="48.21139" lon="-3.10414">
        <ele>311</ele>
        <time>2016-03-07T15:32:12Z</time>
      </trkpt>
      <trkpt lat="48.21141" lon="-3.10418">
        <ele>311</ele>
        <time>2016-03-07T15:32:15Z</time>
      </trkpt>
      <trkpt lat="48.21142" lon="-3.10421">
        <ele>310</ele>
        <time>2016-03-07T15:32:17Z</time>
      </trkpt>
      <trkpt lat="48.21143" lon="-3.10426">
        <ele>310</ele>
        <time>2016-03-07T15:32:20Z</time>
      </trkpt>
      <trkpt lat="48.21143" lon="-3.10429">
        <ele>310</ele>
        <time>2016-03-07T15:32:22Z</time>
      </trkpt>
      <trkpt lat="48.21144" lon="-3.10434">
        <ele>310</ele>
        <time>2016-03-07T15:32:25Z</time>
      </trkpt>
      <trkpt lat="48.21146" lon="-3.10438">
        <ele>310</ele>
        <time>2016-03-07T15:32:28Z</time>
      </trkpt>
      <trkpt lat="48.21146" lon="-3.10441">
        <ele>310</ele>
        <time>2016-03-07T15:32:30Z</time>
      </trkpt>
      <trkpt lat="48.21147" lon="-3.10444">
        <ele>310</ele>
        <time>2016-03-07T15:32:33Z</time>
      </trkpt>
      <trkpt lat="48.21147" lon="-3.10447">
        <ele>310</ele>
        <time>2016-03-07T15:32:36Z</time>
      </trkpt>
      <trkpt lat="48.21146" lon="-3.10447">
        <ele>310</ele>
        <time>2016-03-07T15:32:38Z</time>
      </trkpt>
      <trkpt lat="48.21146" lon="-3.10448">
        <ele>310</ele>
        <time>2016-03-07T15:32:40Z</time>
      </trkpt>
      <trkpt lat="48.21146" lon="-3.10449">
        <ele>310</ele>
        <time>2016-03-07T15:32:43Z</time>
      </trkpt>
      <trkpt lat="48.21146" lon="-3.10449">
        <ele>310</ele>
        <time>2016-03-07T15:32:45Z</time>
      </trkpt>
      <trkpt lat="48.21146" lon="-3.10449">
        <ele>310</ele>
        <time>2016-03-07T15:32:48Z</time>
      </trkpt>
      <trkpt lat="48.21146" lon="-3.10449">
        <ele>310</ele>
        <time>2016-03-07T15:32:50Z</time>
      </trkpt>
      <trkpt lat="48.21145" lon="-3.10451">
        <ele>310</ele>
        <time>2016-03-07T15:32:52Z</time>
      </trkpt>
      <trkpt lat="48.21146" lon="-3.10451">
        <ele>310</ele>
        <time>2016-03-07T15:32:56Z</time>
      </trkpt>
      <trkpt lat="48.21146" lon="-3.10451">
        <ele>310</ele>
        <time>2016-03-07T15:33:00Z</time>
      </trkpt>
      <trkpt lat="48.21146" lon="-3.10451">
        <ele>310</ele>
        <time>2016-03-07T15:33:04Z</time>
      </trkpt>
      <trkpt lat="48.21146" lon="-3.1045">
        <ele>310</ele>
        <time>2016-03-07T15:33:07Z</time>
      </trkpt>
      <trkpt lat="48.21146" lon="-3.1045">
        <ele>310</ele>
        <time>2016-03-07T15:33:11Z</time>
      </trkpt>
      <trkpt lat="48.21146" lon="-3.1045">
        <ele>309</ele>
        <time>2016-03-07T15:33:13Z</time>
      </trkpt>
      <trkpt lat="48.21146" lon="-3.10449">
        <ele>309</ele>
        <time>2016-03-07T15:33:16Z</time>
      </trkpt>
      <trkpt lat="48.21146" lon="-3.1045">
        <ele>309</ele>
        <time>2016-03-07T15:33:19Z</time>
      </trkpt>
      <trkpt lat="48.21147" lon="-3.1045">
        <ele>309</ele>
        <time>2016-03-07T15:33:22Z</time>
      </trkpt>
      <trkpt lat="48.21148" lon="-3.1045">
        <ele>310</ele>
        <time>2016-03-07T15:33:24Z</time>
      </trkpt>
      <trkpt lat="48.21148" lon="-3.1045">
        <ele>310</ele>
        <time>2016-03-07T15:33:26Z</time>
      </trkpt>
      <trkpt lat="48.21148" lon="-3.10449">
        <ele>310</ele>
        <time>2016-03-07T15:33:29Z</time>
      </trkpt>
      <trkpt lat="48.21148" lon="-3.10448">
        <ele>310</ele>
        <time>2016-03-07T15:33:33Z</time>
      </trkpt>
      <trkpt lat="48.21148" lon="-3.10448">
        <ele>310</ele>
        <time>2016-03-07T15:33:36Z</time>
      </trkpt>
      <trkpt lat="48.21148" lon="-3.10449">
        <ele>310</ele>
        <time>2016-03-07T15:33:40Z</time>
      </trkpt>
      <trkpt lat="48.21148" lon="-3.10449">
        <ele>310</ele>
        <time>2016-03-07T15:33:42Z</time>
      </trkpt>
      <trkpt lat="48.21148" lon="-3.10449">
        <ele>310</ele>
        <time>2016-03-07T15:33:45Z</time>
      </trkpt>
      <trkpt lat="48.21148" lon="-3.10449">
        <ele>310</ele>
        <time>2016-03-07T15:33:47Z</time>
      </trkpt>
      <trkpt lat="48.21148" lon="-3.10449">
        <ele>310</ele>
        <time>2016-03-07T15:33:50Z</time>
      </trkpt>
      <trkpt lat="48.21147" lon="-3.1045">
        <ele>310</ele>
        <time>2016-03-07T15:33:54Z</time>
      </trkpt>
      <trkpt lat="48.21147" lon="-3.1045">
        <ele>310</ele>
        <time>2016-03-07T15:33:56Z</time>
      </trkpt>
      <trkpt lat="48.21147" lon="-3.10451">
        <ele>310</ele>
        <time>2016-03-07T15:34:00Z</time>
      </trkpt>
      <trkpt lat="48.21147" lon="-3.10451">
        <ele>309</ele>
        <time>2016-03-07T15:34:03Z</time>
      </trkpt>
      <trkpt lat="48.21147" lon="-3.10451">
        <ele>309</ele>
        <time>2016-03-07T15:34:06Z</time>
      </trkpt>
      <trkpt lat="48.21147" lon="-3.1045">
        <ele>309</ele>
        <time>2016-03-07T15:34:08Z</time>
      </trkpt>
      <trkpt lat="48.21147" lon="-3.1045">
        <ele>309</ele>
        <time>2016-03-07T15:34:10Z</time>
      </trkpt>
      <trkpt lat="48.21147" lon="-3.1045">
        <ele>309</ele>
        <time>2016-03-07T15:34:13Z</time>
      </trkpt>
      <trkpt lat="48.21148" lon="-3.10449">
        <ele>309</ele>
        <time>2016-03-07T15:34:17Z</time>
      </trkpt>
      <trkpt lat="48.21147" lon="-3.10449">
        <ele>309</ele>
        <time>2016-03-07T15:34:20Z</time>
      </trkpt>
      <trkpt lat="48.21147" lon="-3.10448">
        <ele>309</ele>
        <time>2016-03-07T15:34:23Z</time>
      </trkpt>
      <trkpt lat="48.21147" lon="-3.10448">
        <ele>309</ele>
        <time>2016-03-07T15:34:27Z</time>
      </trkpt>
      <trkpt lat="48.21147" lon="-3.10448">
        <ele>309</ele>
        <time>2016-03-07T15:34:30Z</time>
      </trkpt>
      <trkpt lat="48.21148" lon="-3.10449">
        <ele>309</ele>
        <time>2016-03-07T15:34:33Z</time>
      </trkpt>
      <trkpt lat="48.21148" lon="-3.10449">
        <ele>309</ele>
        <time>2016-03-07T15:34:35Z</time>
      </trkpt>
      <trkpt lat="48.21149" lon="-3.10449">
        <ele>310</ele>
        <time>2016-03-07T15:34:38Z</time>
      </trkpt>
      <trkpt lat="48.2115" lon="-3.10449">
        <ele>309</ele>
        <time>2016-03-07T15:34:40Z</time>
      </trkpt>
      <trkpt lat="48.21152" lon="-3.10448">
        <ele>309</ele>
        <time>2016-03-07T15:34:43Z</time>
      </trkpt>
      <trkpt lat="48.21152" lon="-3.10448">
        <ele>309</ele>
        <time>2016-03-07T15:34:45Z</time>
      </trkpt>
      <trkpt lat="48.21153" lon="-3.10448">
        <ele>309</ele>
        <time>2016-03-07T15:34:48Z</time>
      </trkpt>
      <trkpt lat="48.21154" lon="-3.10448">
        <ele>309</ele>
        <time>2016-03-07T15:34:50Z</time>
      </trkpt>
      <trkpt lat="48.21154" lon="-3.10448">
        <ele>309</ele>
        <time>2016-03-07T15:34:52Z</time>
      </trkpt>
      <trkpt lat="48.21154" lon="-3.10448">
        <ele>309</ele>
        <time>2016-03-07T15:34:55Z</time>
      </trkpt>
      <trkpt lat="48.21156" lon="-3.1045">
        <ele>309</ele>
        <time>2016-03-07T15:34:58Z</time>
      </trkpt>
      <trkpt lat="48.21156" lon="-3.10452">
        <ele>309</ele>
        <time>2016-03-07T15:35:00Z</time>
      </trkpt>
      <trkpt lat="48.21158" lon="-3.10455">
        <ele>309</ele>
        <time>2016-03-07T15:35:03Z</time>
      </trkpt>
      <trkpt lat="48.21158" lon="-3.10455">
        <ele>309</ele>
        <time>2016-03-07T15:35:05Z</time>
      </trkpt>
      <trkpt lat="48.21159" lon="-3.10455">
        <ele>310</ele>
        <time>2016-03-07T15:35:07Z</time>
      </trkpt>
      <trkpt lat="48.21159" lon="-3.10456">
        <ele>310</ele>
        <time>2016-03-07T15:35:10Z</time>
      </trkpt>
      <trkpt lat="48.21159" lon="-3.10456">
        <ele>310</ele>
        <time>2016-03-07T15:35:12Z</time>
      </trkpt>
      <trkpt lat="48.2116" lon="-3.10458">
        <ele>309</ele>
        <time>2016-03-07T15:35:15Z</time>
      </trkpt>
      <trkpt lat="48.2116" lon="-3.10459">
        <ele>309</ele>
        <time>2016-03-07T15:35:17Z</time>
      </trkpt>
      <trkpt lat="48.2116" lon="-3.1046">
        <ele>309</ele>
        <time>2016-03-07T15:35:19Z</time>
      </trkpt>
      <trkpt lat="48.21161" lon="-3.10462">
        <ele>309</ele>
        <time>2016-03-07T15:35:22Z</time>
      </trkpt>
      <trkpt lat="48.21162" lon="-3.10466">
        <ele>309</ele>
        <time>2016-03-07T15:35:25Z</time>
      </trkpt>
      <trkpt lat="48.21163" lon="-3.1047">
        <ele>309</ele>
        <time>2016-03-07T15:35:28Z</time>
      </trkpt>
      <trkpt lat="48.21164" lon="-3.10473">
        <ele>309</ele>
        <time>2016-03-07T15:35:31Z</time>
      </trkpt>
      <trkpt lat="48.21166" lon="-3.10477">
        <ele>310</ele>
        <time>2016-03-07T15:35:34Z</time>
      </trkpt>
      <trkpt lat="48.21168" lon="-3.10481">
        <ele>310</ele>
        <time>2016-03-07T15:35:36Z</time>
      </trkpt>
      <trkpt lat="48.21169" lon="-3.10485">
        <ele>310</ele>
        <time>2016-03-07T15:35:38Z</time>
      </trkpt>
      <trkpt lat="48.21169" lon="-3.10488">
        <ele>310</ele>
        <time>2016-03-07T15:35:40Z</time>
      </trkpt>
      <trkpt lat="48.21169" lon="-3.10492">
        <ele>310</ele>
        <time>2016-03-07T15:35:43Z</time>
      </trkpt>
      <trkpt lat="48.21171" lon="-3.10495">
        <ele>310</ele>
        <time>2016-03-07T15:35:46Z</time>
      </trkpt>
      <trkpt lat="48.21173" lon="-3.10498">
        <ele>310</ele>
        <time>2016-03-07T15:35:49Z</time>
      </trkpt>
      <trkpt lat="48.21174" lon="-3.10501">
        <ele>310</ele>
        <time>2016-03-07T15:35:51Z</time>
      </trkpt>
      <trkpt lat="48.21175" lon="-3.10504">
        <ele>310</ele>
        <time>2016-03-07T15:35:54Z</time>
      </trkpt>
      <trkpt lat="48.21176" lon="-3.10507">
        <ele>309</ele>
        <time>2016-03-07T15:35:56Z</time>
      </trkpt>
      <trkpt lat="48.21178" lon="-3.1051">
        <ele>309</ele>
        <time>2016-03-07T15:35:59Z</time>
      </trkpt>
      <trkpt lat="48.21178" lon="-3.10513">
        <ele>309</ele>
        <time>2016-03-07T15:36:01Z</time>
      </trkpt>
      <trkpt lat="48.2118" lon="-3.10516">
        <ele>309</ele>
        <time>2016-03-07T15:36:03Z</time>
      </trkpt>
      <trkpt lat="48.2118" lon="-3.10518">
        <ele>310</ele>
        <time>2016-03-07T15:36:05Z</time>
      </trkpt>
      <trkpt lat="48.21182" lon="-3.10523">
        <ele>310</ele>
        <time>2016-03-07T15:36:08Z</time>
      </trkpt>
      <trkpt lat="48.21183" lon="-3.10525">
        <ele>310</ele>
        <time>2016-03-07T15:36:10Z</time>
      </trkpt>
      <trkpt lat="48.21184" lon="-3.1053">
        <ele>309</ele>
        <time>2016-03-07T15:36:13Z</time>
      </trkpt>
      <trkpt lat="48.21186" lon="-3.10534">
        <ele>309</ele>
        <time>2016-03-07T15:36:16Z</time>
      </trkpt>
      <trkpt lat="48.21187" lon="-3.10538">
        <ele>309</ele>
        <time>2016-03-07T15:36:18Z</time>
      </trkpt>
      <trkpt lat="48.21188" lon="-3.10541">
        <ele>308</ele>
        <time>2016-03-07T15:36:20Z</time>
      </trkpt>
      <trkpt lat="48.21189" lon="-3.10545">
        <ele>308</ele>
        <time>2016-03-07T15:36:23Z</time>
      </trkpt>
      <trkpt lat="48.21192" lon="-3.1055">
        <ele>308</ele>
        <time>2016-03-07T15:36:26Z</time>
      </trkpt>
      <trkpt lat="48.21193" lon="-3.10556">
        <ele>307</ele>
        <time>2016-03-07T15:36:29Z</time>
      </trkpt>
      <trkpt lat="48.21195" lon="-3.1056">
        <ele>307</ele>
        <time>2016-03-07T15:36:32Z</time>
      </trkpt>
      <trkpt lat="48.21197" lon="-3.10565">
        <ele>307</ele>
        <time>2016-03-07T15:36:35Z</time>
      </trkpt>
      <trkpt lat="48.212" lon="-3.1057">
        <ele>306</ele>
        <time>2016-03-07T15:36:38Z</time>
      </trkpt>
      <trkpt lat="48.21202" lon="-3.10575">
        <ele>306</ele>
        <time>2016-03-07T15:36:41Z</time>
      </trkpt>
      <trkpt lat="48.21204" lon="-3.10578">
        <ele>305</ele>
        <time>2016-03-07T15:36:43Z</time>
      </trkpt>
      <trkpt lat="48.21206" lon="-3.10581">
        <ele>305</ele>
        <time>2016-03-07T15:36:45Z</time>
      </trkpt>
      <trkpt lat="48.21209" lon="-3.10583">
        <ele>305</ele>
        <time>2016-03-07T15:36:47Z</time>
      </trkpt>
      <trkpt lat="48.2121" lon="-3.10586">
        <ele>305</ele>
        <time>2016-03-07T15:36:49Z</time>
      </trkpt>
      <trkpt lat="48.21213" lon="-3.10588">
        <ele>305</ele>
        <time>2016-03-07T15:36:51Z</time>
      </trkpt>
      <trkpt lat="48.21216" lon="-3.10591">
        <ele>305</ele>
        <time>2016-03-07T15:36:54Z</time>
      </trkpt>
      <trkpt lat="48.21218" lon="-3.10593">
        <ele>304</ele>
        <time>2016-03-07T15:36:56Z</time>
      </trkpt>
      <trkpt lat="48.2122" lon="-3.10595">
        <ele>304</ele>
        <time>2016-03-07T15:36:58Z</time>
      </trkpt>
      <trkpt lat="48.21223" lon="-3.10599">
        <ele>304</ele>
        <time>2016-03-07T15:37:01Z</time>
      </trkpt>
      <trkpt lat="48.21226" lon="-3.10601">
        <ele>304</ele>
        <time>2016-03-07T15:37:03Z</time>
      </trkpt>
      <trkpt lat="48.2123" lon="-3.10603">
        <ele>303</ele>
        <time>2016-03-07T15:37:06Z</time>
      </trkpt>
      <trkpt lat="48.21232" lon="-3.10605">
        <ele>303</ele>
        <time>2016-03-07T15:37:08Z</time>
      </trkpt>
      <trkpt lat="48.21234" lon="-3.10607">
        <ele>304</ele>
        <time>2016-03-07T15:37:10Z</time>
      </trkpt>
      <trkpt lat="48.21238" lon="-3.1061">
        <ele>304</ele>
        <time>2016-03-07T15:37:13Z</time>
      </trkpt>
      <trkpt lat="48.21241" lon="-3.10612">
        <ele>303</ele>
        <time>2016-03-07T15:37:16Z</time>
      </trkpt>
      <trkpt lat="48.21245" lon="-3.10614">
        <ele>303</ele>
        <time>2016-03-07T15:37:19Z</time>
      </trkpt>
      <trkpt lat="48.21248" lon="-3.10616">
        <ele>303</ele>
        <time>2016-03-07T15:37:22Z</time>
      </trkpt>
      <trkpt lat="48.21252" lon="-3.10618">
        <ele>302</ele>
        <time>2016-03-07T15:37:25Z</time>
      </trkpt>
      <trkpt lat="48.21254" lon="-3.10619">
        <ele>302</ele>
        <time>2016-03-07T15:37:27Z</time>
      </trkpt>
      <trkpt lat="48.21258" lon="-3.10621">
        <ele>303</ele>
        <time>2016-03-07T15:37:30Z</time>
      </trkpt>
      <trkpt lat="48.21262" lon="-3.10623">
        <ele>303</ele>
        <time>2016-03-07T15:37:33Z</time>
      </trkpt>
      <trkpt lat="48.21264" lon="-3.10625">
        <ele>303</ele>
        <time>2016-03-07T15:37:35Z</time>
      </trkpt>
      <trkpt lat="48.21267" lon="-3.10626">
        <ele>303</ele>
        <time>2016-03-07T15:37:38Z</time>
      </trkpt>
      <trkpt lat="48.2127" lon="-3.10628">
        <ele>303</ele>
        <time>2016-03-07T15:37:41Z</time>
      </trkpt>
      <trkpt lat="48.21274" lon="-3.10629">
        <ele>303</ele>
        <time>2016-03-07T15:37:44Z</time>
      </trkpt>
      <trkpt lat="48.21276" lon="-3.1063">
        <ele>302</ele>
        <time>2016-03-07T15:37:46Z</time>
      </trkpt>
      <trkpt lat="48.2128" lon="-3.10631">
        <ele>302</ele>
        <time>2016-03-07T15:37:49Z</time>
      </trkpt>
      <trkpt lat="48.21282" lon="-3.10632">
        <ele>302</ele>
        <time>2016-03-07T15:37:51Z</time>
      </trkpt>
      <trkpt lat="48.21286" lon="-3.10633">
        <ele>303</ele>
        <time>2016-03-07T15:37:54Z</time>
      </trkpt>
      <trkpt lat="48.21289" lon="-3.10635">
        <ele>303</ele>
        <time>2016-03-07T15:37:57Z</time>
      </trkpt>
      <trkpt lat="48.21292" lon="-3.10635">
        <ele>303</ele>
        <time>2016-03-07T15:37:59Z</time>
      </trkpt>
      <trkpt lat="48.21295" lon="-3.10636">
        <ele>303</ele>
        <time>2016-03-07T15:38:02Z</time>
      </trkpt>
      <trkpt lat="48.21298" lon="-3.10637">
        <ele>303</ele>
        <time>2016-03-07T15:38:05Z</time>
      </trkpt>
      <trkpt lat="48.21301" lon="-3.10638">
        <ele>303</ele>
        <time>2016-03-07T15:38:07Z</time>
      </trkpt>
      <trkpt lat="48.21304" lon="-3.1064">
        <ele>302</ele>
        <time>2016-03-07T15:38:10Z</time>
      </trkpt>
      <trkpt lat="48.21306" lon="-3.1064">
        <ele>302</ele>
        <time>2016-03-07T15:38:12Z</time>
      </trkpt>
      <trkpt lat="48.21309" lon="-3.10641">
        <ele>302</ele>
        <time>2016-03-07T15:38:14Z</time>
      </trkpt>
      <trkpt lat="48.21312" lon="-3.10641">
        <ele>301</ele>
        <time>2016-03-07T15:38:17Z</time>
      </trkpt>
      <trkpt lat="48.21315" lon="-3.10642">
        <ele>301</ele>
        <time>2016-03-07T15:38:20Z</time>
      </trkpt>
      <trkpt lat="48.21318" lon="-3.10643">
        <ele>301</ele>
        <time>2016-03-07T15:38:22Z</time>
      </trkpt>
      <trkpt lat="48.2132" lon="-3.10643">
        <ele>301</ele>
        <time>2016-03-07T15:38:24Z</time>
      </trkpt>
      <trkpt lat="48.21324" lon="-3.10644">
        <ele>301</ele>
        <time>2016-03-07T15:38:27Z</time>
      </trkpt>
      <trkpt lat="48.21326" lon="-3.10645">
        <ele>300</ele>
        <time>2016-03-07T15:38:29Z</time>
      </trkpt>
      <trkpt lat="48.21329" lon="-3.10646">
        <ele>300</ele>
        <time>2016-03-07T15:38:32Z</time>
      </trkpt>
      <trkpt lat="48.21333" lon="-3.10647">
        <ele>299</ele>
        <time>2016-03-07T15:38:35Z</time>
      </trkpt>
      <trkpt lat="48.21335" lon="-3.10647">
        <ele>299</ele>
        <time>2016-03-07T15:38:37Z</time>
      </trkpt>
      <trkpt lat="48.21338" lon="-3.10647">
        <ele>299</ele>
        <time>2016-03-07T15:38:39Z</time>
      </trkpt>
      <trkpt lat="48.21341" lon="-3.10648">
        <ele>299</ele>
        <time>2016-03-07T15:38:42Z</time>
      </trkpt>
      <trkpt lat="48.21343" lon="-3.10649">
        <ele>299</ele>
        <time>2016-03-07T15:38:44Z</time>
      </trkpt>
      <trkpt lat="48.21346" lon="-3.1065">
        <ele>299</ele>
        <time>2016-03-07T15:38:46Z</time>
      </trkpt>
      <trkpt lat="48.21349" lon="-3.10651">
        <ele>299</ele>
        <time>2016-03-07T15:38:49Z</time>
      </trkpt>
      <trkpt lat="48.21352" lon="-3.10654">
        <ele>299</ele>
        <time>2016-03-07T15:38:52Z</time>
      </trkpt>
      <trkpt lat="48.21354" lon="-3.10656">
        <ele>299</ele>
        <time>2016-03-07T15:38:54Z</time>
      </trkpt>
      <trkpt lat="48.21356" lon="-3.1066">
        <ele>299</ele>
        <time>2016-03-07T15:38:57Z</time>
      </trkpt>
      <trkpt lat="48.21357" lon="-3.10662">
        <ele>298</ele>
        <time>2016-03-07T15:38:59Z</time>
      </trkpt>
      <trkpt lat="48.21358" lon="-3.10665">
        <ele>298</ele>
        <time>2016-03-07T15:39:01Z</time>
      </trkpt>
      <trkpt lat="48.21359" lon="-3.10669">
        <ele>298</ele>
        <time>2016-03-07T15:39:04Z</time>
      </trkpt>
      <trkpt lat="48.21358" lon="-3.10672">
        <ele>298</ele>
        <time>2016-03-07T15:39:06Z</time>
      </trkpt>
      <trkpt lat="48.21358" lon="-3.10674">
        <ele>298</ele>
        <time>2016-03-07T15:39:08Z</time>
      </trkpt>
      <trkpt lat="48.21358" lon="-3.10677">
        <ele>298</ele>
        <time>2016-03-07T15:39:11Z</time>
      </trkpt>
      <trkpt lat="48.21358" lon="-3.1068">
        <ele>298</ele>
        <time>2016-03-07T15:39:13Z</time>
      </trkpt>
      <trkpt lat="48.21357" lon="-3.10684">
        <ele>298</ele>
        <time>2016-03-07T15:39:16Z</time>
      </trkpt>
      <trkpt lat="48.21356" lon="-3.10687">
        <ele>298</ele>
        <time>2016-03-07T15:39:18Z</time>
      </trkpt>
      <trkpt lat="48.21355" lon="-3.10692">
        <ele>298</ele>
        <time>2016-03-07T15:39:21Z</time>
      </trkpt>
      <trkpt lat="48.21354" lon="-3.10695">
        <ele>298</ele>
        <time>2016-03-07T15:39:23Z</time>
      </trkpt>
      <trkpt lat="48.21352" lon="-3.10699">
        <ele>298</ele>
        <time>2016-03-07T15:39:26Z</time>
      </trkpt>
      <trkpt lat="48.21351" lon="-3.10703">
        <ele>298</ele>
        <time>2016-03-07T15:39:28Z</time>
      </trkpt>
      <trkpt lat="48.2135" lon="-3.10707">
        <ele>297</ele>
        <time>2016-03-07T15:39:31Z</time>
      </trkpt>
      <trkpt lat="48.21349" lon="-3.10713">
        <ele>297</ele>
        <time>2016-03-07T15:39:34Z</time>
      </trkpt>
      <trkpt lat="48.21349" lon="-3.10716">
        <ele>297</ele>
        <time>2016-03-07T15:39:36Z</time>
      </trkpt>
      <trkpt lat="48.21348" lon="-3.10719">
        <ele>297</ele>
        <time>2016-03-07T15:39:38Z</time>
      </trkpt>
      <trkpt lat="48.21347" lon="-3.10724">
        <ele>297</ele>
        <time>2016-03-07T15:39:41Z</time>
      </trkpt>
      <trkpt lat="48.21346" lon="-3.10728">
        <ele>297</ele>
        <time>2016-03-07T15:39:43Z</time>
      </trkpt>
      <trkpt lat="48.21346" lon="-3.10731">
        <ele>297</ele>
        <time>2016-03-07T15:39:45Z</time>
      </trkpt>
      <trkpt lat="48.21345" lon="-3.10736">
        <ele>297</ele>
        <time>2016-03-07T15:39:48Z</time>
      </trkpt>
      <trkpt lat="48.21344" lon="-3.10739">
        <ele>297</ele>
        <time>2016-03-07T15:39:50Z</time>
      </trkpt>
      <trkpt lat="48.21344" lon="-3.10744">
        <ele>296</ele>
        <time>2016-03-07T15:39:53Z</time>
      </trkpt>
      <trkpt lat="48.21344" lon="-3.10749">
        <ele>296</ele>
        <time>2016-03-07T15:39:56Z</time>
      </trkpt>
      <trkpt lat="48.21344" lon="-3.10753">
        <ele>296</ele>
        <time>2016-03-07T15:39:58Z</time>
      </trkpt>
      <trkpt lat="48.21343" lon="-3.10756">
        <ele>296</ele>
        <time>2016-03-07T15:40:00Z</time>
      </trkpt>
      <trkpt lat="48.21343" lon="-3.10759">
        <ele>296</ele>
        <time>2016-03-07T15:40:02Z</time>
      </trkpt>
      <trkpt lat="48.21343" lon="-3.10764">
        <ele>296</ele>
        <time>2016-03-07T15:40:05Z</time>
      </trkpt>
      <trkpt lat="48.21343" lon="-3.10768">
        <ele>296</ele>
        <time>2016-03-07T15:40:07Z</time>
      </trkpt>
      <trkpt lat="48.21342" lon="-3.10773">
        <ele>295</ele>
        <time>2016-03-07T15:40:10Z</time>
      </trkpt>
      <trkpt lat="48.21341" lon="-3.10777">
        <ele>295</ele>
        <time>2016-03-07T15:40:12Z</time>
      </trkpt>
      <trkpt lat="48.21341" lon="-3.10782">
        <ele>295</ele>
        <time>2016-03-07T15:40:15Z</time>
      </trkpt>
      <trkpt lat="48.2134" lon="-3.10788">
        <ele>295</ele>
        <time>2016-03-07T15:40:18Z</time>
      </trkpt>
      <trkpt lat="48.2134" lon="-3.10793">
        <ele>295</ele>
        <time>2016-03-07T15:40:21Z</time>
      </trkpt>
      <trkpt lat="48.21339" lon="-3.10798">
        <ele>295</ele>
        <time>2016-03-07T15:40:24Z</time>
      </trkpt>
      <trkpt lat="48.21339" lon="-3.10802">
        <ele>294</ele>
        <time>2016-03-07T15:40:26Z</time>
      </trkpt>
      <trkpt lat="48.21338" lon="-3.10805">
        <ele>294</ele>
        <time>2016-03-07T15:40:28Z</time>
      </trkpt>
      <trkpt lat="48.21337" lon="-3.1081">
        <ele>294</ele>
        <time>2016-03-07T15:40:31Z</time>
      </trkpt>
      <trkpt lat="48.21337" lon="-3.10816">
        <ele>293</ele>
        <time>2016-03-07T15:40:34Z</time>
      </trkpt>
      <trkpt lat="48.21336" lon="-3.10822">
        <ele>293</ele>
        <time>2016-03-07T15:40:37Z</time>
      </trkpt>
      <trkpt lat="48.21336" lon="-3.10825">
        <ele>293</ele>
        <time>2016-03-07T15:40:39Z</time>
      </trkpt>
      <trkpt lat="48.21336" lon="-3.10831">
        <ele>293</ele>
        <time>2016-03-07T15:40:42Z</time>
      </trkpt>
      <trkpt lat="48.21335" lon="-3.10836">
        <ele>293</ele>
        <time>2016-03-07T15:40:45Z</time>
      </trkpt>
      <trkpt lat="48.21335" lon="-3.10839">
        <ele>293</ele>
        <time>2016-03-07T15:40:47Z</time>
      </trkpt>
      <trkpt lat="48.21334" lon="-3.10845">
        <ele>293</ele>
        <time>2016-03-07T15:40:50Z</time>
      </trkpt>
      <trkpt lat="48.21334" lon="-3.10848">
        <ele>293</ele>
        <time>2016-03-07T15:40:52Z</time>
      </trkpt>
      <trkpt lat="48.21334" lon="-3.10852">
        <ele>293</ele>
        <time>2016-03-07T15:40:54Z</time>
      </trkpt>
      <trkpt lat="48.21334" lon="-3.10857">
        <ele>293</ele>
        <time>2016-03-07T15:40:57Z</time>
      </trkpt>
      <trkpt lat="48.21334" lon="-3.10862">
        <ele>293</ele>
        <time>2016-03-07T15:41:00Z</time>
      </trkpt>
      <trkpt lat="48.21334" lon="-3.10865">
        <ele>292</ele>
        <time>2016-03-07T15:41:02Z</time>
      </trkpt>
      <trkpt lat="48.21333" lon="-3.10871">
        <ele>292</ele>
        <time>2016-03-07T15:41:05Z</time>
      </trkpt>
      <trkpt lat="48.21331" lon="-3.10875">
        <ele>292</ele>
        <time>2016-03-07T15:41:08Z</time>
      </trkpt>
      <trkpt lat="48.2133" lon="-3.10878">
        <ele>292</ele>
        <time>2016-03-07T15:41:10Z</time>
      </trkpt>
      <trkpt lat="48.2133" lon="-3.10881">
        <ele>291</ele>
        <time>2016-03-07T15:41:12Z</time>
      </trkpt>
      <trkpt lat="48.21328" lon="-3.10886">
        <ele>291</ele>
        <time>2016-03-07T15:41:15Z</time>
      </trkpt>
      <trkpt lat="48.21328" lon="-3.1089">
        <ele>291</ele>
        <time>2016-03-07T15:41:17Z</time>
      </trkpt>
      <trkpt lat="48.21329" lon="-3.10895">
        <ele>291</ele>
        <time>2016-03-07T15:41:20Z</time>
      </trkpt>
      <trkpt lat="48.2133" lon="-3.10898">
        <ele>291</ele>
        <time>2016-03-07T15:41:22Z</time>
      </trkpt>
      <trkpt lat="48.21332" lon="-3.10901">
        <ele>291</ele>
        <time>2016-03-07T15:41:25Z</time>
      </trkpt>
      <trkpt lat="48.21334" lon="-3.10904">
        <ele>291</ele>
        <time>2016-03-07T15:41:28Z</time>
      </trkpt>
      <trkpt lat="48.21336" lon="-3.10906">
        <ele>291</ele>
        <time>2016-03-07T15:41:30Z</time>
      </trkpt>
      <trkpt lat="48.21337" lon="-3.10908">
        <ele>291</ele>
        <time>2016-03-07T15:41:32Z</time>
      </trkpt>
      <trkpt lat="48.21339" lon="-3.10911">
        <ele>291</ele>
        <time>2016-03-07T15:41:34Z</time>
      </trkpt>
      <trkpt lat="48.21341" lon="-3.10913">
        <ele>290</ele>
        <time>2016-03-07T15:41:36Z</time>
      </trkpt>
      <trkpt lat="48.21343" lon="-3.10916">
        <ele>290</ele>
        <time>2016-03-07T15:41:39Z</time>
      </trkpt>
      <trkpt lat="48.21345" lon="-3.10918">
        <ele>290</ele>
        <time>2016-03-07T15:41:41Z</time>
      </trkpt>
      <trkpt lat="48.21347" lon="-3.10921">
        <ele>290</ele>
        <time>2016-03-07T15:41:43Z</time>
      </trkpt>
      <trkpt lat="48.21348" lon="-3.10923">
        <ele>289</ele>
        <time>2016-03-07T15:41:45Z</time>
      </trkpt>
      <trkpt lat="48.2135" lon="-3.10925">
        <ele>289</ele>
        <time>2016-03-07T15:41:47Z</time>
      </trkpt>
      <trkpt lat="48.21353" lon="-3.10929">
        <ele>289</ele>
        <time>2016-03-07T15:41:50Z</time>
      </trkpt>
      <trkpt lat="48.21355" lon="-3.10931">
        <ele>288</ele>
        <time>2016-03-07T15:41:52Z</time>
      </trkpt>
      <trkpt lat="48.21356" lon="-3.10934">
        <ele>289</ele>
        <time>2016-03-07T15:41:54Z</time>
      </trkpt>
      <trkpt lat="48.21358" lon="-3.10936">
        <ele>289</ele>
        <time>2016-03-07T15:41:56Z</time>
      </trkpt>
      <trkpt lat="48.2136" lon="-3.10939">
        <ele>288</ele>
        <time>2016-03-07T15:41:59Z</time>
      </trkpt>
      <trkpt lat="48.21362" lon="-3.10941">
        <ele>288</ele>
        <time>2016-03-07T15:42:01Z</time>
      </trkpt>
      <trkpt lat="48.21363" lon="-3.10943">
        <ele>288</ele>
        <time>2016-03-07T15:42:03Z</time>
      </trkpt>
      <trkpt lat="48.21365" lon="-3.10945">
        <ele>288</ele>
        <time>2016-03-07T15:42:05Z</time>
      </trkpt>
      <trkpt lat="48.21368" lon="-3.10948">
        <ele>289</ele>
        <time>2016-03-07T15:42:08Z</time>
      </trkpt>
      <trkpt lat="48.21369" lon="-3.1095">
        <ele>288</ele>
        <time>2016-03-07T15:42:10Z</time>
      </trkpt>
      <trkpt lat="48.21371" lon="-3.10953">
        <ele>289</ele>
        <time>2016-03-07T15:42:13Z</time>
      </trkpt>
      <trkpt lat="48.21372" lon="-3.10956">
        <ele>289</ele>
        <time>2016-03-07T15:42:16Z</time>
      </trkpt>
      <trkpt lat="48.21374" lon="-3.10959">
        <ele>289</ele>
        <time>2016-03-07T15:42:19Z</time>
      </trkpt>
      <trkpt lat="48.21376" lon="-3.10962">
        <ele>289</ele>
        <time>2016-03-07T15:42:22Z</time>
      </trkpt>
      <trkpt lat="48.21376" lon="-3.10963">
        <ele>289</ele>
        <time>2016-03-07T15:42:24Z</time>
      </trkpt>
      <trkpt lat="48.21377" lon="-3.10964">
        <ele>289</ele>
        <time>2016-03-07T15:42:27Z</time>
      </trkpt>
      <trkpt lat="48.21377" lon="-3.10964">
        <ele>289</ele>
        <time>2016-03-07T15:42:29Z</time>
      </trkpt>
      <trkpt lat="48.21377" lon="-3.10965">
        <ele>289</ele>
        <time>2016-03-07T15:42:32Z</time>
      </trkpt>
      <trkpt lat="48.21378" lon="-3.10965">
        <ele>289</ele>
        <time>2016-03-07T15:42:34Z</time>
      </trkpt>
      <trkpt lat="48.21378" lon="-3.10965">
        <ele>289</ele>
        <time>2016-03-07T15:42:36Z</time>
      </trkpt>
      <trkpt lat="48.21379" lon="-3.10965">
        <ele>289</ele>
        <time>2016-03-07T15:42:39Z</time>
      </trkpt>
      <trkpt lat="48.21379" lon="-3.10966">
        <ele>289</ele>
        <time>2016-03-07T15:42:42Z</time>
      </trkpt>
      <trkpt lat="48.21381" lon="-3.10967">
        <ele>289</ele>
        <time>2016-03-07T15:42:44Z</time>
      </trkpt>
      <trkpt lat="48.21382" lon="-3.1097">
        <ele>290</ele>
        <time>2016-03-07T15:42:47Z</time>
      </trkpt>
      <trkpt lat="48.21384" lon="-3.10972">
        <ele>289</ele>
        <time>2016-03-07T15:42:50Z</time>
      </trkpt>
      <trkpt lat="48.21385" lon="-3.10975">
        <ele>289</ele>
        <time>2016-03-07T15:42:52Z</time>
      </trkpt>
      <trkpt lat="48.21386" lon="-3.10978">
        <ele>289</ele>
        <time>2016-03-07T15:42:55Z</time>
      </trkpt>
      <trkpt lat="48.21388" lon="-3.10982">
        <ele>289</ele>
        <time>2016-03-07T15:42:58Z</time>
      </trkpt>
      <trkpt lat="48.21391" lon="-3.10986">
        <ele>289</ele>
        <time>2016-03-07T15:43:01Z</time>
      </trkpt>
      <trkpt lat="48.21392" lon="-3.10991">
        <ele>289</ele>
        <time>2016-03-07T15:43:04Z</time>
      </trkpt>
      <trkpt lat="48.21394" lon="-3.10994">
        <ele>289</ele>
        <time>2016-03-07T15:43:07Z</time>
      </trkpt>
      <trkpt lat="48.21395" lon="-3.10997">
        <ele>289</ele>
        <time>2016-03-07T15:43:09Z</time>
      </trkpt>
      <trkpt lat="48.21398" lon="-3.11001">
        <ele>289</ele>
        <time>2016-03-07T15:43:12Z</time>
      </trkpt>
      <trkpt lat="48.21399" lon="-3.11003">
        <ele>289</ele>
        <time>2016-03-07T15:43:14Z</time>
      </trkpt>
      <trkpt lat="48.214" lon="-3.11007">
        <ele>288</ele>
        <time>2016-03-07T15:43:17Z</time>
      </trkpt>
      <trkpt lat="48.21402" lon="-3.11009">
        <ele>288</ele>
        <time>2016-03-07T15:43:19Z</time>
      </trkpt>
      <trkpt lat="48.21404" lon="-3.11012">
        <ele>288</ele>
        <time>2016-03-07T15:43:22Z</time>
      </trkpt>
      <trkpt lat="48.21405" lon="-3.11015">
        <ele>288</ele>
        <time>2016-03-07T15:43:24Z</time>
      </trkpt>
      <trkpt lat="48.21407" lon="-3.11019">
        <ele>288</ele>
        <time>2016-03-07T15:43:27Z</time>
      </trkpt>
      <trkpt lat="48.21409" lon="-3.11021">
        <ele>288</ele>
        <time>2016-03-07T15:43:29Z</time>
      </trkpt>
      <trkpt lat="48.2141" lon="-3.11024">
        <ele>288</ele>
        <time>2016-03-07T15:43:31Z</time>
      </trkpt>
      <trkpt lat="48.21413" lon="-3.11029">
        <ele>288</ele>
        <time>2016-03-07T15:43:34Z</time>
      </trkpt>
      <trkpt lat="48.21415" lon="-3.11033">
        <ele>288</ele>
        <time>2016-03-07T15:43:37Z</time>
      </trkpt>
      <trkpt lat="48.21416" lon="-3.11035">
        <ele>288</ele>
        <time>2016-03-07T15:43:39Z</time>
      </trkpt>
      <trkpt lat="48.21419" lon="-3.11039">
        <ele>287</ele>
        <time>2016-03-07T15:43:42Z</time>
      </trkpt>
      <trkpt lat="48.21421" lon="-3.11042">
        <ele>287</ele>
        <time>2016-03-07T15:43:44Z</time>
      </trkpt>
      <trkpt lat="48.21423" lon="-3.11047">
        <ele>288</ele>
        <time>2016-03-07T15:43:47Z</time>
      </trkpt>
      <trkpt lat="48.21425" lon="-3.11051">
        <ele>288</ele>
        <time>2016-03-07T15:43:50Z</time>
      </trkpt>
      <trkpt lat="48.21427" lon="-3.11053">
        <ele>288</ele>
        <time>2016-03-07T15:43:52Z</time>
      </trkpt>
      <trkpt lat="48.21429" lon="-3.11057">
        <ele>288</ele>
        <time>2016-03-07T15:43:55Z</time>
      </trkpt>
      <trkpt lat="48.21431" lon="-3.11059">
        <ele>288</ele>
        <time>2016-03-07T15:43:57Z</time>
      </trkpt>
      <trkpt lat="48.21433" lon="-3.11064">
        <ele>287</ele>
        <time>2016-03-07T15:44:00Z</time>
      </trkpt>
      <trkpt lat="48.21436" lon="-3.11068">
        <ele>287</ele>
        <time>2016-03-07T15:44:03Z</time>
      </trkpt>
      <trkpt lat="48.21437" lon="-3.11071">
        <ele>287</ele>
        <time>2016-03-07T15:44:05Z</time>
      </trkpt>
      <trkpt lat="48.2144" lon="-3.11075">
        <ele>288</ele>
        <time>2016-03-07T15:44:08Z</time>
      </trkpt>
      <trkpt lat="48.21443" lon="-3.1108">
        <ele>287</ele>
        <time>2016-03-07T15:44:11Z</time>
      </trkpt>
      <trkpt lat="48.21446" lon="-3.11085">
        <ele>287</ele>
        <time>2016-03-07T15:44:14Z</time>
      </trkpt>
      <trkpt lat="48.21449" lon="-3.11089">
        <ele>287</ele>
        <time>2016-03-07T15:44:17Z</time>
      </trkpt>
      <trkpt lat="48.2145" lon="-3.11092">
        <ele>287</ele>
        <time>2016-03-07T15:44:19Z</time>
      </trkpt>
      <trkpt lat="48.21453" lon="-3.11097">
        <ele>287</ele>
        <time>2016-03-07T15:44:22Z</time>
      </trkpt>
      <trkpt lat="48.21456" lon="-3.11103">
        <ele>287</ele>
        <time>2016-03-07T15:44:25Z</time>
      </trkpt>
      <trkpt lat="48.21458" lon="-3.11107">
        <ele>287</ele>
        <time>2016-03-07T15:44:28Z</time>
      </trkpt>
      <trkpt lat="48.2146" lon="-3.11112">
        <ele>287</ele>
        <time>2016-03-07T15:44:31Z</time>
      </trkpt>
      <trkpt lat="48.21462" lon="-3.11115">
        <ele>287</ele>
        <time>2016-03-07T15:44:33Z</time>
      </trkpt>
      <trkpt lat="48.21464" lon="-3.11118">
        <ele>287</ele>
        <time>2016-03-07T15:44:35Z</time>
      </trkpt>
      <trkpt lat="48.21466" lon="-3.11122">
        <ele>287</ele>
        <time>2016-03-07T15:44:38Z</time>
      </trkpt>
      <trkpt lat="48.21468" lon="-3.11126">
        <ele>286</ele>
        <time>2016-03-07T15:44:40Z</time>
      </trkpt>
      <trkpt lat="48.2147" lon="-3.1113">
        <ele>286</ele>
        <time>2016-03-07T15:44:43Z</time>
      </trkpt>
      <trkpt lat="48.21472" lon="-3.11134">
        <ele>286</ele>
        <time>2016-03-07T15:44:45Z</time>
      </trkpt>
      <trkpt lat="48.21473" lon="-3.11138">
        <ele>286</ele>
        <time>2016-03-07T15:44:48Z</time>
      </trkpt>
      <trkpt lat="48.21475" lon="-3.11143">
        <ele>286</ele>
        <time>2016-03-07T15:44:51Z</time>
      </trkpt>
      <trkpt lat="48.21477" lon="-3.11149">
        <ele>286</ele>
        <time>2016-03-07T15:44:54Z</time>
      </trkpt>
      <trkpt lat="48.21479" lon="-3.11154">
        <ele>286</ele>
        <time>2016-03-07T15:44:57Z</time>
      </trkpt>
      <trkpt lat="48.2148" lon="-3.11159">
        <ele>286</ele>
        <time>2016-03-07T15:45:00Z</time>
      </trkpt>
      <trkpt lat="48.21482" lon="-3.11164">
        <ele>286</ele>
        <time>2016-03-07T15:45:03Z</time>
      </trkpt>
      <trkpt lat="48.21483" lon="-3.11168">
        <ele>286</ele>
        <time>2016-03-07T15:45:05Z</time>
      </trkpt>
      <trkpt lat="48.21485" lon="-3.11173">
        <ele>286</ele>
        <time>2016-03-07T15:45:08Z</time>
      </trkpt>
      <trkpt lat="48.21486" lon="-3.11178">
        <ele>286</ele>
        <time>2016-03-07T15:45:11Z</time>
      </trkpt>
      <trkpt lat="48.21488" lon="-3.11183">
        <ele>286</ele>
        <time>2016-03-07T15:45:14Z</time>
      </trkpt>
      <trkpt lat="48.21489" lon="-3.11188">
        <ele>285</ele>
        <time>2016-03-07T15:45:17Z</time>
      </trkpt>
      <trkpt lat="48.2149" lon="-3.11194">
        <ele>285</ele>
        <time>2016-03-07T15:45:20Z</time>
      </trkpt>
      <trkpt lat="48.21492" lon="-3.11199">
        <ele>285</ele>
        <time>2016-03-07T15:45:23Z</time>
      </trkpt>
      <trkpt lat="48.21493" lon="-3.11205">
        <ele>285</ele>
        <time>2016-03-07T15:45:26Z</time>
      </trkpt>
      <trkpt lat="48.21494" lon="-3.1121">
        <ele>285</ele>
        <time>2016-03-07T15:45:29Z</time>
      </trkpt>
      <trkpt lat="48.21495" lon="-3.11216">
        <ele>285</ele>
        <time>2016-03-07T15:45:32Z</time>
      </trkpt>
      <trkpt lat="48.21497" lon="-3.11222">
        <ele>285</ele>
        <time>2016-03-07T15:45:35Z</time>
      </trkpt>
      <trkpt lat="48.21498" lon="-3.11229">
        <ele>285</ele>
        <time>2016-03-07T15:45:38Z</time>
      </trkpt>
      <trkpt lat="48.21499" lon="-3.11233">
        <ele>284</ele>
        <time>2016-03-07T15:45:40Z</time>
      </trkpt>
      <trkpt lat="48.215" lon="-3.11239">
        <ele>284</ele>
        <time>2016-03-07T15:45:43Z</time>
      </trkpt>
      <trkpt lat="48.21501" lon="-3.11246">
        <ele>284</ele>
        <time>2016-03-07T15:45:46Z</time>
      </trkpt>
      <trkpt lat="48.21502" lon="-3.11252">
        <ele>284</ele>
        <time>2016-03-07T15:45:49Z</time>
      </trkpt>
      <trkpt lat="48.21502" lon="-3.11257">
        <ele>284</ele>
        <time>2016-03-07T15:45:51Z</time>
      </trkpt>
      <trkpt lat="48.21502" lon="-3.11261">
        <ele>284</ele>
        <time>2016-03-07T15:45:53Z</time>
      </trkpt>
      <trkpt lat="48.21503" lon="-3.11267">
        <ele>284</ele>
        <time>2016-03-07T15:45:56Z</time>
      </trkpt>
      <trkpt lat="48.21504" lon="-3.11273">
        <ele>284</ele>
        <time>2016-03-07T15:45:59Z</time>
      </trkpt>
      <trkpt lat="48.21504" lon="-3.11277">
        <ele>284</ele>
        <time>2016-03-07T15:46:01Z</time>
      </trkpt>
      <trkpt lat="48.21505" lon="-3.11282">
        <ele>284</ele>
        <time>2016-03-07T15:46:04Z</time>
      </trkpt>
      <trkpt lat="48.21505" lon="-3.11286">
        <ele>284</ele>
        <time>2016-03-07T15:46:06Z</time>
      </trkpt>
      <trkpt lat="48.21506" lon="-3.11292">
        <ele>284</ele>
        <time>2016-03-07T15:46:09Z</time>
      </trkpt>
      <trkpt lat="48.21506" lon="-3.11297">
        <ele>284</ele>
        <time>2016-03-07T15:46:12Z</time>
      </trkpt>
      <trkpt lat="48.21507" lon="-3.11301">
        <ele>284</ele>
        <time>2016-03-07T15:46:14Z</time>
      </trkpt>
      <trkpt lat="48.21508" lon="-3.11306">
        <ele>284</ele>
        <time>2016-03-07T15:46:17Z</time>
      </trkpt>
      <trkpt lat="48.21508" lon="-3.11312">
        <ele>284</ele>
        <time>2016-03-07T15:46:20Z</time>
      </trkpt>
      <trkpt lat="48.21508" lon="-3.11316">
        <ele>284</ele>
        <time>2016-03-07T15:46:22Z</time>
      </trkpt>
      <trkpt lat="48.21508" lon="-3.11321">
        <ele>283</ele>
        <time>2016-03-07T15:46:25Z</time>
      </trkpt>
      <trkpt lat="48.21509" lon="-3.11325">
        <ele>283</ele>
        <time>2016-03-07T15:46:27Z</time>
      </trkpt>
      <trkpt lat="48.21509" lon="-3.1133">
        <ele>283</ele>
        <time>2016-03-07T15:46:30Z</time>
      </trkpt>
      <trkpt lat="48.2151" lon="-3.11336">
        <ele>283</ele>
        <time>2016-03-07T15:46:33Z</time>
      </trkpt>
      <trkpt lat="48.2151" lon="-3.1134">
        <ele>283</ele>
        <time>2016-03-07T15:46:35Z</time>
      </trkpt>
      <trkpt lat="48.2151" lon="-3.11347">
        <ele>283</ele>
        <time>2016-03-07T15:46:38Z</time>
      </trkpt>
      <trkpt lat="48.2151" lon="-3.11351">
        <ele>283</ele>
        <time>2016-03-07T15:46:40Z</time>
      </trkpt>
      <trkpt lat="48.2151" lon="-3.11357">
        <ele>283</ele>
        <time>2016-03-07T15:46:43Z</time>
      </trkpt>
      <trkpt lat="48.2151" lon="-3.1136">
        <ele>283</ele>
        <time>2016-03-07T15:46:45Z</time>
      </trkpt>
      <trkpt lat="48.2151" lon="-3.11366">
        <ele>282</ele>
        <time>2016-03-07T15:46:48Z</time>
      </trkpt>
      <trkpt lat="48.2151" lon="-3.11372">
        <ele>282</ele>
        <time>2016-03-07T15:46:51Z</time>
      </trkpt>
      <trkpt lat="48.2151" lon="-3.11377">
        <ele>282</ele>
        <time>2016-03-07T15:46:54Z</time>
      </trkpt>
      <trkpt lat="48.2151" lon="-3.1138">
        <ele>282</ele>
        <time>2016-03-07T15:46:56Z</time>
      </trkpt>
      <trkpt lat="48.2151" lon="-3.11386">
        <ele>282</ele>
        <time>2016-03-07T15:46:59Z</time>
      </trkpt>
      <trkpt lat="48.2151" lon="-3.11389">
        <ele>282</ele>
        <time>2016-03-07T15:47:01Z</time>
      </trkpt>
      <trkpt lat="48.2151" lon="-3.11395">
        <ele>281</ele>
        <time>2016-03-07T15:47:04Z</time>
      </trkpt>
      <trkpt lat="48.2151" lon="-3.114">
        <ele>281</ele>
        <time>2016-03-07T15:47:06Z</time>
      </trkpt>
      <trkpt lat="48.21511" lon="-3.11404">
        <ele>281</ele>
        <time>2016-03-07T15:47:08Z</time>
      </trkpt>
      <trkpt lat="48.21511" lon="-3.1141">
        <ele>281</ele>
        <time>2016-03-07T15:47:11Z</time>
      </trkpt>
      <trkpt lat="48.21512" lon="-3.11417">
        <ele>281</ele>
        <time>2016-03-07T15:47:14Z</time>
      </trkpt>
      <trkpt lat="48.21512" lon="-3.11422">
        <ele>281</ele>
        <time>2016-03-07T15:47:17Z</time>
      </trkpt>
      <trkpt lat="48.21513" lon="-3.11427">
        <ele>281</ele>
        <time>2016-03-07T15:47:19Z</time>
      </trkpt>
      <trkpt lat="48.21513" lon="-3.11433">
        <ele>281</ele>
        <time>2016-03-07T15:47:22Z</time>
      </trkpt>
      <trkpt lat="48.21513" lon="-3.11437">
        <ele>281</ele>
        <time>2016-03-07T15:47:24Z</time>
      </trkpt>
      <trkpt lat="48.21514" lon="-3.11441">
        <ele>281</ele>
        <time>2016-03-07T15:47:26Z</time>
      </trkpt>
      <trkpt lat="48.21515" lon="-3.11447">
        <ele>281</ele>
        <time>2016-03-07T15:47:29Z</time>
      </trkpt>
      <trkpt lat="48.21516" lon="-3.11452">
        <ele>281</ele>
        <time>2016-03-07T15:47:32Z</time>
      </trkpt>
      <trkpt lat="48.21516" lon="-3.11456">
        <ele>281</ele>
        <time>2016-03-07T15:47:34Z</time>
      </trkpt>
      <trkpt lat="48.21516" lon="-3.11462">
        <ele>281</ele>
        <time>2016-03-07T15:47:37Z</time>
      </trkpt>
      <trkpt lat="48.21517" lon="-3.11468">
        <ele>281</ele>
        <time>2016-03-07T15:47:40Z</time>
      </trkpt>
      <trkpt lat="48.21517" lon="-3.11473">
        <ele>280</ele>
        <time>2016-03-07T15:47:43Z</time>
      </trkpt>
      <trkpt lat="48.21518" lon="-3.11477">
        <ele>280</ele>
        <time>2016-03-07T15:47:45Z</time>
      </trkpt>
      <trkpt lat="48.21519" lon="-3.11483">
        <ele>281</ele>
        <time>2016-03-07T15:47:48Z</time>
      </trkpt>
      <trkpt lat="48.2152" lon="-3.11489">
        <ele>280</ele>
        <time>2016-03-07T15:47:51Z</time>
      </trkpt>
      <trkpt lat="48.21521" lon="-3.11495">
        <ele>280</ele>
        <time>2016-03-07T15:47:54Z</time>
      </trkpt>
      <trkpt lat="48.21521" lon="-3.11501">
        <ele>280</ele>
        <time>2016-03-07T15:47:57Z</time>
      </trkpt>
      <trkpt lat="48.21522" lon="-3.11505">
        <ele>281</ele>
        <time>2016-03-07T15:47:59Z</time>
      </trkpt>
      <trkpt lat="48.21522" lon="-3.11509">
        <ele>281</ele>
        <time>2016-03-07T15:48:01Z</time>
      </trkpt>
      <trkpt lat="48.21523" lon="-3.11514">
        <ele>281</ele>
        <time>2016-03-07T15:48:04Z</time>
      </trkpt>
      <trkpt lat="48.21524" lon="-3.11518">
        <ele>280</ele>
        <time>2016-03-07T15:48:06Z</time>
      </trkpt>
      <trkpt lat="48.21524" lon="-3.11522">
        <ele>280</ele>
        <time>2016-03-07T15:48:08Z</time>
      </trkpt>
      <trkpt lat="48.21525" lon="-3.11527">
        <ele>280</ele>
        <time>2016-03-07T15:48:11Z</time>
      </trkpt>
      <trkpt lat="48.21526" lon="-3.11531">
        <ele>279</ele>
        <time>2016-03-07T15:48:13Z</time>
      </trkpt>
      <trkpt lat="48.21527" lon="-3.11536">
        <ele>279</ele>
        <time>2016-03-07T15:48:16Z</time>
      </trkpt>
      <trkpt lat="48.21528" lon="-3.11542">
        <ele>279</ele>
        <time>2016-03-07T15:48:19Z</time>
      </trkpt>
      <trkpt lat="48.21529" lon="-3.11548">
        <ele>279</ele>
        <time>2016-03-07T15:48:22Z</time>
      </trkpt>
      <trkpt lat="48.2153" lon="-3.11552">
        <ele>279</ele>
        <time>2016-03-07T15:48:24Z</time>
      </trkpt>
      <trkpt lat="48.21531" lon="-3.11559">
        <ele>279</ele>
        <time>2016-03-07T15:48:27Z</time>
      </trkpt>
      <trkpt lat="48.21532" lon="-3.11563">
        <ele>279</ele>
        <time>2016-03-07T15:48:29Z</time>
      </trkpt>
      <trkpt lat="48.21533" lon="-3.11569">
        <ele>278</ele>
        <time>2016-03-07T15:48:32Z</time>
      </trkpt>
      <trkpt lat="48.21533" lon="-3.11573">
        <ele>278</ele>
        <time>2016-03-07T15:48:34Z</time>
      </trkpt>
      <trkpt lat="48.21534" lon="-3.1158">
        <ele>279</ele>
        <time>2016-03-07T15:48:37Z</time>
      </trkpt>
      <trkpt lat="48.21535" lon="-3.11584">
        <ele>279</ele>
        <time>2016-03-07T15:48:39Z</time>
      </trkpt>
      <trkpt lat="48.21537" lon="-3.1159">
        <ele>279</ele>
        <time>2016-03-07T15:48:42Z</time>
      </trkpt>
      <trkpt lat="48.21538" lon="-3.11595">
        <ele>279</ele>
        <time>2016-03-07T15:48:45Z</time>
      </trkpt>
      <trkpt lat="48.21539" lon="-3.11598">
        <ele>278</ele>
        <time>2016-03-07T15:48:47Z</time>
      </trkpt>
      <trkpt lat="48.2154" lon="-3.11603">
        <ele>278</ele>
        <time>2016-03-07T15:48:50Z</time>
      </trkpt>
      <trkpt lat="48.21542" lon="-3.11609">
        <ele>278</ele>
        <time>2016-03-07T15:48:53Z</time>
      </trkpt>
      <trkpt lat="48.21543" lon="-3.11614">
        <ele>278</ele>
        <time>2016-03-07T15:48:56Z</time>
      </trkpt>
      <trkpt lat="48.21544" lon="-3.11619">
        <ele>278</ele>
        <time>2016-03-07T15:48:59Z</time>
      </trkpt>
      <trkpt lat="48.21545" lon="-3.11623">
        <ele>278</ele>
        <time>2016-03-07T15:49:01Z</time>
      </trkpt>
      <trkpt lat="48.21545" lon="-3.11629">
        <ele>278</ele>
        <time>2016-03-07T15:49:04Z</time>
      </trkpt>
      <trkpt lat="48.21546" lon="-3.11632">
        <ele>278</ele>
        <time>2016-03-07T15:49:06Z</time>
      </trkpt>
      <trkpt lat="48.21547" lon="-3.11636">
        <ele>278</ele>
        <time>2016-03-07T15:49:08Z</time>
      </trkpt>
      <trkpt lat="48.21548" lon="-3.11641">
        <ele>278</ele>
        <time>2016-03-07T15:49:11Z</time>
      </trkpt>
      <trkpt lat="48.21549" lon="-3.11647">
        <ele>277</ele>
        <time>2016-03-07T15:49:14Z</time>
      </trkpt>
      <trkpt lat="48.21549" lon="-3.11651">
        <ele>277</ele>
        <time>2016-03-07T15:49:16Z</time>
      </trkpt>
      <trkpt lat="48.2155" lon="-3.11656">
        <ele>277</ele>
        <time>2016-03-07T15:49:19Z</time>
      </trkpt>
      <trkpt lat="48.21551" lon="-3.11659">
        <ele>277</ele>
        <time>2016-03-07T15:49:21Z</time>
      </trkpt>
      <trkpt lat="48.21552" lon="-3.11665">
        <ele>277</ele>
        <time>2016-03-07T15:49:24Z</time>
      </trkpt>
      <trkpt lat="48.21552" lon="-3.11667">
        <ele>277</ele>
        <time>2016-03-07T15:49:27Z</time>
      </trkpt>
      <trkpt lat="48.21553" lon="-3.1167">
        <ele>276</ele>
        <time>2016-03-07T15:49:29Z</time>
      </trkpt>
      <trkpt lat="48.21554" lon="-3.11675">
        <ele>276</ele>
        <time>2016-03-07T15:49:32Z</time>
      </trkpt>
      <trkpt lat="48.21555" lon="-3.11678">
        <ele>276</ele>
        <time>2016-03-07T15:49:34Z</time>
      </trkpt>
      <trkpt lat="48.21556" lon="-3.11682">
        <ele>276</ele>
        <time>2016-03-07T15:49:36Z</time>
      </trkpt>
      <trkpt lat="48.21557" lon="-3.11685">
        <ele>276</ele>
        <time>2016-03-07T15:49:38Z</time>
      </trkpt>
      <trkpt lat="48.21558" lon="-3.11689">
        <ele>276</ele>
        <time>2016-03-07T15:49:41Z</time>
      </trkpt>
      <trkpt lat="48.21559" lon="-3.11691">
        <ele>276</ele>
        <time>2016-03-07T15:49:43Z</time>
      </trkpt>
      <trkpt lat="48.21561" lon="-3.11696">
        <ele>276</ele>
        <time>2016-03-07T15:49:46Z</time>
      </trkpt>
      <trkpt lat="48.21562" lon="-3.11699">
        <ele>276</ele>
        <time>2016-03-07T15:49:48Z</time>
      </trkpt>
      <trkpt lat="48.21563" lon="-3.11701">
        <ele>276</ele>
        <time>2016-03-07T15:49:50Z</time>
      </trkpt>
      <trkpt lat="48.21565" lon="-3.11704">
        <ele>275</ele>
        <time>2016-03-07T15:49:52Z</time>
      </trkpt>
      <trkpt lat="48.21566" lon="-3.11709">
        <ele>275</ele>
        <time>2016-03-07T15:49:55Z</time>
      </trkpt>
      <trkpt lat="48.21567" lon="-3.11713">
        <ele>275</ele>
        <time>2016-03-07T15:49:58Z</time>
      </trkpt>
      <trkpt lat="48.21568" lon="-3.11717">
        <ele>275</ele>
        <time>2016-03-07T15:50:00Z</time>
      </trkpt>
      <trkpt lat="48.2157" lon="-3.11721">
        <ele>275</ele>
        <time>2016-03-07T15:50:03Z</time>
      </trkpt>
      <trkpt lat="48.21572" lon="-3.11726">
        <ele>275</ele>
        <time>2016-03-07T15:50:06Z</time>
      </trkpt>
      <trkpt lat="48.21574" lon="-3.1173">
        <ele>275</ele>
        <time>2016-03-07T15:50:08Z</time>
      </trkpt>
      <trkpt lat="48.21576" lon="-3.11735">
        <ele>275</ele>
        <time>2016-03-07T15:50:11Z</time>
      </trkpt>
      <trkpt lat="48.21577" lon="-3.11739">
        <ele>275</ele>
        <time>2016-03-07T15:50:14Z</time>
      </trkpt>
      <trkpt lat="48.21577" lon="-3.11741">
        <ele>275</ele>
        <time>2016-03-07T15:50:16Z</time>
      </trkpt>
      <trkpt lat="48.21579" lon="-3.11747">
        <ele>275</ele>
        <time>2016-03-07T15:50:19Z</time>
      </trkpt>
      <trkpt lat="48.2158" lon="-3.1175">
        <ele>275</ele>
        <time>2016-03-07T15:50:21Z</time>
      </trkpt>
      <trkpt lat="48.21581" lon="-3.11755">
        <ele>275</ele>
        <time>2016-03-07T15:50:24Z</time>
      </trkpt>
      <trkpt lat="48.21582" lon="-3.11758">
        <ele>275</ele>
        <time>2016-03-07T15:50:26Z</time>
      </trkpt>
      <trkpt lat="48.21583" lon="-3.11762">
        <ele>275</ele>
        <time>2016-03-07T15:50:29Z</time>
      </trkpt>
      <trkpt lat="48.21585" lon="-3.11767">
        <ele>274</ele>
        <time>2016-03-07T15:50:32Z</time>
      </trkpt>
      <trkpt lat="48.21586" lon="-3.11772">
        <ele>275</ele>
        <time>2016-03-07T15:50:35Z</time>
      </trkpt>
      <trkpt lat="48.21587" lon="-3.11775">
        <ele>274</ele>
        <time>2016-03-07T15:50:37Z</time>
      </trkpt>
      <trkpt lat="48.21589" lon="-3.1178">
        <ele>274</ele>
        <time>2016-03-07T15:50:40Z</time>
      </trkpt>
      <trkpt lat="48.21589" lon="-3.11783">
        <ele>274</ele>
        <time>2016-03-07T15:50:42Z</time>
      </trkpt>
      <trkpt lat="48.21591" lon="-3.11787">
        <ele>274</ele>
        <time>2016-03-07T15:50:45Z</time>
      </trkpt>
      <trkpt lat="48.21592" lon="-3.11789">
        <ele>274</ele>
        <time>2016-03-07T15:50:47Z</time>
      </trkpt>
      <trkpt lat="48.21593" lon="-3.11793">
        <ele>274</ele>
        <time>2016-03-07T15:50:49Z</time>
      </trkpt>
      <trkpt lat="48.21595" lon="-3.11797">
        <ele>274</ele>
        <time>2016-03-07T15:50:52Z</time>
      </trkpt>
      <trkpt lat="48.21596" lon="-3.11801">
        <ele>274</ele>
        <time>2016-03-07T15:50:55Z</time>
      </trkpt>
      <trkpt lat="48.21597" lon="-3.11804">
        <ele>274</ele>
        <time>2016-03-07T15:50:57Z</time>
      </trkpt>
      <trkpt lat="48.216" lon="-3.11808">
        <ele>274</ele>
        <time>2016-03-07T15:51:00Z</time>
      </trkpt>
      <trkpt lat="48.21602" lon="-3.11813">
        <ele>274</ele>
        <time>2016-03-07T15:51:03Z</time>
      </trkpt>
      <trkpt lat="48.21603" lon="-3.11817">
        <ele>274</ele>
        <time>2016-03-07T15:51:05Z</time>
      </trkpt>
      <trkpt lat="48.21605" lon="-3.1182">
        <ele>274</ele>
        <time>2016-03-07T15:51:07Z</time>
      </trkpt>
      <trkpt lat="48.21606" lon="-3.11824">
        <ele>273</ele>
        <time>2016-03-07T15:51:10Z</time>
      </trkpt>
      <trkpt lat="48.21607" lon="-3.11827">
        <ele>273</ele>
        <time>2016-03-07T15:51:12Z</time>
      </trkpt>
      <trkpt lat="48.21609" lon="-3.11832">
        <ele>273</ele>
        <time>2016-03-07T15:51:15Z</time>
      </trkpt>
      <trkpt lat="48.2161" lon="-3.11835">
        <ele>273</ele>
        <time>2016-03-07T15:51:17Z</time>
      </trkpt>
      <trkpt lat="48.21611" lon="-3.11838">
        <ele>273</ele>
        <time>2016-03-07T15:51:19Z</time>
      </trkpt>
      <trkpt lat="48.21613" lon="-3.11842">
        <ele>273</ele>
        <time>2016-03-07T15:51:22Z</time>
      </trkpt>
      <trkpt lat="48.21616" lon="-3.11847">
        <ele>273</ele>
        <time>2016-03-07T15:51:25Z</time>
      </trkpt>
      <trkpt lat="48.21617" lon="-3.1185">
        <ele>273</ele>
        <time>2016-03-07T15:51:27Z</time>
      </trkpt>
      <trkpt lat="48.2162" lon="-3.11854">
        <ele>273</ele>
        <time>2016-03-07T15:51:30Z</time>
      </trkpt>
      <trkpt lat="48.21621" lon="-3.11857">
        <ele>273</ele>
        <time>2016-03-07T15:51:32Z</time>
      </trkpt>
      <trkpt lat="48.21623" lon="-3.11862">
        <ele>273</ele>
        <time>2016-03-07T15:51:35Z</time>
      </trkpt>
      <trkpt lat="48.21624" lon="-3.11864">
        <ele>273</ele>
        <time>2016-03-07T15:51:37Z</time>
      </trkpt>
      <trkpt lat="48.21627" lon="-3.11869">
        <ele>273</ele>
        <time>2016-03-07T15:51:40Z</time>
      </trkpt>
      <trkpt lat="48.21629" lon="-3.11874">
        <ele>273</ele>
        <time>2016-03-07T15:51:43Z</time>
      </trkpt>
      <trkpt lat="48.2163" lon="-3.11876">
        <ele>273</ele>
        <time>2016-03-07T15:51:45Z</time>
      </trkpt>
      <trkpt lat="48.21632" lon="-3.11881">
        <ele>273</ele>
        <time>2016-03-07T15:51:48Z</time>
      </trkpt>
      <trkpt lat="48.21634" lon="-3.11885">
        <ele>273</ele>
        <time>2016-03-07T15:51:51Z</time>
      </trkpt>
      <trkpt lat="48.21635" lon="-3.11889">
        <ele>272</ele>
        <time>2016-03-07T15:51:54Z</time>
      </trkpt>
      <trkpt lat="48.21637" lon="-3.11893">
        <ele>272</ele>
        <time>2016-03-07T15:51:56Z</time>
      </trkpt>
      <trkpt lat="48.21639" lon="-3.11895">
        <ele>272</ele>
        <time>2016-03-07T15:51:58Z</time>
      </trkpt>
      <trkpt lat="48.2164" lon="-3.11899">
        <ele>272</ele>
        <time>2016-03-07T15:52:00Z</time>
      </trkpt>
      <trkpt lat="48.21643" lon="-3.11904">
        <ele>272</ele>
        <time>2016-03-07T15:52:03Z</time>
      </trkpt>
      <trkpt lat="48.21645" lon="-3.11907">
        <ele>272</ele>
        <time>2016-03-07T15:52:05Z</time>
      </trkpt>
      <trkpt lat="48.21646" lon="-3.1191">
        <ele>272</ele>
        <time>2016-03-07T15:52:07Z</time>
      </trkpt>
      <trkpt lat="48.21648" lon="-3.11913">
        <ele>272</ele>
        <time>2016-03-07T15:52:09Z</time>
      </trkpt>
      <trkpt lat="48.2165" lon="-3.11917">
        <ele>272</ele>
        <time>2016-03-07T15:52:12Z</time>
      </trkpt>
      <trkpt lat="48.21652" lon="-3.11921">
        <ele>271</ele>
        <time>2016-03-07T15:52:15Z</time>
      </trkpt>
      <trkpt lat="48.21655" lon="-3.11926">
        <ele>271</ele>
        <time>2016-03-07T15:52:18Z</time>
      </trkpt>
      <trkpt lat="48.21658" lon="-3.1193">
        <ele>271</ele>
        <time>2016-03-07T15:52:21Z</time>
      </trkpt>
      <trkpt lat="48.2166" lon="-3.11932">
        <ele>271</ele>
        <time>2016-03-07T15:52:23Z</time>
      </trkpt>
      <trkpt lat="48.21662" lon="-3.11935">
        <ele>271</ele>
        <time>2016-03-07T15:52:25Z</time>
      </trkpt>
      <trkpt lat="48.21664" lon="-3.11939">
        <ele>271</ele>
        <time>2016-03-07T15:52:28Z</time>
      </trkpt>
      <trkpt lat="48.21667" lon="-3.11944">
        <ele>271</ele>
        <time>2016-03-07T15:52:31Z</time>
      </trkpt>
      <trkpt lat="48.21669" lon="-3.11949">
        <ele>271</ele>
        <time>2016-03-07T15:52:34Z</time>
      </trkpt>
      <trkpt lat="48.21672" lon="-3.11954">
        <ele>271</ele>
        <time>2016-03-07T15:52:37Z</time>
      </trkpt>
      <trkpt lat="48.21674" lon="-3.11957">
        <ele>271</ele>
        <time>2016-03-07T15:52:39Z</time>
      </trkpt>
      <trkpt lat="48.21677" lon="-3.11962">
        <ele>271</ele>
        <time>2016-03-07T15:52:42Z</time>
      </trkpt>
      <trkpt lat="48.2168" lon="-3.11967">
        <ele>271</ele>
        <time>2016-03-07T15:52:45Z</time>
      </trkpt>
      <trkpt lat="48.21684" lon="-3.11972">
        <ele>271</ele>
        <time>2016-03-07T15:52:47Z</time>
      </trkpt>
      <trkpt lat="48.2169" lon="-3.11981">
        <ele>271</ele>
        <time>2016-03-07T15:52:50Z</time>
      </trkpt>
      <trkpt lat="48.21696" lon="-3.11988">
        <ele>270</ele>
        <time>2016-03-07T15:52:53Z</time>
      </trkpt>
      <trkpt lat="48.21699" lon="-3.11992">
        <ele>270</ele>
        <time>2016-03-07T15:52:55Z</time>
      </trkpt>
      <trkpt lat="48.21704" lon="-3.11999">
        <ele>269</ele>
        <time>2016-03-07T15:52:58Z</time>
      </trkpt>
      <trkpt lat="48.21706" lon="-3.12002">
        <ele>269</ele>
        <time>2016-03-07T15:53:00Z</time>
      </trkpt>
      <trkpt lat="48.2171" lon="-3.12005">
        <ele>270</ele>
        <time>2016-03-07T15:53:03Z</time>
      </trkpt>
      <trkpt lat="48.21711" lon="-3.12007">
        <ele>269</ele>
        <time>2016-03-07T15:53:06Z</time>
      </trkpt>
      <trkpt lat="48.21711" lon="-3.12009">
        <ele>270</ele>
        <time>2016-03-07T15:53:09Z</time>
      </trkpt>
      <trkpt lat="48.21711" lon="-3.12011">
        <ele>270</ele>
        <time>2016-03-07T15:53:11Z</time>
      </trkpt>
      <trkpt lat="48.21711" lon="-3.12013">
        <ele>270</ele>
        <time>2016-03-07T15:53:13Z</time>
      </trkpt>
      <trkpt lat="48.21711" lon="-3.12015">
        <ele>270</ele>
        <time>2016-03-07T15:53:16Z</time>
      </trkpt>
      <trkpt lat="48.21712" lon="-3.12017">
        <ele>270</ele>
        <time>2016-03-07T15:53:18Z</time>
      </trkpt>
      <trkpt lat="48.21714" lon="-3.1202">
        <ele>270</ele>
        <time>2016-03-07T15:53:21Z</time>
      </trkpt>
      <trkpt lat="48.21717" lon="-3.12024">
        <ele>270</ele>
        <time>2016-03-07T15:53:24Z</time>
      </trkpt>
      <trkpt lat="48.21719" lon="-3.12027">
        <ele>270</ele>
        <time>2016-03-07T15:53:26Z</time>
      </trkpt>
      <trkpt lat="48.21722" lon="-3.12031">
        <ele>269</ele>
        <time>2016-03-07T15:53:29Z</time>
      </trkpt>
      <trkpt lat="48.21724" lon="-3.12033">
        <ele>269</ele>
        <time>2016-03-07T15:53:31Z</time>
      </trkpt>
      <trkpt lat="48.21726" lon="-3.12037">
        <ele>269</ele>
        <time>2016-03-07T15:53:34Z</time>
      </trkpt>
      <trkpt lat="48.21728" lon="-3.12039">
        <ele>270</ele>
        <time>2016-03-07T15:53:36Z</time>
      </trkpt>
      <trkpt lat="48.21731" lon="-3.12044">
        <ele>270</ele>
        <time>2016-03-07T15:53:39Z</time>
      </trkpt>
      <trkpt lat="48.21733" lon="-3.12047">
        <ele>270</ele>
        <time>2016-03-07T15:53:41Z</time>
      </trkpt>
      <trkpt lat="48.21735" lon="-3.1205">
        <ele>269</ele>
        <time>2016-03-07T15:53:43Z</time>
      </trkpt>
      <trkpt lat="48.21738" lon="-3.12054">
        <ele>269</ele>
        <time>2016-03-07T15:53:46Z</time>
      </trkpt>
      <trkpt lat="48.21741" lon="-3.12059">
        <ele>268</ele>
        <time>2016-03-07T15:53:49Z</time>
      </trkpt>
      <trkpt lat="48.21744" lon="-3.12063">
        <ele>268</ele>
        <time>2016-03-07T15:53:52Z</time>
      </trkpt>
      <trkpt lat="48.21746" lon="-3.12066">
        <ele>268</ele>
        <time>2016-03-07T15:53:54Z</time>
      </trkpt>
      <trkpt lat="48.21748" lon="-3.1207">
        <ele>268</ele>
        <time>2016-03-07T15:53:57Z</time>
      </trkpt>
      <trkpt lat="48.21751" lon="-3.12074">
        <ele>268</ele>
        <time>2016-03-07T15:54:00Z</time>
      </trkpt>
      <trkpt lat="48.21753" lon="-3.12079">
        <ele>268</ele>
        <time>2016-03-07T15:54:03Z</time>
      </trkpt>
      <trkpt lat="48.21755" lon="-3.12081">
        <ele>268</ele>
        <time>2016-03-07T15:54:05Z</time>
      </trkpt>
      <trkpt lat="48.21757" lon="-3.12085">
        <ele>268</ele>
        <time>2016-03-07T15:54:08Z</time>
      </trkpt>
      <trkpt lat="48.2176" lon="-3.1209">
        <ele>268</ele>
        <time>2016-03-07T15:54:11Z</time>
      </trkpt>
      <trkpt lat="48.21762" lon="-3.12092">
        <ele>268</ele>
        <time>2016-03-07T15:54:13Z</time>
      </trkpt>
      <trkpt lat="48.21765" lon="-3.12096">
        <ele>268</ele>
        <time>2016-03-07T15:54:16Z</time>
      </trkpt>
      <trkpt lat="48.21767" lon="-3.12099">
        <ele>268</ele>
        <time>2016-03-07T15:54:18Z</time>
      </trkpt>
      <trkpt lat="48.21768" lon="-3.12101">
        <ele>268</ele>
        <time>2016-03-07T15:54:20Z</time>
      </trkpt>
      <trkpt lat="48.21771" lon="-3.12105">
        <ele>267</ele>
        <time>2016-03-07T15:54:23Z</time>
      </trkpt>
      <trkpt lat="48.21772" lon="-3.12108">
        <ele>267</ele>
        <time>2016-03-07T15:54:25Z</time>
      </trkpt>
      <trkpt lat="48.21775" lon="-3.12111">
        <ele>268</ele>
        <time>2016-03-07T15:54:28Z</time>
      </trkpt>
      <trkpt lat="48.21776" lon="-3.12114">
        <ele>268</ele>
        <time>2016-03-07T15:54:30Z</time>
      </trkpt>
      <trkpt lat="48.21778" lon="-3.12117">
        <ele>268</ele>
        <time>2016-03-07T15:54:32Z</time>
      </trkpt>
      <trkpt lat="48.2178" lon="-3.12121">
        <ele>267</ele>
        <time>2016-03-07T15:54:35Z</time>
      </trkpt>
      <trkpt lat="48.21783" lon="-3.12125">
        <ele>267</ele>
        <time>2016-03-07T15:54:38Z</time>
      </trkpt>
      <trkpt lat="48.21785" lon="-3.12128">
        <ele>267</ele>
        <time>2016-03-07T15:54:40Z</time>
      </trkpt>
      <trkpt lat="48.21787" lon="-3.12132">
        <ele>267</ele>
        <time>2016-03-07T15:54:43Z</time>
      </trkpt>
      <trkpt lat="48.2179" lon="-3.12136">
        <ele>267</ele>
        <time>2016-03-07T15:54:46Z</time>
      </trkpt>
      <trkpt lat="48.21792" lon="-3.12141">
        <ele>267</ele>
        <time>2016-03-07T15:54:49Z</time>
      </trkpt>
      <trkpt lat="48.21793" lon="-3.12145">
        <ele>267</ele>
        <time>2016-03-07T15:54:51Z</time>
      </trkpt>
      <trkpt lat="48.21796" lon="-3.12148">
        <ele>267</ele>
        <time>2016-03-07T15:54:54Z</time>
      </trkpt>
      <trkpt lat="48.21798" lon="-3.12152">
        <ele>267</ele>
        <time>2016-03-07T15:54:57Z</time>
      </trkpt>
      <trkpt lat="48.21801" lon="-3.12156">
        <ele>267</ele>
        <time>2016-03-07T15:55:00Z</time>
      </trkpt>
      <trkpt lat="48.21803" lon="-3.1216">
        <ele>267</ele>
        <time>2016-03-07T15:55:03Z</time>
      </trkpt>
      <trkpt lat="48.21804" lon="-3.12164">
        <ele>267</ele>
        <time>2016-03-07T15:55:05Z</time>
      </trkpt>
      <trkpt lat="48.21806" lon="-3.12169">
        <ele>267</ele>
        <time>2016-03-07T15:55:08Z</time>
      </trkpt>
      <trkpt lat="48.21809" lon="-3.12175">
        <ele>267</ele>
        <time>2016-03-07T15:55:11Z</time>
      </trkpt>
      <trkpt lat="48.2181" lon="-3.12178">
        <ele>267</ele>
        <time>2016-03-07T15:55:13Z</time>
      </trkpt>
      <trkpt lat="48.21812" lon="-3.12182">
        <ele>267</ele>
        <time>2016-03-07T15:55:16Z</time>
      </trkpt>
      <trkpt lat="48.21812" lon="-3.12186">
        <ele>267</ele>
        <time>2016-03-07T15:55:18Z</time>
      </trkpt>
      <trkpt lat="48.21814" lon="-3.12189">
        <ele>266</ele>
        <time>2016-03-07T15:55:20Z</time>
      </trkpt>
      <trkpt lat="48.21814" lon="-3.12192">
        <ele>266</ele>
        <time>2016-03-07T15:55:22Z</time>
      </trkpt>
      <trkpt lat="48.21816" lon="-3.12198">
        <ele>267</ele>
        <time>2016-03-07T15:55:25Z</time>
      </trkpt>
      <trkpt lat="48.21818" lon="-3.12203">
        <ele>267</ele>
        <time>2016-03-07T15:55:28Z</time>
      </trkpt>
      <trkpt lat="48.2182" lon="-3.12209">
        <ele>267</ele>
        <time>2016-03-07T15:55:31Z</time>
      </trkpt>
      <trkpt lat="48.2182" lon="-3.12212">
        <ele>266</ele>
        <time>2016-03-07T15:55:33Z</time>
      </trkpt>
      <trkpt lat="48.21821" lon="-3.12215">
        <ele>266</ele>
        <time>2016-03-07T15:55:35Z</time>
      </trkpt>
      <trkpt lat="48.21822" lon="-3.12219">
        <ele>266</ele>
        <time>2016-03-07T15:55:38Z</time>
      </trkpt>
      <trkpt lat="48.21823" lon="-3.12222">
        <ele>266</ele>
        <time>2016-03-07T15:55:40Z</time>
      </trkpt>
      <trkpt lat="48.21824" lon="-3.12227">
        <ele>265</ele>
        <time>2016-03-07T15:55:43Z</time>
      </trkpt>
      <trkpt lat="48.21825" lon="-3.12231">
        <ele>266</ele>
        <time>2016-03-07T15:55:45Z</time>
      </trkpt>
      <trkpt lat="48.21827" lon="-3.12234">
        <ele>265</ele>
        <time>2016-03-07T15:55:47Z</time>
      </trkpt>
      <trkpt lat="48.21828" lon="-3.12241">
        <ele>265</ele>
        <time>2016-03-07T15:55:50Z</time>
      </trkpt>
      <trkpt lat="48.2183" lon="-3.12247">
        <ele>265</ele>
        <time>2016-03-07T15:55:53Z</time>
      </trkpt>
      <trkpt lat="48.21831" lon="-3.12253">
        <ele>265</ele>
        <time>2016-03-07T15:55:56Z</time>
      </trkpt>
      <trkpt lat="48.21831" lon="-3.12257">
        <ele>265</ele>
        <time>2016-03-07T15:55:58Z</time>
      </trkpt>
      <trkpt lat="48.21832" lon="-3.12263">
        <ele>265</ele>
        <time>2016-03-07T15:56:01Z</time>
      </trkpt>
      <trkpt lat="48.21833" lon="-3.12267">
        <ele>265</ele>
        <time>2016-03-07T15:56:03Z</time>
      </trkpt>
      <trkpt lat="48.21834" lon="-3.12271">
        <ele>265</ele>
        <time>2016-03-07T15:56:05Z</time>
      </trkpt>
      <trkpt lat="48.21835" lon="-3.12277">
        <ele>264</ele>
        <time>2016-03-07T15:56:08Z</time>
      </trkpt>
      <trkpt lat="48.21835" lon="-3.12282">
        <ele>264</ele>
        <time>2016-03-07T15:56:11Z</time>
      </trkpt>
      <trkpt lat="48.21836" lon="-3.12287">
        <ele>265</ele>
        <time>2016-03-07T15:56:13Z</time>
      </trkpt>
      <trkpt lat="48.21836" lon="-3.12291">
        <ele>265</ele>
        <time>2016-03-07T15:56:15Z</time>
      </trkpt>
      <trkpt lat="48.21837" lon="-3.12296">
        <ele>265</ele>
        <time>2016-03-07T15:56:18Z</time>
      </trkpt>
      <trkpt lat="48.21837" lon="-3.123">
        <ele>265</ele>
        <time>2016-03-07T15:56:20Z</time>
      </trkpt>
      <trkpt lat="48.21838" lon="-3.12304">
        <ele>265</ele>
        <time>2016-03-07T15:56:22Z</time>
      </trkpt>
      <trkpt lat="48.21838" lon="-3.12309">
        <ele>265</ele>
        <time>2016-03-07T15:56:25Z</time>
      </trkpt>
      <trkpt lat="48.21838" lon="-3.12313">
        <ele>265</ele>
        <time>2016-03-07T15:56:27Z</time>
      </trkpt>
      <trkpt lat="48.21838" lon="-3.12319">
        <ele>265</ele>
        <time>2016-03-07T15:56:30Z</time>
      </trkpt>
      <trkpt lat="48.21838" lon="-3.12323">
        <ele>265</ele>
        <time>2016-03-07T15:56:32Z</time>
      </trkpt>
      <trkpt lat="48.21838" lon="-3.12326">
        <ele>265</ele>
        <time>2016-03-07T15:56:34Z</time>
      </trkpt>
      <trkpt lat="48.21838" lon="-3.12332">
        <ele>264</ele>
        <time>2016-03-07T15:56:37Z</time>
      </trkpt>
      <trkpt lat="48.21838" lon="-3.12336">
        <ele>264</ele>
        <time>2016-03-07T15:56:39Z</time>
      </trkpt>
      <trkpt lat="48.21838" lon="-3.12342">
        <ele>264</ele>
        <time>2016-03-07T15:56:42Z</time>
      </trkpt>
      <trkpt lat="48.21838" lon="-3.12345">
        <ele>264</ele>
        <time>2016-03-07T15:56:44Z</time>
      </trkpt>
      <trkpt lat="48.21838" lon="-3.12351">
        <ele>264</ele>
        <time>2016-03-07T15:56:47Z</time>
      </trkpt>
      <trkpt lat="48.21838" lon="-3.12356">
        <ele>264</ele>
        <time>2016-03-07T15:56:50Z</time>
      </trkpt>
      <trkpt lat="48.21838" lon="-3.1236">
        <ele>264</ele>
        <time>2016-03-07T15:56:52Z</time>
      </trkpt>
      <trkpt lat="48.21838" lon="-3.12364">
        <ele>264</ele>
        <time>2016-03-07T15:56:55Z</time>
      </trkpt>
      <trkpt lat="48.21838" lon="-3.12367">
        <ele>264</ele>
        <time>2016-03-07T15:56:57Z</time>
      </trkpt>
      <trkpt lat="48.21837" lon="-3.1237">
        <ele>264</ele>
        <time>2016-03-07T15:56:59Z</time>
      </trkpt>
      <trkpt lat="48.21836" lon="-3.12374">
        <ele>265</ele>
        <time>2016-03-07T15:57:02Z</time>
      </trkpt>
      <trkpt lat="48.21836" lon="-3.12376">
        <ele>265</ele>
        <time>2016-03-07T15:57:05Z</time>
      </trkpt>
      <trkpt lat="48.21836" lon="-3.12377">
        <ele>264</ele>
        <time>2016-03-07T15:57:09Z</time>
      </trkpt>
      <trkpt lat="48.21837" lon="-3.12378">
        <ele>264</ele>
        <time>2016-03-07T15:57:12Z</time>
      </trkpt>
      <trkpt lat="48.21836" lon="-3.12378">
        <ele>264</ele>
        <time>2016-03-07T15:57:14Z</time>
      </trkpt>
      <trkpt lat="48.21836" lon="-3.12379">
        <ele>264</ele>
        <time>2016-03-07T15:57:17Z</time>
      </trkpt>
      <trkpt lat="48.21836" lon="-3.12381">
        <ele>264</ele>
        <time>2016-03-07T15:57:20Z</time>
      </trkpt>
      <trkpt lat="48.21836" lon="-3.12381">
        <ele>264</ele>
        <time>2016-03-07T15:57:23Z</time>
      </trkpt>
      <trkpt lat="48.21836" lon="-3.12381">
        <ele>264</ele>
        <time>2016-03-07T15:57:26Z</time>
      </trkpt>
      <trkpt lat="48.21835" lon="-3.1238">
        <ele>265</ele>
        <time>2016-03-07T15:57:30Z</time>
      </trkpt>
      <trkpt lat="48.21835" lon="-3.12379">
        <ele>265</ele>
        <time>2016-03-07T15:57:32Z</time>
      </trkpt>
      <trkpt lat="48.21835" lon="-3.12379">
        <ele>265</ele>
        <time>2016-03-07T15:57:35Z</time>
      </trkpt>
      <trkpt lat="48.21835" lon="-3.12379">
        <ele>264</ele>
        <time>2016-03-07T15:57:37Z</time>
      </trkpt>
      <trkpt lat="48.21836" lon="-3.1238">
        <ele>264</ele>
        <time>2016-03-07T15:57:40Z</time>
      </trkpt>
      <trkpt lat="48.21836" lon="-3.12379">
        <ele>265</ele>
        <time>2016-03-07T15:57:43Z</time>
      </trkpt>
      <trkpt lat="48.21836" lon="-3.12381">
        <ele>264</ele>
        <time>2016-03-07T15:57:46Z</time>
      </trkpt>
      <trkpt lat="48.21836" lon="-3.12384">
        <ele>264</ele>
        <time>2016-03-07T15:57:49Z</time>
      </trkpt>
      <trkpt lat="48.21836" lon="-3.12384">
        <ele>264</ele>
        <time>2016-03-07T15:57:51Z</time>
      </trkpt>
      <trkpt lat="48.21835" lon="-3.12385">
        <ele>264</ele>
        <time>2016-03-07T15:57:55Z</time>
      </trkpt>
      <trkpt lat="48.21834" lon="-3.12385">
        <ele>264</ele>
        <time>2016-03-07T15:57:57Z</time>
      </trkpt>
      <trkpt lat="48.21834" lon="-3.12385">
        <ele>264</ele>
        <time>2016-03-07T15:57:59Z</time>
      </trkpt>
      <trkpt lat="48.21834" lon="-3.12385">
        <ele>264</ele>
        <time>2016-03-07T15:58:02Z</time>
      </trkpt>
      <trkpt lat="48.21833" lon="-3.12385">
        <ele>264</ele>
        <time>2016-03-07T15:58:05Z</time>
      </trkpt>
      <trkpt lat="48.21833" lon="-3.12383">
        <ele>264</ele>
        <time>2016-03-07T15:58:08Z</time>
      </trkpt>
      <trkpt lat="48.21831" lon="-3.12383">
        <ele>264</ele>
        <time>2016-03-07T15:58:10Z</time>
      </trkpt>
      <trkpt lat="48.2183" lon="-3.12387">
        <ele>263</ele>
        <time>2016-03-07T15:58:13Z</time>
      </trkpt>
      <trkpt lat="48.21829" lon="-3.1239">
        <ele>263</ele>
        <time>2016-03-07T15:58:15Z</time>
      </trkpt>
      <trkpt lat="48.21828" lon="-3.12393">
        <ele>263</ele>
        <time>2016-03-07T15:58:17Z</time>
      </trkpt>
      <trkpt lat="48.21828" lon="-3.12399">
        <ele>263</ele>
        <time>2016-03-07T15:58:20Z</time>
      </trkpt>
      <trkpt lat="48.21827" lon="-3.12402">
        <ele>263</ele>
        <time>2016-03-07T15:58:22Z</time>
      </trkpt>
      <trkpt lat="48.21826" lon="-3.12406">
        <ele>263</ele>
        <time>2016-03-07T15:58:24Z</time>
      </trkpt>
      <trkpt lat="48.21825" lon="-3.12411">
        <ele>263</ele>
        <time>2016-03-07T15:58:27Z</time>
      </trkpt>
      <trkpt lat="48.21824" lon="-3.12414">
        <ele>263</ele>
        <time>2016-03-07T15:58:29Z</time>
      </trkpt>
      <trkpt lat="48.21823" lon="-3.1242">
        <ele>262</ele>
        <time>2016-03-07T15:58:32Z</time>
      </trkpt>
      <trkpt lat="48.21821" lon="-3.12425">
        <ele>262</ele>
        <time>2016-03-07T15:58:35Z</time>
      </trkpt>
      <trkpt lat="48.2182" lon="-3.12427">
        <ele>262</ele>
        <time>2016-03-07T15:58:37Z</time>
      </trkpt>
      <trkpt lat="48.21817" lon="-3.12433">
        <ele>262</ele>
        <time>2016-03-07T15:58:40Z</time>
      </trkpt>
      <trkpt lat="48.21814" lon="-3.12438">
        <ele>262</ele>
        <time>2016-03-07T15:58:43Z</time>
      </trkpt>
      <trkpt lat="48.21812" lon="-3.12442">
        <ele>262</ele>
        <time>2016-03-07T15:58:45Z</time>
      </trkpt>
      <trkpt lat="48.2181" lon="-3.12448">
        <ele>262</ele>
        <time>2016-03-07T15:58:48Z</time>
      </trkpt>
      <trkpt lat="48.21809" lon="-3.12453">
        <ele>262</ele>
        <time>2016-03-07T15:58:51Z</time>
      </trkpt>
      <trkpt lat="48.21806" lon="-3.12459">
        <ele>262</ele>
        <time>2016-03-07T15:58:54Z</time>
      </trkpt>
      <trkpt lat="48.21804" lon="-3.12464">
        <ele>262</ele>
        <time>2016-03-07T15:58:57Z</time>
      </trkpt>
      <trkpt lat="48.21802" lon="-3.1247">
        <ele>262</ele>
        <time>2016-03-07T15:59:00Z</time>
      </trkpt>
      <trkpt lat="48.21799" lon="-3.12475">
        <ele>262</ele>
        <time>2016-03-07T15:59:03Z</time>
      </trkpt>
      <trkpt lat="48.21796" lon="-3.1248">
        <ele>262</ele>
        <time>2016-03-07T15:59:06Z</time>
      </trkpt>
      <trkpt lat="48.21794" lon="-3.12483">
        <ele>262</ele>
        <time>2016-03-07T15:59:08Z</time>
      </trkpt>
      <trkpt lat="48.21792" lon="-3.12488">
        <ele>262</ele>
        <time>2016-03-07T15:59:11Z</time>
      </trkpt>
      <trkpt lat="48.2179" lon="-3.12491">
        <ele>262</ele>
        <time>2016-03-07T15:59:13Z</time>
      </trkpt>
      <trkpt lat="48.21789" lon="-3.12494">
        <ele>262</ele>
        <time>2016-03-07T15:59:15Z</time>
      </trkpt>
      <trkpt lat="48.21787" lon="-3.12499">
        <ele>262</ele>
        <time>2016-03-07T15:59:18Z</time>
      </trkpt>
      <trkpt lat="48.21784" lon="-3.12504">
        <ele>262</ele>
        <time>2016-03-07T15:59:21Z</time>
      </trkpt>
      <trkpt lat="48.21782" lon="-3.12507">
        <ele>262</ele>
        <time>2016-03-07T15:59:23Z</time>
      </trkpt>
      <trkpt lat="48.2178" lon="-3.12511">
        <ele>262</ele>
        <time>2016-03-07T15:59:25Z</time>
      </trkpt>
      <trkpt lat="48.21779" lon="-3.12514">
        <ele>261</ele>
        <time>2016-03-07T15:59:27Z</time>
      </trkpt>
      <trkpt lat="48.21777" lon="-3.12517">
        <ele>261</ele>
        <time>2016-03-07T15:59:29Z</time>
      </trkpt>
      <trkpt lat="48.21774" lon="-3.12523">
        <ele>261</ele>
        <time>2016-03-07T15:59:32Z</time>
      </trkpt>
      <trkpt lat="48.21772" lon="-3.12526">
        <ele>261</ele>
        <time>2016-03-07T15:59:34Z</time>
      </trkpt>
      <trkpt lat="48.21771" lon="-3.12529">
        <ele>262</ele>
        <time>2016-03-07T15:59:36Z</time>
      </trkpt>
      <trkpt lat="48.21769" lon="-3.12533">
        <ele>262</ele>
        <time>2016-03-07T15:59:38Z</time>
      </trkpt>
      <trkpt lat="48.21767" lon="-3.12537">
        <ele>261</ele>
        <time>2016-03-07T15:59:41Z</time>
      </trkpt>
      <trkpt lat="48.21766" lon="-3.1254">
        <ele>261</ele>
        <time>2016-03-07T15:59:43Z</time>
      </trkpt>
      <trkpt lat="48.21764" lon="-3.12545">
        <ele>261</ele>
        <time>2016-03-07T15:59:46Z</time>
      </trkpt>
      <trkpt lat="48.21762" lon="-3.12548">
        <ele>261</ele>
        <time>2016-03-07T15:59:48Z</time>
      </trkpt>
      <trkpt lat="48.21761" lon="-3.12551">
        <ele>261</ele>
        <time>2016-03-07T15:59:50Z</time>
      </trkpt>
      <trkpt lat="48.21759" lon="-3.12556">
        <ele>261</ele>
        <time>2016-03-07T15:59:53Z</time>
      </trkpt>
      <trkpt lat="48.21758" lon="-3.1256">
        <ele>261</ele>
        <time>2016-03-07T15:59:55Z</time>
      </trkpt>
      <trkpt lat="48.21756" lon="-3.12563">
        <ele>261</ele>
        <time>2016-03-07T15:59:57Z</time>
      </trkpt>
      <trkpt lat="48.21754" lon="-3.12568">
        <ele>261</ele>
        <time>2016-03-07T16:00:00Z</time>
      </trkpt>
      <trkpt lat="48.21753" lon="-3.12572">
        <ele>261</ele>
        <time>2016-03-07T16:00:02Z</time>
      </trkpt>
      <trkpt lat="48.21751" lon="-3.12576">
        <ele>261</ele>
        <time>2016-03-07T16:00:04Z</time>
      </trkpt>
      <trkpt lat="48.2175" lon="-3.12578">
        <ele>261</ele>
        <time>2016-03-07T16:00:06Z</time>
      </trkpt>
      <trkpt lat="48.21748" lon="-3.12581">
        <ele>261</ele>
        <time>2016-03-07T16:00:08Z</time>
      </trkpt>
      <trkpt lat="48.21746" lon="-3.12586">
        <ele>261</ele>
        <time>2016-03-07T16:00:11Z</time>
      </trkpt>
      <trkpt lat="48.21745" lon="-3.12592">
        <ele>261</ele>
        <time>2016-03-07T16:00:14Z</time>
      </trkpt>
      <trkpt lat="48.21742" lon="-3.12597">
        <ele>261</ele>
        <time>2016-03-07T16:00:17Z</time>
      </trkpt>
      <trkpt lat="48.2174" lon="-3.126">
        <ele>261</ele>
        <time>2016-03-07T16:00:19Z</time>
      </trkpt>
      <trkpt lat="48.21739" lon="-3.12603">
        <ele>261</ele>
        <time>2016-03-07T16:00:21Z</time>
      </trkpt>
      <trkpt lat="48.21737" lon="-3.12608">
        <ele>261</ele>
        <time>2016-03-07T16:00:24Z</time>
      </trkpt>
      <trkpt lat="48.21735" lon="-3.12611">
        <ele>260</ele>
        <time>2016-03-07T16:00:26Z</time>
      </trkpt>
      <trkpt lat="48.21733" lon="-3.12615">
        <ele>260</ele>
        <time>2016-03-07T16:00:29Z</time>
      </trkpt>
      <trkpt lat="48.2173" lon="-3.12619">
        <ele>260</ele>
        <time>2016-03-07T16:00:32Z</time>
      </trkpt>
      <trkpt lat="48.21728" lon="-3.12624">
        <ele>260</ele>
        <time>2016-03-07T16:00:35Z</time>
      </trkpt>
      <trkpt lat="48.21726" lon="-3.12629">
        <ele>260</ele>
        <time>2016-03-07T16:00:38Z</time>
      </trkpt>
      <trkpt lat="48.21723" lon="-3.12634">
        <ele>260</ele>
        <time>2016-03-07T16:00:41Z</time>
      </trkpt>
      <trkpt lat="48.21722" lon="-3.12636">
        <ele>260</ele>
        <time>2016-03-07T16:00:43Z</time>
      </trkpt>
      <trkpt lat="48.2172" lon="-3.1264">
        <ele>260</ele>
        <time>2016-03-07T16:00:46Z</time>
      </trkpt>
      <trkpt lat="48.21718" lon="-3.12645">
        <ele>260</ele>
        <time>2016-03-07T16:00:49Z</time>
      </trkpt>
      <trkpt lat="48.21717" lon="-3.12649">
        <ele>260</ele>
        <time>2016-03-07T16:00:52Z</time>
      </trkpt>
      <trkpt lat="48.21715" lon="-3.12653">
        <ele>260</ele>
        <time>2016-03-07T16:00:55Z</time>
      </trkpt>
      <trkpt lat="48.21714" lon="-3.12656">
        <ele>259</ele>
        <time>2016-03-07T16:00:57Z</time>
      </trkpt>
      <trkpt lat="48.21712" lon="-3.1266">
        <ele>259</ele>
        <time>2016-03-07T16:00:59Z</time>
      </trkpt>
      <trkpt lat="48.21711" lon="-3.12665">
        <ele>259</ele>
        <time>2016-03-07T16:01:02Z</time>
      </trkpt>
      <trkpt lat="48.21709" lon="-3.12667">
        <ele>259</ele>
        <time>2016-03-07T16:01:04Z</time>
      </trkpt>
      <trkpt lat="48.21707" lon="-3.12671">
        <ele>259</ele>
        <time>2016-03-07T16:01:07Z</time>
      </trkpt>
      <trkpt lat="48.21705" lon="-3.12676">
        <ele>259</ele>
        <time>2016-03-07T16:01:10Z</time>
      </trkpt>
      <trkpt lat="48.21703" lon="-3.1268">
        <ele>260</ele>
        <time>2016-03-07T16:01:12Z</time>
      </trkpt>
      <trkpt lat="48.21701" lon="-3.12684">
        <ele>259</ele>
        <time>2016-03-07T16:01:15Z</time>
      </trkpt>
      <trkpt lat="48.217" lon="-3.12689">
        <ele>259</ele>
        <time>2016-03-07T16:01:18Z</time>
      </trkpt>
      <trkpt lat="48.21698" lon="-3.12694">
        <ele>259</ele>
        <time>2016-03-07T16:01:21Z</time>
      </trkpt>
      <trkpt lat="48.21697" lon="-3.12697">
        <ele>259</ele>
        <time>2016-03-07T16:01:23Z</time>
      </trkpt>
      <trkpt lat="48.21696" lon="-3.12702">
        <ele>259</ele>
        <time>2016-03-07T16:01:26Z</time>
      </trkpt>
      <trkpt lat="48.21695" lon="-3.12706">
        <ele>259</ele>
        <time>2016-03-07T16:01:28Z</time>
      </trkpt>
      <trkpt lat="48.21693" lon="-3.12709">
        <ele>259</ele>
        <time>2016-03-07T16:01:30Z</time>
      </trkpt>
      <trkpt lat="48.21693" lon="-3.12713">
        <ele>259</ele>
        <time>2016-03-07T16:01:32Z</time>
      </trkpt>
      <trkpt lat="48.21691" lon="-3.12718">
        <ele>259</ele>
        <time>2016-03-07T16:01:35Z</time>
      </trkpt>
      <trkpt lat="48.21689" lon="-3.12722">
        <ele>259</ele>
        <time>2016-03-07T16:01:37Z</time>
      </trkpt>
      <trkpt lat="48.21688" lon="-3.12726">
        <ele>259</ele>
        <time>2016-03-07T16:01:39Z</time>
      </trkpt>
      <trkpt lat="48.21686" lon="-3.12731">
        <ele>259</ele>
        <time>2016-03-07T16:01:42Z</time>
      </trkpt>
      <trkpt lat="48.21685" lon="-3.12735">
        <ele>259</ele>
        <time>2016-03-07T16:01:44Z</time>
      </trkpt>
      <trkpt lat="48.21684" lon="-3.1274">
        <ele>259</ele>
        <time>2016-03-07T16:01:47Z</time>
      </trkpt>
      <trkpt lat="48.21682" lon="-3.12745">
        <ele>259</ele>
        <time>2016-03-07T16:01:50Z</time>
      </trkpt>
      <trkpt lat="48.2168" lon="-3.1275">
        <ele>259</ele>
        <time>2016-03-07T16:01:53Z</time>
      </trkpt>
      <trkpt lat="48.21679" lon="-3.12754">
        <ele>258</ele>
        <time>2016-03-07T16:01:55Z</time>
      </trkpt>
      <trkpt lat="48.21678" lon="-3.12757">
        <ele>259</ele>
        <time>2016-03-07T16:01:57Z</time>
      </trkpt>
      <trkpt lat="48.21676" lon="-3.12762">
        <ele>258</ele>
        <time>2016-03-07T16:02:00Z</time>
      </trkpt>
      <trkpt lat="48.21674" lon="-3.12768">
        <ele>259</ele>
        <time>2016-03-07T16:02:03Z</time>
      </trkpt>
      <trkpt lat="48.21672" lon="-3.12772">
        <ele>259</ele>
        <time>2016-03-07T16:02:05Z</time>
      </trkpt>
      <trkpt lat="48.21671" lon="-3.12775">
        <ele>258</ele>
        <time>2016-03-07T16:02:07Z</time>
      </trkpt>
      <trkpt lat="48.21669" lon="-3.1278">
        <ele>258</ele>
        <time>2016-03-07T16:02:10Z</time>
      </trkpt>
      <trkpt lat="48.21667" lon="-3.12783">
        <ele>258</ele>
        <time>2016-03-07T16:02:12Z</time>
      </trkpt>
      <trkpt lat="48.21666" lon="-3.12787">
        <ele>258</ele>
        <time>2016-03-07T16:02:14Z</time>
      </trkpt>
      <trkpt lat="48.21664" lon="-3.12791">
        <ele>258</ele>
        <time>2016-03-07T16:02:17Z</time>
      </trkpt>
      <trkpt lat="48.21662" lon="-3.12795">
        <ele>258</ele>
        <time>2016-03-07T16:02:19Z</time>
      </trkpt>
      <trkpt lat="48.2166" lon="-3.12799">
        <ele>258</ele>
        <time>2016-03-07T16:02:22Z</time>
      </trkpt>
      <trkpt lat="48.21658" lon="-3.12804">
        <ele>258</ele>
        <time>2016-03-07T16:02:25Z</time>
      </trkpt>
      <trkpt lat="48.21656" lon="-3.12807">
        <ele>257</ele>
        <time>2016-03-07T16:02:28Z</time>
      </trkpt>
      <trkpt lat="48.21653" lon="-3.12812">
        <ele>257</ele>
        <time>2016-03-07T16:02:31Z</time>
      </trkpt>
      <trkpt lat="48.21651" lon="-3.12815">
        <ele>257</ele>
        <time>2016-03-07T16:02:33Z</time>
      </trkpt>
      <trkpt lat="48.21648" lon="-3.12819">
        <ele>258</ele>
        <time>2016-03-07T16:02:36Z</time>
      </trkpt>
      <trkpt lat="48.21646" lon="-3.12822">
        <ele>257</ele>
        <time>2016-03-07T16:02:38Z</time>
      </trkpt>
      <trkpt lat="48.21645" lon="-3.12824">
        <ele>257</ele>
        <time>2016-03-07T16:02:40Z</time>
      </trkpt>
      <trkpt lat="48.21643" lon="-3.12827">
        <ele>257</ele>
        <time>2016-03-07T16:02:42Z</time>
      </trkpt>
      <trkpt lat="48.21641" lon="-3.1283">
        <ele>258</ele>
        <time>2016-03-07T16:02:45Z</time>
      </trkpt>
      <trkpt lat="48.21639" lon="-3.12834">
        <ele>258</ele>
        <time>2016-03-07T16:02:48Z</time>
      </trkpt>
      <trkpt lat="48.21638" lon="-3.12836">
        <ele>258</ele>
        <time>2016-03-07T16:02:50Z</time>
      </trkpt>
      <trkpt lat="48.21635" lon="-3.1284">
        <ele>258</ele>
        <time>2016-03-07T16:02:53Z</time>
      </trkpt>
      <trkpt lat="48.21633" lon="-3.12843">
        <ele>258</ele>
        <time>2016-03-07T16:02:55Z</time>
      </trkpt>
      <trkpt lat="48.21631" lon="-3.12846">
        <ele>257</ele>
        <time>2016-03-07T16:02:57Z</time>
      </trkpt>
      <trkpt lat="48.21628" lon="-3.12849">
        <ele>257</ele>
        <time>2016-03-07T16:03:00Z</time>
      </trkpt>
      <trkpt lat="48.21626" lon="-3.12852">
        <ele>257</ele>
        <time>2016-03-07T16:03:02Z</time>
      </trkpt>
      <trkpt lat="48.21623" lon="-3.12856">
        <ele>257</ele>
        <time>2016-03-07T16:03:05Z</time>
      </trkpt>
      <trkpt lat="48.21621" lon="-3.12858">
        <ele>257</ele>
        <time>2016-03-07T16:03:07Z</time>
      </trkpt>
      <trkpt lat="48.21619" lon="-3.12861">
        <ele>257</ele>
        <time>2016-03-07T16:03:09Z</time>
      </trkpt>
      <trkpt lat="48.21617" lon="-3.12863">
        <ele>257</ele>
        <time>2016-03-07T16:03:11Z</time>
      </trkpt>
      <trkpt lat="48.21615" lon="-3.12865">
        <ele>257</ele>
        <time>2016-03-07T16:03:13Z</time>
      </trkpt>
      <trkpt lat="48.21613" lon="-3.12868">
        <ele>257</ele>
        <time>2016-03-07T16:03:15Z</time>
      </trkpt>
      <trkpt lat="48.2161" lon="-3.12872">
        <ele>257</ele>
        <time>2016-03-07T16:03:18Z</time>
      </trkpt>
      <trkpt lat="48.21608" lon="-3.12873">
        <ele>257</ele>
        <time>2016-03-07T16:03:20Z</time>
      </trkpt>
      <trkpt lat="48.21606" lon="-3.12875">
        <ele>257</ele>
        <time>2016-03-07T16:03:22Z</time>
      </trkpt>
      <trkpt lat="48.21604" lon="-3.12875">
        <ele>257</ele>
        <time>2016-03-07T16:03:24Z</time>
      </trkpt>
      <trkpt lat="48.21603" lon="-3.12876">
        <ele>257</ele>
        <time>2016-03-07T16:03:26Z</time>
      </trkpt>
      <trkpt lat="48.21601" lon="-3.12873">
        <ele>256</ele>
        <time>2016-03-07T16:03:29Z</time>
      </trkpt>
      <trkpt lat="48.216" lon="-3.12872">
        <ele>256</ele>
        <time>2016-03-07T16:03:31Z</time>
      </trkpt>
      <trkpt lat="48.216" lon="-3.12868">
        <ele>255</ele>
        <time>2016-03-07T16:03:34Z</time>
      </trkpt>
      <trkpt lat="48.216" lon="-3.12865">
        <ele>255</ele>
        <time>2016-03-07T16:03:36Z</time>
      </trkpt>
      <trkpt lat="48.21601" lon="-3.12863">
        <ele>255</ele>
        <time>2016-03-07T16:03:38Z</time>
      </trkpt>
      <trkpt lat="48.21601" lon="-3.12859">
        <ele>255</ele>
        <time>2016-03-07T16:03:41Z</time>
      </trkpt>
      <trkpt lat="48.21602" lon="-3.12857">
        <ele>255</ele>
        <time>2016-03-07T16:03:43Z</time>
      </trkpt>
      <trkpt lat="48.21602" lon="-3.12854">
        <ele>254</ele>
        <time>2016-03-07T16:03:45Z</time>
      </trkpt>
      <trkpt lat="48.21603" lon="-3.12851">
        <ele>254</ele>
        <time>2016-03-07T16:03:47Z</time>
      </trkpt>
      <trkpt lat="48.21604" lon="-3.12846">
        <ele>253</ele>
        <time>2016-03-07T16:03:50Z</time>
      </trkpt>
      <trkpt lat="48.21605" lon="-3.12843">
        <ele>253</ele>
        <time>2016-03-07T16:03:52Z</time>
      </trkpt>
      <trkpt lat="48.21605" lon="-3.12841">
        <ele>252</ele>
        <time>2016-03-07T16:03:54Z</time>
      </trkpt>
      <trkpt lat="48.21606" lon="-3.12836">
        <ele>252</ele>
        <time>2016-03-07T16:03:57Z</time>
      </trkpt>
      <trkpt lat="48.21606" lon="-3.12833">
        <ele>252</ele>
        <time>2016-03-07T16:03:59Z</time>
      </trkpt>
      <trkpt lat="48.21606" lon="-3.12829">
        <ele>251</ele>
        <time>2016-03-07T16:04:01Z</time>
      </trkpt>
      <trkpt lat="48.21606" lon="-3.12825">
        <ele>251</ele>
        <time>2016-03-07T16:04:04Z</time>
      </trkpt>
      <trkpt lat="48.21605" lon="-3.12821">
        <ele>251</ele>
        <time>2016-03-07T16:04:06Z</time>
      </trkpt>
      <trkpt lat="48.21604" lon="-3.12817">
        <ele>251</ele>
        <time>2016-03-07T16:04:09Z</time>
      </trkpt>
      <trkpt lat="48.21603" lon="-3.12814">
        <ele>251</ele>
        <time>2016-03-07T16:04:11Z</time>
      </trkpt>
      <trkpt lat="48.21601" lon="-3.12811">
        <ele>250</ele>
        <time>2016-03-07T16:04:13Z</time>
      </trkpt>
      <trkpt lat="48.21599" lon="-3.12809">
        <ele>250</ele>
        <time>2016-03-07T16:04:15Z</time>
      </trkpt>
      <trkpt lat="48.21597" lon="-3.12806">
        <ele>249</ele>
        <time>2016-03-07T16:04:18Z</time>
      </trkpt>
      <trkpt lat="48.21595" lon="-3.12804">
        <ele>249</ele>
        <time>2016-03-07T16:04:20Z</time>
      </trkpt>
      <trkpt lat="48.21591" lon="-3.12802">
        <ele>249</ele>
        <time>2016-03-07T16:04:23Z</time>
      </trkpt>
      <trkpt lat="48.21589" lon="-3.12801">
        <ele>248</ele>
        <time>2016-03-07T16:04:25Z</time>
      </trkpt>
      <trkpt lat="48.21585" lon="-3.128">
        <ele>248</ele>
        <time>2016-03-07T16:04:28Z</time>
      </trkpt>
      <trkpt lat="48.21582" lon="-3.128">
        <ele>247</ele>
        <time>2016-03-07T16:04:31Z</time>
      </trkpt>
      <trkpt lat="48.21578" lon="-3.12799">
        <ele>246</ele>
        <time>2016-03-07T16:04:34Z</time>
      </trkpt>
      <trkpt lat="48.21575" lon="-3.12799">
        <ele>246</ele>
        <time>2016-03-07T16:04:36Z</time>
      </trkpt>
      <trkpt lat="48.21572" lon="-3.128">
        <ele>246</ele>
        <time>2016-03-07T16:04:39Z</time>
      </trkpt>
      <trkpt lat="48.21568" lon="-3.12799">
        <ele>246</ele>
        <time>2016-03-07T16:04:42Z</time>
      </trkpt>
      <trkpt lat="48.21565" lon="-3.12799">
        <ele>245</ele>
        <time>2016-03-07T16:04:45Z</time>
      </trkpt>
      <trkpt lat="48.21562" lon="-3.12799">
        <ele>245</ele>
        <time>2016-03-07T16:04:47Z</time>
      </trkpt>
      <trkpt lat="48.2156" lon="-3.12799">
        <ele>245</ele>
        <time>2016-03-07T16:04:49Z</time>
      </trkpt>
      <trkpt lat="48.21557" lon="-3.12799">
        <ele>245</ele>
        <time>2016-03-07T16:04:51Z</time>
      </trkpt>
      <trkpt lat="48.21554" lon="-3.12798">
        <ele>245</ele>
        <time>2016-03-07T16:04:53Z</time>
      </trkpt>
      <trkpt lat="48.2155" lon="-3.12798">
        <ele>245</ele>
        <time>2016-03-07T16:04:56Z</time>
      </trkpt>
      <trkpt lat="48.21546" lon="-3.12798">
        <ele>244</ele>
        <time>2016-03-07T16:04:59Z</time>
      </trkpt>
      <trkpt lat="48.21544" lon="-3.12798">
        <ele>244</ele>
        <time>2016-03-07T16:05:01Z</time>
      </trkpt>
      <trkpt lat="48.21541" lon="-3.12798">
        <ele>244</ele>
        <time>2016-03-07T16:05:03Z</time>
      </trkpt>
      <trkpt lat="48.21537" lon="-3.12798">
        <ele>244</ele>
        <time>2016-03-07T16:05:06Z</time>
      </trkpt>
      <trkpt lat="48.21534" lon="-3.12797">
        <ele>244</ele>
        <time>2016-03-07T16:05:08Z</time>
      </trkpt>
      <trkpt lat="48.2153" lon="-3.12797">
        <ele>243</ele>
        <time>2016-03-07T16:05:11Z</time>
      </trkpt>
      <trkpt lat="48.21528" lon="-3.12797">
        <ele>243</ele>
        <time>2016-03-07T16:05:13Z</time>
      </trkpt>
      <trkpt lat="48.21524" lon="-3.12797">
        <ele>243</ele>
        <time>2016-03-07T16:05:16Z</time>
      </trkpt>
      <trkpt lat="48.2152" lon="-3.12797">
        <ele>243</ele>
        <time>2016-03-07T16:05:19Z</time>
      </trkpt>
      <trkpt lat="48.21516" lon="-3.12797">
        <ele>243</ele>
        <time>2016-03-07T16:05:22Z</time>
      </trkpt>
      <trkpt lat="48.21512" lon="-3.12797">
        <ele>243</ele>
        <time>2016-03-07T16:05:25Z</time>
      </trkpt>
      <trkpt lat="48.21508" lon="-3.12797">
        <ele>243</ele>
        <time>2016-03-07T16:05:28Z</time>
      </trkpt>
      <trkpt lat="48.21505" lon="-3.12797">
        <ele>243</ele>
        <time>2016-03-07T16:05:31Z</time>
      </trkpt>
      <trkpt lat="48.21502" lon="-3.12797">
        <ele>243</ele>
        <time>2016-03-07T16:05:33Z</time>
      </trkpt>
      <trkpt lat="48.215" lon="-3.12797">
        <ele>243</ele>
        <time>2016-03-07T16:05:35Z</time>
      </trkpt>
      <trkpt lat="48.21496" lon="-3.12797">
        <ele>243</ele>
        <time>2016-03-07T16:05:38Z</time>
      </trkpt>
      <trkpt lat="48.21494" lon="-3.12797">
        <ele>243</ele>
        <time>2016-03-07T16:05:40Z</time>
      </trkpt>
      <trkpt lat="48.21491" lon="-3.12797">
        <ele>243</ele>
        <time>2016-03-07T16:05:42Z</time>
      </trkpt>
      <trkpt lat="48.21489" lon="-3.12797">
        <ele>243</ele>
        <time>2016-03-07T16:05:44Z</time>
      </trkpt>
      <trkpt lat="48.21485" lon="-3.12796">
        <ele>243</ele>
        <time>2016-03-07T16:05:47Z</time>
      </trkpt>
      <trkpt lat="48.21483" lon="-3.12796">
        <ele>242</ele>
        <time>2016-03-07T16:05:49Z</time>
      </trkpt>
      <trkpt lat="48.21479" lon="-3.12796">
        <ele>242</ele>
        <time>2016-03-07T16:05:52Z</time>
      </trkpt>
      <trkpt lat="48.21477" lon="-3.12796">
        <ele>241</ele>
        <time>2016-03-07T16:05:54Z</time>
      </trkpt>
      <trkpt lat="48.21476" lon="-3.12796">
        <ele>241</ele>
        <time>2016-03-07T16:05:56Z</time>
      </trkpt>
      <trkpt lat="48.21472" lon="-3.12796">
        <ele>241</ele>
        <time>2016-03-07T16:05:59Z</time>
      </trkpt>
      <trkpt lat="48.21469" lon="-3.12796">
        <ele>240</ele>
        <time>2016-03-07T16:06:01Z</time>
      </trkpt>
      <trkpt lat="48.21467" lon="-3.12796">
        <ele>240</ele>
        <time>2016-03-07T16:06:03Z</time>
      </trkpt>
      <trkpt lat="48.21464" lon="-3.12796">
        <ele>240</ele>
        <time>2016-03-07T16:06:06Z</time>
      </trkpt>
      <trkpt lat="48.21461" lon="-3.12797">
        <ele>240</ele>
        <time>2016-03-07T16:06:08Z</time>
      </trkpt>
      <trkpt lat="48.2146" lon="-3.12797">
        <ele>239</ele>
        <time>2016-03-07T16:06:10Z</time>
      </trkpt>
      <trkpt lat="48.21458" lon="-3.12797">
        <ele>239</ele>
        <time>2016-03-07T16:06:12Z</time>
      </trkpt>
      <trkpt lat="48.21456" lon="-3.12797">
        <ele>239</ele>
        <time>2016-03-07T16:06:15Z</time>
      </trkpt>
      <trkpt lat="48.21453" lon="-3.12797">
        <ele>239</ele>
        <time>2016-03-07T16:06:18Z</time>
      </trkpt>
      <trkpt lat="48.2145" lon="-3.12798">
        <ele>239</ele>
        <time>2016-03-07T16:06:21Z</time>
      </trkpt>
      <trkpt lat="48.21446" lon="-3.12799">
        <ele>239</ele>
        <time>2016-03-07T16:06:24Z</time>
      </trkpt>
      <trkpt lat="48.21443" lon="-3.12799">
        <ele>239</ele>
        <time>2016-03-07T16:06:26Z</time>
      </trkpt>
      <trkpt lat="48.2144" lon="-3.12798">
        <ele>239</ele>
        <time>2016-03-07T16:06:29Z</time>
      </trkpt>
      <trkpt lat="48.21437" lon="-3.12796">
        <ele>239</ele>
        <time>2016-03-07T16:06:31Z</time>
      </trkpt>
      <trkpt lat="48.21435" lon="-3.12795">
        <ele>239</ele>
        <time>2016-03-07T16:06:33Z</time>
      </trkpt>
      <trkpt lat="48.21432" lon="-3.12795">
        <ele>239</ele>
        <time>2016-03-07T16:06:36Z</time>
      </trkpt>
      <trkpt lat="48.2143" lon="-3.12795">
        <ele>239</ele>
        <time>2016-03-07T16:06:38Z</time>
      </trkpt>
      <trkpt lat="48.21426" lon="-3.12796">
        <ele>239</ele>
        <time>2016-03-07T16:06:41Z</time>
      </trkpt>
      <trkpt lat="48.21424" lon="-3.12797">
        <ele>239</ele>
        <time>2016-03-07T16:06:43Z</time>
      </trkpt>
      <trkpt lat="48.21421" lon="-3.12797">
        <ele>239</ele>
        <time>2016-03-07T16:06:46Z</time>
      </trkpt>
      <trkpt lat="48.21417" lon="-3.12796">
        <ele>239</ele>
        <time>2016-03-07T16:06:49Z</time>
      </trkpt>
      <trkpt lat="48.21415" lon="-3.12797">
        <ele>238</ele>
        <time>2016-03-07T16:06:51Z</time>
      </trkpt>
      <trkpt lat="48.21412" lon="-3.12797">
        <ele>239</ele>
        <time>2016-03-07T16:06:53Z</time>
      </trkpt>
      <trkpt lat="48.2141" lon="-3.12797">
        <ele>238</ele>
        <time>2016-03-07T16:06:55Z</time>
      </trkpt>
      <trkpt lat="48.21406" lon="-3.12798">
        <ele>238</ele>
        <time>2016-03-07T16:06:58Z</time>
      </trkpt>
      <trkpt lat="48.21402" lon="-3.12799">
        <ele>238</ele>
        <time>2016-03-07T16:07:01Z</time>
      </trkpt>
      <trkpt lat="48.21397" lon="-3.12799">
        <ele>238</ele>
        <time>2016-03-07T16:07:04Z</time>
      </trkpt>
      <trkpt lat="48.21394" lon="-3.12799">
        <ele>238</ele>
        <time>2016-03-07T16:07:06Z</time>
      </trkpt>
      <trkpt lat="48.21392" lon="-3.128">
        <ele>238</ele>
        <time>2016-03-07T16:07:08Z</time>
      </trkpt>
      <trkpt lat="48.21388" lon="-3.12802">
        <ele>238</ele>
        <time>2016-03-07T16:07:11Z</time>
      </trkpt>
      <trkpt lat="48.21385" lon="-3.12804">
        <ele>238</ele>
        <time>2016-03-07T16:07:13Z</time>
      </trkpt>
      <trkpt lat="48.21382" lon="-3.12805">
        <ele>238</ele>
        <time>2016-03-07T16:07:15Z</time>
      </trkpt>
      <trkpt lat="48.2138" lon="-3.12807">
        <ele>238</ele>
        <time>2016-03-07T16:07:17Z</time>
      </trkpt>
      <trkpt lat="48.21378" lon="-3.12808">
        <ele>238</ele>
        <time>2016-03-07T16:07:19Z</time>
      </trkpt>
      <trkpt lat="48.21375" lon="-3.12809">
        <ele>238</ele>
        <time>2016-03-07T16:07:21Z</time>
      </trkpt>
      <trkpt lat="48.21372" lon="-3.12811">
        <ele>238</ele>
        <time>2016-03-07T16:07:24Z</time>
      </trkpt>
      <trkpt lat="48.2137" lon="-3.12812">
        <ele>238</ele>
        <time>2016-03-07T16:07:26Z</time>
      </trkpt>
      <trkpt lat="48.21368" lon="-3.12813">
        <ele>238</ele>
        <time>2016-03-07T16:07:28Z</time>
      </trkpt>
      <trkpt lat="48.21365" lon="-3.12815">
        <ele>238</ele>
        <time>2016-03-07T16:07:31Z</time>
      </trkpt>
      <trkpt lat="48.21362" lon="-3.12817">
        <ele>238</ele>
        <time>2016-03-07T16:07:33Z</time>
      </trkpt>
      <trkpt lat="48.2136" lon="-3.12818">
        <ele>238</ele>
        <time>2016-03-07T16:07:35Z</time>
      </trkpt>
      <trkpt lat="48.21357" lon="-3.1282">
        <ele>238</ele>
        <time>2016-03-07T16:07:37Z</time>
      </trkpt>
      <trkpt lat="48.21354" lon="-3.12823">
        <ele>238</ele>
        <time>2016-03-07T16:07:40Z</time>
      </trkpt>
      <trkpt lat="48.21352" lon="-3.12825">
        <ele>238</ele>
        <time>2016-03-07T16:07:42Z</time>
      </trkpt>
      <trkpt lat="48.21349" lon="-3.12828">
        <ele>238</ele>
        <time>2016-03-07T16:07:45Z</time>
      </trkpt>
      <trkpt lat="48.21347" lon="-3.12829">
        <ele>237</ele>
        <time>2016-03-07T16:07:47Z</time>
      </trkpt>
      <trkpt lat="48.21345" lon="-3.12831">
        <ele>237</ele>
        <time>2016-03-07T16:07:49Z</time>
      </trkpt>
      <trkpt lat="48.21342" lon="-3.12834">
        <ele>238</ele>
        <time>2016-03-07T16:07:52Z</time>
      </trkpt>
      <trkpt lat="48.21339" lon="-3.12836">
        <ele>238</ele>
        <time>2016-03-07T16:07:55Z</time>
      </trkpt>
      <trkpt lat="48.21336" lon="-3.12839">
        <ele>238</ele>
        <time>2016-03-07T16:07:58Z</time>
      </trkpt>
      <trkpt lat="48.21334" lon="-3.12842">
        <ele>238</ele>
        <time>2016-03-07T16:08:00Z</time>
      </trkpt>
      <trkpt lat="48.21333" lon="-3.12843">
        <ele>238</ele>
        <time>2016-03-07T16:08:02Z</time>
      </trkpt>
      <trkpt lat="48.21331" lon="-3.12845">
        <ele>238</ele>
        <time>2016-03-07T16:08:04Z</time>
      </trkpt>
      <trkpt lat="48.21329" lon="-3.12847">
        <ele>238</ele>
        <time>2016-03-07T16:08:07Z</time>
      </trkpt>
      <trkpt lat="48.21327" lon="-3.12846">
        <ele>238</ele>
        <time>2016-03-07T16:08:10Z</time>
      </trkpt>
      <trkpt lat="48.21326" lon="-3.12844">
        <ele>238</ele>
        <time>2016-03-07T16:08:12Z</time>
      </trkpt>
      <trkpt lat="48.21324" lon="-3.12843">
        <ele>238</ele>
        <time>2016-03-07T16:08:14Z</time>
      </trkpt>
      <trkpt lat="48.21322" lon="-3.1284">
        <ele>238</ele>
        <time>2016-03-07T16:08:17Z</time>
      </trkpt>
      <trkpt lat="48.21321" lon="-3.12837">
        <ele>239</ele>
        <time>2016-03-07T16:08:19Z</time>
      </trkpt>
      <trkpt lat="48.21321" lon="-3.12834">
        <ele>238</ele>
        <time>2016-03-07T16:08:21Z</time>
      </trkpt>
      <trkpt lat="48.21323" lon="-3.12831">
        <ele>239</ele>
        <time>2016-03-07T16:08:24Z</time>
      </trkpt>
      <trkpt lat="48.21324" lon="-3.12829">
        <ele>238</ele>
        <time>2016-03-07T16:08:26Z</time>
      </trkpt>
      <trkpt lat="48.21324" lon="-3.12828">
        <ele>238</ele>
        <time>2016-03-07T16:08:27Z</time>
      </trkpt>
    </trkseg>
  </trk>
</gpx>